<?xml version='1.0' encoding='UTF-8'?><gpx version="1.1" creator="JPX - https://github.com/jenetics/jpx" xmlns="http://www.topografix.com/GPX/1/1"><trk><trkseg><trkpt lat="43.51861455625535" lon="11.574927285366343"><ele>152.0</ele><time>2026-03-29T12:59:00.981Z</time></trkpt><trkpt lat="43.51861198944443" lon="11.575022364714206"><ele>152.0</ele><time>2026-03-29T12:59:06.774Z</time></trkpt><trkpt lat="43.51865822903928" lon="11.574918566125282"><ele>152.0</ele><time>2026-03-29T12:59:19.242Z</time></trkpt><trkpt lat="43.51870999759431" lon="11.574851727010891"><ele>152.0</ele><time>2026-03-29T12:59:21.243Z</time></trkpt><trkpt lat="43.518794046229004" lon="11.574916636444982"><ele>152.0</ele><time>2026-03-29T12:59:23.996Z</time></trkpt><trkpt lat="43.51885489832888" lon="11.57496847267309"><ele>152.0</ele><time>2026-03-29T12:59:25.997Z</time></trkpt><trkpt lat="43.51893109607105" lon="11.57490401666065"><ele>151.83333333333331</ele><time>2026-03-29T12:59:28.997Z</time></trkpt><trkpt lat="43.518971350046726" lon="11.574796711397445"><ele>151.66666666666666</ele><time>2026-03-29T12:59:29.997Z</time></trkpt><trkpt lat="43.518995365391376" lon="11.574711750435968"><ele>151.5</ele><time>2026-03-29T12:59:30.998Z</time></trkpt><trkpt lat="43.5190290678619" lon="11.574543383829992"><ele>151.33333333333334</ele><time>2026-03-29T12:59:32.998Z</time></trkpt><trkpt lat="43.51904564074174" lon="11.574441400306489"><ele>151.16666666666669</ele><time>2026-03-29T12:59:33.998Z</time></trkpt><trkpt lat="43.51905754973227" lon="11.574353591516857"><ele>151.0</ele><time>2026-03-29T12:59:34.998Z</time></trkpt><trkpt lat="43.519095436426944" lon="11.574190410095671"><ele>151.0</ele><time>2026-03-29T12:59:36.998Z</time></trkpt><trkpt lat="43.519117129281085" lon="11.574078669132861"><ele>151.0</ele><time>2026-03-29T12:59:37.998Z</time></trkpt><trkpt lat="43.519142795940525" lon="11.573966362140784"><ele>151.0</ele><time>2026-03-29T12:59:38.998Z</time></trkpt><trkpt lat="43.51916941733164" lon="11.57385730242948"><ele>151.0</ele><time>2026-03-29T12:59:39.999Z</time></trkpt><trkpt lat="43.519195578839465" lon="11.573737124389522"><ele>151.0</ele><time>2026-03-29T12:59:40.999Z</time></trkpt><trkpt lat="43.51922120910491" lon="11.573610074382465"><ele>151.0</ele><time>2026-03-29T12:59:41.999Z</time></trkpt><trkpt lat="43.51924783488838" lon="11.573499196577872"><ele>151.0</ele><time>2026-03-29T12:59:42.999Z</time></trkpt><trkpt lat="43.51926997215736" lon="11.573403606247295"><ele>151.0</ele><time>2026-03-29T12:59:43.999Z</time></trkpt><trkpt lat="43.519286204449386" lon="11.573307486753524"><ele>151.0</ele><time>2026-03-29T12:59:44.999Z</time></trkpt><trkpt lat="43.51931104407984" lon="11.57319418304497"><ele>151.0</ele><time>2026-03-29T12:59:45.999Z</time></trkpt><trkpt lat="43.51933704942657" lon="11.5730707439617"><ele>151.0</ele><time>2026-03-29T12:59:46.999Z</time></trkpt><trkpt lat="43.51935351263082" lon="11.572979338207842"><ele>151.0</ele><time>2026-03-29T12:59:47.999Z</time></trkpt><trkpt lat="43.519396984101185" lon="11.572802611988179"><ele>151.0</ele><time>2026-03-29T12:59:49.999Z</time></trkpt><trkpt lat="43.51942542672524" lon="11.57268638162621"><ele>151.0</ele><time>2026-03-29T12:59:50.999Z</time></trkpt><trkpt lat="43.51945603283615" lon="11.57256811745378"><ele>151.0</ele><time>2026-03-29T12:59:51.999Z</time></trkpt><trkpt lat="43.519484008366184" lon="11.572451771719905"><ele>151.0</ele><time>2026-03-29T12:59:52.999Z</time></trkpt><trkpt lat="43.519503206071086" lon="11.572332063824577"><ele>151.0</ele><time>2026-03-29T12:59:53.999Z</time></trkpt><trkpt lat="43.51954395183789" lon="11.57221874072898"><ele>151.0</ele><time>2026-03-29T12:59:54.999Z</time></trkpt><trkpt lat="43.5195580287145" lon="11.57209164600753"><ele>150.8</ele><time>2026-03-29T12:59:55.999Z</time></trkpt><trkpt lat="43.519586942973355" lon="11.571969550725301"><ele>150.6</ele><time>2026-03-29T12:59:56.999Z</time></trkpt><trkpt lat="43.519616869934275" lon="11.57184536576485"><ele>150.4</ele><time>2026-03-29T12:59:57.999Z</time></trkpt><trkpt lat="43.51964906384033" lon="11.571723332092036"><ele>150.2</ele><time>2026-03-29T12:59:58.999Z</time></trkpt><trkpt lat="43.5196754092791" lon="11.571599561871682"><ele>150.0</ele><time>2026-03-29T12:59:59.999Z</time></trkpt><trkpt lat="43.51970599580158" lon="11.571473187863402"><ele>150.0</ele><time>2026-03-29T13:00:00.999Z</time></trkpt><trkpt lat="43.51974131537963" lon="11.571341133546124"><ele>150.0</ele><time>2026-03-29T13:00:01.999Z</time></trkpt><trkpt lat="43.51977700511625" lon="11.571199793228967"><ele>150.0</ele><time>2026-03-29T13:00:02.999Z</time></trkpt><trkpt lat="43.519811658170475" lon="11.571062822359242"><ele>150.0</ele><time>2026-03-29T13:00:03.999Z</time></trkpt><trkpt lat="43.51984455003486" lon="11.570940647820262"><ele>150.0</ele><time>2026-03-29T13:00:04.999Z</time></trkpt><trkpt lat="43.51987974417555" lon="11.570811838248053"><ele>150.4</ele><time>2026-03-29T13:00:05.999Z</time></trkpt><trkpt lat="43.51991221219282" lon="11.570674613729974"><ele>150.8</ele><time>2026-03-29T13:00:06.999Z</time></trkpt><trkpt lat="43.519946536502154" lon="11.570541427419641"><ele>151.2</ele><time>2026-03-29T13:00:07.999Z</time></trkpt><trkpt lat="43.519985132423145" lon="11.570401137994411"><ele>151.6</ele><time>2026-03-29T13:00:08.999Z</time></trkpt><trkpt lat="43.52002431023899" lon="11.570253822431939"><ele>152.0</ele><time>2026-03-29T13:00:09.999Z</time></trkpt><trkpt lat="43.52006255093764" lon="11.570102336148254"><ele>152.0</ele><time>2026-03-29T13:00:10.999Z</time></trkpt><trkpt lat="43.520101317501044" lon="11.569952060070955"><ele>152.0</ele><time>2026-03-29T13:00:11.999Z</time></trkpt><trkpt lat="43.52013957869791" lon="11.569821637861647"><ele>152.0</ele><time>2026-03-29T13:00:12.999Z</time></trkpt><trkpt lat="43.520177177371146" lon="11.569705236451899"><ele>152.0</ele><time>2026-03-29T13:00:13.999Z</time></trkpt><trkpt lat="43.520216326517854" lon="11.569591524650773"><ele>152.0</ele><time>2026-03-29T13:00:14.999Z</time></trkpt><trkpt lat="43.5202548928643" lon="11.569499977142806"><ele>151.79999999999998</ele><time>2026-03-29T13:00:15.999Z</time></trkpt><trkpt lat="43.520292034112515" lon="11.569393645586668"><ele>151.6</ele><time>2026-03-29T13:00:16.999Z</time></trkpt><trkpt lat="43.52032789140903" lon="11.5692790766739"><ele>151.39999999999998</ele><time>2026-03-29T13:00:17.999Z</time></trkpt><trkpt lat="43.52036837515061" lon="11.569167009105408"><ele>151.2</ele><time>2026-03-29T13:00:18.999Z</time></trkpt><trkpt lat="43.52042297372035" lon="11.569063682894827"><ele>151.0</ele><time>2026-03-29T13:00:19.999Z</time></trkpt><trkpt lat="43.52046766104551" lon="11.56893796579003"><ele>151.0</ele><time>2026-03-29T13:00:20.999Z</time></trkpt><trkpt lat="43.52051302271338" lon="11.568810980829603"><ele>151.0</ele><time>2026-03-29T13:00:21.999Z</time></trkpt><trkpt lat="43.52055713378093" lon="11.56868756762745"><ele>151.0</ele><time>2026-03-29T13:00:22.999Z</time></trkpt><trkpt lat="43.52058821491372" lon="11.568570500976387"><ele>151.0</ele><time>2026-03-29T13:00:23.999Z</time></trkpt><trkpt lat="43.520646007743395" lon="11.568484983905277"><ele>151.0</ele><time>2026-03-29T13:00:24.999Z</time></trkpt><trkpt lat="43.520711858802386" lon="11.568388502641607"><ele>150.8</ele><time>2026-03-29T13:00:25.999Z</time></trkpt><trkpt lat="43.520771157394414" lon="11.568288254676412"><ele>150.6</ele><time>2026-03-29T13:00:26.999Z</time></trkpt><trkpt lat="43.5208199818585" lon="11.568202379716855"><ele>150.4</ele><time>2026-03-29T13:00:27.999Z</time></trkpt><trkpt lat="43.520889258389964" lon="11.568059441837596"><ele>150.2</ele><time>2026-03-29T13:00:29.999Z</time></trkpt><trkpt lat="43.52094866530409" lon="11.567936882272228"><ele>150.0</ele><time>2026-03-29T13:00:31.999Z</time></trkpt><trkpt lat="43.52102323347989" lon="11.567798595418166"><ele>150.0</ele><time>2026-03-29T13:00:33.999Z</time></trkpt><trkpt lat="43.52107898311999" lon="11.567676635245967"><ele>150.0</ele><time>2026-03-29T13:00:35.999Z</time></trkpt><trkpt lat="43.5211233775195" lon="11.56760234697678"><ele>150.0</ele><time>2026-03-29T13:00:38.999Z</time></trkpt><trkpt lat="43.521026859218296" lon="11.567500098245882"><ele>150.0</ele><time>2026-03-29T13:00:39.999Z</time></trkpt><trkpt lat="43.52096291152897" lon="11.567470211100238"><ele>150.0</ele><time>2026-03-29T13:00:40.999Z</time></trkpt><trkpt lat="43.52089419436544" lon="11.567444698758042"><ele>150.0</ele><time>2026-03-29T13:00:41.999Z</time></trkpt><trkpt lat="43.52082005439181" lon="11.567407460197506"><ele>150.0</ele><time>2026-03-29T13:00:42.999Z</time></trkpt><trkpt lat="43.520741880197846" lon="11.567380411621455"><ele>150.0</ele><time>2026-03-29T13:00:43.999Z</time></trkpt><trkpt lat="43.520654515064955" lon="11.567349383680138"><ele>150.0</ele><time>2026-03-29T13:00:44.999Z</time></trkpt><trkpt lat="43.52055747824643" lon="11.567309153582023"><ele>150.0</ele><time>2026-03-29T13:00:45.999Z</time></trkpt><trkpt lat="43.5204598931145" lon="11.56727326580989"><ele>150.0</ele><time>2026-03-29T13:00:46.999Z</time></trkpt><trkpt lat="43.520378920954585" lon="11.567234544753576"><ele>149.83333333333334</ele><time>2026-03-29T13:00:47.999Z</time></trkpt><trkpt lat="43.52029694297508" lon="11.567196676389734"><ele>149.66666666666666</ele><time>2026-03-29T13:00:48.999Z</time></trkpt><trkpt lat="43.52022129145611" lon="11.567164738481774"><ele>149.5</ele><time>2026-03-29T13:00:49.999Z</time></trkpt><trkpt lat="43.52014216760495" lon="11.567145067137266"><ele>149.33333333333331</ele><time>2026-03-29T13:00:50.999Z</time></trkpt><trkpt lat="43.52006287506893" lon="11.567105786228767"><ele>149.16666666666666</ele><time>2026-03-29T13:00:51.999Z</time></trkpt><trkpt lat="43.519980720857184" lon="11.567149397071542"><ele>149.0</ele><time>2026-03-29T13:00:52.999Z</time></trkpt><trkpt lat="43.51992722202316" lon="11.567239019046088"><ele>149.0</ele><time>2026-03-29T13:00:53.999Z</time></trkpt><trkpt lat="43.51984367866832" lon="11.567284119098304"><ele>149.0</ele><time>2026-03-29T13:00:54.999Z</time></trkpt><trkpt lat="43.51975176679614" lon="11.567304586925557"><ele>149.0</ele><time>2026-03-29T13:00:55.999Z</time></trkpt><trkpt lat="43.51966101980864" lon="11.567271704080031"><ele>149.0</ele><time>2026-03-29T13:00:56.999Z</time></trkpt><trkpt lat="43.519592999395634" lon="11.567173463884124"><ele>149.0</ele><time>2026-03-29T13:00:57.999Z</time></trkpt><trkpt lat="43.51951179414154" lon="11.567073403716224"><ele>149.25</ele><time>2026-03-29T13:00:58.999Z</time></trkpt><trkpt lat="43.51942324102014" lon="11.56696922146993"><ele>149.5</ele><time>2026-03-29T13:00:59.999Z</time></trkpt><trkpt lat="43.51933797826176" lon="11.56684847517129"><ele>149.75</ele><time>2026-03-29T13:01:00.999Z</time></trkpt><trkpt lat="43.51924593246493" lon="11.566734651980292"><ele>150.0</ele><time>2026-03-29T13:01:01.999Z</time></trkpt><trkpt lat="43.51915324577684" lon="11.566617976592228"><ele>150.0</ele><time>2026-03-29T13:01:02.999Z</time></trkpt><trkpt lat="43.51905703424308" lon="11.566493637560415"><ele>150.0</ele><time>2026-03-29T13:01:03.999Z</time></trkpt><trkpt lat="43.51895919393539" lon="11.566366468774238"><ele>150.0</ele><time>2026-03-29T13:01:04.999Z</time></trkpt><trkpt lat="43.518858126020255" lon="11.566234311388266"><ele>150.0</ele><time>2026-03-29T13:01:05.999Z</time></trkpt><trkpt lat="43.518757133057775" lon="11.566100976079142"><ele>150.0</ele><time>2026-03-29T13:01:06.999Z</time></trkpt><trkpt lat="43.51865314114244" lon="11.565961089978442"><ele>150.0</ele><time>2026-03-29T13:01:07.999Z</time></trkpt><trkpt lat="43.51854692948962" lon="11.565819804541691"><ele>150.0</ele><time>2026-03-29T13:01:08.999Z</time></trkpt><trkpt lat="43.51844318085634" lon="11.56567965034425"><ele>150.0</ele><time>2026-03-29T13:01:09.999Z</time></trkpt><trkpt lat="43.51834419142727" lon="11.565548407143652"><ele>150.0</ele><time>2026-03-29T13:01:10.999Z</time></trkpt><trkpt lat="43.51825742660723" lon="11.565435219270976"><ele>150.0</ele><time>2026-03-29T13:01:11.999Z</time></trkpt><trkpt lat="43.518174504278434" lon="11.56533205756748"><ele>150.0</ele><time>2026-03-29T13:01:12.999Z</time></trkpt><trkpt lat="43.518099351060165" lon="11.565236826287771"><ele>150.0</ele><time>2026-03-29T13:01:13.999Z</time></trkpt><trkpt lat="43.518027855710834" lon="11.565148745622066"><ele>150.0</ele><time>2026-03-29T13:01:14.999Z</time></trkpt><trkpt lat="43.51795525944922" lon="11.565061110651289"><ele>150.0</ele><time>2026-03-29T13:01:15.999Z</time></trkpt><trkpt lat="43.517877812745205" lon="11.56497168640112"><ele>150.0</ele><time>2026-03-29T13:01:16.999Z</time></trkpt><trkpt lat="43.51778986076752" lon="11.564882236559257"><ele>150.0</ele><time>2026-03-29T13:01:17.999Z</time></trkpt><trkpt lat="43.51770712628608" lon="11.564781250905552"><ele>150.0</ele><time>2026-03-29T13:01:18.999Z</time></trkpt><trkpt lat="43.51761965759758" lon="11.564687651671093"><ele>150.0</ele><time>2026-03-29T13:01:19.999Z</time></trkpt><trkpt lat="43.51753893784392" lon="11.564593373115192"><ele>150.6</ele><time>2026-03-29T13:01:20.999Z</time></trkpt><trkpt lat="43.517464517729216" lon="11.564508973794576"><ele>151.2</ele><time>2026-03-29T13:01:21.999Z</time></trkpt><trkpt lat="43.51738251551249" lon="11.564424488978224"><ele>151.8</ele><time>2026-03-29T13:01:22.999Z</time></trkpt><trkpt lat="43.51729556324375" lon="11.564347465107863"><ele>152.4</ele><time>2026-03-29T13:01:24Z</time></trkpt><trkpt lat="43.51720585737943" lon="11.564281874243017"><ele>153.0</ele><time>2026-03-29T13:01:25Z</time></trkpt><trkpt lat="43.51711587915893" lon="11.56421947877924"><ele>152.83333333333334</ele><time>2026-03-29T13:01:26Z</time></trkpt><trkpt lat="43.51703863447312" lon="11.564161257388603"><ele>152.66666666666666</ele><time>2026-03-29T13:01:27Z</time></trkpt><trkpt lat="43.516968696665856" lon="11.564109485834038"><ele>152.5</ele><time>2026-03-29T13:01:28Z</time></trkpt><trkpt lat="43.51690262903074" lon="11.564052856135898"><ele>152.33333333333331</ele><time>2026-03-29T13:01:29Z</time></trkpt><trkpt lat="43.51682815170439" lon="11.563994420934288"><ele>152.16666666666666</ele><time>2026-03-29T13:01:30Z</time></trkpt><trkpt lat="43.5167482253732" lon="11.563936135521045"><ele>152.0</ele><time>2026-03-29T13:01:31Z</time></trkpt><trkpt lat="43.516669049695345" lon="11.563874628216006"><ele>152.0</ele><time>2026-03-29T13:01:32Z</time></trkpt><trkpt lat="43.516586942872685" lon="11.563814714805963"><ele>152.0</ele><time>2026-03-29T13:01:33Z</time></trkpt><trkpt lat="43.51650616750837" lon="11.563755542103248"><ele>152.0</ele><time>2026-03-29T13:01:34Z</time></trkpt><trkpt lat="43.516424782971065" lon="11.563693246875749"><ele>152.0</ele><time>2026-03-29T13:01:35Z</time></trkpt><trkpt lat="43.516336740106375" lon="11.563635309854169"><ele>152.0</ele><time>2026-03-29T13:01:36Z</time></trkpt><trkpt lat="43.51623910270078" lon="11.56357049123631"><ele>152.0</ele><time>2026-03-29T13:01:37Z</time></trkpt><trkpt lat="43.516140108492436" lon="11.563501536180627"><ele>152.0</ele><time>2026-03-29T13:01:38Z</time></trkpt><trkpt lat="43.516040972235544" lon="11.563437231535614"><ele>152.0</ele><time>2026-03-29T13:01:39Z</time></trkpt><trkpt lat="43.51594934274762" lon="11.563387117468794"><ele>152.0</ele><time>2026-03-29T13:01:40Z</time></trkpt><trkpt lat="43.51586551815355" lon="11.563344569816122"><ele>152.0</ele><time>2026-03-29T13:01:41Z</time></trkpt><trkpt lat="43.515777634414086" lon="11.563297514474353"><ele>152.0</ele><time>2026-03-29T13:01:42Z</time></trkpt><trkpt lat="43.51569272963825" lon="11.563268674505082"><ele>152.0</ele><time>2026-03-29T13:01:43Z</time></trkpt><trkpt lat="43.515597655146706" lon="11.563233240274963"><ele>152.0</ele><time>2026-03-29T13:01:44Z</time></trkpt><trkpt lat="43.515498376538176" lon="11.563196366995552"><ele>152.0</ele><time>2026-03-29T13:01:45Z</time></trkpt><trkpt lat="43.5154036756019" lon="11.56316472992388"><ele>152.0</ele><time>2026-03-29T13:01:46Z</time></trkpt><trkpt lat="43.51530898589248" lon="11.563134347079165"><ele>151.79999999999998</ele><time>2026-03-29T13:01:47Z</time></trkpt><trkpt lat="43.51523774101654" lon="11.563105828449945"><ele>151.6</ele><time>2026-03-29T13:01:48Z</time></trkpt><trkpt lat="43.51524304825554" lon="11.562931850926596"><ele>151.39999999999998</ele><time>2026-03-29T13:01:49Z</time></trkpt><trkpt lat="43.515247150841326" lon="11.56278471953618"><ele>151.2</ele><time>2026-03-29T13:01:50Z</time></trkpt><trkpt lat="43.51525464344976" lon="11.562597640302819"><ele>151.0</ele><time>2026-03-29T13:01:51Z</time></trkpt><trkpt lat="43.51525897007525" lon="11.562398409427407"><ele>151.0</ele><time>2026-03-29T13:01:52Z</time></trkpt><trkpt lat="43.51528846950165" lon="11.562194204655292"><ele>151.0</ele><time>2026-03-29T13:01:53Z</time></trkpt><trkpt lat="43.515322603966695" lon="11.561990613536885"><ele>151.0</ele><time>2026-03-29T13:01:54Z</time></trkpt><trkpt lat="43.51534791523398" lon="11.561792380407466"><ele>151.0</ele><time>2026-03-29T13:01:55Z</time></trkpt><trkpt lat="43.51534151754669" lon="11.561594012236126"><ele>152.0</ele><time>2026-03-29T13:01:56Z</time></trkpt><trkpt lat="43.515314459712876" lon="11.561394068462283"><ele>153.0</ele><time>2026-03-29T13:01:57Z</time></trkpt><trkpt lat="43.51526505864139" lon="11.561182686344482"><ele>154.0</ele><time>2026-03-29T13:01:58Z</time></trkpt><trkpt lat="43.51520054473679" lon="11.560972766984916"><ele>154.33333333333334</ele><time>2026-03-29T13:01:59Z</time></trkpt><trkpt lat="43.51511790714336" lon="11.560757205616977"><ele>154.66666666666666</ele><time>2026-03-29T13:02:00Z</time></trkpt><trkpt lat="43.51503713168559" lon="11.56053904761525"><ele>155.0</ele><time>2026-03-29T13:02:01Z</time></trkpt><trkpt lat="43.51496088238417" lon="11.560331561090798"><ele>155.0</ele><time>2026-03-29T13:02:02Z</time></trkpt><trkpt lat="43.514880610109486" lon="11.560118472836624"><ele>155.0</ele><time>2026-03-29T13:02:03Z</time></trkpt><trkpt lat="43.5147870181652" lon="11.55989957264355"><ele>155.0</ele><time>2026-03-29T13:02:04Z</time></trkpt><trkpt lat="43.51468472395856" lon="11.559683435132921"><ele>155.0</ele><time>2026-03-29T13:02:05Z</time></trkpt><trkpt lat="43.51458285989803" lon="11.559457671496531"><ele>155.0</ele><time>2026-03-29T13:02:06Z</time></trkpt><trkpt lat="43.51447774910627" lon="11.55923693109988"><ele>155.0</ele><time>2026-03-29T13:02:07Z</time></trkpt><trkpt lat="43.514371802367734" lon="11.559005837108003"><ele>155.33333333333331</ele><time>2026-03-29T13:02:07.999Z</time></trkpt><trkpt lat="43.51428106347246" lon="11.558782813962354"><ele>155.66666666666666</ele><time>2026-03-29T13:02:08.999Z</time></trkpt><trkpt lat="43.51420816186773" lon="11.55857828919287"><ele>156.0</ele><time>2026-03-29T13:02:09.999Z</time></trkpt><trkpt lat="43.51414999672583" lon="11.55837542029962"><ele>155.33333333333334</ele><time>2026-03-29T13:02:10.999Z</time></trkpt><trkpt lat="43.51410449642373" lon="11.558153047109062"><ele>154.66666666666669</ele><time>2026-03-29T13:02:11.999Z</time></trkpt><trkpt lat="43.514060558110394" lon="11.557932737137929"><ele>154.0</ele><time>2026-03-29T13:02:12.999Z</time></trkpt><trkpt lat="43.5139996277988" lon="11.557708923341911"><ele>154.0</ele><time>2026-03-29T13:02:13.999Z</time></trkpt><trkpt lat="43.51390683563275" lon="11.55751662263238"><ele>154.0</ele><time>2026-03-29T13:02:14.999Z</time></trkpt><trkpt lat="43.51377300808645" lon="11.557344659099241"><ele>154.0</ele><time>2026-03-29T13:02:15.999Z</time></trkpt><trkpt lat="43.51362148712835" lon="11.55719801519274"><ele>154.66666666666669</ele><time>2026-03-29T13:02:16.999Z</time></trkpt><trkpt lat="43.51347380434466" lon="11.557033682003649"><ele>155.33333333333334</ele><time>2026-03-29T13:02:17.999Z</time></trkpt><trkpt lat="43.51337167212333" lon="11.556823724978134"><ele>156.0</ele><time>2026-03-29T13:02:18.999Z</time></trkpt><trkpt lat="43.51326602973888" lon="11.556599035334093"><ele>156.0</ele><time>2026-03-29T13:02:19.999Z</time></trkpt><trkpt lat="43.51317979526842" lon="11.556357107998993"><ele>156.0</ele><time>2026-03-29T13:02:20.999Z</time></trkpt><trkpt lat="43.513085710046525" lon="11.556129615564346"><ele>156.0</ele><time>2026-03-29T13:02:21.999Z</time></trkpt><trkpt lat="43.51300774585644" lon="11.55589752685563"><ele>156.33333333333334</ele><time>2026-03-29T13:02:22.999Z</time></trkpt><trkpt lat="43.51297786981426" lon="11.555664373681193"><ele>156.66666666666669</ele><time>2026-03-29T13:02:23.999Z</time></trkpt><trkpt lat="43.51296105006294" lon="11.555435862926254"><ele>157.0</ele><time>2026-03-29T13:02:24.999Z</time></trkpt><trkpt lat="43.512929728093816" lon="11.555211776080402"><ele>158.0</ele><time>2026-03-29T13:02:25.999Z</time></trkpt><trkpt lat="43.51287804043795" lon="11.55499649453113"><ele>159.0</ele><time>2026-03-29T13:02:26.999Z</time></trkpt><trkpt lat="43.512785948870935" lon="11.554828261745891"><ele>160.0</ele><time>2026-03-29T13:02:27.999Z</time></trkpt><trkpt lat="43.512668621639165" lon="11.554704580696916"><ele>160.0</ele><time>2026-03-29T13:02:28.999Z</time></trkpt><trkpt lat="43.512535051638324" lon="11.55463811071446"><ele>160.0</ele><time>2026-03-29T13:02:29.999Z</time></trkpt><trkpt lat="43.51238004797699" lon="11.55460660152181"><ele>160.0</ele><time>2026-03-29T13:02:30.999Z</time></trkpt><trkpt lat="43.51222556594848" lon="11.554562016421812"><ele>160.0</ele><time>2026-03-29T13:02:31.999Z</time></trkpt><trkpt lat="43.512068544083895" lon="11.55450181504635"><ele>160.0</ele><time>2026-03-29T13:02:32.999Z</time></trkpt><trkpt lat="43.51190639898413" lon="11.554431802282298"><ele>160.0</ele><time>2026-03-29T13:02:33.999Z</time></trkpt><trkpt lat="43.51175142950978" lon="11.55434785904832"><ele>160.0</ele><time>2026-03-29T13:02:34.999Z</time></trkpt><trkpt lat="43.51160025742076" lon="11.554230837741706"><ele>160.0</ele><time>2026-03-29T13:02:35.999Z</time></trkpt><trkpt lat="43.511467558995186" lon="11.554078717102225"><ele>160.0</ele><time>2026-03-29T13:02:36.999Z</time></trkpt><trkpt lat="43.51135009816828" lon="11.553901495261112"><ele>160.0</ele><time>2026-03-29T13:02:37.999Z</time></trkpt><trkpt lat="43.51125100721615" lon="11.553697886978943"><ele>160.0</ele><time>2026-03-29T13:02:38.999Z</time></trkpt><trkpt lat="43.51114767122393" lon="11.553482970433413"><ele>160.0</ele><time>2026-03-29T13:02:39.999Z</time></trkpt><trkpt lat="43.511045038163545" lon="11.553268058599302"><ele>159.66666666666669</ele><time>2026-03-29T13:02:40.999Z</time></trkpt><trkpt lat="43.51094972553294" lon="11.553035562269065"><ele>159.33333333333334</ele><time>2026-03-29T13:02:41.999Z</time></trkpt><trkpt lat="43.51086997450395" lon="11.552798072898314"><ele>159.0</ele><time>2026-03-29T13:02:42.999Z</time></trkpt><trkpt lat="43.510791075458975" lon="11.552562963111297"><ele>159.0</ele><time>2026-03-29T13:02:43.999Z</time></trkpt><trkpt lat="43.510707660801934" lon="11.55232803570866"><ele>159.0</ele><time>2026-03-29T13:02:44.999Z</time></trkpt><trkpt lat="43.51061820188495" lon="11.552092524587826"><ele>159.0</ele><time>2026-03-29T13:02:45.999Z</time></trkpt><trkpt lat="43.51052102259881" lon="11.551866964134968"><ele>160.33333333333334</ele><time>2026-03-29T13:02:46.999Z</time></trkpt><trkpt lat="43.510412723735385" lon="11.551650456809565"><ele>161.66666666666669</ele><time>2026-03-29T13:02:47.999Z</time></trkpt><trkpt lat="43.51029021708941" lon="11.551452455108478"><ele>163.0</ele><time>2026-03-29T13:02:48.999Z</time></trkpt><trkpt lat="43.5101529133017" lon="11.551265674014962"><ele>163.66666666666669</ele><time>2026-03-29T13:02:49.999Z</time></trkpt><trkpt lat="43.510008988915104" lon="11.551098504840326"><ele>164.33333333333334</ele><time>2026-03-29T13:02:50.999Z</time></trkpt><trkpt lat="43.50986281017031" lon="11.550931382220215"><ele>165.0</ele><time>2026-03-29T13:02:51.999Z</time></trkpt><trkpt lat="43.50971431657507" lon="11.550762889505403"><ele>166.33333333333334</ele><time>2026-03-29T13:02:52.999Z</time></trkpt><trkpt lat="43.509566636315085" lon="11.550598705363024"><ele>167.66666666666669</ele><time>2026-03-29T13:02:53.999Z</time></trkpt><trkpt lat="43.50942046542665" lon="11.550423775846236"><ele>169.0</ele><time>2026-03-29T13:02:54.999Z</time></trkpt><trkpt lat="43.50932311599698" lon="11.550208274047055"><ele>169.0</ele><time>2026-03-29T13:02:55.999Z</time></trkpt><trkpt lat="43.509245579937385" lon="11.549983841165197"><ele>169.0</ele><time>2026-03-29T13:02:56.999Z</time></trkpt><trkpt lat="43.50914722188573" lon="11.549742999562138"><ele>169.0</ele><time>2026-03-29T13:02:57.999Z</time></trkpt><trkpt lat="43.50907143175276" lon="11.54951177463638"><ele>170.0</ele><time>2026-03-29T13:02:58.999Z</time></trkpt><trkpt lat="43.50900524065685" lon="11.549304316290723"><ele>171.0</ele><time>2026-03-29T13:02:59.999Z</time></trkpt><trkpt lat="43.50894325053663" lon="11.549118309936693"><ele>172.0</ele><time>2026-03-29T13:03:00.999Z</time></trkpt><trkpt lat="43.50887631852886" lon="11.548953322658548"><ele>172.0</ele><time>2026-03-29T13:03:01.999Z</time></trkpt><trkpt lat="43.50878690526229" lon="11.548836906027146"><ele>172.0</ele><time>2026-03-29T13:03:02.999Z</time></trkpt><trkpt lat="43.50867502717665" lon="11.548755424601515"><ele>172.0</ele><time>2026-03-29T13:03:03.999Z</time></trkpt><trkpt lat="43.508539153622166" lon="11.548724202275572"><ele>172.0</ele><time>2026-03-29T13:03:04.999Z</time></trkpt><trkpt lat="43.50838850086321" lon="11.548692586215461"><ele>172.33333333333334</ele><time>2026-03-29T13:03:05.999Z</time></trkpt><trkpt lat="43.50823473269937" lon="11.548634730515609"><ele>172.66666666666666</ele><time>2026-03-29T13:03:06.999Z</time></trkpt><trkpt lat="43.50808312389543" lon="11.548559692704066"><ele>173.0</ele><time>2026-03-29T13:03:07.999Z</time></trkpt><trkpt lat="43.5079332798715" lon="11.548491574265269"><ele>176.33333333333331</ele><time>2026-03-29T13:03:08.999Z</time></trkpt><trkpt lat="43.50776830764513" lon="11.548420879332383"><ele>179.66666666666666</ele><time>2026-03-29T13:03:09.999Z</time></trkpt><trkpt lat="43.507595994274574" lon="11.54834599227879"><ele>183.0</ele><time>2026-03-29T13:03:10.999Z</time></trkpt><trkpt lat="43.50742208495779" lon="11.548269793260545"><ele>183.0</ele><time>2026-03-29T13:03:11.999Z</time></trkpt><trkpt lat="43.5072660057651" lon="11.548200125634184"><ele>183.0</ele><time>2026-03-29T13:03:12.999Z</time></trkpt><trkpt lat="43.50712798888909" lon="11.54813244637275"><ele>183.0</ele><time>2026-03-29T13:03:13.999Z</time></trkpt><trkpt lat="43.507024149360284" lon="11.54801147254029"><ele>183.0</ele><time>2026-03-29T13:03:14.999Z</time></trkpt><trkpt lat="43.506950439368275" lon="11.547846477931818"><ele>187.66666666666669</ele><time>2026-03-29T13:03:15.999Z</time></trkpt><trkpt lat="43.506838321992014" lon="11.54771117030171"><ele>192.33333333333334</ele><time>2026-03-29T13:03:16.999Z</time></trkpt><trkpt lat="43.5067154795293" lon="11.547591624642973"><ele>197.0</ele><time>2026-03-29T13:03:17.999Z</time></trkpt><trkpt lat="43.50656314683315" lon="11.547506766775758"><ele>197.0</ele><time>2026-03-29T13:03:18.999Z</time></trkpt><trkpt lat="43.50640503759599" lon="11.547440423185051"><ele>197.0</ele><time>2026-03-29T13:03:19.999Z</time></trkpt><trkpt lat="43.50624303888593" lon="11.547404151744313"><ele>197.0</ele><time>2026-03-29T13:03:20.999Z</time></trkpt><trkpt lat="43.50607487044056" lon="11.547388095735215"><ele>195.75</ele><time>2026-03-29T13:03:21.999Z</time></trkpt><trkpt lat="43.50591307292295" lon="11.547379132265709"><ele>194.5</ele><time>2026-03-29T13:03:22.999Z</time></trkpt><trkpt lat="43.50576790666062" lon="11.547358206265338"><ele>193.25</ele><time>2026-03-29T13:03:23.999Z</time></trkpt><trkpt lat="43.50563889777625" lon="11.547336268453243"><ele>192.0</ele><time>2026-03-29T13:03:24.999Z</time></trkpt><trkpt lat="43.505506195439146" lon="11.547304474687591"><ele>191.5</ele><time>2026-03-29T13:03:25.999Z</time></trkpt><trkpt lat="43.50537890878679" lon="11.547246611900027"><ele>191.0</ele><time>2026-03-29T13:03:26.999Z</time></trkpt><trkpt lat="43.505258662113306" lon="11.547139915015796"><ele>190.5</ele><time>2026-03-29T13:03:27.999Z</time></trkpt><trkpt lat="43.505124585406264" lon="11.547027691409006"><ele>190.0</ele><time>2026-03-29T13:03:29Z</time></trkpt><trkpt lat="43.505012419988496" lon="11.54694076259353"><ele>192.75</ele><time>2026-03-29T13:03:30Z</time></trkpt><trkpt lat="43.50494260737677" lon="11.546812801166285"><ele>195.5</ele><time>2026-03-29T13:03:31Z</time></trkpt><trkpt lat="43.504937749904066" lon="11.546663080735863"><ele>198.25</ele><time>2026-03-29T13:03:32Z</time></trkpt><trkpt lat="43.504956831687075" lon="11.546529007538146"><ele>201.0</ele><time>2026-03-29T13:03:33Z</time></trkpt><trkpt lat="43.50496618306452" lon="11.54635423406723"><ele>203.0</ele><time>2026-03-29T13:03:34Z</time></trkpt><trkpt lat="43.50494131660471" lon="11.5461783278755"><ele>205.0</ele><time>2026-03-29T13:03:35Z</time></trkpt><trkpt lat="43.50487457764818" lon="11.546010514732984"><ele>207.0</ele><time>2026-03-29T13:03:36Z</time></trkpt><trkpt lat="43.50477055776958" lon="11.545858607502558"><ele>209.0</ele><time>2026-03-29T13:03:37Z</time></trkpt><trkpt lat="43.504673930626204" lon="11.545675221668679"><ele>209.33333333333334</ele><time>2026-03-29T13:03:38Z</time></trkpt><trkpt lat="43.50457706375222" lon="11.545494058864897"><ele>209.66666666666669</ele><time>2026-03-29T13:03:39Z</time></trkpt><trkpt lat="43.50445946058417" lon="11.54530978502262"><ele>210.0</ele><time>2026-03-29T13:03:40Z</time></trkpt><trkpt lat="43.50434958287557" lon="11.545105415433877"><ele>209.33333333333331</ele><time>2026-03-29T13:03:41Z</time></trkpt><trkpt lat="43.5042530677807" lon="11.544916682741391"><ele>208.66666666666666</ele><time>2026-03-29T13:03:42Z</time></trkpt><trkpt lat="43.50416938938452" lon="11.5447331714464"><ele>208.0</ele><time>2026-03-29T13:03:43Z</time></trkpt><trkpt lat="43.50411765366586" lon="11.544557681019649"><ele>209.5</ele><time>2026-03-29T13:03:44Z</time></trkpt><trkpt lat="43.50411396512768" lon="11.544364192922767"><ele>211.0</ele><time>2026-03-29T13:03:45Z</time></trkpt><trkpt lat="43.50407609701616" lon="11.544192855944445"><ele>212.5</ele><time>2026-03-29T13:03:46Z</time></trkpt><trkpt lat="43.504033617330144" lon="11.544049497780941"><ele>214.0</ele><time>2026-03-29T13:03:47Z</time></trkpt><trkpt lat="43.50393183388239" lon="11.543961530445749"><ele>214.0</ele><time>2026-03-29T13:03:48Z</time></trkpt><trkpt lat="43.503815641574555" lon="11.543921530386337"><ele>214.0</ele><time>2026-03-29T13:03:49Z</time></trkpt><trkpt lat="43.50368776850417" lon="11.54391765016817"><ele>214.0</ele><time>2026-03-29T13:03:50Z</time></trkpt><trkpt lat="43.50355078224693" lon="11.543971448009003"><ele>214.0</ele><time>2026-03-29T13:03:51Z</time></trkpt><trkpt lat="43.503408602577956" lon="11.544028354207766"><ele>216.33333333333331</ele><time>2026-03-29T13:03:52Z</time></trkpt><trkpt lat="43.50326387618237" lon="11.544066548311411"><ele>218.66666666666669</ele><time>2026-03-29T13:03:53Z</time></trkpt><trkpt lat="43.50311151920393" lon="11.544084307096663"><ele>221.0</ele><time>2026-03-29T13:03:54Z</time></trkpt><trkpt lat="43.50296395905955" lon="11.544157570437285"><ele>227.33333333333334</ele><time>2026-03-29T13:03:55Z</time></trkpt><trkpt lat="43.50281995063245" lon="11.544236136615071"><ele>233.66666666666669</ele><time>2026-03-29T13:03:56Z</time></trkpt><trkpt lat="43.50268778284002" lon="11.544362302492305"><ele>240.0</ele><time>2026-03-29T13:03:57Z</time></trkpt><trkpt lat="43.502552281062215" lon="11.544486117679522"><ele>237.66666666666669</ele><time>2026-03-29T13:03:58Z</time></trkpt><trkpt lat="43.502403249224834" lon="11.544560449433941"><ele>235.33333333333334</ele><time>2026-03-29T13:03:59Z</time></trkpt><trkpt lat="43.502273790571635" lon="11.54469636339237"><ele>233.0</ele><time>2026-03-29T13:04:00Z</time></trkpt><trkpt lat="43.50214959316434" lon="11.544840122804008"><ele>233.5</ele><time>2026-03-29T13:04:01Z</time></trkpt><trkpt lat="43.50202599389937" lon="11.544975785855966"><ele>234.0</ele><time>2026-03-29T13:04:02Z</time></trkpt><trkpt lat="43.50189478146224" lon="11.545004207603487"><ele>234.5</ele><time>2026-03-29T13:04:03Z</time></trkpt><trkpt lat="43.50176326612872" lon="11.545021692580221"><ele>235.0</ele><time>2026-03-29T13:04:04Z</time></trkpt><trkpt lat="43.50163735002215" lon="11.545017818661615"><ele>235.0</ele><time>2026-03-29T13:04:05Z</time></trkpt><trkpt lat="43.501518781426974" lon="11.544965368749"><ele>235.0</ele><time>2026-03-29T13:04:06Z</time></trkpt><trkpt lat="43.50142116404961" lon="11.544780335495624"><ele>235.0</ele><time>2026-03-29T13:04:07Z</time></trkpt><trkpt lat="43.50129182635576" lon="11.544663084174225"><ele>235.0</ele><time>2026-03-29T13:04:08Z</time></trkpt><trkpt lat="43.501170496132104" lon="11.54451979830805"><ele>239.66666666666666</ele><time>2026-03-29T13:04:08.999Z</time></trkpt><trkpt lat="43.501069018364205" lon="11.544354878924382"><ele>244.33333333333331</ele><time>2026-03-29T13:04:09.999Z</time></trkpt><trkpt lat="43.50097161438762" lon="11.54416805490255"><ele>249.0</ele><time>2026-03-29T13:04:10.999Z</time></trkpt><trkpt lat="43.500873509716314" lon="11.543983479375461"><ele>249.0</ele><time>2026-03-29T13:04:11.999Z</time></trkpt><trkpt lat="43.50076100677716" lon="11.543799741845826"><ele>249.0</ele><time>2026-03-29T13:04:12.999Z</time></trkpt><trkpt lat="43.5006516733988" lon="11.543630070617217"><ele>249.0</ele><time>2026-03-29T13:04:13.999Z</time></trkpt><trkpt lat="43.50052451796848" lon="11.54346103674129"><ele>250.66666666666669</ele><time>2026-03-29T13:04:14.999Z</time></trkpt><trkpt lat="43.50038913403076" lon="11.543313001895504"><ele>252.33333333333334</ele><time>2026-03-29T13:04:15.999Z</time></trkpt><trkpt lat="43.50024812491445" lon="11.543162457589421"><ele>254.0</ele><time>2026-03-29T13:04:16.999Z</time></trkpt><trkpt lat="43.500106385970895" lon="11.543010500942662"><ele>255.66666666666669</ele><time>2026-03-29T13:04:17.999Z</time></trkpt><trkpt lat="43.49997020161457" lon="11.542841408628695"><ele>257.3333333333333</ele><time>2026-03-29T13:04:18.999Z</time></trkpt><trkpt lat="43.49986038175845" lon="11.542641378708357"><ele>259.0</ele><time>2026-03-29T13:04:19.999Z</time></trkpt><trkpt lat="43.49979308898318" lon="11.542407440712566"><ele>259.0</ele><time>2026-03-29T13:04:20.999Z</time></trkpt><trkpt lat="43.49974479909387" lon="11.54219405803791"><ele>259.0</ele><time>2026-03-29T13:04:21.999Z</time></trkpt><trkpt lat="43.49968926063276" lon="11.541945008906902"><ele>259.0</ele><time>2026-03-29T13:04:22.999Z</time></trkpt><trkpt lat="43.499642996392005" lon="11.541698998468092"><ele>261.0</ele><time>2026-03-29T13:04:23.999Z</time></trkpt><trkpt lat="43.499595825787004" lon="11.541465259363218"><ele>263.0</ele><time>2026-03-29T13:04:24.999Z</time></trkpt><trkpt lat="43.49954738866407" lon="11.541229504675703"><ele>265.0</ele><time>2026-03-29T13:04:25.999Z</time></trkpt><trkpt lat="43.499495841812994" lon="11.540994490923241"><ele>266.66666666666663</ele><time>2026-03-29T13:04:26.999Z</time></trkpt><trkpt lat="43.49943726431609" lon="11.54073492415042"><ele>268.3333333333333</ele><time>2026-03-29T13:04:27.999Z</time></trkpt><trkpt lat="43.49938316397453" lon="11.54048234959513"><ele>270.0</ele><time>2026-03-29T13:04:28.999Z</time></trkpt><trkpt lat="43.49932761227797" lon="11.54024274613664"><ele>271.3333333333333</ele><time>2026-03-29T13:04:29.999Z</time></trkpt><trkpt lat="43.49926773920318" lon="11.540012649106876"><ele>272.66666666666663</ele><time>2026-03-29T13:04:30.999Z</time></trkpt><trkpt lat="43.49920408419313" lon="11.539785388810454"><ele>274.0</ele><time>2026-03-29T13:04:31.999Z</time></trkpt><trkpt lat="43.49913953507433" lon="11.539560609180874"><ele>275.3333333333333</ele><time>2026-03-29T13:04:32.999Z</time></trkpt><trkpt lat="43.499073119392136" lon="11.539337605126274"><ele>276.6666666666667</ele><time>2026-03-29T13:04:33.999Z</time></trkpt><trkpt lat="43.49900313188984" lon="11.53910959603106"><ele>278.0</ele><time>2026-03-29T13:04:34.999Z</time></trkpt><trkpt lat="43.498933081057835" lon="11.53888308483059"><ele>280.0</ele><time>2026-03-29T13:04:35.999Z</time></trkpt><trkpt lat="43.498865448283205" lon="11.538662461606092"><ele>282.0</ele><time>2026-03-29T13:04:36.999Z</time></trkpt><trkpt lat="43.49879753706054" lon="11.53843828103911"><ele>284.0</ele><time>2026-03-29T13:04:37.999Z</time></trkpt><trkpt lat="43.49872287445663" lon="11.53822100457647"><ele>285.33333333333337</ele><time>2026-03-29T13:04:38.999Z</time></trkpt><trkpt lat="43.498634389944186" lon="11.538013851151426"><ele>286.6666666666667</ele><time>2026-03-29T13:04:39.999Z</time></trkpt><trkpt lat="43.49853668610667" lon="11.537804215778246"><ele>288.0</ele><time>2026-03-29T13:04:40.999Z</time></trkpt><trkpt lat="43.498441286209534" lon="11.537597991124894"><ele>291.0</ele><time>2026-03-29T13:04:41.999Z</time></trkpt><trkpt lat="43.49835749681077" lon="11.53740704613108"><ele>294.0</ele><time>2026-03-29T13:04:42.999Z</time></trkpt><trkpt lat="43.49827545391688" lon="11.537233008950206"><ele>297.0</ele><time>2026-03-29T13:04:43.999Z</time></trkpt><trkpt lat="43.49817823303053" lon="11.537081929505037"><ele>298.0</ele><time>2026-03-29T13:04:44.999Z</time></trkpt><trkpt lat="43.49805301909914" lon="11.536993662681882"><ele>299.0</ele><time>2026-03-29T13:04:45.999Z</time></trkpt><trkpt lat="43.497922819385394" lon="11.536951559030014"><ele>300.0</ele><time>2026-03-29T13:04:46.999Z</time></trkpt><trkpt lat="43.49779718415827" lon="11.53692164778212"><ele>301.0</ele><time>2026-03-29T13:04:47.999Z</time></trkpt><trkpt lat="43.49767884380314" lon="11.536888998931753"><ele>304.25</ele><time>2026-03-29T13:04:48.999Z</time></trkpt><trkpt lat="43.49756070327304" lon="11.536854833342462"><ele>307.5</ele><time>2026-03-29T13:04:49.999Z</time></trkpt><trkpt lat="43.49745152742363" lon="11.53680849241802"><ele>310.75</ele><time>2026-03-29T13:04:50.999Z</time></trkpt><trkpt lat="43.4973461426567" lon="11.536733698722024"><ele>314.0</ele><time>2026-03-29T13:04:51.999Z</time></trkpt><trkpt lat="43.49727053984756" lon="11.536620426343164"><ele>314.0</ele><time>2026-03-29T13:04:52.999Z</time></trkpt><trkpt lat="43.49724653733859" lon="11.536481483354159"><ele>314.0</ele><time>2026-03-29T13:04:53.999Z</time></trkpt><trkpt lat="43.497274156017724" lon="11.536339882933058"><ele>314.0</ele><time>2026-03-29T13:04:54.999Z</time></trkpt><trkpt lat="43.497374948406865" lon="11.536219079657338"><ele>314.0</ele><time>2026-03-29T13:04:55.999Z</time></trkpt><trkpt lat="43.49744090710108" lon="11.536066331376249"><ele>315.6</ele><time>2026-03-29T13:04:56.999Z</time></trkpt><trkpt lat="43.49751732431531" lon="11.53593060191589"><ele>317.2</ele><time>2026-03-29T13:04:57.999Z</time></trkpt><trkpt lat="43.49754084703994" lon="11.535791300882154"><ele>318.8</ele><time>2026-03-29T13:04:58.999Z</time></trkpt><trkpt lat="43.49749809375748" lon="11.535673484168038"><ele>320.40000000000003</ele><time>2026-03-29T13:04:59.999Z</time></trkpt><trkpt lat="43.497427965068425" lon="11.5355920311035"><ele>322.0</ele><time>2026-03-29T13:05:00.999Z</time></trkpt><trkpt lat="43.49733611399254" lon="11.535576899464393"><ele>322.0</ele><time>2026-03-29T13:05:01.999Z</time></trkpt><trkpt lat="43.49723665799704" lon="11.535614338808406"><ele>322.0</ele><time>2026-03-29T13:05:02.999Z</time></trkpt><trkpt lat="43.497122970490196" lon="11.535699107365634"><ele>322.0</ele><time>2026-03-29T13:05:03.999Z</time></trkpt><trkpt lat="43.49698207437168" lon="11.535792283678289"><ele>322.0</ele><time>2026-03-29T13:05:04.999Z</time></trkpt><trkpt lat="43.49682853313168" lon="11.53587478284589"><ele>325.25</ele><time>2026-03-29T13:05:05.999Z</time></trkpt><trkpt lat="43.49666362715811" lon="11.53595355683273"><ele>328.5</ele><time>2026-03-29T13:05:06.999Z</time></trkpt><trkpt lat="43.4965430068675" lon="11.536017074029337"><ele>331.75</ele><time>2026-03-29T13:05:07.999Z</time></trkpt><trkpt lat="43.49644364614683" lon="11.536021621511773"><ele>335.0</ele><time>2026-03-29T13:05:08.999Z</time></trkpt><trkpt lat="43.49635538396032" lon="11.53595575274285"><ele>335.0</ele><time>2026-03-29T13:05:09.999Z</time></trkpt><trkpt lat="43.49627341189768" lon="11.535829694756856"><ele>335.0</ele><time>2026-03-29T13:05:10.999Z</time></trkpt><trkpt lat="43.49622328578792" lon="11.535636091145992"><ele>335.0</ele><time>2026-03-29T13:05:11.999Z</time></trkpt><trkpt lat="43.49616393927745" lon="11.535423197328575"><ele>335.0</ele><time>2026-03-29T13:05:12.999Z</time></trkpt><trkpt lat="43.49609349147629" lon="11.535194047844506"><ele>338.6666666666667</ele><time>2026-03-29T13:05:13.999Z</time></trkpt><trkpt lat="43.49603902790248" lon="11.53495942765897"><ele>342.3333333333333</ele><time>2026-03-29T13:05:14.999Z</time></trkpt><trkpt lat="43.49596645072883" lon="11.534763305204047"><ele>346.0</ele><time>2026-03-29T13:05:15.999Z</time></trkpt><trkpt lat="43.49585104847784" lon="11.53459380962949"><ele>348.3333333333333</ele><time>2026-03-29T13:05:16.999Z</time></trkpt><trkpt lat="43.49571339119579" lon="11.53442618272177"><ele>350.6666666666667</ele><time>2026-03-29T13:05:17.999Z</time></trkpt><trkpt lat="43.49562527447344" lon="11.534213848938796"><ele>353.0</ele><time>2026-03-29T13:05:18.999Z</time></trkpt><trkpt lat="43.49555553693054" lon="11.533966877410004"><ele>354.0</ele><time>2026-03-29T13:05:19.999Z</time></trkpt><trkpt lat="43.495469747985126" lon="11.533711289994041"><ele>355.0</ele><time>2026-03-29T13:05:20.999Z</time></trkpt><trkpt lat="43.4953779521781" lon="11.533521680365626"><ele>356.0</ele><time>2026-03-29T13:05:21.999Z</time></trkpt><trkpt lat="43.49525705420155" lon="11.533388503469894"><ele>357.33333333333337</ele><time>2026-03-29T13:05:22.999Z</time></trkpt><trkpt lat="43.49510677743827" lon="11.533297501649738"><ele>358.6666666666667</ele><time>2026-03-29T13:05:23.999Z</time></trkpt><trkpt lat="43.49494703686553" lon="11.533220399079964"><ele>360.0</ele><time>2026-03-29T13:05:24.999Z</time></trkpt><trkpt lat="43.4947788630003" lon="11.53314931540436"><ele>360.0</ele><time>2026-03-29T13:05:25.999Z</time></trkpt><trkpt lat="43.494615690001716" lon="11.53306379956993"><ele>360.0</ele><time>2026-03-29T13:05:26.999Z</time></trkpt><trkpt lat="43.4944532340022" lon="11.53298082541032"><ele>360.0</ele><time>2026-03-29T13:05:27.999Z</time></trkpt><trkpt lat="43.494288779511" lon="11.532920229090113"><ele>361.0</ele><time>2026-03-29T13:05:28.999Z</time></trkpt><trkpt lat="43.49411600865664" lon="11.532898187345111"><ele>362.0</ele><time>2026-03-29T13:05:29.999Z</time></trkpt><trkpt lat="43.49393231574405" lon="11.53293002244957"><ele>363.0</ele><time>2026-03-29T13:05:30.999Z</time></trkpt><trkpt lat="43.49375226823704" lon="11.532972470197384"><ele>366.0</ele><time>2026-03-29T13:05:31.999Z</time></trkpt><trkpt lat="43.493600173222674" lon="11.533005539469725"><ele>369.0</ele><time>2026-03-29T13:05:32.999Z</time></trkpt><trkpt lat="43.49344329060864" lon="11.533035027640443"><ele>372.0</ele><time>2026-03-29T13:05:34Z</time></trkpt><trkpt lat="43.49330102015593" lon="11.533049232477572"><ele>372.0</ele><time>2026-03-29T13:05:35Z</time></trkpt><trkpt lat="43.493169771417655" lon="11.533034002017889"><ele>372.0</ele><time>2026-03-29T13:05:36Z</time></trkpt><trkpt lat="43.4930663826412" lon="11.532973646193064"><ele>372.0</ele><time>2026-03-29T13:05:37Z</time></trkpt><trkpt lat="43.49301365621304" lon="11.532834393470642"><ele>372.0</ele><time>2026-03-29T13:05:38Z</time></trkpt><trkpt lat="43.49295306377706" lon="11.53266983028719"><ele>372.5</ele><time>2026-03-29T13:05:39Z</time></trkpt><trkpt lat="43.492942214761776" lon="11.532457594755607"><ele>373.0</ele><time>2026-03-29T13:05:40Z</time></trkpt><trkpt lat="43.49294750069023" lon="11.532246448321288"><ele>373.5</ele><time>2026-03-29T13:05:41Z</time></trkpt><trkpt lat="43.49293465656553" lon="11.532063763726923"><ele>374.0</ele><time>2026-03-29T13:05:42Z</time></trkpt><trkpt lat="43.49290317685106" lon="11.531901065100326"><ele>377.33333333333337</ele><time>2026-03-29T13:05:43Z</time></trkpt><trkpt lat="43.492822062989575" lon="11.531725146222426"><ele>380.6666666666667</ele><time>2026-03-29T13:05:44Z</time></trkpt><trkpt lat="43.49273525079702" lon="11.531531412078321"><ele>384.0</ele><time>2026-03-29T13:05:45Z</time></trkpt><trkpt lat="43.49268040043199" lon="11.5313142171864"><ele>387.0</ele><time>2026-03-29T13:05:46Z</time></trkpt><trkpt lat="43.492675888443586" lon="11.53106673445941"><ele>390.0</ele><time>2026-03-29T13:05:47Z</time></trkpt><trkpt lat="43.49265291801692" lon="11.53082651863827"><ele>393.0</ele><time>2026-03-29T13:05:48Z</time></trkpt><trkpt lat="43.49264042817619" lon="11.530567310595915"><ele>394.0</ele><time>2026-03-29T13:05:49Z</time></trkpt><trkpt lat="43.4925926249623" lon="11.53031876185604"><ele>395.0</ele><time>2026-03-29T13:05:50Z</time></trkpt><trkpt lat="43.49254643703326" lon="11.530072406037734"><ele>396.0</ele><time>2026-03-29T13:05:51Z</time></trkpt><trkpt lat="43.49251616435029" lon="11.529828647145656"><ele>396.0</ele><time>2026-03-29T13:05:52Z</time></trkpt><trkpt lat="43.49248456739834" lon="11.529607263576445"><ele>396.0</ele><time>2026-03-29T13:05:53Z</time></trkpt><trkpt lat="43.49243122636142" lon="11.52940593402185"><ele>396.0</ele><time>2026-03-29T13:05:54Z</time></trkpt><trkpt lat="43.49234296090747" lon="11.529209995022768"><ele>394.66666666666663</ele><time>2026-03-29T13:05:55Z</time></trkpt><trkpt lat="43.49224683241418" lon="11.529000222138183"><ele>393.3333333333333</ele><time>2026-03-29T13:05:56Z</time></trkpt><trkpt lat="43.49221198285861" lon="11.528756341512603"><ele>392.0</ele><time>2026-03-29T13:05:57Z</time></trkpt><trkpt lat="43.49218336404856" lon="11.52850561490049"><ele>392.0</ele><time>2026-03-29T13:05:58Z</time></trkpt><trkpt lat="43.492174750245724" lon="11.528250034717557"><ele>392.0</ele><time>2026-03-29T13:05:59Z</time></trkpt><trkpt lat="43.492180002711386" lon="11.527988274793493"><ele>392.0</ele><time>2026-03-29T13:06:00Z</time></trkpt><trkpt lat="43.49216126360692" lon="11.52772667367527"><ele>393.0</ele><time>2026-03-29T13:06:01Z</time></trkpt><trkpt lat="43.49212850342078" lon="11.527480010036374"><ele>394.0</ele><time>2026-03-29T13:06:02Z</time></trkpt><trkpt lat="43.49214057089028" lon="11.527245491150056"><ele>395.0</ele><time>2026-03-29T13:06:03Z</time></trkpt><trkpt lat="43.492109324349286" lon="11.527030045921565"><ele>403.66666666666663</ele><time>2026-03-29T13:06:04Z</time></trkpt><trkpt lat="43.492064789743765" lon="11.526797459474162"><ele>412.33333333333337</ele><time>2026-03-29T13:06:05Z</time></trkpt><trkpt lat="43.491980555205124" lon="11.526576728926319"><ele>421.0</ele><time>2026-03-29T13:06:06Z</time></trkpt><trkpt lat="43.491911399547824" lon="11.526401375229078"><ele>422.0</ele><time>2026-03-29T13:06:07Z</time></trkpt><trkpt lat="43.49188276164276" lon="11.526220339014193"><ele>423.0</ele><time>2026-03-29T13:06:08Z</time></trkpt><trkpt lat="43.49192539488799" lon="11.526057565104447"><ele>424.0</ele><time>2026-03-29T13:06:09Z</time></trkpt><trkpt lat="43.49202083906391" lon="11.52591975363321"><ele>425.0</ele><time>2026-03-29T13:06:10Z</time></trkpt><trkpt lat="43.492138171477244" lon="11.525811435396555"><ele>428.0</ele><time>2026-03-29T13:06:11Z</time></trkpt><trkpt lat="43.49217372573676" lon="11.525673251519994"><ele>431.0</ele><time>2026-03-29T13:06:12Z</time></trkpt><trkpt lat="43.49213953048075" lon="11.52553014790051"><ele>434.0</ele><time>2026-03-29T13:06:13Z</time></trkpt><trkpt lat="43.49208923789884" lon="11.525358869820131"><ele>437.0</ele><time>2026-03-29T13:06:14Z</time></trkpt><trkpt lat="43.49207729495201" lon="11.52515430794625"><ele>437.0</ele><time>2026-03-29T13:06:14.999Z</time></trkpt><trkpt lat="43.49204942474858" lon="11.524943404242329"><ele>437.0</ele><time>2026-03-29T13:06:15.999Z</time></trkpt><trkpt lat="43.49203570749" lon="11.524742013574915"><ele>437.0</ele><time>2026-03-29T13:06:16.999Z</time></trkpt><trkpt lat="43.4919888720153" lon="11.524592968557819"><ele>437.0</ele><time>2026-03-29T13:06:17.999Z</time></trkpt><trkpt lat="43.4918967993151" lon="11.524493348584238"><ele>437.66666666666663</ele><time>2026-03-29T13:06:18.999Z</time></trkpt><trkpt lat="43.49176281449248" lon="11.524428377441748"><ele>438.33333333333337</ele><time>2026-03-29T13:06:19.999Z</time></trkpt><trkpt lat="43.49161341350387" lon="11.524341722330508"><ele>439.0</ele><time>2026-03-29T13:06:20.999Z</time></trkpt><trkpt lat="43.49148472358356" lon="11.52419687370706"><ele>439.0</ele><time>2026-03-29T13:06:21.999Z</time></trkpt><trkpt lat="43.49140800928828" lon="11.52398545796897"><ele>439.0</ele><time>2026-03-29T13:06:22.999Z</time></trkpt><trkpt lat="43.49130714052806" lon="11.523800016493114"><ele>439.0</ele><time>2026-03-29T13:06:23.999Z</time></trkpt><trkpt lat="43.49120971857862" lon="11.523595596848596"><ele>441.6666666666667</ele><time>2026-03-29T13:06:24.999Z</time></trkpt><trkpt lat="43.49109717357611" lon="11.523399736314396"><ele>444.33333333333337</ele><time>2026-03-29T13:06:25.999Z</time></trkpt><trkpt lat="43.49097142917823" lon="11.523210889011922"><ele>447.0</ele><time>2026-03-29T13:06:26.999Z</time></trkpt><trkpt lat="43.490831890197505" lon="11.52302870576097"><ele>447.66666666666663</ele><time>2026-03-29T13:06:27.999Z</time></trkpt><trkpt lat="43.490698490205034" lon="11.522846372931006"><ele>448.3333333333333</ele><time>2026-03-29T13:06:28.999Z</time></trkpt><trkpt lat="43.49058685377951" lon="11.522666317866012"><ele>449.0</ele><time>2026-03-29T13:06:29.999Z</time></trkpt><trkpt lat="43.4904820968552" lon="11.522472326499381"><ele>448.0</ele><time>2026-03-29T13:06:30.999Z</time></trkpt><trkpt lat="43.490380425635756" lon="11.522278661274253"><ele>447.0</ele><time>2026-03-29T13:06:31.999Z</time></trkpt><trkpt lat="43.49027629892716" lon="11.522082724177734"><ele>446.0</ele><time>2026-03-29T13:06:32.999Z</time></trkpt><trkpt lat="43.490195077779596" lon="11.52187464508816"><ele>446.0</ele><time>2026-03-29T13:06:33.999Z</time></trkpt><trkpt lat="43.490151075863224" lon="11.521637134855714"><ele>446.0</ele><time>2026-03-29T13:06:34.999Z</time></trkpt><trkpt lat="43.49011036667713" lon="11.521397326683616"><ele>446.0</ele><time>2026-03-29T13:06:35.999Z</time></trkpt><trkpt lat="43.49005652676453" lon="11.521159841993658"><ele>447.66666666666663</ele><time>2026-03-29T13:06:36.999Z</time></trkpt><trkpt lat="43.49002366826667" lon="11.520913188261906"><ele>449.33333333333337</ele><time>2026-03-29T13:06:37.999Z</time></trkpt><trkpt lat="43.48999288937121" lon="11.52066266422475"><ele>451.0</ele><time>2026-03-29T13:06:38.999Z</time></trkpt><trkpt lat="43.48997066206996" lon="11.520411796904169"><ele>450.0</ele><time>2026-03-29T13:06:39.999Z</time></trkpt><trkpt lat="43.489948795581164" lon="11.5201513069524"><ele>449.0</ele><time>2026-03-29T13:06:40.999Z</time></trkpt><trkpt lat="43.489919925359814" lon="11.519893356898244"><ele>448.0</ele><time>2026-03-29T13:06:41.999Z</time></trkpt><trkpt lat="43.48987591291227" lon="11.519636705368283"><ele>445.6666666666667</ele><time>2026-03-29T13:06:42.999Z</time></trkpt><trkpt lat="43.48982352582601" lon="11.519377315548901"><ele>443.33333333333337</ele><time>2026-03-29T13:06:43.999Z</time></trkpt><trkpt lat="43.489773644237516" lon="11.519117782160784"><ele>441.0</ele><time>2026-03-29T13:06:44.999Z</time></trkpt><trkpt lat="43.4897210795776" lon="11.518854126346346"><ele>440.0</ele><time>2026-03-29T13:06:45.999Z</time></trkpt><trkpt lat="43.489668362699675" lon="11.518596406729118"><ele>439.0</ele><time>2026-03-29T13:06:46.999Z</time></trkpt><trkpt lat="43.489633420450865" lon="11.518339967815578"><ele>438.0</ele><time>2026-03-29T13:06:47.999Z</time></trkpt><trkpt lat="43.48958816956775" lon="11.51810389590514"><ele>443.66666666666663</ele><time>2026-03-29T13:06:48.999Z</time></trkpt><trkpt lat="43.48956680475677" lon="11.51788668482292"><ele>449.3333333333333</ele><time>2026-03-29T13:06:49.999Z</time></trkpt><trkpt lat="43.48959217333089" lon="11.517666479071215"><ele>455.0</ele><time>2026-03-29T13:06:50.999Z</time></trkpt><trkpt lat="43.489603197413906" lon="11.517429582832099"><ele>455.0</ele><time>2026-03-29T13:06:51.999Z</time></trkpt><trkpt lat="43.48960577527122" lon="11.517207635743954"><ele>455.0</ele><time>2026-03-29T13:06:52.999Z</time></trkpt><trkpt lat="43.48955975419551" lon="11.516996394884021"><ele>455.0</ele><time>2026-03-29T13:06:53.999Z</time></trkpt><trkpt lat="43.48947001402497" lon="11.516796885808597"><ele>461.75</ele><time>2026-03-29T13:06:54.999Z</time></trkpt><trkpt lat="43.489404926943024" lon="11.516612807965897"><ele>468.5</ele><time>2026-03-29T13:06:55.999Z</time></trkpt><trkpt lat="43.489393921972884" lon="11.516444727405965"><ele>475.25</ele><time>2026-03-29T13:06:56.999Z</time></trkpt><trkpt lat="43.4894320497746" lon="11.516292034531629"><ele>482.0</ele><time>2026-03-29T13:06:57.999Z</time></trkpt><trkpt lat="43.489509750972935" lon="11.516166355363751"><ele>482.5</ele><time>2026-03-29T13:06:58.999Z</time></trkpt><trkpt lat="43.48953464981551" lon="11.516020445983017"><ele>483.0</ele><time>2026-03-29T13:06:59.999Z</time></trkpt><trkpt lat="43.48950545159444" lon="11.515888463263263"><ele>483.5</ele><time>2026-03-29T13:07:00.999Z</time></trkpt><trkpt lat="43.48942072448027" lon="11.515780055550179"><ele>484.0</ele><time>2026-03-29T13:07:01.999Z</time></trkpt><trkpt lat="43.48930544540195" lon="11.5156911100175"><ele>484.0</ele><time>2026-03-29T13:07:02.999Z</time></trkpt><trkpt lat="43.489154161265844" lon="11.515639122806617"><ele>484.0</ele><time>2026-03-29T13:07:03.999Z</time></trkpt><trkpt lat="43.48897126318185" lon="11.515558696132041"><ele>484.0</ele><time>2026-03-29T13:07:04.999Z</time></trkpt><trkpt lat="43.48882889603939" lon="11.51548210642538"><ele>482.33333333333337</ele><time>2026-03-29T13:07:05.999Z</time></trkpt><trkpt lat="43.48868341087488" lon="11.51538126817973"><ele>480.66666666666663</ele><time>2026-03-29T13:07:06.999Z</time></trkpt><trkpt lat="43.48854804135988" lon="11.515222440891568"><ele>479.0</ele><time>2026-03-29T13:07:07.999Z</time></trkpt><trkpt lat="43.48845335373716" lon="11.515059750487419"><ele>479.0</ele><time>2026-03-29T13:07:08.999Z</time></trkpt><trkpt lat="43.48839968855552" lon="11.514866350543935"><ele>479.0</ele><time>2026-03-29T13:07:09.999Z</time></trkpt><trkpt lat="43.488355477093805" lon="11.514662538365187"><ele>479.0</ele><time>2026-03-29T13:07:10.999Z</time></trkpt><trkpt lat="43.48832564028906" lon="11.51443191318742"><ele>479.0</ele><time>2026-03-29T13:07:11.999Z</time></trkpt><trkpt lat="43.48828924576659" lon="11.514194190748087"><ele>479.0</ele><time>2026-03-29T13:07:12.999Z</time></trkpt><trkpt lat="43.48827293310834" lon="11.513943061878091"><ele>479.0</ele><time>2026-03-29T13:07:13.999Z</time></trkpt><trkpt lat="43.48825278226449" lon="11.513684082839953"><ele>480.3333333333333</ele><time>2026-03-29T13:07:14.999Z</time></trkpt><trkpt lat="43.48823410533517" lon="11.513424029946774"><ele>481.66666666666663</ele><time>2026-03-29T13:07:15.999Z</time></trkpt><trkpt lat="43.48821712316619" lon="11.513174683126282"><ele>483.0</ele><time>2026-03-29T13:07:16.999Z</time></trkpt><trkpt lat="43.48819633657344" lon="11.512941877433894"><ele>482.66666666666663</ele><time>2026-03-29T13:07:17.999Z</time></trkpt><trkpt lat="43.48815348674836" lon="11.512725930561428"><ele>482.3333333333333</ele><time>2026-03-29T13:07:18.999Z</time></trkpt><trkpt lat="43.48808190212377" lon="11.51253706814245"><ele>482.0</ele><time>2026-03-29T13:07:19.999Z</time></trkpt><trkpt lat="43.487988016160045" lon="11.512340903296518"><ele>482.0</ele><time>2026-03-29T13:07:20.999Z</time></trkpt><trkpt lat="43.48792807256382" lon="11.512123095940076"><ele>482.0</ele><time>2026-03-29T13:07:21.999Z</time></trkpt><trkpt lat="43.48786767230859" lon="11.51193202723855"><ele>482.0</ele><time>2026-03-29T13:07:22.999Z</time></trkpt><trkpt lat="43.48781903098601" lon="11.511740158141999"><ele>486.66666666666663</ele><time>2026-03-29T13:07:23.999Z</time></trkpt><trkpt lat="43.48778396370125" lon="11.51152873826211"><ele>491.33333333333337</ele><time>2026-03-29T13:07:24.999Z</time></trkpt><trkpt lat="43.48773260241366" lon="11.511314495188236"><ele>496.0</ele><time>2026-03-29T13:07:25.999Z</time></trkpt><trkpt lat="43.48768780075905" lon="11.511103831831768"><ele>497.0</ele><time>2026-03-29T13:07:26.999Z</time></trkpt><trkpt lat="43.48761261563561" lon="11.51091778046176"><ele>498.0</ele><time>2026-03-29T13:07:27.999Z</time></trkpt><trkpt lat="43.48749201884883" lon="11.510767590963386"><ele>499.0</ele><time>2026-03-29T13:07:28.999Z</time></trkpt><trkpt lat="43.48734293149986" lon="11.510626865049305"><ele>499.0</ele><time>2026-03-29T13:07:29.999Z</time></trkpt><trkpt lat="43.48720274533575" lon="11.510452892802775"><ele>499.0</ele><time>2026-03-29T13:07:30.999Z</time></trkpt><trkpt lat="43.48703990054192" lon="11.510275796542686"><ele>499.0</ele><time>2026-03-29T13:07:31.999Z</time></trkpt><trkpt lat="43.48689842575489" lon="11.510128705082415"><ele>501.0</ele><time>2026-03-29T13:07:32.999Z</time></trkpt><trkpt lat="43.486779754393645" lon="11.510001355716705"><ele>503.0</ele><time>2026-03-29T13:07:33.999Z</time></trkpt><trkpt lat="43.486672848598424" lon="11.509881610205296"><ele>505.0</ele><time>2026-03-29T13:07:34.999Z</time></trkpt><trkpt lat="43.486560490303965" lon="11.509760495023627"><ele>507.0</ele><time>2026-03-29T13:07:35.999Z</time></trkpt><trkpt lat="43.48645368005022" lon="11.509659337971629"><ele>507.0</ele><time>2026-03-29T13:07:36.999Z</time></trkpt><trkpt lat="43.48633400430551" lon="11.509637001674326"><ele>507.0</ele><time>2026-03-29T13:07:37.999Z</time></trkpt><trkpt lat="43.486261510411" lon="11.50967733646468"><ele>507.0</ele><time>2026-03-29T13:07:38.999Z</time></trkpt><trkpt lat="43.486227668801796" lon="11.509841345393571"><ele>507.0</ele><time>2026-03-29T13:07:40Z</time></trkpt><trkpt lat="43.48611055858888" lon="11.509940388878926"><ele>509.75</ele><time>2026-03-29T13:07:42Z</time></trkpt><trkpt lat="43.48599215869428" lon="11.509935696753057"><ele>512.5</ele><time>2026-03-29T13:07:43Z</time></trkpt><trkpt lat="43.48585423888074" lon="11.509990981683242"><ele>515.25</ele><time>2026-03-29T13:07:44Z</time></trkpt><trkpt lat="43.48572594317675" lon="11.510010068972255"><ele>518.0</ele><time>2026-03-29T13:07:45Z</time></trkpt><trkpt lat="43.485626669550456" lon="11.509980981367796"><ele>518.0</ele><time>2026-03-29T13:07:46Z</time></trkpt><trkpt lat="43.48554256364345" lon="11.509962625513381"><ele>518.0</ele><time>2026-03-29T13:07:47Z</time></trkpt><trkpt lat="43.48547863540572" lon="11.509931461467609"><ele>518.0</ele><time>2026-03-29T13:07:48Z</time></trkpt><trkpt lat="43.48541867748157" lon="11.509874049691941"><ele>518.0</ele><time>2026-03-29T13:07:49Z</time></trkpt><trkpt lat="43.48540287349845" lon="11.509737799761611"><ele>518.0</ele><time>2026-03-29T13:07:50Z</time></trkpt><trkpt lat="43.485361326001374" lon="11.509630926595289"><ele>518.0</ele><time>2026-03-29T13:07:51Z</time></trkpt><trkpt lat="43.48532767639433" lon="11.509543478686275"><ele>517.5</ele><time>2026-03-29T13:07:52Z</time></trkpt><trkpt lat="43.48522843457695" lon="11.509426600449176"><ele>517.0</ele><time>2026-03-29T13:07:54Z</time></trkpt><trkpt lat="43.48509311375668" lon="11.509506121933912"><ele>516.5</ele><time>2026-03-29T13:07:55Z</time></trkpt><trkpt lat="43.484980217921674" lon="11.509561392721146"><ele>516.0</ele><time>2026-03-29T13:07:56Z</time></trkpt><trkpt lat="43.48487312407011" lon="11.509599047593767"><ele>516.0</ele><time>2026-03-29T13:07:57Z</time></trkpt><trkpt lat="43.48477880996297" lon="11.509628651806345"><ele>516.0</ele><time>2026-03-29T13:07:58Z</time></trkpt><trkpt lat="43.48469272076478" lon="11.509651775351697"><ele>516.0</ele><time>2026-03-29T13:07:59Z</time></trkpt><trkpt lat="43.484608434894966" lon="11.509674723210226"><ele>516.0</ele><time>2026-03-29T13:08:00Z</time></trkpt><trkpt lat="43.48452612110953" lon="11.509683009711917"><ele>516.0</ele><time>2026-03-29T13:08:01Z</time></trkpt><trkpt lat="43.48443347395652" lon="11.509665785931492"><ele>516.0</ele><time>2026-03-29T13:08:02Z</time></trkpt><trkpt lat="43.48434723711465" lon="11.50957498315905"><ele>514.25</ele><time>2026-03-29T13:08:03Z</time></trkpt><trkpt lat="43.48423319298329" lon="11.509497649692472"><ele>512.5</ele><time>2026-03-29T13:08:04Z</time></trkpt><trkpt lat="43.48409972570356" lon="11.509411726529521"><ele>510.75</ele><time>2026-03-29T13:08:05Z</time></trkpt><trkpt lat="43.483961139936454" lon="11.509322507858585"><ele>509.0</ele><time>2026-03-29T13:08:06Z</time></trkpt><trkpt lat="43.48382140899195" lon="11.509232605939163"><ele>508.0</ele><time>2026-03-29T13:08:07Z</time></trkpt><trkpt lat="43.483687348985086" lon="11.509146635193485"><ele>507.0</ele><time>2026-03-29T13:08:08Z</time></trkpt><trkpt lat="43.48355479145811" lon="11.509061626970388"><ele>506.0</ele><time>2026-03-29T13:08:09Z</time></trkpt><trkpt lat="43.48342973361967" lon="11.508976630643058"><ele>505.0</ele><time>2026-03-29T13:08:10Z</time></trkpt><trkpt lat="43.48330793495629" lon="11.508892732444714"><ele>505.0</ele><time>2026-03-29T13:08:11Z</time></trkpt><trkpt lat="43.48318486557644" lon="11.5088075936826"><ele>505.0</ele><time>2026-03-29T13:08:12Z</time></trkpt><trkpt lat="43.48305983363683" lon="11.508721097253295"><ele>505.0</ele><time>2026-03-29T13:08:13Z</time></trkpt><trkpt lat="43.48292630098282" lon="11.508653373846952"><ele>505.0</ele><time>2026-03-29T13:08:14Z</time></trkpt><trkpt lat="43.48280712403544" lon="11.508547213722492"><ele>506.6666666666667</ele><time>2026-03-29T13:08:15Z</time></trkpt><trkpt lat="43.48266845142767" lon="11.508458909494239"><ele>508.33333333333337</ele><time>2026-03-29T13:08:16Z</time></trkpt><trkpt lat="43.48250345972137" lon="11.508429594989316"><ele>510.0</ele><time>2026-03-29T13:08:17Z</time></trkpt><trkpt lat="43.48234280845095" lon="11.508406030907604"><ele>510.0</ele><time>2026-03-29T13:08:18Z</time></trkpt><trkpt lat="43.482183741704475" lon="11.508393421567806"><ele>510.0</ele><time>2026-03-29T13:08:19Z</time></trkpt><trkpt lat="43.48203318888508" lon="11.50836651946355"><ele>510.0</ele><time>2026-03-29T13:08:20Z</time></trkpt><trkpt lat="43.481889108867954" lon="11.508335116014928"><ele>512.0</ele><time>2026-03-29T13:08:21Z</time></trkpt><trkpt lat="43.481742165773205" lon="11.508299480710791"><ele>514.0</ele><time>2026-03-29T13:08:22Z</time></trkpt><trkpt lat="43.48159846096136" lon="11.508277698721619"><ele>516.0</ele><time>2026-03-29T13:08:23Z</time></trkpt><trkpt lat="43.481456578139095" lon="11.508263211624238"><ele>518.0</ele><time>2026-03-29T13:08:24Z</time></trkpt><trkpt lat="43.481315564947856" lon="11.508280066939475"><ele>519.0</ele><time>2026-03-29T13:08:25Z</time></trkpt><trkpt lat="43.48118248262342" lon="11.508350363604402"><ele>520.0</ele><time>2026-03-29T13:08:25.999Z</time></trkpt><trkpt lat="43.48105069473836" lon="11.508424507137885"><ele>521.0</ele><time>2026-03-29T13:08:26.999Z</time></trkpt><trkpt lat="43.48089797376046" lon="11.508429146876717"><ele>522.0</ele><time>2026-03-29T13:08:27.999Z</time></trkpt><trkpt lat="43.480757211623455" lon="11.508436547275236"><ele>522.0</ele><time>2026-03-29T13:08:28.999Z</time></trkpt><trkpt lat="43.48061876731163" lon="11.508460657157617"><ele>522.0</ele><time>2026-03-29T13:08:29.999Z</time></trkpt><trkpt lat="43.480486911810054" lon="11.508548897406698"><ele>522.0</ele><time>2026-03-29T13:08:30.999Z</time></trkpt><trkpt lat="43.480362292741994" lon="11.508661328188351"><ele>522.0</ele><time>2026-03-29T13:08:31.999Z</time></trkpt><trkpt lat="43.48021897755726" lon="11.50873389543911"><ele>521.75</ele><time>2026-03-29T13:08:32.999Z</time></trkpt><trkpt lat="43.48008611606339" lon="11.508817945462319"><ele>521.5</ele><time>2026-03-29T13:08:33.999Z</time></trkpt><trkpt lat="43.47995765357737" lon="11.508896217445626"><ele>521.25</ele><time>2026-03-29T13:08:34.999Z</time></trkpt><trkpt lat="43.479829144431335" lon="11.508970590020667"><ele>521.0</ele><time>2026-03-29T13:08:35.999Z</time></trkpt><trkpt lat="43.47969775717143" lon="11.509034857210663"><ele>526.5</ele><time>2026-03-29T13:08:36.999Z</time></trkpt><trkpt lat="43.479560300433114" lon="11.509093824426007"><ele>532.0</ele><time>2026-03-29T13:08:37.999Z</time></trkpt><trkpt lat="43.47941984735945" lon="11.509137857949906"><ele>537.5</ele><time>2026-03-29T13:08:38.999Z</time></trkpt><trkpt lat="43.47929079775779" lon="11.509234562193557"><ele>543.0</ele><time>2026-03-29T13:08:39.999Z</time></trkpt><trkpt lat="43.47918456962844" lon="11.509371730708693"><ele>543.0</ele><time>2026-03-29T13:08:40.999Z</time></trkpt><trkpt lat="43.4790555303695" lon="11.509461594510869"><ele>543.0</ele><time>2026-03-29T13:08:41.999Z</time></trkpt><trkpt lat="43.478922676311676" lon="11.509527015434134"><ele>543.0</ele><time>2026-03-29T13:08:42.999Z</time></trkpt><trkpt lat="43.47879457011925" lon="11.509595172978509"><ele>543.0</ele><time>2026-03-29T13:08:43.999Z</time></trkpt><trkpt lat="43.478677955693215" lon="11.509708644985123"><ele>546.75</ele><time>2026-03-29T13:08:44.999Z</time></trkpt><trkpt lat="43.478619049945" lon="11.509855296531327"><ele>550.5</ele><time>2026-03-29T13:08:45.999Z</time></trkpt><trkpt lat="43.47858377510957" lon="11.509990215255057"><ele>554.25</ele><time>2026-03-29T13:08:46.999Z</time></trkpt><trkpt lat="43.47856837016066" lon="11.510152404247641"><ele>558.0</ele><time>2026-03-29T13:08:47.999Z</time></trkpt><trkpt lat="43.478559975704854" lon="11.51032060698676"><ele>556.5</ele><time>2026-03-29T13:08:48.999Z</time></trkpt><trkpt lat="43.47851973037345" lon="11.510435581272944"><ele>555.0</ele><time>2026-03-29T13:08:49.999Z</time></trkpt><trkpt lat="43.47847933446308" lon="11.510502997770175"><ele>553.5</ele><time>2026-03-29T13:08:50.999Z</time></trkpt><trkpt lat="43.4784313970303" lon="11.51056782771801"><ele>552.0</ele><time>2026-03-29T13:08:51.999Z</time></trkpt><trkpt lat="43.4783494672413" lon="11.510588098867403"><ele>550.5</ele><time>2026-03-29T13:08:52.999Z</time></trkpt><trkpt lat="43.47825842240378" lon="11.510555916450238"><ele>549.0</ele><time>2026-03-29T13:08:53.999Z</time></trkpt><trkpt lat="43.47815801262866" lon="11.51048911917844"><ele>551.25</ele><time>2026-03-29T13:08:54.999Z</time></trkpt><trkpt lat="43.47809693309267" lon="11.510376653526569"><ele>553.5</ele><time>2026-03-29T13:08:55.999Z</time></trkpt><trkpt lat="43.47803631736148" lon="11.510253479027895"><ele>555.75</ele><time>2026-03-29T13:08:56.999Z</time></trkpt><trkpt lat="43.47798586361562" lon="11.510092172663974"><ele>558.0</ele><time>2026-03-29T13:08:57.999Z</time></trkpt><trkpt lat="43.47793173943111" lon="11.509906444127305"><ele>557.25</ele><time>2026-03-29T13:08:58.999Z</time></trkpt><trkpt lat="43.477866529055426" lon="11.509721239575212"><ele>556.5</ele><time>2026-03-29T13:08:59.999Z</time></trkpt><trkpt lat="43.477798247506435" lon="11.509550938143141"><ele>555.75</ele><time>2026-03-29T13:09:00.999Z</time></trkpt><trkpt lat="43.47771820951945" lon="11.509371845946065"><ele>555.0</ele><time>2026-03-29T13:09:01.999Z</time></trkpt><trkpt lat="43.47762543766118" lon="11.509215944248044"><ele>555.0</ele><time>2026-03-29T13:09:02.999Z</time></trkpt><trkpt lat="43.47755979840424" lon="11.509070402547827"><ele>555.0</ele><time>2026-03-29T13:09:03.999Z</time></trkpt><trkpt lat="43.47748087015782" lon="11.508947619545188"><ele>555.0</ele><time>2026-03-29T13:09:04.999Z</time></trkpt><trkpt lat="43.477392887872654" lon="11.508857759309329"><ele>555.0</ele><time>2026-03-29T13:09:05.999Z</time></trkpt><trkpt lat="43.47730038140314" lon="11.508804965188677"><ele>555.0</ele><time>2026-03-29T13:09:06.999Z</time></trkpt><trkpt lat="43.47721151187862" lon="11.508774032580336"><ele>555.0</ele><time>2026-03-29T13:09:07.999Z</time></trkpt><trkpt lat="43.47711960968997" lon="11.508781767396576"><ele>555.0</ele><time>2026-03-29T13:09:08.999Z</time></trkpt><trkpt lat="43.47701530805265" lon="11.508828783775558"><ele>555.0</ele><time>2026-03-29T13:09:09.999Z</time></trkpt><trkpt lat="43.476917714413354" lon="11.508911462717048"><ele>555.0</ele><time>2026-03-29T13:09:10.999Z</time></trkpt><trkpt lat="43.47684558824325" lon="11.509033145573323"><ele>555.75</ele><time>2026-03-29T13:09:11.999Z</time></trkpt><trkpt lat="43.47680117859071" lon="11.509190256194005"><ele>556.5</ele><time>2026-03-29T13:09:12.999Z</time></trkpt><trkpt lat="43.476757155231546" lon="11.50932584738802"><ele>557.25</ele><time>2026-03-29T13:09:13.999Z</time></trkpt><trkpt lat="43.47666886770647" lon="11.50941889661344"><ele>558.0</ele><time>2026-03-29T13:09:14.999Z</time></trkpt><trkpt lat="43.47654946516365" lon="11.50945169917946"><ele>558.0</ele><time>2026-03-29T13:09:15.999Z</time></trkpt><trkpt lat="43.47641136960399" lon="11.509477199091512"><ele>558.0</ele><time>2026-03-29T13:09:16.999Z</time></trkpt><trkpt lat="43.4762804689339" lon="11.509481735029823"><ele>558.0</ele><time>2026-03-29T13:09:17.999Z</time></trkpt><trkpt lat="43.476160558210395" lon="11.509466105226023"><ele>558.0</ele><time>2026-03-29T13:09:18.999Z</time></trkpt><trkpt lat="43.476028935060555" lon="11.509489429298785"><ele>560.75</ele><time>2026-03-29T13:09:19.999Z</time></trkpt><trkpt lat="43.47589354412709" lon="11.509496914472388"><ele>563.5</ele><time>2026-03-29T13:09:20.999Z</time></trkpt><trkpt lat="43.47577027059064" lon="11.50955256850954"><ele>566.25</ele><time>2026-03-29T13:09:21.999Z</time></trkpt><trkpt lat="43.47566360356652" lon="11.509632575605968"><ele>569.0</ele><time>2026-03-29T13:09:22.999Z</time></trkpt><trkpt lat="43.475553794320895" lon="11.50973305534123"><ele>571.25</ele><time>2026-03-29T13:09:23.999Z</time></trkpt><trkpt lat="43.475448007039226" lon="11.509847540277466"><ele>573.5</ele><time>2026-03-29T13:09:24.999Z</time></trkpt><trkpt lat="43.47535060592674" lon="11.509983891590402"><ele>575.75</ele><time>2026-03-29T13:09:25.999Z</time></trkpt><trkpt lat="43.47524767374943" lon="11.510079170289742"><ele>578.0</ele><time>2026-03-29T13:09:26.999Z</time></trkpt><trkpt lat="43.47515873510856" lon="11.51017856101398"><ele>578.0</ele><time>2026-03-29T13:09:27.999Z</time></trkpt><trkpt lat="43.475078866639784" lon="11.510275407443133"><ele>578.0</ele><time>2026-03-29T13:09:28.999Z</time></trkpt><trkpt lat="43.47501727176163" lon="11.51036332185971"><ele>578.0</ele><time>2026-03-29T13:09:29.999Z</time></trkpt><trkpt lat="43.4750057869123" lon="11.510463070587699"><ele>578.0</ele><time>2026-03-29T13:09:30.999Z</time></trkpt><trkpt lat="43.474988156454366" lon="11.510612208156246"><ele>578.0</ele><time>2026-03-29T13:09:31.999Z</time></trkpt><trkpt lat="43.47496888218581" lon="11.510753701009081"><ele>573.1999999999999</ele><time>2026-03-29T13:09:32.999Z</time></trkpt><trkpt lat="43.474926213825206" lon="11.510885470094696"><ele>568.4</ele><time>2026-03-29T13:09:33.999Z</time></trkpt><trkpt lat="43.474867643994465" lon="11.511001295646697"><ele>563.5999999999999</ele><time>2026-03-29T13:09:34.999Z</time></trkpt><trkpt lat="43.47479347601801" lon="11.511101874782288"><ele>558.8</ele><time>2026-03-29T13:09:35.999Z</time></trkpt><trkpt lat="43.47470569310135" lon="11.511184283448017"><ele>554.0</ele><time>2026-03-29T13:09:36.999Z</time></trkpt><trkpt lat="43.47461966270957" lon="11.511235762455753"><ele>555.8333333333333</ele><time>2026-03-29T13:09:37.999Z</time></trkpt><trkpt lat="43.47453443574394" lon="11.511281015161606"><ele>557.6666666666666</ele><time>2026-03-29T13:09:38.999Z</time></trkpt><trkpt lat="43.47444715351495" lon="11.511297066355977"><ele>559.5</ele><time>2026-03-29T13:09:39.999Z</time></trkpt><trkpt lat="43.474376164874585" lon="11.511357606985836"><ele>561.3333333333334</ele><time>2026-03-29T13:09:40.999Z</time></trkpt><trkpt lat="43.474341337674566" lon="11.511449358190344"><ele>563.1666666666667</ele><time>2026-03-29T13:09:41.999Z</time></trkpt><trkpt lat="43.474339370932725" lon="11.51156042474617"><ele>565.0</ele><time>2026-03-29T13:09:42.999Z</time></trkpt><trkpt lat="43.47433159013215" lon="11.511680920144684"><ele>565.0</ele><time>2026-03-29T13:09:43.999Z</time></trkpt><trkpt lat="43.47431267985336" lon="11.511811345056975"><ele>565.0</ele><time>2026-03-29T13:09:44.999Z</time></trkpt><trkpt lat="43.474277634790965" lon="11.511916548953135"><ele>565.0</ele><time>2026-03-29T13:09:46Z</time></trkpt><trkpt lat="43.474226443985195" lon="11.512027054510103"><ele>565.0</ele><time>2026-03-29T13:09:47Z</time></trkpt><trkpt lat="43.47415737212252" lon="11.512136812543712"><ele>565.0</ele><time>2026-03-29T13:09:48Z</time></trkpt><trkpt lat="43.47406338407373" lon="11.512235937713335"><ele>562.5</ele><time>2026-03-29T13:09:49Z</time></trkpt><trkpt lat="43.473969017693435" lon="11.512315571312316"><ele>560.0</ele><time>2026-03-29T13:09:50Z</time></trkpt><trkpt lat="43.473867684405825" lon="11.512381379195395"><ele>557.5</ele><time>2026-03-29T13:09:51Z</time></trkpt><trkpt lat="43.47375545102061" lon="11.512433646648208"><ele>555.0</ele><time>2026-03-29T13:09:52Z</time></trkpt><trkpt lat="43.47364652412218" lon="11.512475039462526"><ele>555.0</ele><time>2026-03-29T13:09:53Z</time></trkpt><trkpt lat="43.47355249754681" lon="11.512513096157996"><ele>555.0</ele><time>2026-03-29T13:09:54Z</time></trkpt><trkpt lat="43.47345914813217" lon="11.51252073330697"><ele>555.0</ele><time>2026-03-29T13:09:55Z</time></trkpt><trkpt lat="43.47338762754768" lon="11.512437207870477"><ele>555.0</ele><time>2026-03-29T13:09:56Z</time></trkpt><trkpt lat="43.4733045906432" lon="11.512396368778269"><ele>555.0</ele><time>2026-03-29T13:09:57Z</time></trkpt><trkpt lat="43.473236048637354" lon="11.512361547485835"><ele>555.0</ele><time>2026-03-29T13:09:58Z</time></trkpt><trkpt lat="43.47317203728979" lon="11.512357516239614"><ele>555.0</ele><time>2026-03-29T13:09:59Z</time></trkpt><trkpt lat="43.47312069404584" lon="11.512412453409318"><ele>555.0</ele><time>2026-03-29T13:10:00Z</time></trkpt><trkpt lat="43.473069829141146" lon="11.512467694062748"><ele>555.0</ele><time>2026-03-29T13:10:01Z</time></trkpt><trkpt lat="43.47298441285915" lon="11.512544605903134"><ele>555.0</ele><time>2026-03-29T13:10:02Z</time></trkpt><trkpt lat="43.4728707160184" lon="11.51258723701861"><ele>555.0</ele><time>2026-03-29T13:10:03Z</time></trkpt><trkpt lat="43.472743086161046" lon="11.51261070229824"><ele>558.6</ele><time>2026-03-29T13:10:04Z</time></trkpt><trkpt lat="43.472641861427945" lon="11.51264874132988"><ele>562.2</ele><time>2026-03-29T13:10:05Z</time></trkpt><trkpt lat="43.47257378316005" lon="11.512717470424567"><ele>565.8</ele><time>2026-03-29T13:10:06Z</time></trkpt><trkpt lat="43.472546253796615" lon="11.512806791044309"><ele>569.4</ele><time>2026-03-29T13:10:07Z</time></trkpt><trkpt lat="43.47254551792394" lon="11.512903652653836"><ele>573.0</ele><time>2026-03-29T13:10:08Z</time></trkpt><trkpt lat="43.472633471032196" lon="11.513034969057015"><ele>573.1999999999999</ele><time>2026-03-29T13:10:10Z</time></trkpt><trkpt lat="43.47272103219978" lon="11.513087357134957"><ele>573.4</ele><time>2026-03-29T13:10:11Z</time></trkpt><trkpt lat="43.472808903628675" lon="11.513138905885187"><ele>573.5999999999999</ele><time>2026-03-29T13:10:12Z</time></trkpt><trkpt lat="43.47288966879983" lon="11.513199565705422"><ele>573.8</ele><time>2026-03-29T13:10:13Z</time></trkpt><trkpt lat="43.47299132727952" lon="11.513310122803647"><ele>574.0</ele><time>2026-03-29T13:10:14Z</time></trkpt><trkpt lat="43.473089231074624" lon="11.51345318437541"><ele>567.4</ele><time>2026-03-29T13:10:15Z</time></trkpt><trkpt lat="43.47317746874144" lon="11.513596040669508"><ele>560.8</ele><time>2026-03-29T13:10:16Z</time></trkpt><trkpt lat="43.47323998937196" lon="11.513708117224521"><ele>554.2</ele><time>2026-03-29T13:10:17Z</time></trkpt><trkpt lat="43.473291216205624" lon="11.513824573301553"><ele>547.6</ele><time>2026-03-29T13:10:18Z</time></trkpt><trkpt lat="43.47332565041576" lon="11.513948177018765"><ele>541.0</ele><time>2026-03-29T13:10:19Z</time></trkpt><trkpt lat="43.473352461867194" lon="11.514096761936644"><ele>541.0</ele><time>2026-03-29T13:10:20Z</time></trkpt><trkpt lat="43.47337327793694" lon="11.51426518688095"><ele>541.0</ele><time>2026-03-29T13:10:21Z</time></trkpt><trkpt lat="43.473366167348146" lon="11.514423713396601"><ele>541.0</ele><time>2026-03-29T13:10:22Z</time></trkpt><trkpt lat="43.473326890466815" lon="11.514553987121557"><ele>541.0</ele><time>2026-03-29T13:10:23Z</time></trkpt><trkpt lat="43.47328335276012" lon="11.514671117372105"><ele>541.0</ele><time>2026-03-29T13:10:24Z</time></trkpt><trkpt lat="43.47321298765964" lon="11.514758147050689"><ele>541.4</ele><time>2026-03-29T13:10:25Z</time></trkpt><trkpt lat="43.47313485606086" lon="11.514849624055147"><ele>541.8</ele><time>2026-03-29T13:10:26Z</time></trkpt><trkpt lat="43.473039986743665" lon="11.514912880334057"><ele>542.1999999999999</ele><time>2026-03-29T13:10:27Z</time></trkpt><trkpt lat="43.4729587111125" lon="11.514978583738584"><ele>542.6</ele><time>2026-03-29T13:10:28Z</time></trkpt><trkpt lat="43.47290653080348" lon="11.515046529586604"><ele>543.0</ele><time>2026-03-29T13:10:29Z</time></trkpt><trkpt lat="43.47288546443474" lon="11.515167920913298"><ele>546.6</ele><time>2026-03-29T13:10:30Z</time></trkpt><trkpt lat="43.472875500065136" lon="11.515273787676044"><ele>550.1999999999999</ele><time>2026-03-29T13:10:31Z</time></trkpt><trkpt lat="43.47290937082701" lon="11.515375155691451"><ele>553.8</ele><time>2026-03-29T13:10:32Z</time></trkpt><trkpt lat="43.47298885982511" lon="11.51545330276454"><ele>557.4</ele><time>2026-03-29T13:10:33Z</time></trkpt><trkpt lat="43.473129030928405" lon="11.515451613937698"><ele>561.0</ele><time>2026-03-29T13:10:34Z</time></trkpt><trkpt lat="43.47325387950561" lon="11.515455553814624"><ele>561.0</ele><time>2026-03-29T13:10:35Z</time></trkpt><trkpt lat="43.47338672945098" lon="11.515450742827893"><ele>561.0</ele><time>2026-03-29T13:10:35.999Z</time></trkpt><trkpt lat="43.4735052387647" lon="11.515436434116737"><ele>561.0</ele><time>2026-03-29T13:10:36.999Z</time></trkpt><trkpt lat="43.473609310155176" lon="11.515423349216922"><ele>561.0</ele><time>2026-03-29T13:10:37.999Z</time></trkpt><trkpt lat="43.47370427723658" lon="11.51545861915652"><ele>554.8</ele><time>2026-03-29T13:10:38.999Z</time></trkpt><trkpt lat="43.47378634223523" lon="11.515505853353744"><ele>548.6</ele><time>2026-03-29T13:10:39.999Z</time></trkpt><trkpt lat="43.47387639035961" lon="11.515567347091869"><ele>542.4</ele><time>2026-03-29T13:10:40.999Z</time></trkpt><trkpt lat="43.47397652956717" lon="11.515638562682513"><ele>536.2</ele><time>2026-03-29T13:10:41.999Z</time></trkpt><trkpt lat="43.474049472518935" lon="11.515721744033996"><ele>530.0</ele><time>2026-03-29T13:10:42.999Z</time></trkpt><trkpt lat="43.47407293893839" lon="11.515843890981461"><ele>530.0</ele><time>2026-03-29T13:10:43.999Z</time></trkpt><trkpt lat="43.474111123473506" lon="11.515995904041029"><ele>530.0</ele><time>2026-03-29T13:10:44.999Z</time></trkpt><trkpt lat="43.47415274756955" lon="11.516178210830576"><ele>530.0</ele><time>2026-03-29T13:10:45.999Z</time></trkpt><trkpt lat="43.47419988567507" lon="11.516381696227521"><ele>530.0</ele><time>2026-03-29T13:10:46.999Z</time></trkpt><trkpt lat="43.47426814039691" lon="11.516560265016054"><ele>531.5</ele><time>2026-03-29T13:10:47.999Z</time></trkpt><trkpt lat="43.47431370247146" lon="11.51672093488621"><ele>533.0</ele><time>2026-03-29T13:10:48.999Z</time></trkpt><trkpt lat="43.474354615666314" lon="11.516885914188688"><ele>534.5</ele><time>2026-03-29T13:10:49.999Z</time></trkpt><trkpt lat="43.474412449179425" lon="11.517060210025445"><ele>536.0</ele><time>2026-03-29T13:10:50.999Z</time></trkpt><trkpt lat="43.47448369480766" lon="11.51721001389276"><ele>536.0</ele><time>2026-03-29T13:10:51.999Z</time></trkpt><trkpt lat="43.4745875465705" lon="11.517298281146784"><ele>536.0</ele><time>2026-03-29T13:10:52.999Z</time></trkpt><trkpt lat="43.47464807483323" lon="11.5174206668746"><ele>536.0</ele><time>2026-03-29T13:10:53.999Z</time></trkpt><trkpt lat="43.47470440484004" lon="11.517526619675907"><ele>536.0</ele><time>2026-03-29T13:10:54.999Z</time></trkpt><trkpt lat="43.47474199107149" lon="11.517629753198051"><ele>536.0</ele><time>2026-03-29T13:10:55.999Z</time></trkpt><trkpt lat="43.47475220096998" lon="11.517722886014928"><ele>536.0</ele><time>2026-03-29T13:10:56.999Z</time></trkpt><trkpt lat="43.47470462860517" lon="11.517798023769632"><ele>536.0</ele><time>2026-03-29T13:10:57.999Z</time></trkpt><trkpt lat="43.47462952905092" lon="11.517816688404592"><ele>536.0</ele><time>2026-03-29T13:10:58.999Z</time></trkpt><trkpt lat="43.47453081020672" lon="11.517762379596316"><ele>536.0</ele><time>2026-03-29T13:10:59.999Z</time></trkpt><trkpt lat="43.47439596222947" lon="11.517721892100395"><ele>536.0</ele><time>2026-03-29T13:11:00.999Z</time></trkpt><trkpt lat="43.474256355465215" lon="11.517698677938625"><ele>536.0</ele><time>2026-03-29T13:11:01.999Z</time></trkpt><trkpt lat="43.474116700088466" lon="11.517687527208814"><ele>536.0</ele><time>2026-03-29T13:11:02.999Z</time></trkpt><trkpt lat="43.47396563322528" lon="11.517709473195444"><ele>536.0</ele><time>2026-03-29T13:11:03.999Z</time></trkpt><trkpt lat="43.473808658400024" lon="11.517749505072674"><ele>539.5</ele><time>2026-03-29T13:11:04.999Z</time></trkpt><trkpt lat="43.473659083173686" lon="11.517792798226502"><ele>543.0</ele><time>2026-03-29T13:11:05.999Z</time></trkpt><trkpt lat="43.473509638379596" lon="11.517825870859392"><ele>546.5</ele><time>2026-03-29T13:11:06.999Z</time></trkpt><trkpt lat="43.473375876308964" lon="11.517887924700235"><ele>550.0</ele><time>2026-03-29T13:11:07.999Z</time></trkpt><trkpt lat="43.47324217754334" lon="11.517986246568714"><ele>545.6666666666667</ele><time>2026-03-29T13:11:08.999Z</time></trkpt><trkpt lat="43.473117695185685" lon="11.518104839066698"><ele>541.3333333333334</ele><time>2026-03-29T13:11:09.999Z</time></trkpt><trkpt lat="43.472984462583504" lon="11.518240023985204"><ele>537.0</ele><time>2026-03-29T13:11:10.999Z</time></trkpt><trkpt lat="43.47284245362636" lon="11.518394464690129"><ele>537.0</ele><time>2026-03-29T13:11:11.999Z</time></trkpt><trkpt lat="43.47270643428555" lon="11.518524531190709"><ele>537.0</ele><time>2026-03-29T13:11:12.999Z</time></trkpt><trkpt lat="43.47255434938667" lon="11.518650666158315"><ele>537.0</ele><time>2026-03-29T13:11:13.999Z</time></trkpt><trkpt lat="43.47242545221773" lon="11.518808848515222"><ele>536.3333333333334</ele><time>2026-03-29T13:11:14.999Z</time></trkpt><trkpt lat="43.47228532005265" lon="11.518940555921652"><ele>535.6666666666667</ele><time>2026-03-29T13:11:15.999Z</time></trkpt><trkpt lat="43.47215526702166" lon="11.519068335074616"><ele>535.0</ele><time>2026-03-29T13:11:16.999Z</time></trkpt><trkpt lat="43.47204166159726" lon="11.519177268832957"><ele>535.0</ele><time>2026-03-29T13:11:17.999Z</time></trkpt><trkpt lat="43.47193624556816" lon="11.519262439523608"><ele>535.0</ele><time>2026-03-29T13:11:18.999Z</time></trkpt><trkpt lat="43.47182711362799" lon="11.519293553479752"><ele>535.0</ele><time>2026-03-29T13:11:19.999Z</time></trkpt><trkpt lat="43.47172829894196" lon="11.519241359557"><ele>535.0</ele><time>2026-03-29T13:11:20.999Z</time></trkpt><trkpt lat="43.47167084051424" lon="11.519148073403262"><ele>535.0</ele><time>2026-03-29T13:11:21.999Z</time></trkpt><trkpt lat="43.47160178084349" lon="11.51908265028465"><ele>535.0</ele><time>2026-03-29T13:11:22.999Z</time></trkpt><trkpt lat="43.471523861368475" lon="11.519029766553881"><ele>535.0</ele><time>2026-03-29T13:11:23.999Z</time></trkpt><trkpt lat="43.471448769760016" lon="11.518978981237966"><ele>535.0</ele><time>2026-03-29T13:11:24.999Z</time></trkpt><trkpt lat="43.471381658354844" lon="11.519007322328077"><ele>535.0</ele><time>2026-03-29T13:11:25.999Z</time></trkpt><trkpt lat="43.471333749401616" lon="11.519073071018546"><ele>535.0</ele><time>2026-03-29T13:11:26.999Z</time></trkpt><trkpt lat="43.47132124880182" lon="11.519170142156394"><ele>535.0</ele><time>2026-03-29T13:11:27.999Z</time></trkpt><trkpt lat="43.471313473613804" lon="11.519297792526231"><ele>535.0</ele><time>2026-03-29T13:11:28.999Z</time></trkpt><trkpt lat="43.471290049756675" lon="11.519444244413084"><ele>535.0</ele><time>2026-03-29T13:11:29.999Z</time></trkpt><trkpt lat="43.47124372265192" lon="11.519548818243848"><ele>535.0</ele><time>2026-03-29T13:11:30.999Z</time></trkpt><trkpt lat="43.47116438091146" lon="11.519594687115818"><ele>535.0</ele><time>2026-03-29T13:11:31.999Z</time></trkpt><trkpt lat="43.47106832063027" lon="11.519582239934586"><ele>535.0</ele><time>2026-03-29T13:11:32.999Z</time></trkpt><trkpt lat="43.470991002112555" lon="11.519641496161174"><ele>536.8</ele><time>2026-03-29T13:11:33.999Z</time></trkpt><trkpt lat="43.47091161783982" lon="11.519686219843946"><ele>538.6</ele><time>2026-03-29T13:11:34.999Z</time></trkpt><trkpt lat="43.47082900077078" lon="11.519820201644102"><ele>540.4</ele><time>2026-03-29T13:11:35.999Z</time></trkpt><trkpt lat="43.470784376698155" lon="11.519932753184285"><ele>542.2</ele><time>2026-03-29T13:11:36.999Z</time></trkpt><trkpt lat="43.47075508649119" lon="11.520068274194635"><ele>544.0</ele><time>2026-03-29T13:11:37.999Z</time></trkpt><trkpt lat="43.47071967762955" lon="11.520218848635384"><ele>544.0</ele><time>2026-03-29T13:11:38.999Z</time></trkpt><trkpt lat="43.47065788110374" lon="11.520379280796496"><ele>544.0</ele><time>2026-03-29T13:11:39.999Z</time></trkpt><trkpt lat="43.470578802779094" lon="11.520540948268799"><ele>544.0</ele><time>2026-03-29T13:11:40.999Z</time></trkpt><trkpt lat="43.470497704871434" lon="11.520651276279263"><ele>544.0</ele><time>2026-03-29T13:11:41.999Z</time></trkpt><trkpt lat="43.47038732781459" lon="11.520734674752731"><ele>548.6666666666667</ele><time>2026-03-29T13:11:42.999Z</time></trkpt><trkpt lat="43.47026510048182" lon="11.52081520921909"><ele>553.3333333333334</ele><time>2026-03-29T13:11:43.999Z</time></trkpt><trkpt lat="43.47012633386022" lon="11.520914173403721"><ele>558.0</ele><time>2026-03-29T13:11:44.999Z</time></trkpt><trkpt lat="43.46998860574616" lon="11.521033455140417"><ele>558.0</ele><time>2026-03-29T13:11:45.999Z</time></trkpt><trkpt lat="43.469850192972046" lon="11.521159966703333"><ele>558.0</ele><time>2026-03-29T13:11:46.999Z</time></trkpt><trkpt lat="43.46972716928675" lon="11.521283831317437"><ele>558.0</ele><time>2026-03-29T13:11:47.999Z</time></trkpt><trkpt lat="43.469595617432404" lon="11.521370679338558"><ele>560.8</ele><time>2026-03-29T13:11:48.999Z</time></trkpt><trkpt lat="43.46947879305254" lon="11.52146356238022"><ele>563.5999999999999</ele><time>2026-03-29T13:11:49.999Z</time></trkpt><trkpt lat="43.46939740254868" lon="11.521555838231544"><ele>566.4000000000001</ele><time>2026-03-29T13:11:50.999Z</time></trkpt><trkpt lat="43.46931428258809" lon="11.521614473354546"><ele>569.2</ele><time>2026-03-29T13:11:52Z</time></trkpt><trkpt lat="43.46925681611058" lon="11.521700587164428"><ele>572.0</ele><time>2026-03-29T13:11:53Z</time></trkpt><trkpt lat="43.46924771999948" lon="11.521815803891764"><ele>572.0</ele><time>2026-03-29T13:11:54Z</time></trkpt><trkpt lat="43.4692945602056" lon="11.521928378765004"><ele>572.0</ele><time>2026-03-29T13:11:55Z</time></trkpt><trkpt lat="43.46930903910147" lon="11.52208156969669"><ele>572.0</ele><time>2026-03-29T13:11:57Z</time></trkpt><trkpt lat="43.4692390763" lon="11.522138975020331"><ele>572.0</ele><time>2026-03-29T13:11:59Z</time></trkpt><trkpt lat="43.46914426038522" lon="11.52210479915424"><ele>572.0</ele><time>2026-03-29T13:12:01Z</time></trkpt><trkpt lat="43.46905829908918" lon="11.52205972477339"><ele>572.0</ele><time>2026-03-29T13:12:02Z</time></trkpt><trkpt lat="43.46896173487499" lon="11.522028005470752"><ele>572.0</ele><time>2026-03-29T13:12:03Z</time></trkpt><trkpt lat="43.46886285858235" lon="11.521994025444556"><ele>572.0</ele><time>2026-03-29T13:12:04Z</time></trkpt><trkpt lat="43.46876632617709" lon="11.52196463179616"><ele>572.0</ele><time>2026-03-29T13:12:05Z</time></trkpt><trkpt lat="43.468669578431246" lon="11.521943100001057"><ele>572.0</ele><time>2026-03-29T13:12:06Z</time></trkpt><trkpt lat="43.468606683052535" lon="11.521887629743645"><ele>572.4</ele><time>2026-03-29T13:12:07Z</time></trkpt><trkpt lat="43.4685209793078" lon="11.521784732219002"><ele>572.8000000000001</ele><time>2026-03-29T13:12:09Z</time></trkpt><trkpt lat="43.46844985976532" lon="11.521756557118183"><ele>573.2</ele><time>2026-03-29T13:12:31Z</time></trkpt><trkpt lat="43.468398506699906" lon="11.521893094553025"><ele>573.6</ele><time>2026-03-29T13:12:32Z</time></trkpt><trkpt lat="43.46831546338477" lon="11.522025093585818"><ele>574.0</ele><time>2026-03-29T13:12:34Z</time></trkpt><trkpt lat="43.468272223125474" lon="11.52211494080265"><ele>574.0</ele><time>2026-03-29T13:12:35Z</time></trkpt><trkpt lat="43.468230300255215" lon="11.522199742893969"><ele>574.0</ele><time>2026-03-29T13:12:36Z</time></trkpt><trkpt lat="43.46819288530908" lon="11.522291778167938"><ele>574.0</ele><time>2026-03-29T13:12:37Z</time></trkpt><trkpt lat="43.46813075025923" lon="11.522347067237405"><ele>574.0</ele><time>2026-03-29T13:12:39Z</time></trkpt><trkpt lat="43.4680699414538" lon="11.522278734270298"><ele>574.0</ele><time>2026-03-29T13:12:41Z</time></trkpt><trkpt lat="43.46809964988112" lon="11.52213547464257"><ele>574.0</ele><time>2026-03-29T13:12:42Z</time></trkpt><trkpt lat="43.46812146255612" lon="11.522007925676126"><ele>574.25</ele><time>2026-03-29T13:12:43Z</time></trkpt><trkpt lat="43.46814102416963" lon="11.521857256320414"><ele>574.5</ele><time>2026-03-29T13:12:44Z</time></trkpt><trkpt lat="43.468122787771726" lon="11.521692639843655"><ele>574.75</ele><time>2026-03-29T13:12:45Z</time></trkpt><trkpt lat="43.46809441099713" lon="11.521540740395265"><ele>575.0</ele><time>2026-03-29T13:12:46Z</time></trkpt><trkpt lat="43.468049648128094" lon="11.521393438490726"><ele>575.0</ele><time>2026-03-29T13:12:47Z</time></trkpt><trkpt lat="43.46798439156299" lon="11.52123890467716"><ele>575.0</ele><time>2026-03-29T13:12:48Z</time></trkpt><trkpt lat="43.46793080723524" lon="11.521073314030327"><ele>575.0</ele><time>2026-03-29T13:12:49Z</time></trkpt><trkpt lat="43.46788205591209" lon="11.5209142239224"><ele>575.0</ele><time>2026-03-29T13:12:50Z</time></trkpt><trkpt lat="43.46783572802859" lon="11.520757734668278"><ele>570.8</ele><time>2026-03-29T13:12:51Z</time></trkpt><trkpt lat="43.46778860189746" lon="11.520604561572316"><ele>566.6</ele><time>2026-03-29T13:12:52Z</time></trkpt><trkpt lat="43.46774661909961" lon="11.520462723121195"><ele>562.4</ele><time>2026-03-29T13:12:53Z</time></trkpt><trkpt lat="43.467719315198764" lon="11.520328813155325"><ele>558.2</ele><time>2026-03-29T13:12:54Z</time></trkpt><trkpt lat="43.46772185467856" lon="11.520199926788086"><ele>554.0</ele><time>2026-03-29T13:12:54.999Z</time></trkpt><trkpt lat="43.467756400603385" lon="11.5200717106343"><ele>553.6</ele><time>2026-03-29T13:12:55.999Z</time></trkpt><trkpt lat="43.46777272039743" lon="11.519947112253826"><ele>553.2</ele><time>2026-03-29T13:12:56.999Z</time></trkpt><trkpt lat="43.467808880871125" lon="11.51982870158635"><ele>552.8000000000001</ele><time>2026-03-29T13:12:57.999Z</time></trkpt><trkpt lat="43.46785727059587" lon="11.519734079370759"><ele>552.4</ele><time>2026-03-29T13:12:58.999Z</time></trkpt><trkpt lat="43.46787623970055" lon="11.519572803175004"><ele>552.0</ele><time>2026-03-29T13:13:00.999Z</time></trkpt><trkpt lat="43.46773965239437" lon="11.519490563102135"><ele>554.5</ele><time>2026-03-29T13:13:02.999Z</time></trkpt><trkpt lat="43.46766908868403" lon="11.519498477127007"><ele>557.0</ele><time>2026-03-29T13:13:03.999Z</time></trkpt><trkpt lat="43.46758263615702" lon="11.519514401554984"><ele>559.5</ele><time>2026-03-29T13:13:04.999Z</time></trkpt><trkpt lat="43.467492826017505" lon="11.51952827541404"><ele>562.0</ele><time>2026-03-29T13:13:05.999Z</time></trkpt><trkpt lat="43.46741609472807" lon="11.519494100717855"><ele>564.5</ele><time>2026-03-29T13:13:06.999Z</time></trkpt><trkpt lat="43.46733579587193" lon="11.51946896321071"><ele>567.0</ele><time>2026-03-29T13:13:07.999Z</time></trkpt><trkpt lat="43.46725573473858" lon="11.519434120913798"><ele>567.0</ele><time>2026-03-29T13:13:08.999Z</time></trkpt><trkpt lat="43.46717098427028" lon="11.51941477983887"><ele>567.0</ele><time>2026-03-29T13:13:09.999Z</time></trkpt><trkpt lat="43.46710837982508" lon="11.519352557060193"><ele>567.0</ele><time>2026-03-29T13:13:10.999Z</time></trkpt><trkpt lat="43.467013178689555" lon="11.519273893960428"><ele>567.0</ele><time>2026-03-29T13:13:12.999Z</time></trkpt><trkpt lat="43.46700318620058" lon="11.5191375020847"><ele>567.0</ele><time>2026-03-29T13:13:14.999Z</time></trkpt><trkpt lat="43.46696750658487" lon="11.519026920305755"><ele>563.1666666666666</ele><time>2026-03-29T13:13:16.999Z</time></trkpt><trkpt lat="43.466930116019846" lon="11.518948260116733"><ele>559.3333333333334</ele><time>2026-03-29T13:13:18.999Z</time></trkpt><trkpt lat="43.46685481912316" lon="11.518947038677451"><ele>555.5</ele><time>2026-03-29T13:13:20.999Z</time></trkpt><trkpt lat="43.466794583630204" lon="11.519000498917594"><ele>551.6666666666667</ele><time>2026-03-29T13:13:21.999Z</time></trkpt><trkpt lat="43.46673879856161" lon="11.519046207091245"><ele>547.8333333333334</ele><time>2026-03-29T13:13:22.999Z</time></trkpt><trkpt lat="43.46666585949915" lon="11.519096656963578"><ele>544.0</ele><time>2026-03-29T13:13:23.999Z</time></trkpt><trkpt lat="43.4665649246089" lon="11.519148062973363"><ele>544.0</ele><time>2026-03-29T13:13:24.999Z</time></trkpt><trkpt lat="43.466452597466514" lon="11.519190080712914"><ele>544.0</ele><time>2026-03-29T13:13:25.999Z</time></trkpt><trkpt lat="43.46632283062531" lon="11.519229946437768"><ele>544.0</ele><time>2026-03-29T13:13:26.999Z</time></trkpt><trkpt lat="43.46620409004463" lon="11.519276505935995"><ele>544.0</ele><time>2026-03-29T13:13:27.999Z</time></trkpt><trkpt lat="43.46608420467542" lon="11.51932580967644"><ele>541.4</ele><time>2026-03-29T13:13:28.999Z</time></trkpt><trkpt lat="43.465976505619835" lon="11.519384156330782"><ele>538.8</ele><time>2026-03-29T13:13:29.999Z</time></trkpt><trkpt lat="43.465873448629345" lon="11.519442275752048"><ele>536.2</ele><time>2026-03-29T13:13:30.999Z</time></trkpt><trkpt lat="43.46578618019025" lon="11.519482884040311"><ele>533.6</ele><time>2026-03-29T13:13:31.999Z</time></trkpt><trkpt lat="43.465702018076186" lon="11.519488701299027"><ele>531.0</ele><time>2026-03-29T13:13:32.999Z</time></trkpt><trkpt lat="43.465619357878296" lon="11.519459466042772"><ele>531.0</ele><time>2026-03-29T13:13:33.999Z</time></trkpt><trkpt lat="43.46553207733685" lon="11.519385901277653"><ele>531.0</ele><time>2026-03-29T13:13:34.999Z</time></trkpt><trkpt lat="43.46544937204104" lon="11.519277954305407"><ele>531.0</ele><time>2026-03-29T13:13:35.999Z</time></trkpt><trkpt lat="43.46535966413831" lon="11.519148424104353"><ele>531.0</ele><time>2026-03-29T13:13:36.999Z</time></trkpt><trkpt lat="43.46528968116879" lon="11.51901774364252"><ele>525.75</ele><time>2026-03-29T13:13:37.999Z</time></trkpt><trkpt lat="43.46523900178351" lon="11.518873272137661"><ele>520.5</ele><time>2026-03-29T13:13:38.999Z</time></trkpt><trkpt lat="43.46523758908935" lon="11.518712399758105"><ele>515.25</ele><time>2026-03-29T13:13:39.999Z</time></trkpt><trkpt lat="43.46521398604016" lon="11.5185583427768"><ele>510.0</ele><time>2026-03-29T13:13:40.999Z</time></trkpt><trkpt lat="43.46519619414424" lon="11.518405401827394"><ele>510.0</ele><time>2026-03-29T13:13:41.999Z</time></trkpt><trkpt lat="43.46515063841969" lon="11.518274767987117"><ele>510.0</ele><time>2026-03-29T13:13:42.999Z</time></trkpt><trkpt lat="43.46507307469157" lon="11.518174409187113"><ele>510.0</ele><time>2026-03-29T13:13:43.999Z</time></trkpt><trkpt lat="43.46497823108779" lon="11.51808920121576"><ele>510.0</ele><time>2026-03-29T13:13:44.999Z</time></trkpt><trkpt lat="43.464861444087575" lon="11.517999004252927"><ele>510.0</ele><time>2026-03-29T13:13:45.999Z</time></trkpt><trkpt lat="43.46473125565541" lon="11.5179046236828"><ele>510.0</ele><time>2026-03-29T13:13:46.999Z</time></trkpt><trkpt lat="43.464613809960426" lon="11.517812231889847"><ele>510.0</ele><time>2026-03-29T13:13:47.999Z</time></trkpt><trkpt lat="43.46451860882009" lon="11.517697383864057"><ele>510.0</ele><time>2026-03-29T13:13:48.999Z</time></trkpt><trkpt lat="43.464464218013674" lon="11.517537359168415"><ele>509.25</ele><time>2026-03-29T13:13:49.999Z</time></trkpt><trkpt lat="43.46438412883928" lon="11.517361392398094"><ele>508.5</ele><time>2026-03-29T13:13:50.999Z</time></trkpt><trkpt lat="43.464322495533956" lon="11.517187328853298"><ele>507.75</ele><time>2026-03-29T13:13:51.999Z</time></trkpt><trkpt lat="43.46425943702628" lon="11.517017870051994"><ele>507.0</ele><time>2026-03-29T13:13:52.999Z</time></trkpt><trkpt lat="43.46418783650642" lon="11.516846385546522"><ele>508.20000000000005</ele><time>2026-03-29T13:13:53.999Z</time></trkpt><trkpt lat="43.464113222976" lon="11.516712903447992"><ele>509.40000000000003</ele><time>2026-03-29T13:13:54.999Z</time></trkpt><trkpt lat="43.46403345013934" lon="11.516621413509803"><ele>510.59999999999997</ele><time>2026-03-29T13:13:55.999Z</time></trkpt><trkpt lat="43.46394580960559" lon="11.516571109372231"><ele>511.79999999999995</ele><time>2026-03-29T13:13:56.999Z</time></trkpt><trkpt lat="43.46385502608663" lon="11.516562030994276"><ele>513.0</ele><time>2026-03-29T13:13:58Z</time></trkpt><trkpt lat="43.463747612867415" lon="11.516591091228324"><ele>514.5</ele><time>2026-03-29T13:13:59Z</time></trkpt><trkpt lat="43.46362774381175" lon="11.516623670372004"><ele>516.0</ele><time>2026-03-29T13:14:00Z</time></trkpt><trkpt lat="43.463512651477835" lon="11.51664676746458"><ele>517.5</ele><time>2026-03-29T13:14:01Z</time></trkpt><trkpt lat="43.46340054194014" lon="11.516653779470472"><ele>519.0</ele><time>2026-03-29T13:14:02Z</time></trkpt><trkpt lat="43.463284362873594" lon="11.51662693944955"><ele>519.0</ele><time>2026-03-29T13:14:03Z</time></trkpt><trkpt lat="43.463200633116735" lon="11.516529047794075"><ele>519.0</ele><time>2026-03-29T13:14:04Z</time></trkpt><trkpt lat="43.46312791028068" lon="11.516426845884304"><ele>519.0</ele><time>2026-03-29T13:14:05Z</time></trkpt><trkpt lat="43.46308767600165" lon="11.516315571636168"><ele>519.0</ele><time>2026-03-29T13:14:06Z</time></trkpt><trkpt lat="43.46304403982599" lon="11.516180718889881"><ele>519.0</ele><time>2026-03-29T13:14:07Z</time></trkpt><trkpt lat="43.46305029817694" lon="11.516013032911118"><ele>523.0</ele><time>2026-03-29T13:14:08Z</time></trkpt><trkpt lat="43.46304896418534" lon="11.515828007857122"><ele>527.0</ele><time>2026-03-29T13:14:09Z</time></trkpt><trkpt lat="43.46304834859067" lon="11.515640764473712"><ele>531.0</ele><time>2026-03-29T13:14:10Z</time></trkpt><trkpt lat="43.46305513148081" lon="11.515443577250009"><ele>535.0</ele><time>2026-03-29T13:14:11Z</time></trkpt><trkpt lat="43.46306198876432" lon="11.515258093567313"><ele>537.25</ele><time>2026-03-29T13:14:12Z</time></trkpt><trkpt lat="43.463063731716986" lon="11.51506860816646"><ele>539.5</ele><time>2026-03-29T13:14:13Z</time></trkpt><trkpt lat="43.4630658499717" lon="11.514875294809817"><ele>541.75</ele><time>2026-03-29T13:14:14Z</time></trkpt><trkpt lat="43.46303986754897" lon="11.514703517046236"><ele>544.0</ele><time>2026-03-29T13:14:15Z</time></trkpt><trkpt lat="43.46300196967477" lon="11.514536465107462"><ele>544.0</ele><time>2026-03-29T13:14:16Z</time></trkpt><trkpt lat="43.46297829487733" lon="11.514359632236689"><ele>544.0</ele><time>2026-03-29T13:14:17Z</time></trkpt><trkpt lat="43.46297056413426" lon="11.514164024507"><ele>544.0</ele><time>2026-03-29T13:14:18Z</time></trkpt><trkpt lat="43.46295996623315" lon="11.513960588635552"><ele>544.0</ele><time>2026-03-29T13:14:19Z</time></trkpt><trkpt lat="43.46293574575096" lon="11.513758869402745"><ele>544.75</ele><time>2026-03-29T13:14:20Z</time></trkpt><trkpt lat="43.46290361522746" lon="11.513568194136198"><ele>545.5</ele><time>2026-03-29T13:14:21Z</time></trkpt><trkpt lat="43.46287157841094" lon="11.513389895134337"><ele>546.25</ele><time>2026-03-29T13:14:22Z</time></trkpt><trkpt lat="43.46284332895446" lon="11.513232674459207"><ele>547.0</ele><time>2026-03-29T13:14:23Z</time></trkpt><trkpt lat="43.46280207227789" lon="11.513082103569005"><ele>547.0</ele><time>2026-03-29T13:14:24Z</time></trkpt><trkpt lat="43.46276768512997" lon="11.512919381111473"><ele>547.0</ele><time>2026-03-29T13:14:25Z</time></trkpt><trkpt lat="43.46270899674385" lon="11.512761562630887"><ele>547.0</ele><time>2026-03-29T13:14:26Z</time></trkpt><trkpt lat="43.46262953775909" lon="11.51261829944549"><ele>547.0</ele><time>2026-03-29T13:14:27Z</time></trkpt><trkpt lat="43.462552455672686" lon="11.512476641334818"><ele>547.4</ele><time>2026-03-29T13:14:28Z</time></trkpt><trkpt lat="43.462484220084086" lon="11.512355903161477"><ele>547.8000000000001</ele><time>2026-03-29T13:14:29Z</time></trkpt><trkpt lat="43.46241590960336" lon="11.512252918758751"><ele>548.2</ele><time>2026-03-29T13:14:30Z</time></trkpt><trkpt lat="43.46234475015881" lon="11.512165678093652"><ele>548.6</ele><time>2026-03-29T13:14:31Z</time></trkpt><trkpt lat="43.46227581149753" lon="11.512100398049618"><ele>549.0</ele><time>2026-03-29T13:14:32Z</time></trkpt><trkpt lat="43.46219759135288" lon="11.512073400155545"><ele>549.0</ele><time>2026-03-29T13:14:33Z</time></trkpt><trkpt lat="43.46211538502509" lon="11.512090301780749"><ele>549.0</ele><time>2026-03-29T13:14:34Z</time></trkpt><trkpt lat="43.462043135285775" lon="11.512150603928637"><ele>549.0</ele><time>2026-03-29T13:14:35Z</time></trkpt><trkpt lat="43.46197966240116" lon="11.512239317163399"><ele>549.0</ele><time>2026-03-29T13:14:36Z</time></trkpt><trkpt lat="43.461950323973454" lon="11.512356003586497"><ele>549.0</ele><time>2026-03-29T13:14:37Z</time></trkpt><trkpt lat="43.46195224825946" lon="11.512478334745126"><ele>549.0</ele><time>2026-03-29T13:14:38Z</time></trkpt><trkpt lat="43.46196244767132" lon="11.512642958069975"><ele>552.2</ele><time>2026-03-29T13:14:39Z</time></trkpt><trkpt lat="43.46199095772302" lon="11.512806220966983"><ele>555.4</ele><time>2026-03-29T13:14:40Z</time></trkpt><trkpt lat="43.46202047273718" lon="11.51296599971929"><ele>558.6</ele><time>2026-03-29T13:14:41Z</time></trkpt><trkpt lat="43.4620206534972" lon="11.513087442301007"><ele>561.8</ele><time>2026-03-29T13:14:42Z</time></trkpt><trkpt lat="43.462001067785685" lon="11.513180920164"><ele>565.0</ele><time>2026-03-29T13:14:43Z</time></trkpt><trkpt lat="43.46189909737133" lon="11.513253770014366"><ele>565.0</ele><time>2026-03-29T13:14:45Z</time></trkpt><trkpt lat="43.46178628151697" lon="11.513197415328815"><ele>565.0</ele><time>2026-03-29T13:14:47Z</time></trkpt><trkpt lat="43.46174670229203" lon="11.513122771045978"><ele>565.0</ele><time>2026-03-29T13:14:48Z</time></trkpt><trkpt lat="43.46171684983503" lon="11.513022426244612"><ele>565.0</ele><time>2026-03-29T13:14:49Z</time></trkpt><trkpt lat="43.461690535933315" lon="11.512900552798081"><ele>565.0</ele><time>2026-03-29T13:14:50Z</time></trkpt><trkpt lat="43.461586473128534" lon="11.512847684257181"><ele>565.2</ele><time>2026-03-29T13:14:52Z</time></trkpt><trkpt lat="43.4614926328387" lon="11.512981338500463"><ele>565.4</ele><time>2026-03-29T13:14:54Z</time></trkpt><trkpt lat="43.461480857286" lon="11.513105310088966"><ele>565.6</ele><time>2026-03-29T13:14:55Z</time></trkpt><trkpt lat="43.46150056561687" lon="11.51322893957606"><ele>565.8</ele><time>2026-03-29T13:14:56Z</time></trkpt><trkpt lat="43.46155783920204" lon="11.513341582432636"><ele>566.0</ele><time>2026-03-29T13:14:57Z</time></trkpt><trkpt lat="43.461632794955655" lon="11.5134586620585"><ele>566.0</ele><time>2026-03-29T13:14:58Z</time></trkpt><trkpt lat="43.4617168100182" lon="11.51357409518252"><ele>566.0</ele><time>2026-03-29T13:14:59Z</time></trkpt><trkpt lat="43.46182331989478" lon="11.513663666029228"><ele>566.0</ele><time>2026-03-29T13:15:00Z</time></trkpt><trkpt lat="43.46191738162481" lon="11.513705379998443"><ele>566.0</ele><time>2026-03-29T13:15:01Z</time></trkpt><trkpt lat="43.461986059960154" lon="11.513757433890776"><ele>566.0</ele><time>2026-03-29T13:15:02Z</time></trkpt><trkpt lat="43.46201644745013" lon="11.513841742416833"><ele>566.3333333333333</ele><time>2026-03-29T13:15:02.999Z</time></trkpt><trkpt lat="43.462006429380565" lon="11.513939833305132"><ele>566.6666666666666</ele><time>2026-03-29T13:15:03.999Z</time></trkpt><trkpt lat="43.46195001760177" lon="11.51401744134471"><ele>567.0</ele><time>2026-03-29T13:15:04.999Z</time></trkpt><trkpt lat="43.46186998228278" lon="11.514056188309514"><ele>567.3333333333334</ele><time>2026-03-29T13:15:05.999Z</time></trkpt><trkpt lat="43.4617779459764" lon="11.514040779685034"><ele>567.6666666666667</ele><time>2026-03-29T13:15:06.999Z</time></trkpt><trkpt lat="43.46166375190165" lon="11.5140434131428"><ele>568.0</ele><time>2026-03-29T13:15:07.999Z</time></trkpt><trkpt lat="43.46153162056444" lon="11.514026679183186"><ele>568.0</ele><time>2026-03-29T13:15:08.999Z</time></trkpt><trkpt lat="43.46142847760882" lon="11.514045826870875"><ele>568.0</ele><time>2026-03-29T13:15:09.999Z</time></trkpt><trkpt lat="43.461339066902504" lon="11.514116988572415"><ele>568.0</ele><time>2026-03-29T13:15:10.999Z</time></trkpt><trkpt lat="43.46127451463002" lon="11.514237315340377"><ele>568.0</ele><time>2026-03-29T13:15:11.999Z</time></trkpt><trkpt lat="43.46124492306264" lon="11.514377239036797"><ele>568.0</ele><time>2026-03-29T13:15:12.999Z</time></trkpt><trkpt lat="43.461225542012386" lon="11.514545644276383"><ele>570.8</ele><time>2026-03-29T13:15:13.999Z</time></trkpt><trkpt lat="43.46121383098022" lon="11.514728456639933"><ele>573.5999999999999</ele><time>2026-03-29T13:15:14.999Z</time></trkpt><trkpt lat="43.46117863676122" lon="11.514858579245876"><ele>576.4000000000001</ele><time>2026-03-29T13:15:15.999Z</time></trkpt><trkpt lat="43.46111292422358" lon="11.514932469910947"><ele>579.2</ele><time>2026-03-29T13:15:16.999Z</time></trkpt><trkpt lat="43.46103299422121" lon="11.51498379830294"><ele>582.0</ele><time>2026-03-29T13:15:17.999Z</time></trkpt><trkpt lat="43.460931081286155" lon="11.515050410588955"><ele>582.0</ele><time>2026-03-29T13:15:18.999Z</time></trkpt><trkpt lat="43.46081118978403" lon="11.515128817888534"><ele>582.0</ele><time>2026-03-29T13:15:19.999Z</time></trkpt><trkpt lat="43.46068750900449" lon="11.515215004349182"><ele>582.0</ele><time>2026-03-29T13:15:20.999Z</time></trkpt><trkpt lat="43.46056360086912" lon="11.515307177016638"><ele>582.0</ele><time>2026-03-29T13:15:21.999Z</time></trkpt><trkpt lat="43.46045772231795" lon="11.51540968496526"><ele>584.75</ele><time>2026-03-29T13:15:22.999Z</time></trkpt><trkpt lat="43.46039115819454" lon="11.515524368601925"><ele>587.5</ele><time>2026-03-29T13:15:23.999Z</time></trkpt><trkpt lat="43.46036623178008" lon="11.515657056489358"><ele>590.25</ele><time>2026-03-29T13:15:24.999Z</time></trkpt><trkpt lat="43.46036897631977" lon="11.515815155489948"><ele>593.0</ele><time>2026-03-29T13:15:25.999Z</time></trkpt><trkpt lat="43.46038021500852" lon="11.51599342641327"><ele>593.0</ele><time>2026-03-29T13:15:26.999Z</time></trkpt><trkpt lat="43.46039303093958" lon="11.516178984347563"><ele>593.0</ele><time>2026-03-29T13:15:27.999Z</time></trkpt><trkpt lat="43.46040293181776" lon="11.516324773101546"><ele>593.0</ele><time>2026-03-29T13:15:28.999Z</time></trkpt><trkpt lat="43.46039924452914" lon="11.516441432095915"><ele>593.0</ele><time>2026-03-29T13:15:29.999Z</time></trkpt><trkpt lat="43.46036774175343" lon="11.5165466794405"><ele>593.0</ele><time>2026-03-29T13:15:30.999Z</time></trkpt><trkpt lat="43.46030578860639" lon="11.516644323136354"><ele>592.75</ele><time>2026-03-29T13:15:31.999Z</time></trkpt><trkpt lat="43.46020557528323" lon="11.516740665386642"><ele>592.5</ele><time>2026-03-29T13:15:32.999Z</time></trkpt><trkpt lat="43.460081932944775" lon="11.516818836385346"><ele>592.25</ele><time>2026-03-29T13:15:33.999Z</time></trkpt><trkpt lat="43.459948013561686" lon="11.516876526840669"><ele>592.0</ele><time>2026-03-29T13:15:34.999Z</time></trkpt><trkpt lat="43.459834433714924" lon="11.516909650254007"><ele>592.0</ele><time>2026-03-29T13:15:35.999Z</time></trkpt><trkpt lat="43.459748330540954" lon="11.516923157912306"><ele>592.0</ele><time>2026-03-29T13:15:36.999Z</time></trkpt><trkpt lat="43.459677835751066" lon="11.516904587243744"><ele>592.0</ele><time>2026-03-29T13:15:37.999Z</time></trkpt><trkpt lat="43.45962699155221" lon="11.516831082197783"><ele>592.0</ele><time>2026-03-29T13:15:38.999Z</time></trkpt><trkpt lat="43.45959655957509" lon="11.516730894327596"><ele>592.0</ele><time>2026-03-29T13:15:39.999Z</time></trkpt><trkpt lat="43.459583197156206" lon="11.516621897595012"><ele>592.0</ele><time>2026-03-29T13:15:40.999Z</time></trkpt><trkpt lat="43.459602499328675" lon="11.516487580757342"><ele>592.0</ele><time>2026-03-29T13:15:41.999Z</time></trkpt><trkpt lat="43.45964319556495" lon="11.516340738948589"><ele>592.0</ele><time>2026-03-29T13:15:42.999Z</time></trkpt><trkpt lat="43.45970336579343" lon="11.516176836034429"><ele>592.0</ele><time>2026-03-29T13:15:43.999Z</time></trkpt><trkpt lat="43.45974935342201" lon="11.515997003243832"><ele>592.0</ele><time>2026-03-29T13:15:44.999Z</time></trkpt><trkpt lat="43.459770389221795" lon="11.515821889413994"><ele>592.2</ele><time>2026-03-29T13:15:45.999Z</time></trkpt><trkpt lat="43.45976933130925" lon="11.515660576524079"><ele>592.4000000000001</ele><time>2026-03-29T13:15:46.999Z</time></trkpt><trkpt lat="43.459769938423435" lon="11.51551135089579"><ele>592.5999999999999</ele><time>2026-03-29T13:15:47.999Z</time></trkpt><trkpt lat="43.45979004476077" lon="11.515368331507453"><ele>592.8</ele><time>2026-03-29T13:15:48.999Z</time></trkpt><trkpt lat="43.45983702376119" lon="11.515233775048184"><ele>593.0</ele><time>2026-03-29T13:15:49.999Z</time></trkpt><trkpt lat="43.45988218111488" lon="11.515096557692576"><ele>593.8</ele><time>2026-03-29T13:15:50.999Z</time></trkpt><trkpt lat="43.45991201627213" lon="11.514962572000634"><ele>594.5999999999999</ele><time>2026-03-29T13:15:51.999Z</time></trkpt><trkpt lat="43.45991702505684" lon="11.514849003057282"><ele>595.4000000000001</ele><time>2026-03-29T13:15:52.999Z</time></trkpt><trkpt lat="43.45988411615753" lon="11.514742073609863"><ele>596.2</ele><time>2026-03-29T13:15:53.999Z</time></trkpt><trkpt lat="43.45982863409706" lon="11.514632188305717"><ele>597.0</ele><time>2026-03-29T13:15:54.999Z</time></trkpt><trkpt lat="43.45973911031132" lon="11.514516039388393"><ele>600.5</ele><time>2026-03-29T13:15:55.999Z</time></trkpt><trkpt lat="43.459628154949705" lon="11.51439939248593"><ele>604.0</ele><time>2026-03-29T13:15:56.999Z</time></trkpt><trkpt lat="43.45950826276046" lon="11.514298949252186"><ele>607.5</ele><time>2026-03-29T13:15:57.999Z</time></trkpt><trkpt lat="43.459373849145635" lon="11.514231556699158"><ele>611.0</ele><time>2026-03-29T13:15:58.999Z</time></trkpt><trkpt lat="43.45923937706035" lon="11.51419051177887"><ele>611.3333333333333</ele><time>2026-03-29T13:15:59.999Z</time></trkpt><trkpt lat="43.45907678591843" lon="11.514157576277793"><ele>611.6666666666666</ele><time>2026-03-29T13:16:00.999Z</time></trkpt><trkpt lat="43.45890684958204" lon="11.51413446076535"><ele>612.0</ele><time>2026-03-29T13:16:01.999Z</time></trkpt><trkpt lat="43.45876172044683" lon="11.514117293924569"><ele>612.0</ele><time>2026-03-29T13:16:02.999Z</time></trkpt><trkpt lat="43.45864278414373" lon="11.514075577990523"><ele>612.0</ele><time>2026-03-29T13:16:04Z</time></trkpt><trkpt lat="43.45852833604628" lon="11.51400220914769"><ele>612.0</ele><time>2026-03-29T13:16:05Z</time></trkpt><trkpt lat="43.45842894681841" lon="11.513910177140744"><ele>612.0</ele><time>2026-03-29T13:16:06Z</time></trkpt><trkpt lat="43.45835680936485" lon="11.513788836218493"><ele>619.5</ele><time>2026-03-29T13:16:07Z</time></trkpt><trkpt lat="43.458301237129774" lon="11.513646485687659"><ele>627.0</ele><time>2026-03-29T13:16:08Z</time></trkpt><trkpt lat="43.458252619098836" lon="11.513476113616589"><ele>634.5</ele><time>2026-03-29T13:16:09Z</time></trkpt><trkpt lat="43.45822064298118" lon="11.513323356522182"><ele>642.0</ele><time>2026-03-29T13:16:10Z</time></trkpt><trkpt lat="43.458176995380114" lon="11.513218031416843"><ele>642.0</ele><time>2026-03-29T13:16:11Z</time></trkpt><trkpt lat="43.458114612758045" lon="11.51315560817319"><ele>642.0</ele><time>2026-03-29T13:16:12Z</time></trkpt><trkpt lat="43.458043628360144" lon="11.513146017917215"><ele>642.0</ele><time>2026-03-29T13:16:13Z</time></trkpt><trkpt lat="43.45797227769995" lon="11.513175129129806"><ele>642.0</ele><time>2026-03-29T13:16:14Z</time></trkpt><trkpt lat="43.45791466083987" lon="11.513228732579476"><ele>642.0</ele><time>2026-03-29T13:16:15Z</time></trkpt><trkpt lat="43.4578482532306" lon="11.51328985386518"><ele>642.0</ele><time>2026-03-29T13:16:16Z</time></trkpt><trkpt lat="43.45776541503817" lon="11.513362788787445"><ele>639.0</ele><time>2026-03-29T13:16:17Z</time></trkpt><trkpt lat="43.45768474933972" lon="11.513410026464078"><ele>636.0</ele><time>2026-03-29T13:16:18Z</time></trkpt><trkpt lat="43.457602596518306" lon="11.513391031530313"><ele>633.0</ele><time>2026-03-29T13:16:19Z</time></trkpt><trkpt lat="43.4575455879406" lon="11.513325662864327"><ele>630.0</ele><time>2026-03-29T13:16:20Z</time></trkpt><trkpt lat="43.45750323332569" lon="11.513241835266907"><ele>627.0</ele><time>2026-03-29T13:16:21Z</time></trkpt><trkpt lat="43.45745889792993" lon="11.513129037376952"><ele>624.0</ele><time>2026-03-29T13:16:22Z</time></trkpt><trkpt lat="43.457428902023906" lon="11.51300487445278"><ele>630.25</ele><time>2026-03-29T13:16:23Z</time></trkpt><trkpt lat="43.45740161255785" lon="11.512857209352815"><ele>636.5</ele><time>2026-03-29T13:16:24Z</time></trkpt><trkpt lat="43.45737776948516" lon="11.512698098523744"><ele>642.75</ele><time>2026-03-29T13:16:25Z</time></trkpt><trkpt lat="43.457355398802044" lon="11.512533520369495"><ele>649.0</ele><time>2026-03-29T13:16:26Z</time></trkpt><trkpt lat="43.457331004486726" lon="11.51236286829824"><ele>649.0</ele><time>2026-03-29T13:16:27Z</time></trkpt><trkpt lat="43.45730867073152" lon="11.512181060699762"><ele>649.0</ele><time>2026-03-29T13:16:28Z</time></trkpt><trkpt lat="43.457290143458614" lon="11.512003091819624"><ele>649.0</ele><time>2026-03-29T13:16:29Z</time></trkpt><trkpt lat="43.457273804995104" lon="11.51186156601034"><ele>649.0</ele><time>2026-03-29T13:16:30Z</time></trkpt><trkpt lat="43.45724214297531" lon="11.511761169128055"><ele>649.0</ele><time>2026-03-29T13:16:31Z</time></trkpt><trkpt lat="43.45718622511994" lon="11.51169007125744"><ele>653.0</ele><time>2026-03-29T13:16:32Z</time></trkpt><trkpt lat="43.4571063149325" lon="11.511656444296332"><ele>657.0</ele><time>2026-03-29T13:16:33Z</time></trkpt><trkpt lat="43.45700969879519" lon="11.511670610636603"><ele>661.0</ele><time>2026-03-29T13:16:34Z</time></trkpt><trkpt lat="43.456929514020764" lon="11.511725389797343"><ele>665.0</ele><time>2026-03-29T13:16:35Z</time></trkpt><trkpt lat="43.45686129833401" lon="11.511815796468976"><ele>669.0</ele><time>2026-03-29T13:16:36Z</time></trkpt><trkpt lat="43.456797821413936" lon="11.511934867009591"><ele>662.0</ele><time>2026-03-29T13:16:37Z</time></trkpt><trkpt lat="43.456714528387046" lon="11.512099541429123"><ele>655.0</ele><time>2026-03-29T13:16:38Z</time></trkpt><trkpt lat="43.45660194739982" lon="11.51228451842831"><ele>648.0</ele><time>2026-03-29T13:16:39Z</time></trkpt><trkpt lat="43.45649089671235" lon="11.5124464019841"><ele>648.0</ele><time>2026-03-29T13:16:40Z</time></trkpt><trkpt lat="43.45640848455753" lon="11.512595820872802"><ele>648.0</ele><time>2026-03-29T13:16:41Z</time></trkpt><trkpt lat="43.45631215443677" lon="11.512755094473748"><ele>648.0</ele><time>2026-03-29T13:16:42Z</time></trkpt><trkpt lat="43.456239283344814" lon="11.51288926324606"><ele>648.0</ele><time>2026-03-29T13:16:43Z</time></trkpt><trkpt lat="43.45617455558711" lon="11.512985518501521"><ele>648.2</ele><time>2026-03-29T13:16:44Z</time></trkpt><trkpt lat="43.45605125407151" lon="11.513011645327339"><ele>648.4</ele><time>2026-03-29T13:16:46Z</time></trkpt><trkpt lat="43.45597161695572" lon="11.512884683251723"><ele>648.6</ele><time>2026-03-29T13:16:48Z</time></trkpt><trkpt lat="43.455954267505184" lon="11.512790032859172"><ele>648.8000000000001</ele><time>2026-03-29T13:16:49Z</time></trkpt><trkpt lat="43.455994822415555" lon="11.512644936836868"><ele>649.0</ele><time>2026-03-29T13:16:51Z</time></trkpt><trkpt lat="43.45604752463517" lon="11.512570385170536"><ele>649.0</ele><time>2026-03-29T13:16:52Z</time></trkpt><trkpt lat="43.45612698597679" lon="11.512495705174052"><ele>649.0</ele><time>2026-03-29T13:16:53Z</time></trkpt><trkpt lat="43.45620683359306" lon="11.512426513072752"><ele>649.0</ele><time>2026-03-29T13:16:54Z</time></trkpt><trkpt lat="43.45626778510301" lon="11.512342122913696"><ele>649.0</ele><time>2026-03-29T13:16:55Z</time></trkpt><trkpt lat="43.456280935025724" lon="11.512229069854714"><ele>649.0</ele><time>2026-03-29T13:16:56Z</time></trkpt><trkpt lat="43.45626159446516" lon="11.512093771100966"><ele>650.2</ele><time>2026-03-29T13:16:57Z</time></trkpt><trkpt lat="43.456240532000294" lon="11.511938185090662"><ele>651.4000000000001</ele><time>2026-03-29T13:16:58Z</time></trkpt><trkpt lat="43.45621610473968" lon="11.511789553539211"><ele>652.6</ele><time>2026-03-29T13:16:59Z</time></trkpt><trkpt lat="43.456207936292756" lon="11.511653664499098"><ele>653.8</ele><time>2026-03-29T13:17:00Z</time></trkpt><trkpt lat="43.456198222813875" lon="11.511503168359587"><ele>655.0</ele><time>2026-03-29T13:17:01Z</time></trkpt><trkpt lat="43.456187288006255" lon="11.511332570399778"><ele>658.0</ele><time>2026-03-29T13:17:02Z</time></trkpt><trkpt lat="43.45617424455589" lon="11.511138575697915"><ele>661.0</ele><time>2026-03-29T13:17:03Z</time></trkpt><trkpt lat="43.45615015682178" lon="11.510931260732571"><ele>664.0</ele><time>2026-03-29T13:17:04Z</time></trkpt><trkpt lat="43.456142923627695" lon="11.510740645031314"><ele>667.0</ele><time>2026-03-29T13:17:05Z</time></trkpt><trkpt lat="43.456131873009866" lon="11.510531210428654"><ele>672.6666666666667</ele><time>2026-03-29T13:17:06Z</time></trkpt><trkpt lat="43.456140033279375" lon="11.51029142949119"><ele>678.3333333333334</ele><time>2026-03-29T13:17:07Z</time></trkpt><trkpt lat="43.45616678308346" lon="11.510056953184323"><ele>684.0</ele><time>2026-03-29T13:17:08Z</time></trkpt><trkpt lat="43.45619301107381" lon="11.509871829237882"><ele>684.0</ele><time>2026-03-29T13:17:09Z</time></trkpt><trkpt lat="43.456225706291875" lon="11.509688693456418"><ele>684.0</ele><time>2026-03-29T13:17:10Z</time></trkpt><trkpt lat="43.456269092898104" lon="11.509509690360035"><ele>684.0</ele><time>2026-03-29T13:17:11Z</time></trkpt><trkpt lat="43.45630964636823" lon="11.509346464489496"><ele>684.0</ele><time>2026-03-29T13:17:12Z</time></trkpt><trkpt lat="43.4563268667859" lon="11.509209307101663"><ele>688.0</ele><time>2026-03-29T13:17:13Z</time></trkpt><trkpt lat="43.4563208899712" lon="11.509103433499702"><ele>692.0</ele><time>2026-03-29T13:17:14Z</time></trkpt><trkpt lat="43.45627857878346" lon="11.509011444357888"><ele>696.0</ele><time>2026-03-29T13:17:15Z</time></trkpt><trkpt lat="43.45621879228015" lon="11.508973316523589"><ele>700.0</ele><time>2026-03-29T13:17:16Z</time></trkpt><trkpt lat="43.45614563146799" lon="11.508972262707685"><ele>704.0</ele><time>2026-03-29T13:17:17Z</time></trkpt><trkpt lat="43.456076477985484" lon="11.509027094834952"><ele>708.0</ele><time>2026-03-29T13:17:17.999Z</time></trkpt><trkpt lat="43.45600964898485" lon="11.509112377987265"><ele>708.0</ele><time>2026-03-29T13:17:18.999Z</time></trkpt><trkpt lat="43.45592198739752" lon="11.509203370968342"><ele>708.0</ele><time>2026-03-29T13:17:19.999Z</time></trkpt><trkpt lat="43.45581596869241" lon="11.509238948824176"><ele>708.0</ele><time>2026-03-29T13:17:20.999Z</time></trkpt><trkpt lat="43.455717140239344" lon="11.50922461840021"><ele>708.0</ele><time>2026-03-29T13:17:21.999Z</time></trkpt><trkpt lat="43.455623830292616" lon="11.509151315873474"><ele>708.0</ele><time>2026-03-29T13:17:22.999Z</time></trkpt><trkpt lat="43.45554733016709" lon="11.509042355742261"><ele>708.0</ele><time>2026-03-29T13:17:23.999Z</time></trkpt><trkpt lat="43.455479575153184" lon="11.508911818035676"><ele>708.0</ele><time>2026-03-29T13:17:24.999Z</time></trkpt><trkpt lat="43.45541937045138" lon="11.508777179789693"><ele>708.0</ele><time>2026-03-29T13:17:25.999Z</time></trkpt><trkpt lat="43.455358624228076" lon="11.508694301352934"><ele>708.0</ele><time>2026-03-29T13:17:26.999Z</time></trkpt><trkpt lat="43.455278675654604" lon="11.508662967180303"><ele>708.0</ele><time>2026-03-29T13:17:27.999Z</time></trkpt><trkpt lat="43.455188967320666" lon="11.508687851520355"><ele>709.25</ele><time>2026-03-29T13:17:28.999Z</time></trkpt><trkpt lat="43.455110987692564" lon="11.508761554641085"><ele>710.5</ele><time>2026-03-29T13:17:29.999Z</time></trkpt><trkpt lat="43.455028309517225" lon="11.5088603317856"><ele>711.75</ele><time>2026-03-29T13:17:30.999Z</time></trkpt><trkpt lat="43.4549480930029" lon="11.50898534361323"><ele>713.0</ele><time>2026-03-29T13:17:31.999Z</time></trkpt><trkpt lat="43.45487066072091" lon="11.509129856213992"><ele>713.0</ele><time>2026-03-29T13:17:32.999Z</time></trkpt><trkpt lat="43.45480491955015" lon="11.509280213922322"><ele>713.0</ele><time>2026-03-29T13:17:33.999Z</time></trkpt><trkpt lat="43.4547424245445" lon="11.509443806798235"><ele>713.0</ele><time>2026-03-29T13:17:34.999Z</time></trkpt><trkpt lat="43.454674927269444" lon="11.509541862559749"><ele>713.0</ele><time>2026-03-29T13:17:35.999Z</time></trkpt><trkpt lat="43.454598082596334" lon="11.50958753666905"><ele>713.0</ele><time>2026-03-29T13:17:36.999Z</time></trkpt><trkpt lat="43.45451840136232" lon="11.50957203081195"><ele>715.75</ele><time>2026-03-29T13:17:37.999Z</time></trkpt><trkpt lat="43.45443587084598" lon="11.509513933234457"><ele>718.5</ele><time>2026-03-29T13:17:38.999Z</time></trkpt><trkpt lat="43.45434474714355" lon="11.50944410292179"><ele>721.25</ele><time>2026-03-29T13:17:39.999Z</time></trkpt><trkpt lat="43.45425139657775" lon="11.509334176894072"><ele>724.0</ele><time>2026-03-29T13:17:40.999Z</time></trkpt><trkpt lat="43.45414692412885" lon="11.50919613949253"><ele>724.0</ele><time>2026-03-29T13:17:41.999Z</time></trkpt><trkpt lat="43.454035591874025" lon="11.509034645849088"><ele>724.0</ele><time>2026-03-29T13:17:42.999Z</time></trkpt><trkpt lat="43.45395001113963" lon="11.508891086789069"><ele>724.0</ele><time>2026-03-29T13:17:43.999Z</time></trkpt><trkpt lat="43.45388979500334" lon="11.508761201470936"><ele>724.0</ele><time>2026-03-29T13:17:44.999Z</time></trkpt><trkpt lat="43.45387429725303" lon="11.508634370367714"><ele>727.5</ele><time>2026-03-29T13:17:45.999Z</time></trkpt><trkpt lat="43.45388670248611" lon="11.50850220526383"><ele>731.0</ele><time>2026-03-29T13:17:46.999Z</time></trkpt><trkpt lat="43.453927631130775" lon="11.508351031556934"><ele>734.5</ele><time>2026-03-29T13:17:47.999Z</time></trkpt><trkpt lat="43.45397496717625" lon="11.508174869564074"><ele>738.0</ele><time>2026-03-29T13:17:48.999Z</time></trkpt><trkpt lat="43.45401699426605" lon="11.507985653719958"><ele>738.6666666666666</ele><time>2026-03-29T13:17:49.999Z</time></trkpt><trkpt lat="43.45404983035701" lon="11.507779320595706"><ele>739.3333333333333</ele><time>2026-03-29T13:17:50.999Z</time></trkpt><trkpt lat="43.45407663198996" lon="11.507549469951357"><ele>740.0</ele><time>2026-03-29T13:17:51.999Z</time></trkpt><trkpt lat="43.45410486817693" lon="11.507341555677398"><ele>740.0</ele><time>2026-03-29T13:17:52.999Z</time></trkpt><trkpt lat="43.45415317626299" lon="11.507160985250133"><ele>740.0</ele><time>2026-03-29T13:17:53.999Z</time></trkpt><trkpt lat="43.45422415602374" lon="11.50700712138422"><ele>740.0</ele><time>2026-03-29T13:17:54.999Z</time></trkpt><trkpt lat="43.45431783985544" lon="11.506848010430533"><ele>740.0</ele><time>2026-03-29T13:17:55.999Z</time></trkpt><trkpt lat="43.45439409418527" lon="11.506671370126117"><ele>737.75</ele><time>2026-03-29T13:17:56.999Z</time></trkpt><trkpt lat="43.45444187381262" lon="11.506489633130595"><ele>735.5</ele><time>2026-03-29T13:17:57.999Z</time></trkpt><trkpt lat="43.45449180173357" lon="11.506308674522815"><ele>733.25</ele><time>2026-03-29T13:17:58.999Z</time></trkpt><trkpt lat="43.454562959108074" lon="11.50614619908662"><ele>731.0</ele><time>2026-03-29T13:17:59.999Z</time></trkpt><trkpt lat="43.454648380218316" lon="11.506014234313707"><ele>735.5999999999999</ele><time>2026-03-29T13:18:00.999Z</time></trkpt><trkpt lat="43.454746451065205" lon="11.505919008739534"><ele>740.2</ele><time>2026-03-29T13:18:01.999Z</time></trkpt><trkpt lat="43.45483719305873" lon="11.505852640180159"><ele>744.8</ele><time>2026-03-29T13:18:02.999Z</time></trkpt><trkpt lat="43.45489021200228" lon="11.505761397569655"><ele>749.4000000000001</ele><time>2026-03-29T13:18:03.999Z</time></trkpt><trkpt lat="43.45491170692026" lon="11.505646538203587"><ele>754.0</ele><time>2026-03-29T13:18:04.999Z</time></trkpt><trkpt lat="43.454900671754764" lon="11.505533421883268"><ele>754.0</ele><time>2026-03-29T13:18:05.999Z</time></trkpt><trkpt lat="43.454860366476424" lon="11.505454421008025"><ele>754.0</ele><time>2026-03-29T13:18:06.999Z</time></trkpt><trkpt lat="43.45479702789046" lon="11.50540537974461"><ele>754.0</ele><time>2026-03-29T13:18:07.999Z</time></trkpt><trkpt lat="43.454714773152205" lon="11.505348185131606"><ele>754.0</ele><time>2026-03-29T13:18:08.999Z</time></trkpt><trkpt lat="43.45466851714645" lon="11.505259558857714"><ele>754.0</ele><time>2026-03-29T13:18:10Z</time></trkpt><trkpt lat="43.45472343312499" lon="11.505120383111414"><ele>754.0</ele><time>2026-03-29T13:18:12Z</time></trkpt><trkpt lat="43.454779399246576" lon="11.505013849064513"><ele>754.0</ele><time>2026-03-29T13:18:13Z</time></trkpt><trkpt lat="43.45483425151572" lon="11.504858890057564"><ele>754.0</ele><time>2026-03-29T13:18:14Z</time></trkpt><trkpt lat="43.45488869547631" lon="11.504695969874765"><ele>754.0</ele><time>2026-03-29T13:18:15Z</time></trkpt><trkpt lat="43.45495430503731" lon="11.504501988558113"><ele>754.0</ele><time>2026-03-29T13:18:16Z</time></trkpt><trkpt lat="43.45501670280323" lon="11.504330089945501"><ele>755.0</ele><time>2026-03-29T13:18:17Z</time></trkpt><trkpt lat="43.45506306322128" lon="11.504205999764348"><ele>756.0</ele><time>2026-03-29T13:18:18Z</time></trkpt><trkpt lat="43.45510869610853" lon="11.504092204387884"><ele>757.0</ele><time>2026-03-29T13:18:19Z</time></trkpt><trkpt lat="43.45511118777862" lon="11.50398037702551"><ele>758.0</ele><time>2026-03-29T13:18:20Z</time></trkpt><trkpt lat="43.455071122044444" lon="11.503880611764144"><ele>759.0</ele><time>2026-03-29T13:18:21Z</time></trkpt><trkpt lat="43.45498766591342" lon="11.503818280559546"><ele>759.0</ele><time>2026-03-29T13:18:22Z</time></trkpt><trkpt lat="43.454902278140516" lon="11.503763140999572"><ele>759.0</ele><time>2026-03-29T13:18:23Z</time></trkpt><trkpt lat="43.45479866250996" lon="11.503712785336319"><ele>759.0</ele><time>2026-03-29T13:18:24Z</time></trkpt><trkpt lat="43.454669292721164" lon="11.503651774416998"><ele>759.0</ele><time>2026-03-29T13:18:25Z</time></trkpt><trkpt lat="43.45453708280266" lon="11.503585649752372"><ele>759.0</ele><time>2026-03-29T13:18:26Z</time></trkpt><trkpt lat="43.454406078194715" lon="11.503506281068908"><ele>759.0</ele><time>2026-03-29T13:18:27Z</time></trkpt><trkpt lat="43.454273363921224" lon="11.503394126644666"><ele>759.0</ele><time>2026-03-29T13:18:28Z</time></trkpt><trkpt lat="43.454146980546255" lon="11.503265815680612"><ele>759.0</ele><time>2026-03-29T13:18:29Z</time></trkpt><trkpt lat="43.454013597960824" lon="11.503149631805096"><ele>759.0</ele><time>2026-03-29T13:18:30Z</time></trkpt><trkpt lat="43.45386954908591" lon="11.503062769085119"><ele>759.0</ele><time>2026-03-29T13:18:31Z</time></trkpt><trkpt lat="43.45374777316157" lon="11.502988651248234"><ele>759.0</ele><time>2026-03-29T13:18:32Z</time></trkpt><trkpt lat="43.453644569207576" lon="11.502880378316185"><ele>760.25</ele><time>2026-03-29T13:18:33Z</time></trkpt><trkpt lat="43.45353367300379" lon="11.502728412425547"><ele>761.5</ele><time>2026-03-29T13:18:34Z</time></trkpt><trkpt lat="43.45343390640384" lon="11.502575800502699"><ele>762.75</ele><time>2026-03-29T13:18:35Z</time></trkpt><trkpt lat="43.45332000037141" lon="11.50245601855906"><ele>764.0</ele><time>2026-03-29T13:18:36Z</time></trkpt><trkpt lat="43.45320573905368" lon="11.502373732060756"><ele>764.0</ele><time>2026-03-29T13:18:37Z</time></trkpt><trkpt lat="43.45309365967683" lon="11.502331349323809"><ele>764.0</ele><time>2026-03-29T13:18:38Z</time></trkpt><trkpt lat="43.452991003732386" lon="11.50227978895701"><ele>764.0</ele><time>2026-03-29T13:18:39Z</time></trkpt><trkpt lat="43.45291939748831" lon="11.502165585124775"><ele>764.0</ele><time>2026-03-29T13:18:40Z</time></trkpt><trkpt lat="43.452837409070874" lon="11.502025209587746"><ele>769.3333333333333</ele><time>2026-03-29T13:18:41Z</time></trkpt><trkpt lat="43.45271888428874" lon="11.501924376757012"><ele>774.6666666666666</ele><time>2026-03-29T13:18:42Z</time></trkpt><trkpt lat="43.4525562410137" lon="11.5018854202339"><ele>780.0</ele><time>2026-03-29T13:18:43Z</time></trkpt><trkpt lat="43.452399487166794" lon="11.50182521029675"><ele>780.0</ele><time>2026-03-29T13:18:44Z</time></trkpt><trkpt lat="43.452272793843484" lon="11.501767593813636"><ele>780.0</ele><time>2026-03-29T13:18:45Z</time></trkpt><trkpt lat="43.45216389895602" lon="11.50174581839956"><ele>780.0</ele><time>2026-03-29T13:18:46Z</time></trkpt><trkpt lat="43.45206186133689" lon="11.501787185636628"><ele>780.0</ele><time>2026-03-29T13:18:47Z</time></trkpt><trkpt lat="43.45197708745014" lon="11.50187095346"><ele>780.75</ele><time>2026-03-29T13:18:48Z</time></trkpt><trkpt lat="43.451916316723334" lon="11.501981803875111"><ele>781.5</ele><time>2026-03-29T13:18:49Z</time></trkpt><trkpt lat="43.45185107580968" lon="11.50210907811716"><ele>782.25</ele><time>2026-03-29T13:18:50Z</time></trkpt><trkpt lat="43.45175442191279" lon="11.502247858302656"><ele>783.0</ele><time>2026-03-29T13:18:51Z</time></trkpt><trkpt lat="43.45165189613697" lon="11.502354239768236"><ele>779.75</ele><time>2026-03-29T13:18:52Z</time></trkpt><trkpt lat="43.45153076083532" lon="11.50245438263143"><ele>776.5</ele><time>2026-03-29T13:18:53Z</time></trkpt><trkpt lat="43.451393652256805" lon="11.502554112860825"><ele>773.25</ele><time>2026-03-29T13:18:54Z</time></trkpt><trkpt lat="43.45126257899601" lon="11.502638642186074"><ele>770.0</ele><time>2026-03-29T13:18:55Z</time></trkpt><trkpt lat="43.45114110858241" lon="11.502701961624815"><ele>770.0</ele><time>2026-03-29T13:18:56Z</time></trkpt><trkpt lat="43.4510154547197" lon="11.502744294037731"><ele>770.0</ele><time>2026-03-29T13:18:57Z</time></trkpt><trkpt lat="43.45089412158527" lon="11.50276098749112"><ele>770.0</ele><time>2026-03-29T13:18:58Z</time></trkpt><trkpt lat="43.450786588043975" lon="11.502762136322191"><ele>770.0</ele><time>2026-03-29T13:18:59Z</time></trkpt><trkpt lat="43.450696568793134" lon="11.502741269984536"><ele>770.0</ele><time>2026-03-29T13:19:00Z</time></trkpt><trkpt lat="43.450614135802034" lon="11.502700410217221"><ele>770.0</ele><time>2026-03-29T13:19:01Z</time></trkpt><trkpt lat="43.450543072978576" lon="11.502637468670942"><ele>770.0</ele><time>2026-03-29T13:19:02Z</time></trkpt><trkpt lat="43.45049029205324" lon="11.50252807948269"><ele>770.0</ele><time>2026-03-29T13:19:04Z</time></trkpt><trkpt lat="43.45055275832828" lon="11.502438776727484"><ele>770.0</ele><time>2026-03-29T13:19:06Z</time></trkpt><trkpt lat="43.450685242183695" lon="11.502317176718377"><ele>770.0</ele><time>2026-03-29T13:19:08Z</time></trkpt><trkpt lat="43.45078318105582" lon="11.502220232851466"><ele>770.0</ele><time>2026-03-29T13:19:09Z</time></trkpt><trkpt lat="43.45088995319523" lon="11.502114758802664"><ele>770.0</ele><time>2026-03-29T13:19:10Z</time></trkpt><trkpt lat="43.451003044253945" lon="11.501996693719812"><ele>770.0</ele><time>2026-03-29T13:19:11Z</time></trkpt><trkpt lat="43.45112245239197" lon="11.501921709020028"><ele>772.0</ele><time>2026-03-29T13:19:12Z</time></trkpt><trkpt lat="43.451238067561675" lon="11.50181100874803"><ele>774.0</ele><time>2026-03-29T13:19:13Z</time></trkpt><trkpt lat="43.45134620345008" lon="11.501713387225243"><ele>776.0</ele><time>2026-03-29T13:19:14Z</time></trkpt><trkpt lat="43.45145338128527" lon="11.501654234692696"><ele>778.0</ele><time>2026-03-29T13:19:15Z</time></trkpt><trkpt lat="43.45157990392207" lon="11.501650014700001"><ele>779.25</ele><time>2026-03-29T13:19:16Z</time></trkpt><trkpt lat="43.45169310962712" lon="11.501599662567044"><ele>780.5</ele><time>2026-03-29T13:19:17Z</time></trkpt><trkpt lat="43.451795836333304" lon="11.501507468323311"><ele>781.75</ele><time>2026-03-29T13:19:18Z</time></trkpt><trkpt lat="43.451899127474285" lon="11.501400874547544"><ele>783.0</ele><time>2026-03-29T13:19:19Z</time></trkpt><trkpt lat="43.45200937780797" lon="11.501304078228392"><ele>785.5</ele><time>2026-03-29T13:19:20Z</time></trkpt><trkpt lat="43.45211170610214" lon="11.501181007807938"><ele>788.0</ele><time>2026-03-29T13:19:21Z</time></trkpt><trkpt lat="43.45221638274223" lon="11.501097776327658"><ele>790.5</ele><time>2026-03-29T13:19:22Z</time></trkpt><trkpt lat="43.45232024102312" lon="11.501070685393149"><ele>793.0</ele><time>2026-03-29T13:19:23Z</time></trkpt><trkpt lat="43.452439562655655" lon="11.501055546291958"><ele>793.75</ele><time>2026-03-29T13:19:24Z</time></trkpt><trkpt lat="43.452577771124105" lon="11.501028862986962"><ele>794.5</ele><time>2026-03-29T13:19:25Z</time></trkpt><trkpt lat="43.4527219146118" lon="11.501060139895536"><ele>795.25</ele><time>2026-03-29T13:19:25.999Z</time></trkpt><trkpt lat="43.45285816698098" lon="11.501115609359289"><ele>796.0</ele><time>2026-03-29T13:19:26.999Z</time></trkpt><trkpt lat="43.452993015697956" lon="11.501182240916142"><ele>794.5</ele><time>2026-03-29T13:19:27.999Z</time></trkpt><trkpt lat="43.45313966745663" lon="11.501270259041112"><ele>793.0</ele><time>2026-03-29T13:19:28.999Z</time></trkpt><trkpt lat="43.45327523353266" lon="11.501363144118105"><ele>791.5</ele><time>2026-03-29T13:19:29.999Z</time></trkpt><trkpt lat="43.453397070619886" lon="11.501393076697374"><ele>790.0</ele><time>2026-03-29T13:19:30.999Z</time></trkpt><trkpt lat="43.453493739109874" lon="11.501406068894909"><ele>790.0</ele><time>2026-03-29T13:19:31.999Z</time></trkpt><trkpt lat="43.4535764147663" lon="11.501362886427344"><ele>790.0</ele><time>2026-03-29T13:19:32.999Z</time></trkpt><trkpt lat="43.45366313443913" lon="11.501292376380137"><ele>790.0</ele><time>2026-03-29T13:19:33.999Z</time></trkpt><trkpt lat="43.45376991778118" lon="11.501226741734408"><ele>790.0</ele><time>2026-03-29T13:19:34.999Z</time></trkpt><trkpt lat="43.45388174409975" lon="11.501138604040209"><ele>790.0</ele><time>2026-03-29T13:19:35.999Z</time></trkpt><trkpt lat="43.4540027656491" lon="11.501067197430796"><ele>790.5</ele><time>2026-03-29T13:19:36.999Z</time></trkpt><trkpt lat="43.45413417123301" lon="11.501017195579685"><ele>791.0</ele><time>2026-03-29T13:19:37.999Z</time></trkpt><trkpt lat="43.45427577807112" lon="11.500971449880373"><ele>791.5</ele><time>2026-03-29T13:19:38.999Z</time></trkpt><trkpt lat="43.4544172438706" lon="11.500921152058737"><ele>792.0</ele><time>2026-03-29T13:19:39.999Z</time></trkpt><trkpt lat="43.45453944110229" lon="11.500852955707243"><ele>792.0</ele><time>2026-03-29T13:19:40.999Z</time></trkpt><trkpt lat="43.45465963242371" lon="11.500800942053017"><ele>792.0</ele><time>2026-03-29T13:19:41.999Z</time></trkpt><trkpt lat="43.454782030732936" lon="11.500776886563973"><ele>792.0</ele><time>2026-03-29T13:19:42.999Z</time></trkpt><trkpt lat="43.454891302595044" lon="11.50075390154417"><ele>792.0</ele><time>2026-03-29T13:19:43.999Z</time></trkpt><trkpt lat="43.45499977020499" lon="11.500768708604786"><ele>792.0</ele><time>2026-03-29T13:19:44.999Z</time></trkpt><trkpt lat="43.45508824671765" lon="11.500816662195303"><ele>792.0</ele><time>2026-03-29T13:19:45.999Z</time></trkpt><trkpt lat="43.455183934654706" lon="11.500878665378268"><ele>792.0</ele><time>2026-03-29T13:19:46.999Z</time></trkpt><trkpt lat="43.45531018493592" lon="11.500901450095188"><ele>792.0</ele><time>2026-03-29T13:19:47.999Z</time></trkpt><trkpt lat="43.455447057774236" lon="11.500844919011026"><ele>792.25</ele><time>2026-03-29T13:19:48.999Z</time></trkpt><trkpt lat="43.455580450452096" lon="11.500781156235877"><ele>792.5</ele><time>2026-03-29T13:19:49.999Z</time></trkpt><trkpt lat="43.45569482182444" lon="11.500749197814356"><ele>792.75</ele><time>2026-03-29T13:19:50.999Z</time></trkpt><trkpt lat="43.45580216457008" lon="11.500711370469956"><ele>793.0</ele><time>2026-03-29T13:19:51.999Z</time></trkpt><trkpt lat="43.455909038188906" lon="11.500693281064843"><ele>793.0</ele><time>2026-03-29T13:19:52.999Z</time></trkpt><trkpt lat="43.456020858348204" lon="11.500696221084496"><ele>793.0</ele><time>2026-03-29T13:19:53.999Z</time></trkpt><trkpt lat="43.45613350169599" lon="11.50067165028486"><ele>793.0</ele><time>2026-03-29T13:19:54.999Z</time></trkpt><trkpt lat="43.4562248006473" lon="11.500605129332882"><ele>793.0</ele><time>2026-03-29T13:19:55.999Z</time></trkpt><trkpt lat="43.4563007226434" lon="11.500537997639919"><ele>793.0</ele><time>2026-03-29T13:19:56.999Z</time></trkpt><trkpt lat="43.45640698972189" lon="11.500434961878726"><ele>789.75</ele><time>2026-03-29T13:19:57.999Z</time></trkpt><trkpt lat="43.456513508170076" lon="11.500382483248668"><ele>786.5</ele><time>2026-03-29T13:19:58.999Z</time></trkpt><trkpt lat="43.45661504003938" lon="11.500334378261627"><ele>783.25</ele><time>2026-03-29T13:19:59.999Z</time></trkpt><trkpt lat="43.45672671384425" lon="11.50027103620537"><ele>780.0</ele><time>2026-03-29T13:20:00.999Z</time></trkpt><trkpt lat="43.45685588673873" lon="11.50022148301373"><ele>780.0</ele><time>2026-03-29T13:20:01.999Z</time></trkpt><trkpt lat="43.45697009372538" lon="11.50017458805885"><ele>780.0</ele><time>2026-03-29T13:20:02.999Z</time></trkpt><trkpt lat="43.45707318297009" lon="11.500132353588578"><ele>780.0</ele><time>2026-03-29T13:20:03.999Z</time></trkpt><trkpt lat="43.457176770344745" lon="11.500117339137459"><ele>780.0</ele><time>2026-03-29T13:20:04.999Z</time></trkpt><trkpt lat="43.45728357561275" lon="11.500144077662739"><ele>780.0</ele><time>2026-03-29T13:20:05.999Z</time></trkpt><trkpt lat="43.457419476058945" lon="11.50017963148921"><ele>780.25</ele><time>2026-03-29T13:20:06.999Z</time></trkpt><trkpt lat="43.457551826294974" lon="11.50026017694834"><ele>780.5</ele><time>2026-03-29T13:20:07.999Z</time></trkpt><trkpt lat="43.45767699423275" lon="11.50033083699686"><ele>780.75</ele><time>2026-03-29T13:20:08.999Z</time></trkpt><trkpt lat="43.457795295929884" lon="11.500387981504998"><ele>781.0</ele><time>2026-03-29T13:20:09.999Z</time></trkpt><trkpt lat="43.457908924718765" lon="11.500436583772142"><ele>779.8333333333333</ele><time>2026-03-29T13:20:10.999Z</time></trkpt><trkpt lat="43.45801708921688" lon="11.500460864195572"><ele>778.6666666666666</ele><time>2026-03-29T13:20:11.999Z</time></trkpt><trkpt lat="43.45810345090486" lon="11.50048865771787"><ele>777.5</ele><time>2026-03-29T13:20:12.999Z</time></trkpt><trkpt lat="43.45818292853506" lon="11.500450746083583"><ele>776.3333333333333</ele><time>2026-03-29T13:20:13.999Z</time></trkpt><trkpt lat="43.4582739022355" lon="11.500436540558244"><ele>775.1666666666666</ele><time>2026-03-29T13:20:16Z</time></trkpt><trkpt lat="43.458330101252464" lon="11.500387417698086"><ele>774.0</ele><time>2026-03-29T13:20:19Z</time></trkpt><trkpt lat="43.45841662165435" lon="11.50030746872483"><ele>774.0</ele><time>2026-03-29T13:20:32Z</time></trkpt><trkpt lat="43.45848737771038" lon="11.500748243295748"><ele>774.0</ele><time>2026-03-29T13:20:34Z</time></trkpt><trkpt lat="43.45854957684066" lon="11.500797839056249"><ele>774.0</ele><time>2026-03-29T13:20:35Z</time></trkpt><trkpt lat="43.458661731031995" lon="11.500886612900517"><ele>774.0</ele><time>2026-03-29T13:20:37Z</time></trkpt><trkpt lat="43.45873543195181" lon="11.500942249504291"><ele>774.0</ele><time>2026-03-29T13:20:38Z</time></trkpt><trkpt lat="43.45886134254307" lon="11.501013475443953"><ele>774.0</ele><time>2026-03-29T13:20:39Z</time></trkpt><trkpt lat="43.458955925963316" lon="11.501041189869152"><ele>774.0</ele><time>2026-03-29T13:20:40Z</time></trkpt><trkpt lat="43.45907219228039" lon="11.50105605873771"><ele>774.0</ele><time>2026-03-29T13:20:41Z</time></trkpt><trkpt lat="43.45920580150225" lon="11.50104637511735"><ele>771.8000000000001</ele><time>2026-03-29T13:20:42Z</time></trkpt><trkpt lat="43.459310136066264" lon="11.501020560287394"><ele>769.6</ele><time>2026-03-29T13:20:43Z</time></trkpt><trkpt lat="43.45939808692549" lon="11.500989394651166"><ele>767.4</ele><time>2026-03-29T13:20:44Z</time></trkpt><trkpt lat="43.45953876974267" lon="11.50083186810599"><ele>765.2</ele><time>2026-03-29T13:20:45Z</time></trkpt><trkpt lat="43.45959857725571" lon="11.500803319389993"><ele>763.0</ele><time>2026-03-29T13:20:47Z</time></trkpt><trkpt lat="43.45970981363972" lon="11.500751791918875"><ele>761.4</ele><time>2026-03-29T13:20:49Z</time></trkpt><trkpt lat="43.45981635441226" lon="11.500710054387062"><ele>759.8</ele><time>2026-03-29T13:20:51Z</time></trkpt><trkpt lat="43.4598837562091" lon="11.500708054059674"><ele>758.2</ele><time>2026-03-29T13:20:52Z</time></trkpt><trkpt lat="43.459990624963176" lon="11.500720724769934"><ele>756.6</ele><time>2026-03-29T13:20:54Z</time></trkpt><trkpt lat="43.46009855544087" lon="11.500806133381115"><ele>755.0</ele><time>2026-03-29T13:20:57Z</time></trkpt><trkpt lat="43.460168568874614" lon="11.500864056626117"><ele>755.0</ele><time>2026-03-29T13:20:58Z</time></trkpt><trkpt lat="43.460235132051956" lon="11.500950667720264"><ele>755.0</ele><time>2026-03-29T13:20:59Z</time></trkpt><trkpt lat="43.46031569416926" lon="11.50105606512438"><ele>755.0</ele><time>2026-03-29T13:21:00Z</time></trkpt><trkpt lat="43.46037501531326" lon="11.501171230251703"><ele>755.0</ele><time>2026-03-29T13:21:01Z</time></trkpt><trkpt lat="43.46043570499993" lon="11.501208752498675"><ele>755.0</ele><time>2026-03-29T13:21:02Z</time></trkpt><trkpt lat="43.46052741333817" lon="11.501228576588067"><ele>757.0</ele><time>2026-03-29T13:21:04Z</time></trkpt><trkpt lat="43.460596483551655" lon="11.501144116349229"><ele>759.0</ele><time>2026-03-29T13:21:06Z</time></trkpt><trkpt lat="43.46065251919086" lon="11.500976355819235"><ele>761.0</ele><time>2026-03-29T13:21:08Z</time></trkpt><trkpt lat="43.46067771137681" lon="11.500871848300743"><ele>763.0</ele><time>2026-03-29T13:21:09Z</time></trkpt><trkpt lat="43.460709037165444" lon="11.500763542834184"><ele>765.0</ele><time>2026-03-29T13:21:10Z</time></trkpt><trkpt lat="43.460736978435804" lon="11.500681731790468"><ele>765.0</ele><time>2026-03-29T13:21:11Z</time></trkpt><trkpt lat="43.46079002727956" lon="11.500565814811415"><ele>765.0</ele><time>2026-03-29T13:21:13Z</time></trkpt><trkpt lat="43.46084481106679" lon="11.500456083410592"><ele>765.0</ele><time>2026-03-29T13:21:14Z</time></trkpt><trkpt lat="43.46089508708582" lon="11.500366367308521"><ele>765.0</ele><time>2026-03-29T13:21:15Z</time></trkpt><trkpt lat="43.46098708207408" lon="11.500263259390932"><ele>765.0</ele><time>2026-03-29T13:21:17Z</time></trkpt><trkpt lat="43.4610659124957" lon="11.500169136207546"><ele>764.3333333333334</ele><time>2026-03-29T13:21:19Z</time></trkpt><trkpt lat="43.4611226311295" lon="11.50012963018233"><ele>763.6666666666666</ele><time>2026-03-29T13:21:20Z</time></trkpt><trkpt lat="43.461235349758375" lon="11.500052454528115"><ele>763.0</ele><time>2026-03-29T13:21:22Z</time></trkpt><trkpt lat="43.46129731215079" lon="11.500013002125748"><ele>762.3333333333333</ele><time>2026-03-29T13:21:23Z</time></trkpt><trkpt lat="43.461358487594545" lon="11.499975585073251"><ele>761.6666666666666</ele><time>2026-03-29T13:21:24Z</time></trkpt><trkpt lat="43.46143500927564" lon="11.49992878171228"><ele>761.0</ele><time>2026-03-29T13:21:25Z</time></trkpt><trkpt lat="43.46151390659592" lon="11.499888610366085"><ele>761.4</ele><time>2026-03-29T13:21:26Z</time></trkpt><trkpt lat="43.46161478411582" lon="11.499848582647873"><ele>761.8</ele><time>2026-03-29T13:21:27Z</time></trkpt><trkpt lat="43.46170826990853" lon="11.499791772776302"><ele>762.1999999999999</ele><time>2026-03-29T13:21:28Z</time></trkpt><trkpt lat="43.46176825006709" lon="11.499743099941726"><ele>762.5999999999999</ele><time>2026-03-29T13:21:29Z</time></trkpt><trkpt lat="43.46185011617364" lon="11.499647431318373"><ele>763.0</ele><time>2026-03-29T13:21:31Z</time></trkpt><trkpt lat="43.46191415000807" lon="11.499541745017147"><ele>763.0</ele><time>2026-03-29T13:21:33Z</time></trkpt><trkpt lat="43.46197575742633" lon="11.499434756078163"><ele>763.0</ele><time>2026-03-29T13:23:39Z</time></trkpt><trkpt lat="43.46208107915737" lon="11.499415209955842"><ele>763.0</ele><time>2026-03-29T13:23:41Z</time></trkpt><trkpt lat="43.462177655753955" lon="11.499412753709287"><ele>763.0</ele><time>2026-03-29T13:23:42.999Z</time></trkpt><trkpt lat="43.46226743678472" lon="11.499414220327788"><ele>763.0</ele><time>2026-03-29T13:23:44.999Z</time></trkpt><trkpt lat="43.462369200019886" lon="11.49941616850185"><ele>766.4</ele><time>2026-03-29T13:23:46.999Z</time></trkpt><trkpt lat="43.46244248739611" lon="11.499400146640673"><ele>769.8</ele><time>2026-03-29T13:23:48.999Z</time></trkpt><trkpt lat="43.462514020783374" lon="11.499429153715521"><ele>773.2</ele><time>2026-03-29T13:24:08.999Z</time></trkpt><trkpt lat="43.46261481066042" lon="11.499436880739246"><ele>776.6</ele><time>2026-03-29T13:24:10.999Z</time></trkpt><trkpt lat="43.46275266660489" lon="11.499444844400875"><ele>780.0</ele><time>2026-03-29T13:24:12.999Z</time></trkpt><trkpt lat="43.46284374057209" lon="11.499435955183715"><ele>780.0</ele><time>2026-03-29T13:24:13.999Z</time></trkpt><trkpt lat="43.46293685372649" lon="11.499404927344896"><ele>780.0</ele><time>2026-03-29T13:24:14.999Z</time></trkpt><trkpt lat="43.463029497335704" lon="11.499352547936242"><ele>780.0</ele><time>2026-03-29T13:24:15.999Z</time></trkpt><trkpt lat="43.46310358402855" lon="11.499316412008167"><ele>780.0</ele><time>2026-03-29T13:24:16.999Z</time></trkpt><trkpt lat="43.463184585131" lon="11.499281955706314"><ele>780.0</ele><time>2026-03-29T13:24:17.999Z</time></trkpt><trkpt lat="43.463255640798366" lon="11.49923047121026"><ele>780.0</ele><time>2026-03-29T13:24:18.999Z</time></trkpt><trkpt lat="43.4633247781787" lon="11.499162897497113"><ele>780.3333333333334</ele><time>2026-03-29T13:24:19.999Z</time></trkpt><trkpt lat="43.46339268983264" lon="11.49910572455916"><ele>780.6666666666667</ele><time>2026-03-29T13:24:20.999Z</time></trkpt><trkpt lat="43.46346829950236" lon="11.499072488655523"><ele>781.0</ele><time>2026-03-29T13:24:21.999Z</time></trkpt><trkpt lat="43.46352840057914" lon="11.498991220210966"><ele>781.3333333333334</ele><time>2026-03-29T13:24:22.999Z</time></trkpt><trkpt lat="43.463601403394584" lon="11.498932980608215"><ele>781.6666666666667</ele><time>2026-03-29T13:24:23.999Z</time></trkpt><trkpt lat="43.4636436003746" lon="11.498868096419828"><ele>782.0</ele><time>2026-03-29T13:24:24.999Z</time></trkpt><trkpt lat="43.46372306887922" lon="11.498721862927418"><ele>781.8</ele><time>2026-03-29T13:24:26.999Z</time></trkpt><trkpt lat="43.463773260352745" lon="11.498624997782866"><ele>781.6</ele><time>2026-03-29T13:24:28Z</time></trkpt><trkpt lat="43.46383483174047" lon="11.498519501240368"><ele>781.4</ele><time>2026-03-29T13:24:29Z</time></trkpt><trkpt lat="43.46390223539039" lon="11.498444779423178"><ele>781.1999999999999</ele><time>2026-03-29T13:24:30Z</time></trkpt><trkpt lat="43.46396693428889" lon="11.498388707716071"><ele>781.0</ele><time>2026-03-29T13:24:31Z</time></trkpt><trkpt lat="43.4640750202344" lon="11.498366981601334"><ele>781.0</ele><time>2026-03-29T13:24:32Z</time></trkpt><trkpt lat="43.46417666162431" lon="11.49835216281148"><ele>781.0</ele><time>2026-03-29T13:24:33Z</time></trkpt><trkpt lat="43.46429255671717" lon="11.498353678959635"><ele>781.0</ele><time>2026-03-29T13:24:34Z</time></trkpt><trkpt lat="43.46438088188246" lon="11.498319954802495"><ele>781.0</ele><time>2026-03-29T13:24:35Z</time></trkpt><trkpt lat="43.46445373530677" lon="11.498292811237048"><ele>781.0</ele><time>2026-03-29T13:24:36Z</time></trkpt><trkpt lat="43.46452355856242" lon="11.49827193222006"><ele>781.5999999999999</ele><time>2026-03-29T13:24:37Z</time></trkpt><trkpt lat="43.464651646594035" lon="11.498252413641255"><ele>782.2</ele><time>2026-03-29T13:24:39Z</time></trkpt><trkpt lat="43.46472235887604" lon="11.498196730914543"><ele>782.8</ele><time>2026-03-29T13:24:40Z</time></trkpt><trkpt lat="43.4647959707002" lon="11.49814926808673"><ele>783.4000000000001</ele><time>2026-03-29T13:24:41Z</time></trkpt><trkpt lat="43.46487511730077" lon="11.498115489730033"><ele>784.0</ele><time>2026-03-29T13:24:43Z</time></trkpt><trkpt lat="43.46482053511664" lon="11.497909308510412"><ele>784.0</ele><time>2026-03-29T13:24:45Z</time></trkpt><trkpt lat="43.46479773916504" lon="11.497823475743832"><ele>784.0</ele><time>2026-03-29T13:24:46Z</time></trkpt><trkpt lat="43.464742359504655" lon="11.497704971014816"><ele>784.0</ele><time>2026-03-29T13:24:48Z</time></trkpt><trkpt lat="43.46469300805893" lon="11.497577181631502"><ele>784.0</ele><time>2026-03-29T13:24:50Z</time></trkpt><trkpt lat="43.46462171162187" lon="11.497442449002452"><ele>784.0</ele><time>2026-03-29T13:24:52Z</time></trkpt><trkpt lat="43.46456520140838" lon="11.49727902660902"><ele>784.4999999999999</ele><time>2026-03-29T13:24:54Z</time></trkpt><trkpt lat="43.464551590717214" lon="11.497193282086975"><ele>785.0</ele><time>2026-03-29T13:24:55Z</time></trkpt><trkpt lat="43.464530497586175" lon="11.497025541512674"><ele>785.5</ele><time>2026-03-29T13:24:57Z</time></trkpt><trkpt lat="43.46450352734956" lon="11.496872364198202"><ele>786.0</ele><time>2026-03-29T13:24:59Z</time></trkpt><trkpt lat="43.46450473910816" lon="11.496782937264282"><ele>786.4999999999999</ele><time>2026-03-29T13:25:00Z</time></trkpt><trkpt lat="43.46450472582485" lon="11.496694919880117"><ele>787.0</ele><time>2026-03-29T13:25:01Z</time></trkpt><trkpt lat="43.46449357627439" lon="11.496598308387394"><ele>783.9999999999999</ele><time>2026-03-29T13:25:02Z</time></trkpt><trkpt lat="43.46448390686201" lon="11.496512004975516"><ele>781.0</ele><time>2026-03-29T13:25:03Z</time></trkpt><trkpt lat="43.464464923359664" lon="11.496412075336522"><ele>778.0</ele><time>2026-03-29T13:25:04Z</time></trkpt><trkpt lat="43.46443994256673" lon="11.496307250234272"><ele>775.0</ele><time>2026-03-29T13:25:05Z</time></trkpt><trkpt lat="43.46441852842799" lon="11.496197474902418"><ele>771.9999999999999</ele><time>2026-03-29T13:25:06Z</time></trkpt><trkpt lat="43.46440824633387" lon="11.496081001508328"><ele>769.0</ele><time>2026-03-29T13:25:07Z</time></trkpt><trkpt lat="43.464401646596386" lon="11.495962911915434"><ele>767.4999999999999</ele><time>2026-03-29T13:25:08Z</time></trkpt><trkpt lat="43.46438037720182" lon="11.495852631197456"><ele>766.0</ele><time>2026-03-29T13:25:09Z</time></trkpt><trkpt lat="43.464361604825534" lon="11.49576400062094"><ele>764.5</ele><time>2026-03-29T13:25:10Z</time></trkpt><trkpt lat="43.4643535408251" lon="11.495660321351822"><ele>763.0</ele><time>2026-03-29T13:25:12Z</time></trkpt><trkpt lat="43.464341177140426" lon="11.49553910906468"><ele>761.5</ele><time>2026-03-29T13:25:15Z</time></trkpt><trkpt lat="43.464300414618336" lon="11.495416294990235"><ele>760.0</ele><time>2026-03-29T13:25:18Z</time></trkpt><trkpt lat="43.464283599605125" lon="11.495261244991005"><ele>760.0</ele><time>2026-03-29T13:25:20Z</time></trkpt><trkpt lat="43.46427681707997" lon="11.495167610785765"><ele>760.0</ele><time>2026-03-29T13:25:21Z</time></trkpt><trkpt lat="43.46423908032183" lon="11.495028779968036"><ele>760.0</ele><time>2026-03-29T13:25:23Z</time></trkpt><trkpt lat="43.464204403542695" lon="11.494914219948562"><ele>760.0</ele><time>2026-03-29T13:25:24Z</time></trkpt><trkpt lat="43.46416757176653" lon="11.494779839028288"><ele>760.0</ele><time>2026-03-29T13:25:25Z</time></trkpt><trkpt lat="43.46415075098144" lon="11.494626900991602"><ele>760.6666666666667</ele><time>2026-03-29T13:25:26Z</time></trkpt><trkpt lat="43.46415486415651" lon="11.494508066944038"><ele>761.3333333333334</ele><time>2026-03-29T13:25:27Z</time></trkpt><trkpt lat="43.464178846115644" lon="11.494416558188563"><ele>762.0</ele><time>2026-03-29T13:25:28Z</time></trkpt><trkpt lat="43.4641733394661" lon="11.494307092745812"><ele>762.6666666666666</ele><time>2026-03-29T13:25:29Z</time></trkpt><trkpt lat="43.46416798432136" lon="11.494174675652545"><ele>763.3333333333333</ele><time>2026-03-29T13:25:30Z</time></trkpt><trkpt lat="43.46417603695403" lon="11.494038647151775"><ele>764.0</ele><time>2026-03-29T13:25:31Z</time></trkpt><trkpt lat="43.46419256754962" lon="11.493911742577161"><ele>764.0</ele><time>2026-03-29T13:25:32Z</time></trkpt><trkpt lat="43.46421786566706" lon="11.493798429521819"><ele>764.0</ele><time>2026-03-29T13:25:33Z</time></trkpt><trkpt lat="43.46425686706908" lon="11.493692025548018"><ele>764.0</ele><time>2026-03-29T13:25:34Z</time></trkpt><trkpt lat="43.464286557282236" lon="11.493599654321866"><ele>764.0</ele><time>2026-03-29T13:25:36Z</time></trkpt><trkpt lat="43.4642744812629" lon="11.49348372890421"><ele>764.0</ele><time>2026-03-29T13:25:38Z</time></trkpt><trkpt lat="43.46425876938408" lon="11.49330266287021"><ele>764.1666666666666</ele><time>2026-03-29T13:25:40Z</time></trkpt><trkpt lat="43.46425382060125" lon="11.493192916779712"><ele>764.3333333333333</ele><time>2026-03-29T13:25:41Z</time></trkpt><trkpt lat="43.464238450269065" lon="11.493026956797978"><ele>764.5</ele><time>2026-03-29T13:25:43Z</time></trkpt><trkpt lat="43.46421774781223" lon="11.492936534647056"><ele>764.6666666666666</ele><time>2026-03-29T13:25:44Z</time></trkpt><trkpt lat="43.46418645488454" lon="11.492846863106601"><ele>764.8333333333334</ele><time>2026-03-29T13:25:45Z</time></trkpt><trkpt lat="43.46412458912739" lon="11.492749428119316"><ele>765.0</ele><time>2026-03-29T13:25:46Z</time></trkpt><trkpt lat="43.46407936049987" lon="11.492689063685742"><ele>764.3333333333334</ele><time>2026-03-29T13:25:47Z</time></trkpt><trkpt lat="43.46405195110762" lon="11.492591041644953"><ele>763.6666666666666</ele><time>2026-03-29T13:25:48Z</time></trkpt><trkpt lat="43.46404959712899" lon="11.49249373493528"><ele>763.0</ele><time>2026-03-29T13:25:49Z</time></trkpt><trkpt lat="43.46408943727077" lon="11.492418803340575"><ele>762.3333333333333</ele><time>2026-03-29T13:25:50Z</time></trkpt><trkpt lat="43.46414923526608" lon="11.492366288073613"><ele>761.6666666666666</ele><time>2026-03-29T13:25:51Z</time></trkpt><trkpt lat="43.464236556181504" lon="11.49233920475925"><ele>761.0</ele><time>2026-03-29T13:25:52Z</time></trkpt><trkpt lat="43.46432737080624" lon="11.492334031285614"><ele>761.0</ele><time>2026-03-29T13:25:53Z</time></trkpt><trkpt lat="43.46443000937047" lon="11.492360742016263"><ele>761.0</ele><time>2026-03-29T13:25:54Z</time></trkpt><trkpt lat="43.46452343392901" lon="11.492386061174598"><ele>761.0</ele><time>2026-03-29T13:25:55Z</time></trkpt><trkpt lat="43.464601667506294" lon="11.492371926874258"><ele>761.0</ele><time>2026-03-29T13:25:56Z</time></trkpt><trkpt lat="43.46466883177128" lon="11.492330679928338"><ele>761.0</ele><time>2026-03-29T13:25:56.999Z</time></trkpt><trkpt lat="43.464710656767444" lon="11.492247639978396"><ele>761.0</ele><time>2026-03-29T13:25:57.999Z</time></trkpt><trkpt lat="43.464732214081494" lon="11.492147131335338"><ele>761.6666666666666</ele><time>2026-03-29T13:25:58.999Z</time></trkpt><trkpt lat="43.46472956964446" lon="11.492029943068651"><ele>762.3333333333333</ele><time>2026-03-29T13:25:59.999Z</time></trkpt><trkpt lat="43.46472368431309" lon="11.49191183959946"><ele>763.0</ele><time>2026-03-29T13:26:00.999Z</time></trkpt><trkpt lat="43.464700215530996" lon="11.491800196942842"><ele>763.6666666666666</ele><time>2026-03-29T13:26:01.999Z</time></trkpt><trkpt lat="43.464724264455356" lon="11.491678226880467"><ele>764.3333333333334</ele><time>2026-03-29T13:26:02.999Z</time></trkpt><trkpt lat="43.46476486533683" lon="11.491570460877297"><ele>765.0</ele><time>2026-03-29T13:26:03.999Z</time></trkpt><trkpt lat="43.46478337319126" lon="11.49145569810341"><ele>765.0</ele><time>2026-03-29T13:26:04.999Z</time></trkpt><trkpt lat="43.46480060670973" lon="11.491314654184368"><ele>765.0</ele><time>2026-03-29T13:26:05.999Z</time></trkpt><trkpt lat="43.464854298976974" lon="11.491202476181762"><ele>765.0</ele><time>2026-03-29T13:26:06.999Z</time></trkpt><trkpt lat="43.46490858923382" lon="11.491096779637362"><ele>765.0</ele><time>2026-03-29T13:26:07.999Z</time></trkpt><trkpt lat="43.46498002107287" lon="11.491006794812487"><ele>765.0</ele><time>2026-03-29T13:26:08.999Z</time></trkpt><trkpt lat="43.4650471764154" lon="11.490900539901482"><ele>764.1666666666666</ele><time>2026-03-29T13:26:09.999Z</time></trkpt><trkpt lat="43.46510577764835" lon="11.490817902830637"><ele>763.3333333333334</ele><time>2026-03-29T13:26:10.999Z</time></trkpt><trkpt lat="43.465158021043685" lon="11.490736831551688"><ele>762.5</ele><time>2026-03-29T13:26:11.999Z</time></trkpt><trkpt lat="43.4652162043225" lon="11.490656906586254"><ele>761.6666666666667</ele><time>2026-03-29T13:26:12.999Z</time></trkpt><trkpt lat="43.465279380922816" lon="11.490587594075487"><ele>760.8333333333334</ele><time>2026-03-29T13:26:13.999Z</time></trkpt><trkpt lat="43.465340458840764" lon="11.490506074051138"><ele>760.0</ele><time>2026-03-29T13:26:14.999Z</time></trkpt><trkpt lat="43.46538743627885" lon="11.490424544020826"><ele>759.8333333333334</ele><time>2026-03-29T13:26:15.999Z</time></trkpt><trkpt lat="43.465432975810806" lon="11.490342242532897"><ele>759.6666666666667</ele><time>2026-03-29T13:26:16.999Z</time></trkpt><trkpt lat="43.46545800826217" lon="11.49019869844828"><ele>759.5</ele><time>2026-03-29T13:26:18.999Z</time></trkpt><trkpt lat="43.46547206973596" lon="11.490048115123104"><ele>759.3333333333334</ele><time>2026-03-29T13:26:20.999Z</time></trkpt><trkpt lat="43.46547887143233" lon="11.489953258979856"><ele>759.1666666666666</ele><time>2026-03-29T13:26:21.999Z</time></trkpt><trkpt lat="43.46547981500997" lon="11.489854735632417"><ele>759.0</ele><time>2026-03-29T13:26:22.999Z</time></trkpt><trkpt lat="43.46547350467295" lon="11.489680081217378"><ele>756.3333333333334</ele><time>2026-03-29T13:26:24.999Z</time></trkpt><trkpt lat="43.46549079002806" lon="11.489576840270484"><ele>753.6666666666666</ele><time>2026-03-29T13:26:25.999Z</time></trkpt><trkpt lat="43.46552067820316" lon="11.48946110899226"><ele>751.0</ele><time>2026-03-29T13:26:26.999Z</time></trkpt><trkpt lat="43.465518009632014" lon="11.489350820848932"><ele>748.3333333333333</ele><time>2026-03-29T13:26:27.999Z</time></trkpt><trkpt lat="43.4654871848064" lon="11.48926453535475"><ele>745.6666666666666</ele><time>2026-03-29T13:26:28.999Z</time></trkpt><trkpt lat="43.46540388848029" lon="11.48916300609222"><ele>743.0</ele><time>2026-03-29T13:26:30.999Z</time></trkpt><trkpt lat="43.465353542934295" lon="11.489104324130002"><ele>743.0</ele><time>2026-03-29T13:26:31.999Z</time></trkpt><trkpt lat="43.46528143552182" lon="11.488985461092701"><ele>743.0</ele><time>2026-03-29T13:26:34Z</time></trkpt><trkpt lat="43.465198300920264" lon="11.488891269299792"><ele>743.0</ele><time>2026-03-29T13:26:36Z</time></trkpt><trkpt lat="43.46514643306463" lon="11.488831097329482"><ele>743.0</ele><time>2026-03-29T13:26:37Z</time></trkpt><trkpt lat="43.46506092115884" lon="11.488718093482877"><ele>743.0</ele><time>2026-03-29T13:26:39Z</time></trkpt><trkpt lat="43.46494977164223" lon="11.488659433329401"><ele>740.5</ele><time>2026-03-29T13:26:41Z</time></trkpt><trkpt lat="43.46488632958493" lon="11.488631178559466"><ele>738.0</ele><time>2026-03-29T13:26:42Z</time></trkpt><trkpt lat="43.46483136244721" lon="11.488561754184621"><ele>735.5</ele><time>2026-03-29T13:26:43Z</time></trkpt><trkpt lat="43.46479612043322" lon="11.488413580343979"><ele>733.0</ele><time>2026-03-29T13:26:45Z</time></trkpt><trkpt lat="43.46479953035544" lon="11.488326465907786"><ele>730.5</ele><time>2026-03-29T13:26:46Z</time></trkpt><trkpt lat="43.46481457414771" lon="11.488233718456085"><ele>728.0</ele><time>2026-03-29T13:26:47Z</time></trkpt><trkpt lat="43.46480410144003" lon="11.488108769312307"><ele>728.0</ele><time>2026-03-29T13:26:48Z</time></trkpt><trkpt lat="43.4647723401194" lon="11.487986762826656"><ele>728.0</ele><time>2026-03-29T13:26:49Z</time></trkpt><trkpt lat="43.46473317569362" lon="11.487850306587191"><ele>728.0</ele><time>2026-03-29T13:26:50Z</time></trkpt><trkpt lat="43.464696211733134" lon="11.48774719427812"><ele>728.0</ele><time>2026-03-29T13:26:51Z</time></trkpt><trkpt lat="43.46466440420856" lon="11.487659560536388"><ele>728.0</ele><time>2026-03-29T13:26:53Z</time></trkpt><trkpt lat="43.464596496127136" lon="11.487623189612844"><ele>728.0</ele><time>2026-03-29T13:26:55Z</time></trkpt><trkpt lat="43.46452313999008" lon="11.487596756934533"><ele>728.0</ele><time>2026-03-29T13:26:56Z</time></trkpt><trkpt lat="43.46442873868939" lon="11.487572528801373"><ele>728.0</ele><time>2026-03-29T13:26:57Z</time></trkpt><trkpt lat="43.46434332032893" lon="11.487561279684932"><ele>728.0</ele><time>2026-03-29T13:26:58Z</time></trkpt><trkpt lat="43.46426669752898" lon="11.487554651772474"><ele>728.0</ele><time>2026-03-29T13:26:59Z</time></trkpt><trkpt lat="43.4642021473544" lon="11.487538985248323"><ele>728.0</ele><time>2026-03-29T13:27:00Z</time></trkpt><trkpt lat="43.46407802828476" lon="11.487490139524793"><ele>728.0</ele><time>2026-03-29T13:27:02Z</time></trkpt><trkpt lat="43.46401707172496" lon="11.487439529344952"><ele>728.0</ele><time>2026-03-29T13:27:03Z</time></trkpt><trkpt lat="43.46394703697019" lon="11.487410435778422"><ele>728.0</ele><time>2026-03-29T13:27:04Z</time></trkpt><trkpt lat="43.46388325489549" lon="11.487406902669496"><ele>728.0</ele><time>2026-03-29T13:27:05Z</time></trkpt><trkpt lat="43.4637603401543" lon="11.487404723784508"><ele>728.0</ele><time>2026-03-29T13:27:07Z</time></trkpt><trkpt lat="43.46365409135183" lon="11.487359804955412"><ele>728.0</ele><time>2026-03-29T13:27:09Z</time></trkpt><trkpt lat="43.46353114195794" lon="11.487343426690193"><ele>727.0</ele><time>2026-03-29T13:27:11Z</time></trkpt><trkpt lat="43.463463269564244" lon="11.487321740024186"><ele>726.0</ele><time>2026-03-29T13:27:12Z</time></trkpt><trkpt lat="43.463345778483024" lon="11.487262298686641"><ele>725.0</ele><time>2026-03-29T13:27:14Z</time></trkpt><trkpt lat="43.46323622304668" lon="11.487158494901859"><ele>724.0</ele><time>2026-03-29T13:27:16Z</time></trkpt><trkpt lat="43.463181584833855" lon="11.487084829611758"><ele>723.0</ele><time>2026-03-29T13:27:17Z</time></trkpt><trkpt lat="43.463089190451406" lon="11.48699515238207"><ele>723.0</ele><time>2026-03-29T13:27:19Z</time></trkpt><trkpt lat="43.46304184225194" lon="11.486934692603466"><ele>723.0</ele><time>2026-03-29T13:27:20Z</time></trkpt><trkpt lat="43.462940396176144" lon="11.486833388370998"><ele>723.0</ele><time>2026-03-29T13:27:22Z</time></trkpt><trkpt lat="43.46288569758267" lon="11.486787749809642"><ele>723.0</ele><time>2026-03-29T13:27:23Z</time></trkpt><trkpt lat="43.46280547906424" lon="11.486760683270376"><ele>723.0</ele><time>2026-03-29T13:27:24Z</time></trkpt><trkpt lat="43.4627433236593" lon="11.48673311976155"><ele>723.0</ele><time>2026-03-29T13:27:25Z</time></trkpt><trkpt lat="43.462679642250606" lon="11.486671991287599"><ele>720.2</ele><time>2026-03-29T13:27:26Z</time></trkpt><trkpt lat="43.46265505352129" lon="11.486578244460212"><ele>717.4</ele><time>2026-03-29T13:27:27Z</time></trkpt><trkpt lat="43.46265571435572" lon="11.486457011182603"><ele>714.6</ele><time>2026-03-29T13:27:28Z</time></trkpt><trkpt lat="43.462688052652545" lon="11.486345648565603"><ele>711.8000000000001</ele><time>2026-03-29T13:27:29Z</time></trkpt><trkpt lat="43.46271182414594" lon="11.4862163092901"><ele>709.0</ele><time>2026-03-29T13:27:30Z</time></trkpt><trkpt lat="43.462743483788806" lon="11.486077187534454"><ele>710.0</ele><time>2026-03-29T13:27:31Z</time></trkpt><trkpt lat="43.46278584843662" lon="11.485957031196241"><ele>711.0</ele><time>2026-03-29T13:27:32Z</time></trkpt><trkpt lat="43.462818947624534" lon="11.485840190763584"><ele>712.0</ele><time>2026-03-29T13:27:33Z</time></trkpt><trkpt lat="43.46286435944098" lon="11.485769427716692"><ele>713.0</ele><time>2026-03-29T13:27:34Z</time></trkpt><trkpt lat="43.462943095165826" lon="11.485709831830887"><ele>714.0</ele><time>2026-03-29T13:27:35Z</time></trkpt><trkpt lat="43.46304905939137" lon="11.485628297879565"><ele>714.0</ele><time>2026-03-29T13:27:36Z</time></trkpt><trkpt lat="43.46314653562054" lon="11.485533293160488"><ele>714.0</ele><time>2026-03-29T13:27:37Z</time></trkpt><trkpt lat="43.46326076765778" lon="11.485489404526525"><ele>714.0</ele><time>2026-03-29T13:27:38Z</time></trkpt><trkpt lat="43.46333047389949" lon="11.485387301216184"><ele>714.0</ele><time>2026-03-29T13:27:39Z</time></trkpt><trkpt lat="43.46341824010886" lon="11.485309313401324"><ele>714.0</ele><time>2026-03-29T13:27:40Z</time></trkpt><trkpt lat="43.46349234880921" lon="11.485226052969159"><ele>711.3333333333334</ele><time>2026-03-29T13:27:41Z</time></trkpt><trkpt lat="43.46355320845513" lon="11.48514592145787"><ele>708.6666666666666</ele><time>2026-03-29T13:27:42Z</time></trkpt><trkpt lat="43.46359394509584" lon="11.48505584733934"><ele>706.0</ele><time>2026-03-29T13:27:43Z</time></trkpt><trkpt lat="43.463629830629245" lon="11.484939743783707"><ele>703.3333333333333</ele><time>2026-03-29T13:27:44Z</time></trkpt><trkpt lat="43.4636015010924" lon="11.484820487051005"><ele>700.6666666666666</ele><time>2026-03-29T13:27:45Z</time></trkpt><trkpt lat="43.46360856559282" lon="11.484695484824796"><ele>698.0</ele><time>2026-03-29T13:27:46Z</time></trkpt><trkpt lat="43.463553236337134" lon="11.484561660760717"><ele>697.5999999999999</ele><time>2026-03-29T13:27:47Z</time></trkpt><trkpt lat="43.46352350212557" lon="11.484414246788285"><ele>697.1999999999999</ele><time>2026-03-29T13:27:48Z</time></trkpt><trkpt lat="43.46350978150739" lon="11.48426863132063"><ele>696.8</ele><time>2026-03-29T13:27:49Z</time></trkpt><trkpt lat="43.46352013082924" lon="11.484118745288034"><ele>696.4</ele><time>2026-03-29T13:27:50Z</time></trkpt><trkpt lat="43.46353433370043" lon="11.48395958949852"><ele>696.0</ele><time>2026-03-29T13:27:51Z</time></trkpt><trkpt lat="43.4635528267759" lon="11.483822741357875"><ele>695.8</ele><time>2026-03-29T13:27:52Z</time></trkpt><trkpt lat="43.46355727268466" lon="11.483681797367147"><ele>695.5999999999999</ele><time>2026-03-29T13:27:53Z</time></trkpt><trkpt lat="43.46358456178126" lon="11.483559945099623"><ele>695.4</ele><time>2026-03-29T13:27:54Z</time></trkpt><trkpt lat="43.46356723351317" lon="11.483447392233007"><ele>695.2</ele><time>2026-03-29T13:27:55Z</time></trkpt><trkpt lat="43.463525644545044" lon="11.483329904991256"><ele>695.0</ele><time>2026-03-29T13:27:56Z</time></trkpt><trkpt lat="43.46349040879893" lon="11.48320918816137"><ele>695.0</ele><time>2026-03-29T13:27:57Z</time></trkpt><trkpt lat="43.46345428939912" lon="11.483098375766625"><ele>695.0</ele><time>2026-03-29T13:27:58Z</time></trkpt><trkpt lat="43.463428593825085" lon="11.482988075827947"><ele>695.0</ele><time>2026-03-29T13:27:59Z</time></trkpt><trkpt lat="43.46341814827061" lon="11.482870811718943"><ele>695.0</ele><time>2026-03-29T13:28:00Z</time></trkpt><trkpt lat="43.46341660376917" lon="11.482777799331256"><ele>695.0</ele><time>2026-03-29T13:28:01Z</time></trkpt><trkpt lat="43.46342896742511" lon="11.482686855929046"><ele>695.0</ele><time>2026-03-29T13:28:02Z</time></trkpt><trkpt lat="43.46345556509944" lon="11.482594998957234"><ele>693.5</ele><time>2026-03-29T13:28:03Z</time></trkpt><trkpt lat="43.46348188993518" lon="11.482501119636161"><ele>692.0</ele><time>2026-03-29T13:28:04Z</time></trkpt><trkpt lat="43.463520686003385" lon="11.482404101433074"><ele>690.5</ele><time>2026-03-29T13:28:05Z</time></trkpt><trkpt lat="43.463579278147456" lon="11.482291669898382"><ele>689.0</ele><time>2026-03-29T13:28:06Z</time></trkpt><trkpt lat="43.46364080267993" lon="11.482178841187807"><ele>687.5</ele><time>2026-03-29T13:28:07Z</time></trkpt><trkpt lat="43.46368834034423" lon="11.482072885525522"><ele>686.0</ele><time>2026-03-29T13:28:08Z</time></trkpt><trkpt lat="43.463717237776756" lon="11.481948319705406"><ele>684.4</ele><time>2026-03-29T13:28:09Z</time></trkpt><trkpt lat="43.46374515429145" lon="11.481848246717547"><ele>682.8</ele><time>2026-03-29T13:28:10Z</time></trkpt><trkpt lat="43.46377218542053" lon="11.48173118131598"><ele>681.1999999999999</ele><time>2026-03-29T13:28:11Z</time></trkpt><trkpt lat="43.4637630623299" lon="11.481588017160368"><ele>679.5999999999999</ele><time>2026-03-29T13:28:12Z</time></trkpt><trkpt lat="43.46370693051007" lon="11.48147089064876"><ele>678.0</ele><time>2026-03-29T13:28:12.999Z</time></trkpt><trkpt lat="43.463654405493685" lon="11.481355909265691"><ele>678.0</ele><time>2026-03-29T13:28:13.999Z</time></trkpt><trkpt lat="43.46358809376862" lon="11.481239927602891"><ele>678.0</ele><time>2026-03-29T13:28:14.999Z</time></trkpt><trkpt lat="43.46351871929786" lon="11.481149124010788"><ele>678.0</ele><time>2026-03-29T13:28:15.999Z</time></trkpt><trkpt lat="43.46345635492967" lon="11.481085192543475"><ele>678.0</ele><time>2026-03-29T13:28:16.999Z</time></trkpt><trkpt lat="43.46337634960045" lon="11.48107514539831"><ele>678.0</ele><time>2026-03-29T13:28:18.999Z</time></trkpt><trkpt lat="43.46330047589415" lon="11.481080931110057"><ele>678.0</ele><time>2026-03-29T13:28:19.999Z</time></trkpt><trkpt lat="43.46320540943431" lon="11.481126398115132"><ele>678.0</ele><time>2026-03-29T13:28:20.999Z</time></trkpt><trkpt lat="43.4630918538992" lon="11.481119255981733"><ele>678.0</ele><time>2026-03-29T13:28:21.999Z</time></trkpt><trkpt lat="43.462969999908346" lon="11.481112170218362"><ele>678.0</ele><time>2026-03-29T13:28:22.999Z</time></trkpt><trkpt lat="43.462864876580525" lon="11.481106044918727"><ele>678.0</ele><time>2026-03-29T13:28:23.999Z</time></trkpt><trkpt lat="43.46276410433358" lon="11.481121159761006"><ele>678.0</ele><time>2026-03-29T13:28:24.999Z</time></trkpt><trkpt lat="43.46266646068643" lon="11.481104623878831"><ele>677.8</ele><time>2026-03-29T13:28:25.999Z</time></trkpt><trkpt lat="43.462579526910496" lon="11.48109870046424"><ele>677.5999999999999</ele><time>2026-03-29T13:28:26.999Z</time></trkpt><trkpt lat="43.46249208166292" lon="11.481091514922877"><ele>677.4000000000001</ele><time>2026-03-29T13:28:27.999Z</time></trkpt><trkpt lat="43.46239523358867" lon="11.48109051509856"><ele>677.2</ele><time>2026-03-29T13:28:28.999Z</time></trkpt><trkpt lat="43.462304080552364" lon="11.481096349631605"><ele>677.0</ele><time>2026-03-29T13:28:29.999Z</time></trkpt><trkpt lat="43.46221147279106" lon="11.481112370978952"><ele>677.0</ele><time>2026-03-29T13:28:30.999Z</time></trkpt><trkpt lat="43.46214138376504" lon="11.481134222580094"><ele>677.0</ele><time>2026-03-29T13:28:31.999Z</time></trkpt><trkpt lat="43.46205720689757" lon="11.481133546668955"><ele>677.0</ele><time>2026-03-29T13:28:32.999Z</time></trkpt><trkpt lat="43.461964435971225" lon="11.481128997769915"><ele>677.0</ele><time>2026-03-29T13:28:33.999Z</time></trkpt><trkpt lat="43.461882672966375" lon="11.481102287146797"><ele>677.0</ele><time>2026-03-29T13:28:34.999Z</time></trkpt><trkpt lat="43.461811902785065" lon="11.481049161665407"><ele>677.0</ele><time>2026-03-29T13:28:35.999Z</time></trkpt><trkpt lat="43.46173360257055" lon="11.480989663364578"><ele>675.4000000000001</ele><time>2026-03-29T13:28:36.999Z</time></trkpt><trkpt lat="43.461661234038225" lon="11.480951569190605"><ele>673.8000000000001</ele><time>2026-03-29T13:28:37.999Z</time></trkpt><trkpt lat="43.46159081659652" lon="11.480869772186287"><ele>672.2</ele><time>2026-03-29T13:28:38.999Z</time></trkpt><trkpt lat="43.46152676242015" lon="11.480775892137526"><ele>670.6</ele><time>2026-03-29T13:28:40Z</time></trkpt><trkpt lat="43.46146630267465" lon="11.480668241828862"><ele>669.0</ele><time>2026-03-29T13:28:41Z</time></trkpt><trkpt lat="43.46141064082851" lon="11.480555685839361"><ele>667.0</ele><time>2026-03-29T13:28:42Z</time></trkpt><trkpt lat="43.46139667487911" lon="11.480407124992366"><ele>665.0</ele><time>2026-03-29T13:28:43Z</time></trkpt><trkpt lat="43.46136072269368" lon="11.48024933095084"><ele>663.0</ele><time>2026-03-29T13:28:44Z</time></trkpt><trkpt lat="43.46130836258714" lon="11.48009138580934"><ele>661.0</ele><time>2026-03-29T13:28:45Z</time></trkpt><trkpt lat="43.46127240694844" lon="11.47994830418411"><ele>662.1999999999999</ele><time>2026-03-29T13:28:46Z</time></trkpt><trkpt lat="43.46123702902106" lon="11.479830714270058"><ele>663.4</ele><time>2026-03-29T13:28:47Z</time></trkpt><trkpt lat="43.461202248492704" lon="11.479730831864332"><ele>664.6</ele><time>2026-03-29T13:28:48Z</time></trkpt><trkpt lat="43.461173441559886" lon="11.479615726248953"><ele>665.8</ele><time>2026-03-29T13:28:49Z</time></trkpt><trkpt lat="43.46110017577661" lon="11.479521656051547"><ele>667.0</ele><time>2026-03-29T13:28:50Z</time></trkpt><trkpt lat="43.46100209529931" lon="11.479438503922005"><ele>667.0</ele><time>2026-03-29T13:28:51Z</time></trkpt><trkpt lat="43.46089944049434" lon="11.479371810060272"><ele>667.0</ele><time>2026-03-29T13:28:52Z</time></trkpt><trkpt lat="43.46081653083763" lon="11.479292471453741"><ele>667.0</ele><time>2026-03-29T13:28:53Z</time></trkpt><trkpt lat="43.46074474024068" lon="11.479196899255388"><ele>667.0</ele><time>2026-03-29T13:28:54Z</time></trkpt><trkpt lat="43.460674164157524" lon="11.479115161528266"><ele>667.0</ele><time>2026-03-29T13:28:55Z</time></trkpt><trkpt lat="43.46062777596134" lon="11.47898960407252"><ele>667.0</ele><time>2026-03-29T13:28:56Z</time></trkpt><trkpt lat="43.46059214385167" lon="11.47889198637343"><ele>667.0</ele><time>2026-03-29T13:28:57Z</time></trkpt><trkpt lat="43.46053981675154" lon="11.478814021981023"><ele>667.0</ele><time>2026-03-29T13:28:58Z</time></trkpt><trkpt lat="43.46048834103257" lon="11.478718007284744"><ele>667.0</ele><time>2026-03-29T13:28:59Z</time></trkpt><trkpt lat="43.46040792826044" lon="11.478648216812624"><ele>667.0</ele><time>2026-03-29T13:29:00Z</time></trkpt><trkpt lat="43.46032004843805" lon="11.478587298112274"><ele>667.0</ele><time>2026-03-29T13:29:01Z</time></trkpt><trkpt lat="43.46024945135286" lon="11.478506613656121"><ele>667.3333333333334</ele><time>2026-03-29T13:29:02Z</time></trkpt><trkpt lat="43.460186412016874" lon="11.47843369417781"><ele>667.6666666666667</ele><time>2026-03-29T13:29:03Z</time></trkpt><trkpt lat="43.46011455573" lon="11.478366231357294"><ele>668.0</ele><time>2026-03-29T13:29:04Z</time></trkpt><trkpt lat="43.46004454700866" lon="11.478276941674773"><ele>668.3333333333334</ele><time>2026-03-29T13:29:05Z</time></trkpt><trkpt lat="43.45999367734659" lon="11.478177637723888"><ele>668.6666666666666</ele><time>2026-03-29T13:29:06Z</time></trkpt><trkpt lat="43.45993152518472" lon="11.478086991110574"><ele>669.0</ele><time>2026-03-29T13:29:07Z</time></trkpt><trkpt lat="43.45987333654679" lon="11.478009788765991"><ele>666.8333333333334</ele><time>2026-03-29T13:29:08Z</time></trkpt><trkpt lat="43.45983817309199" lon="11.477899825627873"><ele>664.6666666666666</ele><time>2026-03-29T13:29:09Z</time></trkpt><trkpt lat="43.45981552047773" lon="11.477807949459216"><ele>662.5</ele><time>2026-03-29T13:29:10Z</time></trkpt><trkpt lat="43.459798919092336" lon="11.47768639268642"><ele>660.3333333333333</ele><time>2026-03-29T13:29:11Z</time></trkpt><trkpt lat="43.45977193150927" lon="11.47754919741709"><ele>658.1666666666666</ele><time>2026-03-29T13:29:12Z</time></trkpt><trkpt lat="43.45975890126317" lon="11.477424924563236"><ele>656.0</ele><time>2026-03-29T13:29:13Z</time></trkpt><trkpt lat="43.459734287605414" lon="11.477329403014599"><ele>656.0</ele><time>2026-03-29T13:29:14Z</time></trkpt><trkpt lat="43.45971794222144" lon="11.477231122728307"><ele>656.0</ele><time>2026-03-29T13:29:15Z</time></trkpt><trkpt lat="43.45968740920255" lon="11.477144416399401"><ele>656.0</ele><time>2026-03-29T13:29:16Z</time></trkpt><trkpt lat="43.45964032262785" lon="11.477032420540366"><ele>656.0</ele><time>2026-03-29T13:29:17Z</time></trkpt><trkpt lat="43.45957571371551" lon="11.4769373213867"><ele>656.0</ele><time>2026-03-29T13:29:18Z</time></trkpt><trkpt lat="43.459527079489284" lon="11.476807249252786"><ele>656.0</ele><time>2026-03-29T13:29:19Z</time></trkpt><trkpt lat="43.459455612068346" lon="11.476684378013575"><ele>656.5999999999999</ele><time>2026-03-29T13:29:20Z</time></trkpt><trkpt lat="43.459383581787876" lon="11.47659820666537"><ele>657.2</ele><time>2026-03-29T13:29:21Z</time></trkpt><trkpt lat="43.459306571035825" lon="11.476535800619267"><ele>657.8</ele><time>2026-03-29T13:29:22Z</time></trkpt><trkpt lat="43.459252642994564" lon="11.476441846455382"><ele>658.4000000000001</ele><time>2026-03-29T13:29:23Z</time></trkpt><trkpt lat="43.45920860572728" lon="11.476330233951394"><ele>659.0</ele><time>2026-03-29T13:29:24Z</time></trkpt><trkpt lat="43.4591309068618" lon="11.476221036154433"><ele>660.0</ele><time>2026-03-29T13:29:25Z</time></trkpt><trkpt lat="43.45906442899256" lon="11.476057468842447"><ele>661.0</ele><time>2026-03-29T13:29:26Z</time></trkpt><trkpt lat="43.45899921859066" lon="11.475894371886818"><ele>662.0</ele><time>2026-03-29T13:29:27Z</time></trkpt><trkpt lat="43.45893074394541" lon="11.475729888488205"><ele>663.0</ele><time>2026-03-29T13:29:28Z</time></trkpt><trkpt lat="43.458874277224595" lon="11.47557228119138"><ele>661.25</ele><time>2026-03-29T13:29:29Z</time></trkpt><trkpt lat="43.45883179953995" lon="11.475419539156825"><ele>659.5</ele><time>2026-03-29T13:29:30Z</time></trkpt><trkpt lat="43.458788640261616" lon="11.475262656169198"><ele>657.75</ele><time>2026-03-29T13:29:31Z</time></trkpt><trkpt lat="43.45874735019363" lon="11.475115593466109"><ele>656.0</ele><time>2026-03-29T13:29:32Z</time></trkpt><trkpt lat="43.45870607966209" lon="11.474958253206356"><ele>656.0</ele><time>2026-03-29T13:29:33Z</time></trkpt><trkpt lat="43.45867335643411" lon="11.47479589057628"><ele>656.0</ele><time>2026-03-29T13:29:34Z</time></trkpt><trkpt lat="43.45866391959035" lon="11.474634731861439"><ele>656.0</ele><time>2026-03-29T13:29:35Z</time></trkpt><trkpt lat="43.45867176874892" lon="11.47446246959269"><ele>656.0</ele><time>2026-03-29T13:29:36Z</time></trkpt><trkpt lat="43.4586924876618" lon="11.474289747840482"><ele>656.25</ele><time>2026-03-29T13:29:37Z</time></trkpt><trkpt lat="43.458722954421255" lon="11.474122120153408"><ele>656.5</ele><time>2026-03-29T13:29:38Z</time></trkpt><trkpt lat="43.45875304723134" lon="11.47395498981404"><ele>656.75</ele><time>2026-03-29T13:29:39Z</time></trkpt><trkpt lat="43.458783484563874" lon="11.473785525930197"><ele>657.0</ele><time>2026-03-29T13:29:40Z</time></trkpt><trkpt lat="43.45882650326809" lon="11.473626507433394"><ele>657.0</ele><time>2026-03-29T13:29:41Z</time></trkpt><trkpt lat="43.45885747950535" lon="11.473451353707658"><ele>657.0</ele><time>2026-03-29T13:29:42Z</time></trkpt><trkpt lat="43.45885170229894" lon="11.473266150952183"><ele>657.0</ele><time>2026-03-29T13:29:43Z</time></trkpt><trkpt lat="43.458860007255254" lon="11.473092591466617"><ele>657.0</ele><time>2026-03-29T13:29:44Z</time></trkpt><trkpt lat="43.458834045804174" lon="11.472911953910808"><ele>657.75</ele><time>2026-03-29T13:29:45Z</time></trkpt><trkpt lat="43.45878675808151" lon="11.472745238456206"><ele>658.5</ele><time>2026-03-29T13:29:46Z</time></trkpt><trkpt lat="43.458720339132846" lon="11.472588074624833"><ele>659.25</ele><time>2026-03-29T13:29:47Z</time></trkpt><trkpt lat="43.45866367657033" lon="11.472442054854008"><ele>660.0</ele><time>2026-03-29T13:29:48Z</time></trkpt><trkpt lat="43.45859270403512" lon="11.47229992144729"><ele>660.25</ele><time>2026-03-29T13:29:49Z</time></trkpt><trkpt lat="43.4585138637853" lon="11.472159097482102"><ele>660.5</ele><time>2026-03-29T13:29:50Z</time></trkpt><trkpt lat="43.45842687308387" lon="11.472020774789554"><ele>660.75</ele><time>2026-03-29T13:29:51Z</time></trkpt><trkpt lat="43.45835380629895" lon="11.471867531320715"><ele>661.0</ele><time>2026-03-29T13:29:52Z</time></trkpt><trkpt lat="43.4582692835419" lon="11.47172555257634"><ele>660.25</ele><time>2026-03-29T13:29:53Z</time></trkpt><trkpt lat="43.458169073212005" lon="11.471595376535818"><ele>659.5</ele><time>2026-03-29T13:29:54Z</time></trkpt><trkpt lat="43.45808554326995" lon="11.471437487963623"><ele>658.75</ele><time>2026-03-29T13:29:55Z</time></trkpt><trkpt lat="43.45798857468327" lon="11.471290323618152"><ele>658.0</ele><time>2026-03-29T13:29:56Z</time></trkpt><trkpt lat="43.45789918211726" lon="11.471155638384127"><ele>658.0</ele><time>2026-03-29T13:29:57Z</time></trkpt><trkpt lat="43.457821621850194" lon="11.471029764012403"><ele>658.0</ele><time>2026-03-29T13:29:58Z</time></trkpt><trkpt lat="43.4577397949517" lon="11.4709064170505"><ele>658.0</ele><time>2026-03-29T13:29:59Z</time></trkpt><trkpt lat="43.457651230853436" lon="11.47080586140604"><ele>658.0</ele><time>2026-03-29T13:30:00Z</time></trkpt><trkpt lat="43.457564876773496" lon="11.470698328441513"><ele>658.0</ele><time>2026-03-29T13:30:01Z</time></trkpt><trkpt lat="43.457473341781125" lon="11.470604484828051"><ele>658.0</ele><time>2026-03-29T13:30:02Z</time></trkpt><trkpt lat="43.457366009174706" lon="11.470534551006445"><ele>658.0</ele><time>2026-03-29T13:30:03Z</time></trkpt><trkpt lat="43.45725541776115" lon="11.470498687608481"><ele>658.0</ele><time>2026-03-29T13:30:04Z</time></trkpt><trkpt lat="43.457152521111425" lon="11.470437919122267"><ele>658.75</ele><time>2026-03-29T13:30:05Z</time></trkpt><trkpt lat="43.45703833565748" lon="11.470398777720627"><ele>659.5</ele><time>2026-03-29T13:30:06Z</time></trkpt><trkpt lat="43.456924557765106" lon="11.470371488562519"><ele>660.25</ele><time>2026-03-29T13:30:07Z</time></trkpt><trkpt lat="43.45681074615564" lon="11.470369247017443"><ele>661.0</ele><time>2026-03-29T13:30:08Z</time></trkpt><trkpt lat="43.45670627600144" lon="11.4703468583427"><ele>661.0</ele><time>2026-03-29T13:30:09Z</time></trkpt><trkpt lat="43.456599560311076" lon="11.470351174671316"><ele>661.0</ele><time>2026-03-29T13:30:10Z</time></trkpt><trkpt lat="43.456484705026206" lon="11.470382345266735"><ele>661.0</ele><time>2026-03-29T13:30:11Z</time></trkpt><trkpt lat="43.45637391532997" lon="11.470462117173662"><ele>661.0</ele><time>2026-03-29T13:30:12Z</time></trkpt><trkpt lat="43.4562753832556" lon="11.470587864144983"><ele>657.5</ele><time>2026-03-29T13:30:13Z</time></trkpt><trkpt lat="43.456185473147" lon="11.470722898318645"><ele>654.0</ele><time>2026-03-29T13:30:14Z</time></trkpt><trkpt lat="43.45609989347964" lon="11.470858551567432"><ele>650.5</ele><time>2026-03-29T13:30:15Z</time></trkpt><trkpt lat="43.45602010850178" lon="11.470975384603774"><ele>647.0</ele><time>2026-03-29T13:30:16Z</time></trkpt><trkpt lat="43.45594336576145" lon="11.471094423202949"><ele>647.0</ele><time>2026-03-29T13:30:17Z</time></trkpt><trkpt lat="43.455873088196434" lon="11.471196026175653"><ele>647.0</ele><time>2026-03-29T13:30:18Z</time></trkpt><trkpt lat="43.45580224241655" lon="11.471253642187415"><ele>647.0</ele><time>2026-03-29T13:30:19Z</time></trkpt><trkpt lat="43.455719341996776" lon="11.471288150958136"><ele>647.0</ele><time>2026-03-29T13:30:20Z</time></trkpt><trkpt lat="43.45564361126485" lon="11.47119188508716"><ele>647.0</ele><time>2026-03-29T13:30:21Z</time></trkpt><trkpt lat="43.45552986314085" lon="11.471153729544113"><ele>644.0</ele><time>2026-03-29T13:30:22Z</time></trkpt><trkpt lat="43.45541338269407" lon="11.47109864734822"><ele>641.0</ele><time>2026-03-29T13:30:22.999Z</time></trkpt><trkpt lat="43.455270634946245" lon="11.471040454236691"><ele>638.0</ele><time>2026-03-29T13:30:23.999Z</time></trkpt><trkpt lat="43.455148886955286" lon="11.470994255691092"><ele>635.0</ele><time>2026-03-29T13:30:24.999Z</time></trkpt><trkpt lat="43.45503988019505" lon="11.470948641444036"><ele>635.0</ele><time>2026-03-29T13:30:25.999Z</time></trkpt><trkpt lat="43.45492374354688" lon="11.470898840302743"><ele>635.0</ele><time>2026-03-29T13:30:26.999Z</time></trkpt><trkpt lat="43.45480696754622" lon="11.47086057078756"><ele>635.0</ele><time>2026-03-29T13:30:27.999Z</time></trkpt><trkpt lat="43.454698825467524" lon="11.470814415278284"><ele>635.0</ele><time>2026-03-29T13:30:28.999Z</time></trkpt><trkpt lat="43.454599117851934" lon="11.470731635612031"><ele>631.8</ele><time>2026-03-29T13:30:29.999Z</time></trkpt><trkpt lat="43.45452941502758" lon="11.470612962380898"><ele>628.6</ele><time>2026-03-29T13:30:30.999Z</time></trkpt><trkpt lat="43.45447041890425" lon="11.470490057922623"><ele>625.4</ele><time>2026-03-29T13:30:31.999Z</time></trkpt><trkpt lat="43.454410365462756" lon="11.470363074315763"><ele>622.2</ele><time>2026-03-29T13:30:32.999Z</time></trkpt><trkpt lat="43.454343629561144" lon="11.470225762844532"><ele>619.0</ele><time>2026-03-29T13:30:33.999Z</time></trkpt><trkpt lat="43.454278798263346" lon="11.470095714344412"><ele>619.0</ele><time>2026-03-29T13:30:34.999Z</time></trkpt><trkpt lat="43.45421742368821" lon="11.469969524281364"><ele>619.0</ele><time>2026-03-29T13:30:35.999Z</time></trkpt><trkpt lat="43.45414614270504" lon="11.469849638666846"><ele>619.0</ele><time>2026-03-29T13:30:36.999Z</time></trkpt><trkpt lat="43.45410146095588" lon="11.469702653204854"><ele>619.0</ele><time>2026-03-29T13:30:37.999Z</time></trkpt><trkpt lat="43.45404975428845" lon="11.469559088028564"><ele>618.25</ele><time>2026-03-29T13:30:38.999Z</time></trkpt><trkpt lat="43.453996959449235" lon="11.46941453397633"><ele>617.5</ele><time>2026-03-29T13:30:39.999Z</time></trkpt><trkpt lat="43.45394231364767" lon="11.469270766679395"><ele>616.75</ele><time>2026-03-29T13:30:40.999Z</time></trkpt><trkpt lat="43.45388142454711" lon="11.469135664527744"><ele>616.0</ele><time>2026-03-29T13:30:41.999Z</time></trkpt><trkpt lat="43.45382068776178" lon="11.469003916823933"><ele>614.6</ele><time>2026-03-29T13:30:42.999Z</time></trkpt><trkpt lat="43.45376946703045" lon="11.468869842950268"><ele>613.2</ele><time>2026-03-29T13:30:43.999Z</time></trkpt><trkpt lat="43.45375057931298" lon="11.46874177835532"><ele>611.8</ele><time>2026-03-29T13:30:45Z</time></trkpt><trkpt lat="43.453767921095086" lon="11.46861483176812"><ele>610.4</ele><time>2026-03-29T13:30:46Z</time></trkpt><trkpt lat="43.45380388881327" lon="11.468500351277646"><ele>609.0</ele><time>2026-03-29T13:30:47Z</time></trkpt><trkpt lat="43.45385368941337" lon="11.468393121196131"><ele>609.0</ele><time>2026-03-29T13:30:48Z</time></trkpt><trkpt lat="43.45390728485303" lon="11.468276402714222"><ele>609.0</ele><time>2026-03-29T13:30:49Z</time></trkpt><trkpt lat="43.45397511607976" lon="11.46813743189042"><ele>609.0</ele><time>2026-03-29T13:30:50Z</time></trkpt><trkpt lat="43.45405048344798" lon="11.46798241695909"><ele>609.0</ele><time>2026-03-29T13:30:51Z</time></trkpt><trkpt lat="43.454128619533584" lon="11.467823302812356"><ele>605.75</ele><time>2026-03-29T13:30:52Z</time></trkpt><trkpt lat="43.45420568950049" lon="11.467677620137351"><ele>602.5</ele><time>2026-03-29T13:30:53Z</time></trkpt><trkpt lat="43.45428253471498" lon="11.467540101655565"><ele>599.25</ele><time>2026-03-29T13:30:54Z</time></trkpt><trkpt lat="43.45434396501557" lon="11.467403886135987"><ele>596.0</ele><time>2026-03-29T13:30:55Z</time></trkpt><trkpt lat="43.454435710284194" lon="11.467301474366304"><ele>596.0</ele><time>2026-03-29T13:30:56Z</time></trkpt><trkpt lat="43.45452252897728" lon="11.467208989553058"><ele>596.0</ele><time>2026-03-29T13:30:57Z</time></trkpt><trkpt lat="43.45461732755199" lon="11.467133467714385"><ele>596.0</ele><time>2026-03-29T13:30:58Z</time></trkpt><trkpt lat="43.45469480397247" lon="11.467040072653589"><ele>596.0</ele><time>2026-03-29T13:30:59Z</time></trkpt><trkpt lat="43.45477626834276" lon="11.466953741983593"><ele>596.0</ele><time>2026-03-29T13:31:00Z</time></trkpt><trkpt lat="43.4548276820762" lon="11.466836823546396"><ele>596.25</ele><time>2026-03-29T13:31:01Z</time></trkpt><trkpt lat="43.45485549610162" lon="11.466691800489066"><ele>596.5</ele><time>2026-03-29T13:31:02Z</time></trkpt><trkpt lat="43.45487122150514" lon="11.466542439938443"><ele>596.75</ele><time>2026-03-29T13:31:03Z</time></trkpt><trkpt lat="43.454876167342775" lon="11.46637023587514"><ele>597.0</ele><time>2026-03-29T13:31:04Z</time></trkpt><trkpt lat="43.45489895518782" lon="11.466224916724023"><ele>595.2</ele><time>2026-03-29T13:31:05Z</time></trkpt><trkpt lat="43.45492915715572" lon="11.46608163307763"><ele>593.4000000000001</ele><time>2026-03-29T13:31:06Z</time></trkpt><trkpt lat="43.454989018061674" lon="11.465976944239612"><ele>591.5999999999999</ele><time>2026-03-29T13:31:07Z</time></trkpt><trkpt lat="43.455066458193194" lon="11.465927844951512"><ele>589.8</ele><time>2026-03-29T13:31:08Z</time></trkpt><trkpt lat="43.455136122732135" lon="11.46590125796091"><ele>588.0</ele><time>2026-03-29T13:31:09Z</time></trkpt><trkpt lat="43.45522786449423" lon="11.465891514002267"><ele>588.0</ele><time>2026-03-29T13:31:10Z</time></trkpt><trkpt lat="43.45532289504332" lon="11.465913523180673"><ele>588.0</ele><time>2026-03-29T13:31:11Z</time></trkpt><trkpt lat="43.45543485970589" lon="11.465945402345204"><ele>588.0</ele><time>2026-03-29T13:31:12Z</time></trkpt><trkpt lat="43.455563055037466" lon="11.465978038555367"><ele>588.0</ele><time>2026-03-29T13:31:13Z</time></trkpt><trkpt lat="43.45564669485446" lon="11.466033612547267"><ele>588.0</ele><time>2026-03-29T13:31:14Z</time></trkpt><trkpt lat="43.455746790228645" lon="11.466034256743866"><ele>589.8333333333334</ele><time>2026-03-29T13:31:15Z</time></trkpt><trkpt lat="43.45584107266758" lon="11.46601854015758"><ele>591.6666666666666</ele><time>2026-03-29T13:31:15.999Z</time></trkpt><trkpt lat="43.455903370856085" lon="11.465937757211547"><ele>593.5</ele><time>2026-03-29T13:31:16.999Z</time></trkpt><trkpt lat="43.45597558632046" lon="11.465872743827855"><ele>595.3333333333333</ele><time>2026-03-29T13:31:17.999Z</time></trkpt><trkpt lat="43.45603351206882" lon="11.465802889342454"><ele>597.1666666666666</ele><time>2026-03-29T13:31:18.999Z</time></trkpt><trkpt lat="43.45609696966681" lon="11.465739007312967"><ele>599.0</ele><time>2026-03-29T13:31:19.999Z</time></trkpt><trkpt lat="43.456172222979056" lon="11.465706723795986"><ele>597.0</ele><time>2026-03-29T13:31:20.999Z</time></trkpt><trkpt lat="43.456298254474596" lon="11.465680974896195"><ele>595.0</ele><time>2026-03-29T13:31:21.999Z</time></trkpt><trkpt lat="43.45641530335262" lon="11.465711157298925"><ele>593.0</ele><time>2026-03-29T13:31:22.999Z</time></trkpt><trkpt lat="43.456499327487485" lon="11.46581533698562"><ele>591.0</ele><time>2026-03-29T13:31:23.999Z</time></trkpt><trkpt lat="43.45660397612144" lon="11.465897981149133"><ele>591.0</ele><time>2026-03-29T13:31:24.999Z</time></trkpt><trkpt lat="43.456713622928234" lon="11.465987687860586"><ele>591.0</ele><time>2026-03-29T13:31:25.999Z</time></trkpt><trkpt lat="43.45681359707597" lon="11.46607253077979"><ele>591.0</ele><time>2026-03-29T13:31:26.999Z</time></trkpt><trkpt lat="43.45689530012564" lon="11.46615279118765"><ele>591.0</ele><time>2026-03-29T13:31:27.999Z</time></trkpt><trkpt lat="43.456972968728685" lon="11.466212742444675"><ele>591.0</ele><time>2026-03-29T13:31:28.999Z</time></trkpt><trkpt lat="43.45707140746761" lon="11.466213840196517"><ele>592.2</ele><time>2026-03-29T13:31:29.999Z</time></trkpt><trkpt lat="43.45714151360321" lon="11.466234776486864"><ele>593.4000000000001</ele><time>2026-03-29T13:31:30.999Z</time></trkpt><trkpt lat="43.457198539075236" lon="11.466162520586753"><ele>594.6</ele><time>2026-03-29T13:31:31.999Z</time></trkpt><trkpt lat="43.45721368620198" lon="11.466036050700904"><ele>595.8000000000001</ele><time>2026-03-29T13:31:32.999Z</time></trkpt><trkpt lat="43.457209151740756" lon="11.465887877941682"><ele>597.0</ele><time>2026-03-29T13:31:33.999Z</time></trkpt><trkpt lat="43.457206380550325" lon="11.465707750427715"><ele>597.0</ele><time>2026-03-29T13:31:34.999Z</time></trkpt><trkpt lat="43.457208032850275" lon="11.46553276348726"><ele>597.0</ele><time>2026-03-29T13:31:35.999Z</time></trkpt><trkpt lat="43.45721427653653" lon="11.465341552761851"><ele>597.0</ele><time>2026-03-29T13:31:36.999Z</time></trkpt><trkpt lat="43.45722502901692" lon="11.465148316250378"><ele>597.0</ele><time>2026-03-29T13:31:37.999Z</time></trkpt><trkpt lat="43.457261779659035" lon="11.465031068908504"><ele>594.6</ele><time>2026-03-29T13:31:38.999Z</time></trkpt><trkpt lat="43.45730055456285" lon="11.464930055549186"><ele>592.2</ele><time>2026-03-29T13:31:39.999Z</time></trkpt><trkpt lat="43.45736911555695" lon="11.46482546532638"><ele>589.8</ele><time>2026-03-29T13:31:40.999Z</time></trkpt><trkpt lat="43.45745048965741" lon="11.464738850888208"><ele>587.4</ele><time>2026-03-29T13:31:41.999Z</time></trkpt><trkpt lat="43.45750662909993" lon="11.464610327820543"><ele>585.0</ele><time>2026-03-29T13:31:42.999Z</time></trkpt><trkpt lat="43.45754218622151" lon="11.464463360240126"><ele>582.5</ele><time>2026-03-29T13:31:43.999Z</time></trkpt><trkpt lat="43.45754776328577" lon="11.464314414210538"><ele>580.0</ele><time>2026-03-29T13:31:44.999Z</time></trkpt><trkpt lat="43.457513322471826" lon="11.464149450089309"><ele>577.5</ele><time>2026-03-29T13:31:45.999Z</time></trkpt><trkpt lat="43.4575006310473" lon="11.463994691563668"><ele>575.0</ele><time>2026-03-29T13:31:46.999Z</time></trkpt><trkpt lat="43.45747700350769" lon="11.463845084136587"><ele>573.4</ele><time>2026-03-29T13:31:47.999Z</time></trkpt><trkpt lat="43.45742124873659" lon="11.463736892985441"><ele>571.8</ele><time>2026-03-29T13:31:48.999Z</time></trkpt><trkpt lat="43.45735216482113" lon="11.463659390648486"><ele>570.2</ele><time>2026-03-29T13:31:49.999Z</time></trkpt><trkpt lat="43.457269860822976" lon="11.463583729126997"><ele>568.6</ele><time>2026-03-29T13:31:50.999Z</time></trkpt><trkpt lat="43.45719596936907" lon="11.463511042830605"><ele>567.0</ele><time>2026-03-29T13:31:51.999Z</time></trkpt><trkpt lat="43.457142211179224" lon="11.463435524964728"><ele>567.0</ele><time>2026-03-29T13:31:52.999Z</time></trkpt><trkpt lat="43.45712710895455" lon="11.463326997743494"><ele>567.0</ele><time>2026-03-29T13:31:53.999Z</time></trkpt><trkpt lat="43.45711456319819" lon="11.463214265533386"><ele>567.0</ele><time>2026-03-29T13:31:54.999Z</time></trkpt><trkpt lat="43.45711278100528" lon="11.463103629399667"><ele>567.0</ele><time>2026-03-29T13:31:55.999Z</time></trkpt><trkpt lat="43.457175774336655" lon="11.463004308737215"><ele>567.0</ele><time>2026-03-29T13:31:56.999Z</time></trkpt><trkpt lat="43.45723379915582" lon="11.462895371095916"><ele>567.0</ele><time>2026-03-29T13:31:57.999Z</time></trkpt><trkpt lat="43.45726490254223" lon="11.46277068114355"><ele>565.2</ele><time>2026-03-29T13:31:58.999Z</time></trkpt><trkpt lat="43.45725291818896" lon="11.462629023574392"><ele>563.4000000000001</ele><time>2026-03-29T13:31:59.999Z</time></trkpt><trkpt lat="43.457178381193756" lon="11.462514253975426"><ele>561.5999999999999</ele><time>2026-03-29T13:32:00.999Z</time></trkpt><trkpt lat="43.45716030343" lon="11.462403843129907"><ele>559.8</ele><time>2026-03-29T13:32:01.999Z</time></trkpt><trkpt lat="43.45718311894665" lon="11.462286759570992"><ele>558.0</ele><time>2026-03-29T13:32:02.999Z</time></trkpt><trkpt lat="43.45723308823089" lon="11.462175192324729"><ele>556.0</ele><time>2026-03-29T13:32:03.999Z</time></trkpt><trkpt lat="43.457305274278404" lon="11.462042122871791"><ele>554.0</ele><time>2026-03-29T13:32:04.999Z</time></trkpt><trkpt lat="43.457335353389624" lon="11.46188992849878"><ele>552.0</ele><time>2026-03-29T13:32:05.999Z</time></trkpt><trkpt lat="43.457341249984566" lon="11.461706490340772"><ele>550.0</ele><time>2026-03-29T13:32:06.999Z</time></trkpt><trkpt lat="43.45732298841726" lon="11.46152169642535"><ele>550.0</ele><time>2026-03-29T13:32:07.999Z</time></trkpt><trkpt lat="43.4572881612841" lon="11.461389656034097"><ele>550.0</ele><time>2026-03-29T13:32:08.999Z</time></trkpt><trkpt lat="43.45724118712827" lon="11.461278792423272"><ele>550.0</ele><time>2026-03-29T13:32:09.999Z</time></trkpt><trkpt lat="43.45716683312802" lon="11.461205654396107"><ele>550.0</ele><time>2026-03-29T13:32:10.999Z</time></trkpt><trkpt lat="43.4570677137381" lon="11.46115034607613"><ele>550.0</ele><time>2026-03-29T13:32:11.999Z</time></trkpt><trkpt lat="43.45694391061292" lon="11.461114654348318"><ele>548.6</ele><time>2026-03-29T13:32:12.999Z</time></trkpt><trkpt lat="43.45681924495773" lon="11.461082951435369"><ele>547.2</ele><time>2026-03-29T13:32:13.999Z</time></trkpt><trkpt lat="43.45672246011364" lon="11.461032712959485"><ele>545.8</ele><time>2026-03-29T13:32:14.999Z</time></trkpt><trkpt lat="43.456652451809305" lon="11.460985829760743"><ele>544.4</ele><time>2026-03-29T13:32:15.999Z</time></trkpt><trkpt lat="43.45660327084626" lon="11.460918619933869"><ele>543.0</ele><time>2026-03-29T13:32:16.999Z</time></trkpt><trkpt lat="43.45661454146665" lon="11.460793287990853"><ele>543.0</ele><time>2026-03-29T13:32:17.999Z</time></trkpt><trkpt lat="43.45663117052953" lon="11.460679678581645"><ele>543.0</ele><time>2026-03-29T13:32:18.999Z</time></trkpt><trkpt lat="43.456674623801696" lon="11.460568192904843"><ele>543.0</ele><time>2026-03-29T13:32:19.999Z</time></trkpt><trkpt lat="43.45675465586767" lon="11.460510697659434"><ele>543.0</ele><time>2026-03-29T13:32:20.999Z</time></trkpt><trkpt lat="43.456830115558006" lon="11.460464823022315"><ele>543.0</ele><time>2026-03-29T13:32:21.999Z</time></trkpt><trkpt lat="43.456927406116684" lon="11.460420876440681"><ele>542.75</ele><time>2026-03-29T13:32:22.999Z</time></trkpt><trkpt lat="43.45703042388612" lon="11.460341018776926"><ele>542.5</ele><time>2026-03-29T13:32:23.999Z</time></trkpt><trkpt lat="43.45712350007922" lon="11.460200849142009"><ele>542.25</ele><time>2026-03-29T13:32:24.999Z</time></trkpt><trkpt lat="43.457207370794464" lon="11.460034897914538"><ele>542.0</ele><time>2026-03-29T13:32:25.999Z</time></trkpt><trkpt lat="43.457304654141915" lon="11.459832891792061"><ele>542.0</ele><time>2026-03-29T13:32:26.999Z</time></trkpt><trkpt lat="43.457395142313345" lon="11.45964440180853"><ele>542.0</ele><time>2026-03-29T13:32:27.999Z</time></trkpt><trkpt lat="43.457459314708984" lon="11.459497497121422"><ele>542.0</ele><time>2026-03-29T13:32:28.999Z</time></trkpt><trkpt lat="43.45751791535854" lon="11.459386755675478"><ele>542.0</ele><time>2026-03-29T13:32:29.999Z</time></trkpt><trkpt lat="43.45757122199153" lon="11.459298014959819"><ele>539.4</ele><time>2026-03-29T13:32:30.999Z</time></trkpt><trkpt lat="43.45763636086632" lon="11.459231838717685"><ele>536.8000000000001</ele><time>2026-03-29T13:32:31.999Z</time></trkpt><trkpt lat="43.457711558220076" lon="11.45919578812027"><ele>534.2</ele><time>2026-03-29T13:32:32.999Z</time></trkpt><trkpt lat="43.45780861128253" lon="11.459223911856315"><ele>531.6</ele><time>2026-03-29T13:32:33.999Z</time></trkpt><trkpt lat="43.45790849703342" lon="11.459256421177919"><ele>529.0</ele><time>2026-03-29T13:32:34.999Z</time></trkpt><trkpt lat="43.457995207427395" lon="11.459275473308134"><ele>528.1666666666667</ele><time>2026-03-29T13:32:35.999Z</time></trkpt><trkpt lat="43.45806741165483" lon="11.459281825068715"><ele>527.3333333333334</ele><time>2026-03-29T13:32:36.999Z</time></trkpt><trkpt lat="43.45813129459643" lon="11.45922054081487"><ele>526.5</ele><time>2026-03-29T13:32:37.999Z</time></trkpt><trkpt lat="43.458177472650384" lon="11.459119134326036"><ele>525.6666666666666</ele><time>2026-03-29T13:32:38.999Z</time></trkpt><trkpt lat="43.45818589370744" lon="11.458986731677866"><ele>524.8333333333333</ele><time>2026-03-29T13:32:39.999Z</time></trkpt><trkpt lat="43.45813817284729" lon="11.45887420811797"><ele>524.0</ele><time>2026-03-29T13:32:40.999Z</time></trkpt><trkpt lat="43.458086889559226" lon="11.458770983022928"><ele>523.6666666666666</ele><time>2026-03-29T13:32:41.999Z</time></trkpt><trkpt lat="43.45803338040641" lon="11.458658517229068"><ele>523.3333333333333</ele><time>2026-03-29T13:32:42.999Z</time></trkpt><trkpt lat="43.45799933654999" lon="11.458551846074132"><ele>523.0</ele><time>2026-03-29T13:32:43.999Z</time></trkpt><trkpt lat="43.457974249823124" lon="11.458429259485367"><ele>522.6666666666666</ele><time>2026-03-29T13:32:44.998Z</time></trkpt><trkpt lat="43.45795711316914" lon="11.458299499462486"><ele>522.3333333333334</ele><time>2026-03-29T13:32:45.998Z</time></trkpt><trkpt lat="43.45795618081703" lon="11.458199639296499"><ele>522.0</ele><time>2026-03-29T13:32:46.998Z</time></trkpt><trkpt lat="43.45797467612318" lon="11.458106571741752"><ele>522.0</ele><time>2026-03-29T13:32:47.998Z</time></trkpt><trkpt lat="43.458007002579876" lon="11.458012245664072"><ele>522.0</ele><time>2026-03-29T13:32:48.998Z</time></trkpt><trkpt lat="43.45808790392825" lon="11.457938603039807"><ele>522.0</ele><time>2026-03-29T13:32:49.998Z</time></trkpt><trkpt lat="43.4581550376943" lon="11.457842384210018"><ele>522.0</ele><time>2026-03-29T13:32:50.999Z</time></trkpt><trkpt lat="43.45822576955657" lon="11.45773366711949"><ele>522.0</ele><time>2026-03-29T13:32:51.999Z</time></trkpt><trkpt lat="43.45830707656784" lon="11.457655261568707"><ele>522.0</ele><time>2026-03-29T13:32:52.999Z</time></trkpt><trkpt lat="43.458382499858345" lon="11.457631965151693"><ele>522.0</ele><time>2026-03-29T13:32:53.999Z</time></trkpt><trkpt lat="43.45846222836864" lon="11.457615691477736"><ele>522.0</ele><time>2026-03-29T13:32:54.999Z</time></trkpt><trkpt lat="43.45860740248048" lon="11.457677324887106"><ele>522.0</ele><time>2026-03-29T13:32:56Z</time></trkpt><trkpt lat="43.45874104200578" lon="11.457726326013578"><ele>522.0</ele><time>2026-03-29T13:32:57Z</time></trkpt><trkpt lat="43.4588581375523" lon="11.457766453988484"><ele>519.0</ele><time>2026-03-29T13:32:58Z</time></trkpt><trkpt lat="43.45897148366494" lon="11.457809294495286"><ele>516.0</ele><time>2026-03-29T13:32:59Z</time></trkpt><trkpt lat="43.459083525988305" lon="11.45783939718167"><ele>513.0</ele><time>2026-03-29T13:33:00Z</time></trkpt><trkpt lat="43.459194305528605" lon="11.457852664943957"><ele>510.0</ele><time>2026-03-29T13:33:01Z</time></trkpt><trkpt lat="43.45929909650329" lon="11.45785069516211"><ele>507.0</ele><time>2026-03-29T13:33:02Z</time></trkpt><trkpt lat="43.459397261804604" lon="11.457826543012525"><ele>507.0</ele><time>2026-03-29T13:33:03Z</time></trkpt><trkpt lat="43.45948979231313" lon="11.457821375223183"><ele>507.0</ele><time>2026-03-29T13:33:04Z</time></trkpt><trkpt lat="43.45955277572773" lon="11.457779598147784"><ele>507.0</ele><time>2026-03-29T13:33:05Z</time></trkpt><trkpt lat="43.45960651663774" lon="11.457718477420283"><ele>507.0</ele><time>2026-03-29T13:33:06Z</time></trkpt><trkpt lat="43.45962794339882" lon="11.457601949559669"><ele>507.0</ele><time>2026-03-29T13:33:07Z</time></trkpt><trkpt lat="43.45961317701316" lon="11.457477530486047"><ele>507.0</ele><time>2026-03-29T13:33:08Z</time></trkpt><trkpt lat="43.459588651948046" lon="11.457349888891793"><ele>507.0</ele><time>2026-03-29T13:33:09Z</time></trkpt><trkpt lat="43.45955702959344" lon="11.45721229123162"><ele>507.00000000000006</ele><time>2026-03-29T13:33:10Z</time></trkpt><trkpt lat="43.45951877891351" lon="11.457069967526994"><ele>507.00000000000006</ele><time>2026-03-29T13:33:11Z</time></trkpt><trkpt lat="43.45951305502304" lon="11.456937640232436"><ele>507.0</ele><time>2026-03-29T13:33:12Z</time></trkpt><trkpt lat="43.45950028083876" lon="11.45682018525442"><ele>507.0</ele><time>2026-03-29T13:33:13Z</time></trkpt><trkpt lat="43.459485671913775" lon="11.4567215993784"><ele>506.5</ele><time>2026-03-29T13:33:14Z</time></trkpt><trkpt lat="43.45954517164194" lon="11.456641005762862"><ele>506.0</ele><time>2026-03-29T13:33:15Z</time></trkpt><trkpt lat="43.45962763318964" lon="11.456596463300494"><ele>505.5</ele><time>2026-03-29T13:33:16Z</time></trkpt><trkpt lat="43.45967538039157" lon="11.456516297060578"><ele>505.0</ele><time>2026-03-29T13:33:17Z</time></trkpt><trkpt lat="43.459718181137944" lon="11.456429300166239"><ele>504.5</ele><time>2026-03-29T13:33:18Z</time></trkpt><trkpt lat="43.459734890112536" lon="11.456330494853272"><ele>504.0</ele><time>2026-03-29T13:33:19Z</time></trkpt><trkpt lat="43.45968006448436" lon="11.456240249087541"><ele>503.1666666666667</ele><time>2026-03-29T13:33:20Z</time></trkpt><trkpt lat="43.45963213067006" lon="11.4561817006266"><ele>502.33333333333337</ele><time>2026-03-29T13:33:31Z</time></trkpt><trkpt lat="43.45959421367556" lon="11.45610260446296"><ele>501.5</ele><time>2026-03-29T13:33:33Z</time></trkpt><trkpt lat="43.45956340177578" lon="11.45599537675052"><ele>500.6666666666667</ele><time>2026-03-29T13:33:35Z</time></trkpt><trkpt lat="43.4596236977276" lon="11.455895461523857"><ele>499.83333333333337</ele><time>2026-03-29T13:33:37Z</time></trkpt><trkpt lat="43.45970024761376" lon="11.455898867514543"><ele>499.0</ele><time>2026-03-29T13:33:39Z</time></trkpt><trkpt lat="43.459815731498075" lon="11.4559978774356"><ele>494.0</ele><time>2026-03-29T13:33:41Z</time></trkpt><trkpt lat="43.4599082689262" lon="11.456072671365927"><ele>489.0</ele><time>2026-03-29T13:33:42Z</time></trkpt><trkpt lat="43.4600195694492" lon="11.456133329463349"><ele>484.0</ele><time>2026-03-29T13:33:43Z</time></trkpt><trkpt lat="43.46013495620724" lon="11.45618536636484"><ele>479.0</ele><time>2026-03-29T13:33:44Z</time></trkpt><trkpt lat="43.4602493381202" lon="11.456239188834568"><ele>479.0</ele><time>2026-03-29T13:33:45Z</time></trkpt><trkpt lat="43.4603595269293" lon="11.456286079882993"><ele>479.0</ele><time>2026-03-29T13:33:46Z</time></trkpt><trkpt lat="43.460477344567046" lon="11.456310532838248"><ele>479.0</ele><time>2026-03-29T13:33:47Z</time></trkpt><trkpt lat="43.46059482797777" lon="11.456315179928497"><ele>479.0</ele><time>2026-03-29T13:33:48Z</time></trkpt><trkpt lat="43.46072302014117" lon="11.456306639681122"><ele>475.4</ele><time>2026-03-29T13:33:49Z</time></trkpt><trkpt lat="43.46083907869378" lon="11.456281835187301"><ele>471.79999999999995</ele><time>2026-03-29T13:33:50Z</time></trkpt><trkpt lat="43.46094446118373" lon="11.456250146271767"><ele>468.20000000000005</ele><time>2026-03-29T13:33:51Z</time></trkpt><trkpt lat="43.46104433833524" lon="11.45621004531007"><ele>464.6</ele><time>2026-03-29T13:33:52Z</time></trkpt><trkpt lat="43.46114546296052" lon="11.456157554855851"><ele>461.0</ele><time>2026-03-29T13:33:53Z</time></trkpt><trkpt lat="43.46124089535343" lon="11.456105626029446"><ele>460.20000000000005</ele><time>2026-03-29T13:33:54Z</time></trkpt><trkpt lat="43.46133590963917" lon="11.456057717733723"><ele>459.40000000000003</ele><time>2026-03-29T13:33:55Z</time></trkpt><trkpt lat="43.461435024361165" lon="11.45600468085205"><ele>458.6</ele><time>2026-03-29T13:33:56Z</time></trkpt><trkpt lat="43.4615304772565" lon="11.45595502942701"><ele>457.8</ele><time>2026-03-29T13:33:57Z</time></trkpt><trkpt lat="43.46162873565011" lon="11.45590329858149"><ele>457.0</ele><time>2026-03-29T13:33:58Z</time></trkpt><trkpt lat="43.46173287635573" lon="11.455877449194036"><ele>457.0</ele><time>2026-03-29T13:33:59Z</time></trkpt><trkpt lat="43.461832385695466" lon="11.455831886524544"><ele>457.00000000000006</ele><time>2026-03-29T13:34:00Z</time></trkpt><trkpt lat="43.46192523225579" lon="11.45576139757516"><ele>457.00000000000006</ele><time>2026-03-29T13:34:01Z</time></trkpt><trkpt lat="43.46201026052607" lon="11.455708534642778"><ele>457.0</ele><time>2026-03-29T13:34:02Z</time></trkpt><trkpt lat="43.4620700396452" lon="11.45561449033564"><ele>457.0</ele><time>2026-03-29T13:34:03Z</time></trkpt><trkpt lat="43.462125302343246" lon="11.455515542523546"><ele>454.75</ele><time>2026-03-29T13:34:04Z</time></trkpt><trkpt lat="43.46218933706263" lon="11.455429677479327"><ele>452.5</ele><time>2026-03-29T13:34:05Z</time></trkpt><trkpt lat="43.46225777856897" lon="11.455366831603934"><ele>450.25</ele><time>2026-03-29T13:34:06Z</time></trkpt><trkpt lat="43.46233859361683" lon="11.455302540876817"><ele>448.0</ele><time>2026-03-29T13:34:08Z</time></trkpt><trkpt lat="43.46212616246874" lon="11.455229757886684"><ele>448.0</ele><time>2026-03-29T13:34:11Z</time></trkpt><trkpt lat="43.46194600558128" lon="11.4553061445857"><ele>448.0</ele><time>2026-03-29T13:34:13Z</time></trkpt><trkpt lat="43.46184244791874" lon="11.455305535579557"><ele>448.0</ele><time>2026-03-29T13:34:14Z</time></trkpt><trkpt lat="43.46175769617088" lon="11.455216881398213"><ele>448.0</ele><time>2026-03-29T13:34:15Z</time></trkpt><trkpt lat="43.461664365003514" lon="11.455206830267384"><ele>448.0</ele><time>2026-03-29T13:34:16Z</time></trkpt><trkpt lat="43.46156537826782" lon="11.455184982153515"><ele>447.99999999999994</ele><time>2026-03-29T13:34:17Z</time></trkpt><trkpt lat="43.461450213125445" lon="11.455208369692642"><ele>447.99999999999994</ele><time>2026-03-29T13:34:18Z</time></trkpt><trkpt lat="43.46134494272963" lon="11.455256293071905"><ele>448.0</ele><time>2026-03-29T13:34:19Z</time></trkpt><trkpt lat="43.461241967999015" lon="11.455254464255232"><ele>448.0</ele><time>2026-03-29T13:34:20Z</time></trkpt><trkpt lat="43.461148990456095" lon="11.455254235753355"><ele>449.83333333333337</ele><time>2026-03-29T13:34:21Z</time></trkpt><trkpt lat="43.461065074172545" lon="11.455226682992919"><ele>451.6666666666667</ele><time>2026-03-29T13:34:22Z</time></trkpt><trkpt lat="43.461004241883934" lon="11.455159050756624"><ele>453.5</ele><time>2026-03-29T13:34:23Z</time></trkpt><trkpt lat="43.46093424923086" lon="11.454980550097984"><ele>455.33333333333337</ele><time>2026-03-29T13:34:25Z</time></trkpt><trkpt lat="43.4609176958516" lon="11.454886086327107"><ele>457.1666666666667</ele><time>2026-03-29T13:34:26Z</time></trkpt><trkpt lat="43.460929217780915" lon="11.454795333926857"><ele>459.0</ele><time>2026-03-29T13:34:27Z</time></trkpt><trkpt lat="43.461002699410045" lon="11.454755565088961"><ele>459.0</ele><time>2026-03-29T13:34:28Z</time></trkpt><trkpt lat="43.461103096824914" lon="11.454696614758193"><ele>459.0</ele><time>2026-03-29T13:34:29Z</time></trkpt><trkpt lat="43.46123508100241" lon="11.454623893116297"><ele>459.0</ele><time>2026-03-29T13:34:30Z</time></trkpt><trkpt lat="43.46137016273028" lon="11.454532951091684"><ele>459.0</ele><time>2026-03-29T13:34:31Z</time></trkpt><trkpt lat="43.46148802019118" lon="11.454440338106119"><ele>455.25</ele><time>2026-03-29T13:34:32Z</time></trkpt><trkpt lat="43.461597639834274" lon="11.454352668339343"><ele>451.5</ele><time>2026-03-29T13:34:33Z</time></trkpt><trkpt lat="43.461711554096745" lon="11.454267399097148"><ele>447.75</ele><time>2026-03-29T13:34:34Z</time></trkpt><trkpt lat="43.46179836960912" lon="11.454148409405821"><ele>444.0</ele><time>2026-03-29T13:34:35Z</time></trkpt><trkpt lat="43.461869063132426" lon="11.45401740735224"><ele>444.0</ele><time>2026-03-29T13:34:36Z</time></trkpt><trkpt lat="43.46190755133112" lon="11.453855039400969"><ele>444.0</ele><time>2026-03-29T13:34:37Z</time></trkpt><trkpt lat="43.46191726353438" lon="11.453665793381656"><ele>444.0</ele><time>2026-03-29T13:34:38Z</time></trkpt><trkpt lat="43.461932265863815" lon="11.453456037924488"><ele>444.0</ele><time>2026-03-29T13:34:39Z</time></trkpt><trkpt lat="43.46193943817248" lon="11.453253980083785"><ele>443.25</ele><time>2026-03-29T13:34:40Z</time></trkpt><trkpt lat="43.46196104701811" lon="11.453073106553788"><ele>442.5</ele><time>2026-03-29T13:34:41Z</time></trkpt><trkpt lat="43.461935621326354" lon="11.452912628200266"><ele>441.75</ele><time>2026-03-29T13:34:42Z</time></trkpt><trkpt lat="43.4618548886361" lon="11.45280308048769"><ele>441.0</ele><time>2026-03-29T13:34:43Z</time></trkpt><trkpt lat="43.46181034535277" lon="11.452680859512505"><ele>440.20000000000005</ele><time>2026-03-29T13:34:44Z</time></trkpt><trkpt lat="43.46174945265433" lon="11.452572865542841"><ele>439.40000000000003</ele><time>2026-03-29T13:34:45Z</time></trkpt><trkpt lat="43.46175434982848" lon="11.452442425416482"><ele>438.6</ele><time>2026-03-29T13:34:46Z</time></trkpt><trkpt lat="43.46182724686282" lon="11.45234431092574"><ele>437.8</ele><time>2026-03-29T13:34:47Z</time></trkpt><trkpt lat="43.46192114301023" lon="11.452297222234247"><ele>437.0</ele><time>2026-03-29T13:34:48Z</time></trkpt><trkpt lat="43.46203747075725" lon="11.452250191286819"><ele>431.5</ele><time>2026-03-29T13:34:49Z</time></trkpt><trkpt lat="43.46216618405506" lon="11.452156017744517"><ele>426.0</ele><time>2026-03-29T13:34:50Z</time></trkpt><trkpt lat="43.46227858228121" lon="11.452050932500185"><ele>420.5</ele><time>2026-03-29T13:34:51Z</time></trkpt><trkpt lat="43.462369307515345" lon="11.451928839568199"><ele>415.0</ele><time>2026-03-29T13:34:51.999Z</time></trkpt><trkpt lat="43.46245460845214" lon="11.451787689660167"><ele>415.0</ele><time>2026-03-29T13:34:52.999Z</time></trkpt><trkpt lat="43.46252664304749" lon="11.451631641515734"><ele>415.0</ele><time>2026-03-29T13:34:53.999Z</time></trkpt><trkpt lat="43.46256919465991" lon="11.45147041166414"><ele>415.0</ele><time>2026-03-29T13:34:54.999Z</time></trkpt><trkpt lat="43.46258021112516" lon="11.451311255375533"><ele>415.0</ele><time>2026-03-29T13:34:55.999Z</time></trkpt><trkpt lat="43.462549342405836" lon="11.451166328138905"><ele>413.0</ele><time>2026-03-29T13:34:57Z</time></trkpt><trkpt lat="43.462482791576136" lon="11.451034127246054"><ele>411.0</ele><time>2026-03-29T13:34:58Z</time></trkpt><trkpt lat="43.46238286523988" lon="11.450909576041814"><ele>409.0</ele><time>2026-03-29T13:34:59Z</time></trkpt><trkpt lat="43.46230163042013" lon="11.45073423920614"><ele>407.0</ele><time>2026-03-29T13:35:00Z</time></trkpt><trkpt lat="43.46223359872606" lon="11.450566774936652"><ele>404.5</ele><time>2026-03-29T13:35:01Z</time></trkpt><trkpt lat="43.46217537402189" lon="11.450413078044761"><ele>402.0</ele><time>2026-03-29T13:35:02Z</time></trkpt><trkpt lat="43.462145849203424" lon="11.450249760322759"><ele>399.5</ele><time>2026-03-29T13:35:03Z</time></trkpt><trkpt lat="43.46213077447484" lon="11.450099266896837"><ele>397.0</ele><time>2026-03-29T13:35:04Z</time></trkpt><trkpt lat="43.462150501111275" lon="11.449957673062295"><ele>397.00000000000006</ele><time>2026-03-29T13:35:05Z</time></trkpt><trkpt lat="43.46219991570934" lon="11.449856285608455"><ele>397.0</ele><time>2026-03-29T13:35:06Z</time></trkpt><trkpt lat="43.46227253327141" lon="11.449819853468092"><ele>397.0</ele><time>2026-03-29T13:35:07Z</time></trkpt><trkpt lat="43.462350077789125" lon="11.449877230864622"><ele>397.0</ele><time>2026-03-29T13:35:08Z</time></trkpt><trkpt lat="43.46240313786361" lon="11.449955560546286"><ele>397.00000000000006</ele><time>2026-03-29T13:35:09Z</time></trkpt><trkpt lat="43.462409872387006" lon="11.450079217919322"><ele>397.0</ele><time>2026-03-29T13:35:10Z</time></trkpt><trkpt lat="43.4624477784817" lon="11.450225079285817"><ele>397.0</ele><time>2026-03-29T13:35:11Z</time></trkpt><trkpt lat="43.462491574743446" lon="11.45036438350971"><ele>397.0</ele><time>2026-03-29T13:35:12Z</time></trkpt><trkpt lat="43.462525417751046" lon="11.450498759182413"><ele>397.0</ele><time>2026-03-29T13:35:13Z</time></trkpt><trkpt lat="43.462600753753684" lon="11.450610996690514"><ele>397.0</ele><time>2026-03-29T13:35:14Z</time></trkpt><trkpt lat="43.46270741990993" lon="11.450679956778197"><ele>397.0</ele><time>2026-03-29T13:35:15Z</time></trkpt><trkpt lat="43.46281495436796" lon="11.450721465228959"><ele>399.0</ele><time>2026-03-29T13:35:16Z</time></trkpt><trkpt lat="43.462910052060884" lon="11.450783929842762"><ele>401.0</ele><time>2026-03-29T13:35:17Z</time></trkpt><trkpt lat="43.46300032123915" lon="11.45087561417576"><ele>403.0</ele><time>2026-03-29T13:35:18Z</time></trkpt><trkpt lat="43.46303850655931" lon="11.451017785098914"><ele>405.0</ele><time>2026-03-29T13:35:19Z</time></trkpt><trkpt lat="43.46306041315884" lon="11.451164468381165"><ele>407.0</ele><time>2026-03-29T13:35:20Z</time></trkpt><trkpt lat="43.463086854165574" lon="11.451333361731086"><ele>401.0</ele><time>2026-03-29T13:35:21Z</time></trkpt><trkpt lat="43.46309944337047" lon="11.451533398052383"><ele>395.0</ele><time>2026-03-29T13:35:22Z</time></trkpt><trkpt lat="43.463127468395584" lon="11.4517252138363"><ele>389.0</ele><time>2026-03-29T13:35:23Z</time></trkpt><trkpt lat="43.46315055089886" lon="11.45190283199813"><ele>383.0</ele><time>2026-03-29T13:35:24Z</time></trkpt><trkpt lat="43.46316376126623" lon="11.452062857206373"><ele>383.0</ele><time>2026-03-29T13:35:25Z</time></trkpt><trkpt lat="43.463173942036086" lon="11.452185663322325"><ele>383.0</ele><time>2026-03-29T13:35:26Z</time></trkpt><trkpt lat="43.46321361115085" lon="11.452274913525912"><ele>383.0</ele><time>2026-03-29T13:35:27Z</time></trkpt><trkpt lat="43.46328182170207" lon="11.452305921368561"><ele>383.0</ele><time>2026-03-29T13:35:28Z</time></trkpt><trkpt lat="43.46342408624449" lon="11.4521706015973"><ele>383.0</ele><time>2026-03-29T13:35:30Z</time></trkpt><trkpt lat="43.46344544099342" lon="11.452035376186226"><ele>383.0</ele><time>2026-03-29T13:35:31Z</time></trkpt><trkpt lat="43.46345309266476" lon="11.451883575780643"><ele>383.0</ele><time>2026-03-29T13:35:32Z</time></trkpt><trkpt lat="43.4634731413441" lon="11.451719921269659"><ele>383.0</ele><time>2026-03-29T13:35:33Z</time></trkpt><trkpt lat="43.46350365764055" lon="11.451537270350478"><ele>383.0</ele><time>2026-03-29T13:35:34Z</time></trkpt><trkpt lat="43.463534106734805" lon="11.451348380168739"><ele>382.25</ele><time>2026-03-29T13:35:35Z</time></trkpt><trkpt lat="43.463565793115905" lon="11.451163069094527"><ele>381.5</ele><time>2026-03-29T13:35:36Z</time></trkpt><trkpt lat="43.46360359218145" lon="11.45098956420497"><ele>380.75</ele><time>2026-03-29T13:35:37Z</time></trkpt><trkpt lat="43.46366104697501" lon="11.450835875885153"><ele>380.0</ele><time>2026-03-29T13:35:38Z</time></trkpt><trkpt lat="43.46375280889096" lon="11.45073513162333"><ele>380.0</ele><time>2026-03-29T13:35:39Z</time></trkpt><trkpt lat="43.46380419990119" lon="11.450628835935127"><ele>380.0</ele><time>2026-03-29T13:35:40Z</time></trkpt><trkpt lat="43.463831855859894" lon="11.450521459490874"><ele>380.0</ele><time>2026-03-29T13:35:41Z</time></trkpt><trkpt lat="43.46381835044852" lon="11.450397788805276"><ele>380.0</ele><time>2026-03-29T13:35:42Z</time></trkpt><trkpt lat="43.46370949662431" lon="11.450305237777268"><ele>380.0</ele><time>2026-03-29T13:35:43Z</time></trkpt><trkpt lat="43.46362596177531" lon="11.450218397403908"><ele>378.5</ele><time>2026-03-29T13:35:44Z</time></trkpt><trkpt lat="43.46354109595803" lon="11.450097614607087"><ele>377.0</ele><time>2026-03-29T13:35:45Z</time></trkpt><trkpt lat="43.46345306101422" lon="11.449971817024164"><ele>375.5</ele><time>2026-03-29T13:35:46Z</time></trkpt><trkpt lat="43.463372193098266" lon="11.449841646516198"><ele>374.0</ele><time>2026-03-29T13:35:47Z</time></trkpt><trkpt lat="43.46328805634816" lon="11.449712969768473"><ele>373.25</ele><time>2026-03-29T13:35:48Z</time></trkpt><trkpt lat="43.46320542214034" lon="11.449577266558533"><ele>372.5</ele><time>2026-03-29T13:35:49Z</time></trkpt><trkpt lat="43.46313275341239" lon="11.449436169510964"><ele>371.75</ele><time>2026-03-29T13:35:50Z</time></trkpt><trkpt lat="43.46306740228895" lon="11.449277111249007"><ele>371.0</ele><time>2026-03-29T13:35:51Z</time></trkpt><trkpt lat="43.46300987062735" lon="11.449099386664809"><ele>371.0</ele><time>2026-03-29T13:35:52Z</time></trkpt><trkpt lat="43.46295711310619" lon="11.448910856886277"><ele>371.0</ele><time>2026-03-29T13:35:53Z</time></trkpt><trkpt lat="43.46291861240931" lon="11.44872034531055"><ele>371.0</ele><time>2026-03-29T13:35:54Z</time></trkpt><trkpt lat="43.4629011326218" lon="11.448503767615387"><ele>371.0</ele><time>2026-03-29T13:35:55Z</time></trkpt><trkpt lat="43.46291987133444" lon="11.448269754390141"><ele>369.0</ele><time>2026-03-29T13:35:56Z</time></trkpt><trkpt lat="43.46297271660705" lon="11.448031077351107"><ele>367.0</ele><time>2026-03-29T13:35:57Z</time></trkpt><trkpt lat="43.463034587769066" lon="11.4477815207572"><ele>365.0</ele><time>2026-03-29T13:35:58Z</time></trkpt><trkpt lat="43.46309276091854" lon="11.447515833901653"><ele>365.0</ele><time>2026-03-29T13:35:59Z</time></trkpt><trkpt lat="43.46314401285684" lon="11.447233646512595"><ele>365.0</ele><time>2026-03-29T13:36:00Z</time></trkpt><trkpt lat="43.46319509316185" lon="11.446965010375823"><ele>365.0</ele><time>2026-03-29T13:36:01Z</time></trkpt><trkpt lat="43.46324391731488" lon="11.446703432899627"><ele>365.33333333333337</ele><time>2026-03-29T13:36:02Z</time></trkpt><trkpt lat="43.46328992355162" lon="11.446433446697897"><ele>365.6666666666667</ele><time>2026-03-29T13:36:03Z</time></trkpt><trkpt lat="43.46333044465434" lon="11.446177067355027"><ele>366.0</ele><time>2026-03-29T13:36:04Z</time></trkpt><trkpt lat="43.463374591745385" lon="11.44592321573877"><ele>366.6666666666667</ele><time>2026-03-29T13:36:05Z</time></trkpt><trkpt lat="43.46339364951763" lon="11.44566359077699"><ele>367.33333333333337</ele><time>2026-03-29T13:36:06Z</time></trkpt><trkpt lat="43.46341060925015" lon="11.445400649905256"><ele>368.0</ele><time>2026-03-29T13:36:07Z</time></trkpt><trkpt lat="43.4634204895638" lon="11.4451371724648"><ele>366.33333333333337</ele><time>2026-03-29T13:36:08Z</time></trkpt><trkpt lat="43.46342681686064" lon="11.444871380362134"><ele>364.6666666666667</ele><time>2026-03-29T13:36:09Z</time></trkpt><trkpt lat="43.46342728552701" lon="11.444603808421233"><ele>363.0</ele><time>2026-03-29T13:36:10Z</time></trkpt><trkpt lat="43.46341872120497" lon="11.444328049662147"><ele>363.0</ele><time>2026-03-29T13:36:11Z</time></trkpt><trkpt lat="43.463404519083824" lon="11.444050173459276"><ele>363.0</ele><time>2026-03-29T13:36:12Z</time></trkpt><trkpt lat="43.463381411010936" lon="11.44378493564907"><ele>363.0</ele><time>2026-03-29T13:36:13Z</time></trkpt><trkpt lat="43.463359649727956" lon="11.443534976996537"><ele>362.0</ele><time>2026-03-29T13:36:14Z</time></trkpt><trkpt lat="43.463341012498894" lon="11.443292625182874"><ele>361.0</ele><time>2026-03-29T13:36:15Z</time></trkpt><trkpt lat="43.46333734918493" lon="11.44302715769493"><ele>360.0</ele><time>2026-03-29T13:36:16Z</time></trkpt><trkpt lat="43.46336160857336" lon="11.442781083141497"><ele>359.6666666666667</ele><time>2026-03-29T13:36:17Z</time></trkpt><trkpt lat="43.46341642967294" lon="11.442543539346628"><ele>359.33333333333337</ele><time>2026-03-29T13:36:18Z</time></trkpt><trkpt lat="43.46348170486485" lon="11.442319832544541"><ele>359.0</ele><time>2026-03-29T13:36:19Z</time></trkpt><trkpt lat="43.46354548410051" lon="11.442110818196841"><ele>357.6666666666667</ele><time>2026-03-29T13:36:20Z</time></trkpt><trkpt lat="43.46361157304504" lon="11.441906655147628"><ele>356.3333333333333</ele><time>2026-03-29T13:36:21Z</time></trkpt><trkpt lat="43.46368520931666" lon="11.441696805920584"><ele>355.0</ele><time>2026-03-29T13:36:22Z</time></trkpt><trkpt lat="43.46375869393726" lon="11.44148315822338"><ele>356.0</ele><time>2026-03-29T13:36:23Z</time></trkpt><trkpt lat="43.46382858910638" lon="11.441263721125294"><ele>357.0</ele><time>2026-03-29T13:36:24Z</time></trkpt><trkpt lat="43.463895093385716" lon="11.441044709837437"><ele>358.0</ele><time>2026-03-29T13:36:25Z</time></trkpt><trkpt lat="43.463957720907885" lon="11.44082892416598"><ele>358.0</ele><time>2026-03-29T13:36:26Z</time></trkpt><trkpt lat="43.46403446836771" lon="11.440606998587326"><ele>358.0</ele><time>2026-03-29T13:36:27Z</time></trkpt><trkpt lat="43.464114267303415" lon="11.440406193217614"><ele>358.0</ele><time>2026-03-29T13:36:28Z</time></trkpt><trkpt lat="43.46419413662433" lon="11.440228455387636"><ele>356.0</ele><time>2026-03-29T13:36:29Z</time></trkpt><trkpt lat="43.46428116401577" lon="11.440055766002434"><ele>354.0</ele><time>2026-03-29T13:36:30Z</time></trkpt><trkpt lat="43.46437079040989" lon="11.439883489289064"><ele>352.0</ele><time>2026-03-29T13:36:31Z</time></trkpt><trkpt lat="43.46446250189816" lon="11.439707199193506"><ele>351.66666666666663</ele><time>2026-03-29T13:36:32Z</time></trkpt><trkpt lat="43.46455499953341" lon="11.439528934508829"><ele>351.3333333333333</ele><time>2026-03-29T13:36:33Z</time></trkpt><trkpt lat="43.464646523303294" lon="11.439355291218826"><ele>351.0</ele><time>2026-03-29T13:36:34Z</time></trkpt><trkpt lat="43.46473826842394" lon="11.439182389715818"><ele>351.0</ele><time>2026-03-29T13:36:35Z</time></trkpt><trkpt lat="43.464829172038066" lon="11.439006761060732"><ele>351.0</ele><time>2026-03-29T13:36:36Z</time></trkpt><trkpt lat="43.464922872424744" lon="11.438824304437947"><ele>351.0</ele><time>2026-03-29T13:36:37Z</time></trkpt><trkpt lat="43.46501532622252" lon="11.438638890646892"><ele>351.0</ele><time>2026-03-29T13:36:38Z</time></trkpt><trkpt lat="43.465108169599816" lon="11.438460125518766"><ele>351.0</ele><time>2026-03-29T13:36:39Z</time></trkpt><trkpt lat="43.465205902907755" lon="11.438280584833885"><ele>351.0</ele><time>2026-03-29T13:36:40Z</time></trkpt><trkpt lat="43.46529863061625" lon="11.438107421429532"><ele>350.75</ele><time>2026-03-29T13:36:41Z</time></trkpt><trkpt lat="43.46538330884261" lon="11.437930737519265"><ele>350.5</ele><time>2026-03-29T13:36:42Z</time></trkpt><trkpt lat="43.46546291044743" lon="11.437749675559253"><ele>350.25</ele><time>2026-03-29T13:36:43Z</time></trkpt><trkpt lat="43.46553333838434" lon="11.437581445120541"><ele>350.0</ele><time>2026-03-29T13:36:44Z</time></trkpt><trkpt lat="43.4655980518574" lon="11.437413896720612"><ele>351.0</ele><time>2026-03-29T13:36:45Z</time></trkpt><trkpt lat="43.46566652592987" lon="11.437250202759552"><ele>352.0</ele><time>2026-03-29T13:36:46Z</time></trkpt><trkpt lat="43.46573083835454" lon="11.437102065612313"><ele>353.0</ele><time>2026-03-29T13:36:47Z</time></trkpt><trkpt lat="43.46579113021966" lon="11.436961537495387"><ele>354.0</ele><time>2026-03-29T13:36:48Z</time></trkpt><trkpt lat="43.46584501684503" lon="11.43683391699707"><ele>354.0</ele><time>2026-03-29T13:36:49Z</time></trkpt><trkpt lat="43.46589562636405" lon="11.436717026938874"><ele>354.0</ele><time>2026-03-29T13:36:50Z</time></trkpt><trkpt lat="43.46594294645153" lon="11.436618246906189"><ele>354.0</ele><time>2026-03-29T13:36:51Z</time></trkpt><trkpt lat="43.46597071948991" lon="11.436527608681702"><ele>354.0</ele><time>2026-03-29T13:36:52Z</time></trkpt><trkpt lat="43.46587289025564" lon="11.436416410646997"><ele>354.0</ele><time>2026-03-29T13:36:54Z</time></trkpt><trkpt lat="43.46579209978039" lon="11.436338501257966"><ele>353.0</ele><time>2026-03-29T13:36:55Z</time></trkpt><trkpt lat="43.465666025792466" lon="11.436251032560715"><ele>352.0</ele><time>2026-03-29T13:36:55.999Z</time></trkpt><trkpt lat="43.46552544615732" lon="11.436139454447162"><ele>351.0</ele><time>2026-03-29T13:36:56.999Z</time></trkpt><trkpt lat="43.46539347046664" lon="11.436018183493404"><ele>350.0</ele><time>2026-03-29T13:36:57.999Z</time></trkpt><trkpt lat="43.46527580598371" lon="11.4359132305557"><ele>349.0</ele><time>2026-03-29T13:36:58.999Z</time></trkpt><trkpt lat="43.465167007128464" lon="11.435819371566279"><ele>348.0</ele><time>2026-03-29T13:36:59.999Z</time></trkpt><trkpt lat="43.465050436030076" lon="11.435718156377979"><ele>347.0</ele><time>2026-03-29T13:37:00.999Z</time></trkpt><trkpt lat="43.46493329745728" lon="11.435617895617094"><ele>347.0</ele><time>2026-03-29T13:37:01.999Z</time></trkpt><trkpt lat="43.46482057189659" lon="11.435510392830466"><ele>347.0</ele><time>2026-03-29T13:37:03Z</time></trkpt><trkpt lat="43.4647220212628" lon="11.43539976294064"><ele>347.0</ele><time>2026-03-29T13:37:04Z</time></trkpt><trkpt lat="43.4646384655811" lon="11.43527963221143"><ele>347.0</ele><time>2026-03-29T13:37:05Z</time></trkpt><trkpt lat="43.4645762047534" lon="11.435129776721581"><ele>346.6666666666667</ele><time>2026-03-29T13:37:06Z</time></trkpt><trkpt lat="43.46452856081263" lon="11.434944997245948"><ele>346.3333333333333</ele><time>2026-03-29T13:37:07Z</time></trkpt><trkpt lat="43.46450005866652" lon="11.434732480352663"><ele>346.0</ele><time>2026-03-29T13:37:08Z</time></trkpt><trkpt lat="43.4644837099029" lon="11.434511823799973"><ele>345.75</ele><time>2026-03-29T13:37:09Z</time></trkpt><trkpt lat="43.464467789009156" lon="11.43431093360852"><ele>345.5</ele><time>2026-03-29T13:37:10Z</time></trkpt><trkpt lat="43.464447183158754" lon="11.434130032665896"><ele>345.25</ele><time>2026-03-29T13:37:11Z</time></trkpt><trkpt lat="43.46442538735485" lon="11.433951711648445"><ele>345.0</ele><time>2026-03-29T13:37:12Z</time></trkpt><trkpt lat="43.46440723976741" lon="11.43378395788354"><ele>345.0</ele><time>2026-03-29T13:37:13Z</time></trkpt><trkpt lat="43.46439053595024" lon="11.433627466501404"><ele>345.0</ele><time>2026-03-29T13:37:14Z</time></trkpt><trkpt lat="43.464374006618236" lon="11.433479951466433"><ele>345.0</ele><time>2026-03-29T13:37:15Z</time></trkpt><trkpt lat="43.46435694205383" lon="11.433345637293062"><ele>345.0</ele><time>2026-03-29T13:37:16Z</time></trkpt><trkpt lat="43.464349859637736" lon="11.433225192743663"><ele>345.0</ele><time>2026-03-29T13:37:17Z</time></trkpt><trkpt lat="43.4643752392117" lon="11.433124720935092"><ele>345.0</ele><time>2026-03-29T13:37:18Z</time></trkpt><trkpt lat="43.464367549615055" lon="11.43302727776862"><ele>345.0</ele><time>2026-03-29T13:37:19Z</time></trkpt><trkpt lat="43.46449655224507" lon="11.433011423365086"><ele>345.0</ele><time>2026-03-29T13:37:20Z</time></trkpt><trkpt lat="43.46458487063323" lon="11.433017040033034"><ele>345.0</ele><time>2026-03-29T13:37:21Z</time></trkpt><trkpt lat="43.46466123921846" lon="11.433107749064787"><ele>345.0</ele><time>2026-03-29T13:37:22Z</time></trkpt><trkpt lat="43.46475963132569" lon="11.433171669113715"><ele>345.75</ele><time>2026-03-29T13:37:23Z</time></trkpt><trkpt lat="43.464873075340876" lon="11.433230099501067"><ele>346.5</ele><time>2026-03-29T13:37:24Z</time></trkpt><trkpt lat="43.46498717900772" lon="11.43332787926225"><ele>347.25</ele><time>2026-03-29T13:37:25Z</time></trkpt><trkpt lat="43.46510136259712" lon="11.433445831990925"><ele>348.0</ele><time>2026-03-29T13:37:26Z</time></trkpt><trkpt lat="43.465197908722104" lon="11.433578606263971"><ele>348.0</ele><time>2026-03-29T13:37:27Z</time></trkpt><trkpt lat="43.46529259333661" lon="11.433721961388235"><ele>348.0</ele><time>2026-03-29T13:37:28Z</time></trkpt><trkpt lat="43.46539475762228" lon="11.433882483541373"><ele>348.0</ele><time>2026-03-29T13:37:29Z</time></trkpt><trkpt lat="43.4655029308879" lon="11.434022496810465"><ele>348.0</ele><time>2026-03-29T13:37:30Z</time></trkpt><trkpt lat="43.46561941880827" lon="11.434124394557047"><ele>348.0</ele><time>2026-03-29T13:37:31Z</time></trkpt><trkpt lat="43.46574466997734" lon="11.434195122335508"><ele>348.0</ele><time>2026-03-29T13:37:32Z</time></trkpt><trkpt lat="43.4658857659774" lon="11.434252505166105"><ele>348.0</ele><time>2026-03-29T13:37:33Z</time></trkpt><trkpt lat="43.46603059043871" lon="11.434304891562814"><ele>348.0</ele><time>2026-03-29T13:37:34Z</time></trkpt><trkpt lat="43.46617182034941" lon="11.434346749827348"><ele>348.75</ele><time>2026-03-29T13:37:35Z</time></trkpt><trkpt lat="43.46631589022195" lon="11.43437421884927"><ele>349.5</ele><time>2026-03-29T13:37:36Z</time></trkpt><trkpt lat="43.46646527861487" lon="11.434383152683528"><ele>350.25</ele><time>2026-03-29T13:37:37Z</time></trkpt><trkpt lat="43.46661482650553" lon="11.43438576429739"><ele>351.0</ele><time>2026-03-29T13:37:38Z</time></trkpt><trkpt lat="43.466770466599954" lon="11.434380145562438"><ele>351.0</ele><time>2026-03-29T13:37:39Z</time></trkpt><trkpt lat="43.46691978219701" lon="11.434363084409561"><ele>351.0</ele><time>2026-03-29T13:37:40Z</time></trkpt><trkpt lat="43.4670708164084" lon="11.434328830134367"><ele>351.0</ele><time>2026-03-29T13:37:41Z</time></trkpt><trkpt lat="43.46721205952182" lon="11.434285620970039"><ele>351.0</ele><time>2026-03-29T13:37:42Z</time></trkpt><trkpt lat="43.46734096233141" lon="11.434231903620805"><ele>351.75</ele><time>2026-03-29T13:37:43Z</time></trkpt><trkpt lat="43.467456504737356" lon="11.434163841002547"><ele>352.5</ele><time>2026-03-29T13:37:44Z</time></trkpt><trkpt lat="43.467571398352504" lon="11.434078906994399"><ele>353.25</ele><time>2026-03-29T13:37:45Z</time></trkpt><trkpt lat="43.46767662871995" lon="11.433978154453326"><ele>354.0</ele><time>2026-03-29T13:37:46Z</time></trkpt><trkpt lat="43.467791083352566" lon="11.433853962437881"><ele>354.3333333333333</ele><time>2026-03-29T13:37:47Z</time></trkpt><trkpt lat="43.46791233354499" lon="11.433723830904272"><ele>354.66666666666663</ele><time>2026-03-29T13:37:48Z</time></trkpt><trkpt lat="43.46804178281149" lon="11.433588480276326"><ele>355.0</ele><time>2026-03-29T13:37:49Z</time></trkpt><trkpt lat="43.46817996607809" lon="11.433452676232367"><ele>356.0</ele><time>2026-03-29T13:37:50Z</time></trkpt><trkpt lat="43.46833146527243" lon="11.433358517635995"><ele>357.0</ele><time>2026-03-29T13:37:51Z</time></trkpt><trkpt lat="43.46848086333909" lon="11.433271001545773"><ele>358.0</ele><time>2026-03-29T13:37:52Z</time></trkpt><trkpt lat="43.46860960629606" lon="11.433197700234569"><ele>358.0</ele><time>2026-03-29T13:37:53Z</time></trkpt><trkpt lat="43.468752191405436" lon="11.433161617834111"><ele>358.0</ele><time>2026-03-29T13:37:54Z</time></trkpt><trkpt lat="43.46890592025046" lon="11.433131920367744"><ele>358.0</ele><time>2026-03-29T13:37:55Z</time></trkpt><trkpt lat="43.469074025792594" lon="11.433139461447864"><ele>358.25</ele><time>2026-03-29T13:37:56Z</time></trkpt><trkpt lat="43.46922520987467" lon="11.433159439828298"><ele>358.5</ele><time>2026-03-29T13:37:57Z</time></trkpt><trkpt lat="43.46936044989132" lon="11.433189520406668"><ele>358.75</ele><time>2026-03-29T13:37:58Z</time></trkpt><trkpt lat="43.469499088055706" lon="11.433208762483554"><ele>359.0</ele><time>2026-03-29T13:37:59Z</time></trkpt><trkpt lat="43.46963041616319" lon="11.43326397189798"><ele>359.75</ele><time>2026-03-29T13:38:00Z</time></trkpt><trkpt lat="43.469774870476925" lon="11.43327670901043"><ele>360.5</ele><time>2026-03-29T13:38:01Z</time></trkpt><trkpt lat="43.46992543550295" lon="11.433258865596079"><ele>361.25</ele><time>2026-03-29T13:38:02Z</time></trkpt><trkpt lat="43.47006917053835" lon="11.433214234390974"><ele>362.0</ele><time>2026-03-29T13:38:03Z</time></trkpt><trkpt lat="43.47020361244115" lon="11.433225475592401"><ele>362.0</ele><time>2026-03-29T13:38:04Z</time></trkpt><trkpt lat="43.47031083500411" lon="11.433208690243468"><ele>362.0</ele><time>2026-03-29T13:38:05Z</time></trkpt><trkpt lat="43.47041344291431" lon="11.43320483045931"><ele>362.0</ele><time>2026-03-29T13:38:06Z</time></trkpt><trkpt lat="43.470506531939755" lon="11.433185489148379"><ele>362.0</ele><time>2026-03-29T13:38:07Z</time></trkpt><trkpt lat="43.47057312108779" lon="11.43315871099221"><ele>362.0</ele><time>2026-03-29T13:38:08Z</time></trkpt><trkpt lat="43.47063002096757" lon="11.433114218555568"><ele>362.0</ele><time>2026-03-29T13:38:09Z</time></trkpt><trkpt lat="43.470564811354876" lon="11.432899260515187"><ele>363.6666666666667</ele><time>2026-03-29T13:38:11Z</time></trkpt><trkpt lat="43.47053458498583" lon="11.432804219543517"><ele>365.33333333333337</ele><time>2026-03-29T13:38:12Z</time></trkpt><trkpt lat="43.470513991340056" lon="11.432678031642563"><ele>367.0</ele><time>2026-03-29T13:38:13Z</time></trkpt><trkpt lat="43.470536737255586" lon="11.432542052186866"><ele>368.6666666666667</ele><time>2026-03-29T13:38:14Z</time></trkpt><trkpt lat="43.470560997090246" lon="11.432421421185612"><ele>370.3333333333333</ele><time>2026-03-29T13:38:15Z</time></trkpt><trkpt lat="43.470600372375" lon="11.43233010193938"><ele>372.0</ele><time>2026-03-29T13:38:16Z</time></trkpt><trkpt lat="43.47068940511517" lon="11.432319244240803"><ele>372.0</ele><time>2026-03-29T13:38:17Z</time></trkpt><trkpt lat="43.470780630973174" lon="11.432275385913924"><ele>372.0</ele><time>2026-03-29T13:38:18Z</time></trkpt><trkpt lat="43.47087759216642" lon="11.432270214389646"><ele>372.0</ele><time>2026-03-29T13:38:19Z</time></trkpt><trkpt lat="43.470973434935466" lon="11.432242209124928"><ele>372.0</ele><time>2026-03-29T13:38:20Z</time></trkpt><trkpt lat="43.47106339869645" lon="11.432183638881366"><ele>372.0</ele><time>2026-03-29T13:38:21Z</time></trkpt><trkpt lat="43.4711489544323" lon="11.43210787130587"><ele>373.20000000000005</ele><time>2026-03-29T13:38:22Z</time></trkpt><trkpt lat="43.471233410180595" lon="11.432022105810116"><ele>374.4</ele><time>2026-03-29T13:38:23Z</time></trkpt><trkpt lat="43.47133512835141" lon="11.43195608105652"><ele>375.6</ele><time>2026-03-29T13:38:24Z</time></trkpt><trkpt lat="43.4714360668513" lon="11.431869531183882"><ele>376.79999999999995</ele><time>2026-03-29T13:38:25Z</time></trkpt><trkpt lat="43.47152909832473" lon="11.43178985767634"><ele>378.0</ele><time>2026-03-29T13:38:26Z</time></trkpt><trkpt lat="43.471611544620224" lon="11.431710606589172"><ele>380.79999999999995</ele><time>2026-03-29T13:38:27Z</time></trkpt><trkpt lat="43.47171151081745" lon="11.431701098871716"><ele>383.6</ele><time>2026-03-29T13:38:28Z</time></trkpt><trkpt lat="43.471803817426775" lon="11.43178162560139"><ele>386.4</ele><time>2026-03-29T13:38:29Z</time></trkpt><trkpt lat="43.47189577681657" lon="11.431801883976531"><ele>389.20000000000005</ele><time>2026-03-29T13:38:30Z</time></trkpt><trkpt lat="43.471964898729496" lon="11.431821449979534"><ele>392.0</ele><time>2026-03-29T13:38:31Z</time></trkpt><trkpt lat="43.47203635217502" lon="11.431762964685676"><ele>394.75</ele><time>2026-03-29T13:38:32Z</time></trkpt><trkpt lat="43.47212955960321" lon="11.431701779602582"><ele>397.5</ele><time>2026-03-29T13:38:33Z</time></trkpt><trkpt lat="43.47223825973361" lon="11.431628013699397"><ele>400.25</ele><time>2026-03-29T13:38:34Z</time></trkpt><trkpt lat="43.472359921021756" lon="11.431549736198432"><ele>403.0</ele><time>2026-03-29T13:38:35Z</time></trkpt><trkpt lat="43.4724710357713" lon="11.431617857312638"><ele>403.0</ele><time>2026-03-29T13:38:36Z</time></trkpt><trkpt lat="43.47256108798193" lon="11.431606889852484"><ele>403.0</ele><time>2026-03-29T13:38:37Z</time></trkpt><trkpt lat="43.47265214470358" lon="11.431548292265603"><ele>403.0</ele><time>2026-03-29T13:38:38Z</time></trkpt><trkpt lat="43.47272647618231" lon="11.431448634776338"><ele>403.0</ele><time>2026-03-29T13:38:39Z</time></trkpt><trkpt lat="43.472797806543426" lon="11.431318187367072"><ele>403.0</ele><time>2026-03-29T13:38:40Z</time></trkpt><trkpt lat="43.472888938305516" lon="11.431221338490676"><ele>406.4</ele><time>2026-03-29T13:38:41Z</time></trkpt><trkpt lat="43.472966070101684" lon="11.431111366136884"><ele>409.79999999999995</ele><time>2026-03-29T13:38:42Z</time></trkpt><trkpt lat="43.47304262390893" lon="11.431004528384788"><ele>413.2</ele><time>2026-03-29T13:38:43Z</time></trkpt><trkpt lat="43.473124934186814" lon="11.430902056634457"><ele>416.6</ele><time>2026-03-29T13:38:44Z</time></trkpt><trkpt lat="43.47319094206346" lon="11.430798750627309"><ele>420.0</ele><time>2026-03-29T13:38:45Z</time></trkpt><trkpt lat="43.4732654598529" lon="11.430713201394452"><ele>420.0</ele><time>2026-03-29T13:38:46Z</time></trkpt><trkpt lat="43.47333788277067" lon="11.430624635970652"><ele>420.0</ele><time>2026-03-29T13:38:47Z</time></trkpt><trkpt lat="43.47340668577121" lon="11.430529408606226"><ele>420.0</ele><time>2026-03-29T13:38:48Z</time></trkpt><trkpt lat="43.47347446786486" lon="11.430416008923148"><ele>420.0</ele><time>2026-03-29T13:38:49Z</time></trkpt><trkpt lat="43.47353945092216" lon="11.430276532374986"><ele>420.0</ele><time>2026-03-29T13:38:50Z</time></trkpt><trkpt lat="43.473607673614126" lon="11.430126076645491"><ele>420.0</ele><time>2026-03-29T13:38:51Z</time></trkpt><trkpt lat="43.473683443848806" lon="11.429982454236251"><ele>420.0</ele><time>2026-03-29T13:38:52Z</time></trkpt><trkpt lat="43.473757494140145" lon="11.429825765818553"><ele>420.0</ele><time>2026-03-29T13:38:53Z</time></trkpt><trkpt lat="43.47382634920998" lon="11.429662959945924"><ele>420.0</ele><time>2026-03-29T13:38:54Z</time></trkpt><trkpt lat="43.47389751033876" lon="11.429499782259372"><ele>422.0</ele><time>2026-03-29T13:38:55Z</time></trkpt><trkpt lat="43.47398355549836" lon="11.429338775310352"><ele>424.0</ele><time>2026-03-29T13:38:56Z</time></trkpt><trkpt lat="43.47406010683761" lon="11.429166687661125"><ele>426.0</ele><time>2026-03-29T13:38:57Z</time></trkpt><trkpt lat="43.474136171431454" lon="11.428995694622847"><ele>428.0</ele><time>2026-03-29T13:38:58Z</time></trkpt><trkpt lat="43.4741958270281" lon="11.428820710192355"><ele>428.25</ele><time>2026-03-29T13:38:59Z</time></trkpt><trkpt lat="43.4742712315959" lon="11.428664559165918"><ele>428.5</ele><time>2026-03-29T13:39:00Z</time></trkpt><trkpt lat="43.47435761200804" lon="11.428503805864509"><ele>428.75</ele><time>2026-03-29T13:39:01Z</time></trkpt><trkpt lat="43.4744662058402" lon="11.428375912714623"><ele>429.0</ele><time>2026-03-29T13:39:02Z</time></trkpt><trkpt lat="43.47456316534996" lon="11.428234680141285"><ele>431.5</ele><time>2026-03-29T13:39:03Z</time></trkpt><trkpt lat="43.4746568533062" lon="11.428094962084547"><ele>434.0</ele><time>2026-03-29T13:39:04Z</time></trkpt><trkpt lat="43.47473680652867" lon="11.42794580997245"><ele>436.5</ele><time>2026-03-29T13:39:05Z</time></trkpt><trkpt lat="43.474827296992665" lon="11.42784018831321"><ele>439.0</ele><time>2026-03-29T13:39:05.999Z</time></trkpt><trkpt lat="43.474928645914574" lon="11.427741942625985"><ele>440.25</ele><time>2026-03-29T13:39:06.999Z</time></trkpt><trkpt lat="43.47504527842487" lon="11.427652317195674"><ele>441.5</ele><time>2026-03-29T13:39:07.999Z</time></trkpt><trkpt lat="43.4751627483047" lon="11.427563981844587"><ele>442.75</ele><time>2026-03-29T13:39:09Z</time></trkpt><trkpt lat="43.47529105351302" lon="11.427465099008302"><ele>444.0</ele><time>2026-03-29T13:39:10Z</time></trkpt><trkpt lat="43.47541402398379" lon="11.427365455181942"><ele>447.2</ele><time>2026-03-29T13:39:11Z</time></trkpt><trkpt lat="43.47550839952927" lon="11.42727855172818"><ele>450.4</ele><time>2026-03-29T13:39:12Z</time></trkpt><trkpt lat="43.47556961067097" lon="11.427174325609947"><ele>453.6</ele><time>2026-03-29T13:39:13Z</time></trkpt><trkpt lat="43.475618617601434" lon="11.42704463674465"><ele>456.8</ele><time>2026-03-29T13:39:14Z</time></trkpt><trkpt lat="43.475680562572954" lon="11.426906234389755"><ele>460.0</ele><time>2026-03-29T13:39:15Z</time></trkpt><trkpt lat="43.47576833053566" lon="11.426769921342032"><ele>461.25</ele><time>2026-03-29T13:39:16Z</time></trkpt><trkpt lat="43.475882106193254" lon="11.426675442944363"><ele>462.5</ele><time>2026-03-29T13:39:17Z</time></trkpt><trkpt lat="43.47598367843604" lon="11.42655243448347"><ele>463.75</ele><time>2026-03-29T13:39:18Z</time></trkpt><trkpt lat="43.47609990241012" lon="11.426447524751602"><ele>465.0</ele><time>2026-03-29T13:39:19Z</time></trkpt><trkpt lat="43.47620197630893" lon="11.426383554412746"><ele>468.75</ele><time>2026-03-29T13:39:20Z</time></trkpt><trkpt lat="43.476298647631786" lon="11.426351600861242"><ele>472.5</ele><time>2026-03-29T13:39:21Z</time></trkpt><trkpt lat="43.476407185184826" lon="11.426335197946452"><ele>476.25</ele><time>2026-03-29T13:39:22Z</time></trkpt><trkpt lat="43.476524041622056" lon="11.42634852471064"><ele>480.0</ele><time>2026-03-29T13:39:23Z</time></trkpt><trkpt lat="43.476650369774156" lon="11.426369410841854"><ele>480.0</ele><time>2026-03-29T13:39:24Z</time></trkpt><trkpt lat="43.47679630960464" lon="11.426388373214898"><ele>480.0</ele><time>2026-03-29T13:39:25Z</time></trkpt><trkpt lat="43.47695507587417" lon="11.426411720527229"><ele>480.0</ele><time>2026-03-29T13:39:26Z</time></trkpt><trkpt lat="43.4770921181605" lon="11.426435356259294"><ele>480.0</ele><time>2026-03-29T13:39:27Z</time></trkpt><trkpt lat="43.47720834966779" lon="11.42645967400179"><ele>482.6</ele><time>2026-03-29T13:39:28Z</time></trkpt><trkpt lat="43.47732252007192" lon="11.426472513125423"><ele>485.2</ele><time>2026-03-29T13:39:29Z</time></trkpt><trkpt lat="43.47743187433293" lon="11.426469822766073"><ele>487.79999999999995</ele><time>2026-03-29T13:39:30Z</time></trkpt><trkpt lat="43.47752505776742" lon="11.426439435360717"><ele>490.4</ele><time>2026-03-29T13:39:31Z</time></trkpt><trkpt lat="43.477605276190474" lon="11.426380658623389"><ele>493.0</ele><time>2026-03-29T13:39:32Z</time></trkpt><trkpt lat="43.477671855838906" lon="11.426316126382776"><ele>494.79999999999995</ele><time>2026-03-29T13:39:33Z</time></trkpt><trkpt lat="43.47771690728324" lon="11.426230897762439"><ele>496.59999999999997</ele><time>2026-03-29T13:39:34Z</time></trkpt><trkpt lat="43.47773333204086" lon="11.426063990686567"><ele>498.40000000000003</ele><time>2026-03-29T13:39:36Z</time></trkpt><trkpt lat="43.47772616383527" lon="11.425965140079365"><ele>500.20000000000005</ele><time>2026-03-29T13:39:37Z</time></trkpt><trkpt lat="43.477722548165076" lon="11.42582361267676"><ele>502.0</ele><time>2026-03-29T13:39:38Z</time></trkpt><trkpt lat="43.47772385121287" lon="11.425672770967667"><ele>502.0</ele><time>2026-03-29T13:39:39Z</time></trkpt><trkpt lat="43.477723367748844" lon="11.425499355336298"><ele>502.0</ele><time>2026-03-29T13:39:40Z</time></trkpt><trkpt lat="43.477731185821206" lon="11.425330590792928"><ele>502.0</ele><time>2026-03-29T13:39:41Z</time></trkpt><trkpt lat="43.47778008842743" lon="11.425201884329152"><ele>502.0</ele><time>2026-03-29T13:39:42Z</time></trkpt><trkpt lat="43.477824775862004" lon="11.42508181168988"><ele>502.8</ele><time>2026-03-29T13:39:43Z</time></trkpt><trkpt lat="43.47787759637769" lon="11.42496247463592"><ele>503.6</ele><time>2026-03-29T13:39:44Z</time></trkpt><trkpt lat="43.477933049922406" lon="11.424848777029936"><ele>504.40000000000003</ele><time>2026-03-29T13:39:45Z</time></trkpt><trkpt lat="43.478013341142166" lon="11.42478777774867"><ele>505.20000000000005</ele><time>2026-03-29T13:39:46Z</time></trkpt><trkpt lat="43.47809109119007" lon="11.424738708139548"><ele>506.0</ele><time>2026-03-29T13:39:47Z</time></trkpt><trkpt lat="43.47817918002695" lon="11.424696999906766"><ele>509.20000000000005</ele><time>2026-03-29T13:39:48Z</time></trkpt><trkpt lat="43.47826460440948" lon="11.424614364402203"><ele>512.4000000000001</ele><time>2026-03-29T13:39:49Z</time></trkpt><trkpt lat="43.47835175088122" lon="11.42454881087958"><ele>515.6</ele><time>2026-03-29T13:39:50Z</time></trkpt><trkpt lat="43.47845238070106" lon="11.424502726790237"><ele>518.8000000000001</ele><time>2026-03-29T13:39:51Z</time></trkpt><trkpt lat="43.47854960738682" lon="11.424435504614321"><ele>522.0</ele><time>2026-03-29T13:39:52Z</time></trkpt><trkpt lat="43.4786460848188" lon="11.424368801999783"><ele>522.0</ele><time>2026-03-29T13:39:53Z</time></trkpt><trkpt lat="43.478739681028" lon="11.424278168654272"><ele>522.0</ele><time>2026-03-29T13:39:54Z</time></trkpt><trkpt lat="43.47883809264654" lon="11.424204677892902"><ele>522.0</ele><time>2026-03-29T13:39:55Z</time></trkpt><trkpt lat="43.47893947346382" lon="11.424115335629988"><ele>522.0</ele><time>2026-03-29T13:39:56Z</time></trkpt><trkpt lat="43.4790340443645" lon="11.424002290360695"><ele>523.5</ele><time>2026-03-29T13:39:57Z</time></trkpt><trkpt lat="43.47912241599328" lon="11.423878558050921"><ele>525.0</ele><time>2026-03-29T13:39:58Z</time></trkpt><trkpt lat="43.4792065374749" lon="11.423743721449076"><ele>526.5</ele><time>2026-03-29T13:39:59Z</time></trkpt><trkpt lat="43.479290882327604" lon="11.423605857964402"><ele>528.0</ele><time>2026-03-29T13:40:00Z</time></trkpt><trkpt lat="43.47937209710454" lon="11.423456330755057"><ele>527.5</ele><time>2026-03-29T13:40:01Z</time></trkpt><trkpt lat="43.47943211133993" lon="11.42331769156992"><ele>527.0</ele><time>2026-03-29T13:40:02Z</time></trkpt><trkpt lat="43.4794981820168" lon="11.423192102105961"><ele>526.5</ele><time>2026-03-29T13:40:03Z</time></trkpt><trkpt lat="43.4795807059022" lon="11.423095161553059"><ele>526.0</ele><time>2026-03-29T13:40:04Z</time></trkpt><trkpt lat="43.47966216150538" lon="11.422988530628734"><ele>527.4</ele><time>2026-03-29T13:40:05Z</time></trkpt><trkpt lat="43.479744782721745" lon="11.422886611498898"><ele>528.8</ele><time>2026-03-29T13:40:06Z</time></trkpt><trkpt lat="43.479830499773115" lon="11.422781378262709"><ele>530.1999999999999</ele><time>2026-03-29T13:40:07Z</time></trkpt><trkpt lat="43.47990262891364" lon="11.422695727616222"><ele>531.6</ele><time>2026-03-29T13:40:08Z</time></trkpt><trkpt lat="43.47998193598771" lon="11.422586226794518"><ele>533.0</ele><time>2026-03-29T13:40:09Z</time></trkpt><trkpt lat="43.480069565308725" lon="11.422500776670008"><ele>533.0</ele><time>2026-03-29T13:40:10Z</time></trkpt><trkpt lat="43.480142623678184" lon="11.422419965182078"><ele>533.0</ele><time>2026-03-29T13:40:11Z</time></trkpt><trkpt lat="43.48021098929491" lon="11.422350646935804"><ele>533.0</ele><time>2026-03-29T13:40:12Z</time></trkpt><trkpt lat="43.480278907171595" lon="11.422280312676852"><ele>533.0</ele><time>2026-03-29T13:40:13Z</time></trkpt><trkpt lat="43.480356149346505" lon="11.422221098298929"><ele>533.0</ele><time>2026-03-29T13:40:14Z</time></trkpt><trkpt lat="43.48044580336392" lon="11.422164400019765"><ele>534.25</ele><time>2026-03-29T13:40:15Z</time></trkpt><trkpt lat="43.48053574055953" lon="11.422074754049707"><ele>535.5</ele><time>2026-03-29T13:40:16Z</time></trkpt><trkpt lat="43.48065123470231" lon="11.42199261108052"><ele>536.75</ele><time>2026-03-29T13:40:17Z</time></trkpt><trkpt lat="43.48077588346952" lon="11.421908574324421"><ele>538.0</ele><time>2026-03-29T13:40:18Z</time></trkpt><trkpt lat="43.48090335949771" lon="11.421807020555406"><ele>538.0</ele><time>2026-03-29T13:40:19Z</time></trkpt><trkpt lat="43.48103018923169" lon="11.421703030820476"><ele>538.0</ele><time>2026-03-29T13:40:20Z</time></trkpt><trkpt lat="43.48115302236211" lon="11.421597350087604"><ele>538.0</ele><time>2026-03-29T13:40:21Z</time></trkpt><trkpt lat="43.48126728063402" lon="11.421492815125497"><ele>538.0</ele><time>2026-03-29T13:40:22Z</time></trkpt><trkpt lat="43.481388386029536" lon="11.421388935028178"><ele>537.75</ele><time>2026-03-29T13:40:23Z</time></trkpt><trkpt lat="43.48151508368138" lon="11.42129002871997"><ele>537.5</ele><time>2026-03-29T13:40:24Z</time></trkpt><trkpt lat="43.4816467471883" lon="11.421190124360093"><ele>537.25</ele><time>2026-03-29T13:40:25Z</time></trkpt><trkpt lat="43.48177602369921" lon="11.4210941898589"><ele>537.0</ele><time>2026-03-29T13:40:26Z</time></trkpt><trkpt lat="43.48190473431248" lon="11.42100110087366"><ele>537.0</ele><time>2026-03-29T13:40:27Z</time></trkpt><trkpt lat="43.482031133171105" lon="11.420903184132221"><ele>537.0</ele><time>2026-03-29T13:40:28Z</time></trkpt><trkpt lat="43.48213933166852" lon="11.420814402664133"><ele>537.0</ele><time>2026-03-29T13:40:29Z</time></trkpt><trkpt lat="43.48223554926761" lon="11.420750294383424"><ele>537.0</ele><time>2026-03-29T13:40:30Z</time></trkpt><trkpt lat="43.4823145925853" lon="11.420699920731268"><ele>536.8000000000001</ele><time>2026-03-29T13:40:31Z</time></trkpt><trkpt lat="43.48239358825772" lon="11.420640238678864"><ele>536.6</ele><time>2026-03-29T13:40:32Z</time></trkpt><trkpt lat="43.482472749937635" lon="11.420578477492963"><ele>536.4000000000001</ele><time>2026-03-29T13:40:33Z</time></trkpt><trkpt lat="43.48255715954788" lon="11.420522735573503"><ele>536.2</ele><time>2026-03-29T13:40:34Z</time></trkpt><trkpt lat="43.48264444158482" lon="11.42045766767157"><ele>536.0</ele><time>2026-03-29T13:40:35Z</time></trkpt><trkpt lat="43.48275213327002" lon="11.420389529715633"><ele>536.0</ele><time>2026-03-29T13:40:36Z</time></trkpt><trkpt lat="43.48287273569258" lon="11.42030595467489"><ele>536.0</ele><time>2026-03-29T13:40:37Z</time></trkpt><trkpt lat="43.48300524203189" lon="11.420217795098122"><ele>536.0</ele><time>2026-03-29T13:40:38Z</time></trkpt><trkpt lat="43.48314610349313" lon="11.420118738964174"><ele>536.0</ele><time>2026-03-29T13:40:39Z</time></trkpt><trkpt lat="43.48330085486479" lon="11.42001482197817"><ele>538.25</ele><time>2026-03-29T13:40:40Z</time></trkpt><trkpt lat="43.483454440127105" lon="11.419907726319792"><ele>540.5</ele><time>2026-03-29T13:40:41Z</time></trkpt><trkpt lat="43.48358778890385" lon="11.419824226877846"><ele>542.75</ele><time>2026-03-29T13:40:42Z</time></trkpt><trkpt lat="43.4837026057321" lon="11.419748694946229"><ele>545.0</ele><time>2026-03-29T13:40:43Z</time></trkpt><trkpt lat="43.48380743407076" lon="11.419678520253461"><ele>545.6</ele><time>2026-03-29T13:40:44Z</time></trkpt><trkpt lat="43.48390847849446" lon="11.4196163041892"><ele>546.2</ele><time>2026-03-29T13:40:45Z</time></trkpt><trkpt lat="43.48400574502825" lon="11.419563968626516"><ele>546.8</ele><time>2026-03-29T13:40:46Z</time></trkpt><trkpt lat="43.48409362459455" lon="11.419518145537115"><ele>547.4</ele><time>2026-03-29T13:40:47Z</time></trkpt><trkpt lat="43.484167092649365" lon="11.419477617879057"><ele>548.0</ele><time>2026-03-29T13:40:48Z</time></trkpt><trkpt lat="43.484234339026116" lon="11.419478110815625"><ele>548.0</ele><time>2026-03-29T13:40:49Z</time></trkpt><trkpt lat="43.484322332031795" lon="11.41945318418409"><ele>548.0</ele><time>2026-03-29T13:40:51Z</time></trkpt><trkpt lat="43.48431019262536" lon="11.419224425650366"><ele>548.0</ele><time>2026-03-29T13:40:53Z</time></trkpt><trkpt lat="43.484301643058636" lon="11.419123055316632"><ele>548.0</ele><time>2026-03-29T13:40:54Z</time></trkpt><trkpt lat="43.48428254431777" lon="11.41898642296576"><ele>548.0</ele><time>2026-03-29T13:40:55Z</time></trkpt><trkpt lat="43.48427417025764" lon="11.418832160837978"><ele>548.25</ele><time>2026-03-29T13:40:56Z</time></trkpt><trkpt lat="43.48426421653991" lon="11.418660988987307"><ele>548.5</ele><time>2026-03-29T13:40:57Z</time></trkpt><trkpt lat="43.484251976913775" lon="11.418467231828114"><ele>548.75</ele><time>2026-03-29T13:40:58Z</time></trkpt><trkpt lat="43.484237896760376" lon="11.418260111347296"><ele>549.0</ele><time>2026-03-29T13:40:59Z</time></trkpt><trkpt lat="43.48422254481777" lon="11.41808119379785"><ele>548.8</ele><time>2026-03-29T13:41:00Z</time></trkpt><trkpt lat="43.48420951067654" lon="11.417920675171748"><ele>548.5999999999999</ele><time>2026-03-29T13:41:01Z</time></trkpt><trkpt lat="43.48419357006926" lon="11.417766691828636"><ele>548.4</ele><time>2026-03-29T13:41:02Z</time></trkpt><trkpt lat="43.48417979985609" lon="11.417624282409516"><ele>548.1999999999999</ele><time>2026-03-29T13:41:03Z</time></trkpt><trkpt lat="43.484171348653675" lon="11.417488738051553"><ele>548.0</ele><time>2026-03-29T13:41:04Z</time></trkpt><trkpt lat="43.484144696807505" lon="11.417363356762861"><ele>548.0</ele><time>2026-03-29T13:41:05Z</time></trkpt><trkpt lat="43.484105305961606" lon="11.417239786385574"><ele>548.0</ele><time>2026-03-29T13:41:06Z</time></trkpt><trkpt lat="43.484067353925234" lon="11.417105837548956"><ele>548.0</ele><time>2026-03-29T13:41:07Z</time></trkpt><trkpt lat="43.48401782873543" lon="11.416986726708183"><ele>548.0</ele><time>2026-03-29T13:41:08Z</time></trkpt><trkpt lat="43.48395276746963" lon="11.416877096917208"><ele>548.0</ele><time>2026-03-29T13:41:09Z</time></trkpt><trkpt lat="43.483914948158706" lon="11.416737535527163"><ele>547.75</ele><time>2026-03-29T13:41:10Z</time></trkpt><trkpt lat="43.48386850514052" lon="11.41660058477344"><ele>547.5</ele><time>2026-03-29T13:41:11Z</time></trkpt><trkpt lat="43.48379053112988" lon="11.416468037766789"><ele>547.25</ele><time>2026-03-29T13:41:12Z</time></trkpt><trkpt lat="43.483694675530316" lon="11.416332294292099"><ele>547.0</ele><time>2026-03-29T13:41:13Z</time></trkpt><trkpt lat="43.48363735152285" lon="11.416168931676387"><ele>549.6</ele><time>2026-03-29T13:41:14Z</time></trkpt><trkpt lat="43.483567721895035" lon="11.416038411753991"><ele>552.2</ele><time>2026-03-29T13:41:15Z</time></trkpt><trkpt lat="43.48351535364259" lon="11.415906332202082"><ele>554.8</ele><time>2026-03-29T13:41:16Z</time></trkpt><trkpt lat="43.48346622251663" lon="11.415811330005738"><ele>557.4</ele><time>2026-03-29T13:41:17Z</time></trkpt><trkpt lat="43.48340453934572" lon="11.415748036896982"><ele>560.0</ele><time>2026-03-29T13:41:18Z</time></trkpt><trkpt lat="43.483334681012735" lon="11.41569589449868"><ele>560.0</ele><time>2026-03-29T13:41:19Z</time></trkpt><trkpt lat="43.48326905809955" lon="11.415636030937325"><ele>560.0</ele><time>2026-03-29T13:41:20Z</time></trkpt><trkpt lat="43.483205744484096" lon="11.415527938488664"><ele>560.0</ele><time>2026-03-29T13:41:21Z</time></trkpt><trkpt lat="43.48312450938904" lon="11.41542897791345"><ele>560.0</ele><time>2026-03-29T13:41:22Z</time></trkpt><trkpt lat="43.48303847368728" lon="11.41532603726745"><ele>560.0</ele><time>2026-03-29T13:41:23Z</time></trkpt><trkpt lat="43.482944568173366" lon="11.415218812686131"><ele>561.75</ele><time>2026-03-29T13:41:24Z</time></trkpt><trkpt lat="43.48284374913956" lon="11.415114653524014"><ele>563.5</ele><time>2026-03-29T13:41:25Z</time></trkpt><trkpt lat="43.4827469014976" lon="11.415020399046572"><ele>565.25</ele><time>2026-03-29T13:41:26Z</time></trkpt><trkpt lat="43.4826620072182" lon="11.414939707626047"><ele>567.0</ele><time>2026-03-29T13:41:27Z</time></trkpt><trkpt lat="43.482574784949236" lon="11.414856803710682"><ele>567.0</ele><time>2026-03-29T13:41:28Z</time></trkpt><trkpt lat="43.482483244304056" lon="11.414769977178375"><ele>567.0</ele><time>2026-03-29T13:41:29Z</time></trkpt><trkpt lat="43.48238973142977" lon="11.414683700926126"><ele>567.0</ele><time>2026-03-29T13:41:30Z</time></trkpt><trkpt lat="43.482294253431206" lon="11.414595611607576"><ele>567.0</ele><time>2026-03-29T13:41:31Z</time></trkpt><trkpt lat="43.48220337410343" lon="11.414507732470852"><ele>568.2</ele><time>2026-03-29T13:41:32Z</time></trkpt><trkpt lat="43.48212037347826" lon="11.414423559975052"><ele>569.4000000000001</ele><time>2026-03-29T13:41:33Z</time></trkpt><trkpt lat="43.48205592595995" lon="11.414351809017699"><ele>570.5999999999999</ele><time>2026-03-29T13:41:34Z</time></trkpt><trkpt lat="43.48197907922785" lon="11.41420668128342"><ele>571.8</ele><time>2026-03-29T13:41:36Z</time></trkpt><trkpt lat="43.48195201377928" lon="11.41409907420848"><ele>573.0</ele><time>2026-03-29T13:41:37Z</time></trkpt><trkpt lat="43.48192541326979" lon="11.413961215728627"><ele>575.0</ele><time>2026-03-29T13:41:38Z</time></trkpt><trkpt lat="43.48189744085868" lon="11.413809044061555"><ele>577.0</ele><time>2026-03-29T13:41:39Z</time></trkpt><trkpt lat="43.48185717213679" lon="11.413652968850913"><ele>579.0</ele><time>2026-03-29T13:41:40Z</time></trkpt><trkpt lat="43.48183851160237" lon="11.413492864119432"><ele>581.0</ele><time>2026-03-29T13:41:41Z</time></trkpt><trkpt lat="43.48181486262707" lon="11.413334107823868"><ele>581.0</ele><time>2026-03-29T13:41:42Z</time></trkpt><trkpt lat="43.4817809591771" lon="11.413150407285524"><ele>581.0</ele><time>2026-03-29T13:41:43Z</time></trkpt><trkpt lat="43.481740522239896" lon="11.41295816217207"><ele>581.0</ele><time>2026-03-29T13:41:44Z</time></trkpt><trkpt lat="43.48169885409057" lon="11.412794121364122"><ele>581.0</ele><time>2026-03-29T13:41:45Z</time></trkpt><trkpt lat="43.48168295836839" lon="11.412629966536487"><ele>581.4</ele><time>2026-03-29T13:41:46Z</time></trkpt><trkpt lat="43.481666443916474" lon="11.412478207878474"><ele>581.8</ele><time>2026-03-29T13:41:47Z</time></trkpt><trkpt lat="43.481643338594296" lon="11.41232915049997"><ele>582.1999999999999</ele><time>2026-03-29T13:41:48Z</time></trkpt><trkpt lat="43.48164248939432" lon="11.412177286724495"><ele>582.6</ele><time>2026-03-29T13:41:49Z</time></trkpt><trkpt lat="43.48164487017979" lon="11.412043394152892"><ele>583.0</ele><time>2026-03-29T13:41:50Z</time></trkpt><trkpt lat="43.48162961887274" lon="11.411912519821072"><ele>583.0</ele><time>2026-03-29T13:41:51Z</time></trkpt><trkpt lat="43.48160266230092" lon="11.411774946391692"><ele>583.0</ele><time>2026-03-29T13:41:52Z</time></trkpt><trkpt lat="43.48155080471561" lon="11.41163200964216"><ele>583.0</ele><time>2026-03-29T13:41:53Z</time></trkpt><trkpt lat="43.481484603919874" lon="11.41148134717627"><ele>583.0</ele><time>2026-03-29T13:41:54Z</time></trkpt><trkpt lat="43.481422604888884" lon="11.411311705502904"><ele>582.0</ele><time>2026-03-29T13:41:55Z</time></trkpt><trkpt lat="43.48139608021492" lon="11.411129267247606"><ele>581.0</ele><time>2026-03-29T13:41:56Z</time></trkpt><trkpt lat="43.481374258097865" lon="11.410941085899537"><ele>580.0</ele><time>2026-03-29T13:41:57Z</time></trkpt><trkpt lat="43.48134162370925" lon="11.410732473771056"><ele>579.0</ele><time>2026-03-29T13:41:58Z</time></trkpt><trkpt lat="43.48134198913351" lon="11.41053844767174"><ele>580.0</ele><time>2026-03-29T13:41:59Z</time></trkpt><trkpt lat="43.48135472961471" lon="11.410362211302962"><ele>581.0</ele><time>2026-03-29T13:42:00Z</time></trkpt><trkpt lat="43.481379588177575" lon="11.41019004525085"><ele>582.0</ele><time>2026-03-29T13:42:01Z</time></trkpt><trkpt lat="43.481411914135755" lon="11.410012242527825"><ele>583.0</ele><time>2026-03-29T13:42:02Z</time></trkpt><trkpt lat="43.481453060415014" lon="11.409830953058572"><ele>583.25</ele><time>2026-03-29T13:42:03Z</time></trkpt><trkpt lat="43.481502474298274" lon="11.40965133025625"><ele>583.5</ele><time>2026-03-29T13:42:04Z</time></trkpt><trkpt lat="43.48155098177652" lon="11.409473339597806"><ele>583.75</ele><time>2026-03-29T13:42:05Z</time></trkpt><trkpt lat="43.481600252224474" lon="11.40930932162388"><ele>584.0</ele><time>2026-03-29T13:42:06Z</time></trkpt><trkpt lat="43.48164808767287" lon="11.409162673978422"><ele>584.0</ele><time>2026-03-29T13:42:07Z</time></trkpt><trkpt lat="43.48169737873641" lon="11.409011739857318"><ele>584.0</ele><time>2026-03-29T13:42:08Z</time></trkpt><trkpt lat="43.481743463662184" lon="11.408869269370486"><ele>584.0</ele><time>2026-03-29T13:42:09Z</time></trkpt><trkpt lat="43.481790240572735" lon="11.408733443644671"><ele>584.0</ele><time>2026-03-29T13:42:10Z</time></trkpt><trkpt lat="43.48183889403613" lon="11.408607560780498"><ele>584.0</ele><time>2026-03-29T13:42:11Z</time></trkpt><trkpt lat="43.48189417500316" lon="11.408490804209753"><ele>582.6666666666666</ele><time>2026-03-29T13:42:12Z</time></trkpt><trkpt lat="43.48195184708931" lon="11.408386251813084"><ele>581.3333333333333</ele><time>2026-03-29T13:42:13Z</time></trkpt><trkpt lat="43.482010307337184" lon="11.408292022119397"><ele>580.0</ele><time>2026-03-29T13:42:14Z</time></trkpt><trkpt lat="43.48206705223176" lon="11.408218557570287"><ele>578.6666666666666</ele><time>2026-03-29T13:42:15Z</time></trkpt><trkpt lat="43.48213070664668" lon="11.408147531061287"><ele>577.3333333333334</ele><time>2026-03-29T13:42:16Z</time></trkpt><trkpt lat="43.482182538998124" lon="11.408060163669754"><ele>576.0</ele><time>2026-03-29T13:42:17Z</time></trkpt><trkpt lat="43.48223426970064" lon="11.407961736433299"><ele>574.5</ele><time>2026-03-29T13:42:18Z</time></trkpt><trkpt lat="43.482279140592965" lon="11.40786668433924"><ele>573.0</ele><time>2026-03-29T13:42:19Z</time></trkpt><trkpt lat="43.48232488080559" lon="11.407764209384036"><ele>571.5</ele><time>2026-03-29T13:42:20Z</time></trkpt><trkpt lat="43.48237504430884" lon="11.407662402152281"><ele>570.0</ele><time>2026-03-29T13:42:21Z</time></trkpt><trkpt lat="43.482409951110405" lon="11.407557588050025"><ele>568.5</ele><time>2026-03-29T13:42:22Z</time></trkpt><trkpt lat="43.48243891293013" lon="11.407429857372957"><ele>567.0</ele><time>2026-03-29T13:42:23Z</time></trkpt><trkpt lat="43.48245991102925" lon="11.407307224896634"><ele>567.0</ele><time>2026-03-29T13:42:24Z</time></trkpt><trkpt lat="43.48248607370302" lon="11.407186567620233"><ele>567.0</ele><time>2026-03-29T13:42:25Z</time></trkpt><trkpt lat="43.482530772817576" lon="11.407083085989424"><ele>567.0</ele><time>2026-03-29T13:42:26Z</time></trkpt><trkpt lat="43.48258264010766" lon="11.406986934059422"><ele>567.0</ele><time>2026-03-29T13:42:27Z</time></trkpt><trkpt lat="43.48265917749416" lon="11.406942374953404"><ele>567.0</ele><time>2026-03-29T13:42:28Z</time></trkpt><trkpt lat="43.48272486161534" lon="11.406871239939795"><ele>567.0</ele><time>2026-03-29T13:42:29Z</time></trkpt><trkpt lat="43.48278953205752" lon="11.40682224947467"><ele>566.4</ele><time>2026-03-29T13:42:30Z</time></trkpt><trkpt lat="43.48281889939108" lon="11.406735308602089"><ele>565.8000000000001</ele><time>2026-03-29T13:42:31Z</time></trkpt><trkpt lat="43.4828203255336" lon="11.406637694424283"><ele>565.2</ele><time>2026-03-29T13:42:32Z</time></trkpt><trkpt lat="43.48279980567082" lon="11.406525864786497"><ele>564.6</ele><time>2026-03-29T13:42:33Z</time></trkpt><trkpt lat="43.482775333778214" lon="11.406381146247817"><ele>564.0</ele><time>2026-03-29T13:42:34Z</time></trkpt><trkpt lat="43.48274939954837" lon="11.406219610638086"><ele>562.6</ele><time>2026-03-29T13:42:35Z</time></trkpt><trkpt lat="43.482733845382896" lon="11.406076022045886"><ele>561.2</ele><time>2026-03-29T13:42:36Z</time></trkpt><trkpt lat="43.48271571660109" lon="11.40592292519918"><ele>559.8000000000001</ele><time>2026-03-29T13:42:37Z</time></trkpt><trkpt lat="43.48269718495436" lon="11.4057812545072"><ele>558.4</ele><time>2026-03-29T13:42:38Z</time></trkpt><trkpt lat="43.4826792065692" lon="11.405636451458522"><ele>557.0</ele><time>2026-03-29T13:42:39Z</time></trkpt><trkpt lat="43.482667263113576" lon="11.405497850582922"><ele>554.6666666666666</ele><time>2026-03-29T13:42:40Z</time></trkpt><trkpt lat="43.48265973517325" lon="11.40539681093736"><ele>552.3333333333333</ele><time>2026-03-29T13:42:41Z</time></trkpt><trkpt lat="43.48263951213644" lon="11.405310402797722"><ele>550.0</ele><time>2026-03-29T13:42:42Z</time></trkpt><trkpt lat="43.482563996363204" lon="11.405176160579131"><ele>547.6666666666666</ele><time>2026-03-29T13:42:44Z</time></trkpt><trkpt lat="43.482489883893145" lon="11.405149296008952"><ele>545.3333333333334</ele><time>2026-03-29T13:42:45Z</time></trkpt><trkpt lat="43.48243192674014" lon="11.405082431707552"><ele>543.0</ele><time>2026-03-29T13:42:46Z</time></trkpt><trkpt lat="43.48236906801543" lon="11.405032816617224"><ele>543.0</ele><time>2026-03-29T13:42:47Z</time></trkpt><trkpt lat="43.48229911731821" lon="11.404979466031302"><ele>543.0</ele><time>2026-03-29T13:42:48Z</time></trkpt><trkpt lat="43.48222411507954" lon="11.404922262279397"><ele>543.0</ele><time>2026-03-29T13:42:49Z</time></trkpt><trkpt lat="43.482149816526196" lon="11.404867532134862"><ele>543.0</ele><time>2026-03-29T13:42:50Z</time></trkpt><trkpt lat="43.482070812090505" lon="11.404810112521387"><ele>543.0</ele><time>2026-03-29T13:42:51Z</time></trkpt><trkpt lat="43.481994303499384" lon="11.404756685441855"><ele>543.0</ele><time>2026-03-29T13:42:52Z</time></trkpt><trkpt lat="43.48191198439458" lon="11.404702926285264"><ele>539.4</ele><time>2026-03-29T13:42:53Z</time></trkpt><trkpt lat="43.48182230472849" lon="11.404648608713273"><ele>535.8</ele><time>2026-03-29T13:42:54Z</time></trkpt><trkpt lat="43.48170560084302" lon="11.404577923202492"><ele>532.2</ele><time>2026-03-29T13:42:55Z</time></trkpt><trkpt lat="43.48162473044221" lon="11.404543324235814"><ele>528.6</ele><time>2026-03-29T13:42:56Z</time></trkpt><trkpt lat="43.481546041026625" lon="11.404486852554157"><ele>525.0</ele><time>2026-03-29T13:42:57Z</time></trkpt><trkpt lat="43.481487775017285" lon="11.404400379015563"><ele>525.0</ele><time>2026-03-29T13:42:58Z</time></trkpt><trkpt lat="43.48143069304681" lon="11.404346122305109"><ele>525.0</ele><time>2026-03-29T13:42:59Z</time></trkpt><trkpt lat="43.48137445512897" lon="11.40429834790571"><ele>525.0</ele><time>2026-03-29T13:43:00Z</time></trkpt><trkpt lat="43.48131653306044" lon="11.404249142588716"><ele>525.0</ele><time>2026-03-29T13:43:01Z</time></trkpt><trkpt lat="43.48125064276444" lon="11.404197049798613"><ele>525.0</ele><time>2026-03-29T13:43:02Z</time></trkpt><trkpt lat="43.48118862714369" lon="11.404154312126575"><ele>525.0</ele><time>2026-03-29T13:43:03Z</time></trkpt><trkpt lat="43.48111334146016" lon="11.404116275080803"><ele>525.0</ele><time>2026-03-29T13:43:04Z</time></trkpt><trkpt lat="43.48104617270236" lon="11.40408354557304"><ele>524.6666666666666</ele><time>2026-03-29T13:43:05Z</time></trkpt><trkpt lat="43.480981203018025" lon="11.404044170710137"><ele>524.3333333333334</ele><time>2026-03-29T13:43:06Z</time></trkpt><trkpt lat="43.48090697304265" lon="11.403951329290287"><ele>524.0</ele><time>2026-03-29T13:43:08Z</time></trkpt><trkpt lat="43.48089059021211" lon="11.40384508746302"><ele>523.6666666666667</ele><time>2026-03-29T13:43:10Z</time></trkpt><trkpt lat="43.4809264151735" lon="11.403734475338382"><ele>523.3333333333334</ele><time>2026-03-29T13:43:12Z</time></trkpt><trkpt lat="43.480946819367695" lon="11.403635220771774"><ele>523.0</ele><time>2026-03-29T13:43:14Z</time></trkpt><trkpt lat="43.48098483522553" lon="11.4035381330878"><ele>521.8</ele><time>2026-03-29T13:43:16Z</time></trkpt><trkpt lat="43.481058486975634" lon="11.403452352336647"><ele>520.5999999999999</ele><time>2026-03-29T13:43:18Z</time></trkpt><trkpt lat="43.481147588208096" lon="11.403396641603372"><ele>519.4000000000001</ele><time>2026-03-29T13:43:20Z</time></trkpt><trkpt lat="43.481271326838616" lon="11.403347505919166"><ele>518.2</ele><time>2026-03-29T13:43:22Z</time></trkpt><trkpt lat="43.48134215462472" lon="11.403335491819655"><ele>517.0</ele><time>2026-03-29T13:43:23Z</time></trkpt><trkpt lat="43.48143932469932" lon="11.403308753208913"><ele>515.75</ele><time>2026-03-29T13:43:24Z</time></trkpt><trkpt lat="43.48156954690929" lon="11.40327903622546"><ele>514.5</ele><time>2026-03-29T13:43:25Z</time></trkpt><trkpt lat="43.4817086276583" lon="11.403238233886139"><ele>513.25</ele><time>2026-03-29T13:43:26Z</time></trkpt><trkpt lat="43.48186021634275" lon="11.40319220769966"><ele>512.0</ele><time>2026-03-29T13:43:27Z</time></trkpt><trkpt lat="43.48199790235448" lon="11.40316292349784"><ele>512.75</ele><time>2026-03-29T13:43:28Z</time></trkpt><trkpt lat="43.48210444750636" lon="11.403136804082472"><ele>513.5</ele><time>2026-03-29T13:43:29Z</time></trkpt><trkpt lat="43.482222349578706" lon="11.403110111653916"><ele>514.25</ele><time>2026-03-29T13:43:30Z</time></trkpt><trkpt lat="43.482339998166054" lon="11.403091879786862"><ele>515.0</ele><time>2026-03-29T13:43:31Z</time></trkpt><trkpt lat="43.48245481007486" lon="11.403057426487925"><ele>515.0</ele><time>2026-03-29T13:43:32Z</time></trkpt><trkpt lat="43.4825678978175" lon="11.403034833748238"><ele>515.0</ele><time>2026-03-29T13:43:33Z</time></trkpt><trkpt lat="43.482679385840875" lon="11.403000397657479"><ele>515.0</ele><time>2026-03-29T13:43:34Z</time></trkpt><trkpt lat="43.48278606896441" lon="11.402978891387045"><ele>515.0</ele><time>2026-03-29T13:43:35Z</time></trkpt><trkpt lat="43.482892943330604" lon="11.402957078271777"><ele>515.0</ele><time>2026-03-29T13:43:36Z</time></trkpt><trkpt lat="43.483003728576605" lon="11.402927556009775"><ele>510.6</ele><time>2026-03-29T13:43:37Z</time></trkpt><trkpt lat="43.48311424108491" lon="11.402884633187915"><ele>506.2</ele><time>2026-03-29T13:43:38Z</time></trkpt><trkpt lat="43.4832232762836" lon="11.402850937215259"><ele>501.79999999999995</ele><time>2026-03-29T13:43:39Z</time></trkpt><trkpt lat="43.483335391337036" lon="11.402829059969275"><ele>497.4</ele><time>2026-03-29T13:43:40Z</time></trkpt><trkpt lat="43.48343262192063" lon="11.402818766246742"><ele>493.0</ele><time>2026-03-29T13:43:41Z</time></trkpt><trkpt lat="43.4835335485366" lon="11.402829309630713"><ele>493.0</ele><time>2026-03-29T13:43:42Z</time></trkpt><trkpt lat="43.483625982416314" lon="11.4028608900982"><ele>492.99999999999994</ele><time>2026-03-29T13:43:43Z</time></trkpt><trkpt lat="43.483701968379975" lon="11.402936481796809"><ele>492.99999999999994</ele><time>2026-03-29T13:43:44Z</time></trkpt><trkpt lat="43.48374982335855" lon="11.403058583495966"><ele>493.0</ele><time>2026-03-29T13:43:45Z</time></trkpt><trkpt lat="43.4838084117076" lon="11.403160808768964"><ele>493.0</ele><time>2026-03-29T13:43:46Z</time></trkpt><trkpt lat="43.48387504934738" lon="11.403303443565136"><ele>492.0</ele><time>2026-03-29T13:43:47Z</time></trkpt><trkpt lat="43.48396306599463" lon="11.403451339869108"><ele>491.0</ele><time>2026-03-29T13:43:48Z</time></trkpt><trkpt lat="43.484052939533164" lon="11.40358007731816"><ele>490.0</ele><time>2026-03-29T13:43:49Z</time></trkpt><trkpt lat="43.48412825116808" lon="11.403695153547943"><ele>489.0</ele><time>2026-03-29T13:43:50Z</time></trkpt><trkpt lat="43.484201033620614" lon="11.403805753094437"><ele>490.6</ele><time>2026-03-29T13:43:51Z</time></trkpt><trkpt lat="43.484258568988594" lon="11.403916369729064"><ele>492.2</ele><time>2026-03-29T13:43:52Z</time></trkpt><trkpt lat="43.484296253423096" lon="11.403997086734426"><ele>493.80000000000007</ele><time>2026-03-29T13:43:53Z</time></trkpt><trkpt lat="43.484321587601194" lon="11.40416724554226"><ele>495.40000000000003</ele><time>2026-03-29T13:43:55Z</time></trkpt><trkpt lat="43.48433491426615" lon="11.404311255284581"><ele>497.0</ele><time>2026-03-29T13:43:56Z</time></trkpt><trkpt lat="43.48437081373621" lon="11.40442923383705"><ele>497.0</ele><time>2026-03-29T13:43:57Z</time></trkpt><trkpt lat="43.48443684806421" lon="11.404542035454241"><ele>497.00000000000006</ele><time>2026-03-29T13:43:58Z</time></trkpt><trkpt lat="43.484523150117354" lon="11.404612806984785"><ele>497.00000000000006</ele><time>2026-03-29T13:43:59Z</time></trkpt><trkpt lat="43.48460134935719" lon="11.404681399865046"><ele>497.0</ele><time>2026-03-29T13:44:00Z</time></trkpt><trkpt lat="43.48467855259892" lon="11.404776324527619"><ele>497.0</ele><time>2026-03-29T13:44:01Z</time></trkpt><trkpt lat="43.48473610445224" lon="11.404902368029399"><ele>492.8</ele><time>2026-03-29T13:44:02Z</time></trkpt><trkpt lat="43.48479192644372" lon="11.405020927333386"><ele>488.6</ele><time>2026-03-29T13:44:03Z</time></trkpt><trkpt lat="43.48485615470476" lon="11.40513398758558"><ele>484.40000000000003</ele><time>2026-03-29T13:44:04Z</time></trkpt><trkpt lat="43.484917746465776" lon="11.405228498493612"><ele>480.20000000000005</ele><time>2026-03-29T13:44:05Z</time></trkpt><trkpt lat="43.48495507739386" lon="11.405323622110176"><ele>476.0</ele><time>2026-03-29T13:44:06Z</time></trkpt><trkpt lat="43.48497385068432" lon="11.405442097930337"><ele>476.8</ele><time>2026-03-29T13:44:07Z</time></trkpt><trkpt lat="43.48497304877384" lon="11.405548037400555"><ele>477.6</ele><time>2026-03-29T13:44:08Z</time></trkpt><trkpt lat="43.48496887143008" lon="11.405691574731316"><ele>478.4</ele><time>2026-03-29T13:44:09Z</time></trkpt><trkpt lat="43.48496095451378" lon="11.405836082383416"><ele>479.2</ele><time>2026-03-29T13:44:10Z</time></trkpt><trkpt lat="43.484967071003844" lon="11.405973203452483"><ele>480.0</ele><time>2026-03-29T13:44:11Z</time></trkpt><trkpt lat="43.485003863553146" lon="11.406105593231763"><ele>480.0</ele><time>2026-03-29T13:44:12Z</time></trkpt><trkpt lat="43.485069480080725" lon="11.406224724974361"><ele>480.0</ele><time>2026-03-29T13:44:13Z</time></trkpt><trkpt lat="43.48515607883592" lon="11.406335221721159"><ele>480.0</ele><time>2026-03-29T13:44:14Z</time></trkpt><trkpt lat="43.48520137862005" lon="11.406450362204726"><ele>480.0</ele><time>2026-03-29T13:44:15Z</time></trkpt><trkpt lat="43.48523754120171" lon="11.406572932681877"><ele>480.0</ele><time>2026-03-29T13:44:16Z</time></trkpt><trkpt lat="43.485259571257" lon="11.406704539359286"><ele>480.8333333333333</ele><time>2026-03-29T13:44:17Z</time></trkpt><trkpt lat="43.48526056329225" lon="11.406854550372286"><ele>481.66666666666663</ele><time>2026-03-29T13:44:18Z</time></trkpt><trkpt lat="43.48526983107495" lon="11.406954336562647"><ele>482.5</ele><time>2026-03-29T13:44:19Z</time></trkpt><trkpt lat="43.485303535410615" lon="11.407055843231747"><ele>483.3333333333333</ele><time>2026-03-29T13:44:20Z</time></trkpt><trkpt lat="43.48537462483628" lon="11.407120406946616"><ele>484.16666666666663</ele><time>2026-03-29T13:44:21Z</time></trkpt><trkpt lat="43.48545772758106" lon="11.40712830944691"><ele>485.0</ele><time>2026-03-29T13:44:22Z</time></trkpt><trkpt lat="43.48554283149004" lon="11.407123982969317"><ele>483.2</ele><time>2026-03-29T13:44:23Z</time></trkpt><trkpt lat="43.48562451306812" lon="11.407153929199817"><ele>481.4</ele><time>2026-03-29T13:44:24Z</time></trkpt><trkpt lat="43.48567977329611" lon="11.407198103779354"><ele>479.6</ele><time>2026-03-29T13:44:25Z</time></trkpt><trkpt lat="43.485721415214044" lon="11.407297331593483"><ele>477.8</ele><time>2026-03-29T13:44:25.999Z</time></trkpt><trkpt lat="43.4857297659086" lon="11.40751621262847"><ele>476.0</ele><time>2026-03-29T13:44:27.999Z</time></trkpt><trkpt lat="43.48576128072507" lon="11.407636966307606"><ele>475.99999999999994</ele><time>2026-03-29T13:44:28.999Z</time></trkpt><trkpt lat="43.485798384397675" lon="11.407736506889545"><ele>476.0</ele><time>2026-03-29T13:44:29.999Z</time></trkpt><trkpt lat="43.48585985470685" lon="11.40780160465556"><ele>476.0</ele><time>2026-03-29T13:44:30.999Z</time></trkpt><trkpt lat="43.48592814532923" lon="11.407877620117622"><ele>476.0</ele><time>2026-03-29T13:44:31.999Z</time></trkpt><trkpt lat="43.48598940558815" lon="11.407976789824218"><ele>475.99999999999994</ele><time>2026-03-29T13:44:32.999Z</time></trkpt><trkpt lat="43.48603883737491" lon="11.408076648789349"><ele>476.0</ele><time>2026-03-29T13:44:33.999Z</time></trkpt><trkpt lat="43.48606731351715" lon="11.408173089247187"><ele>476.49999999999994</ele><time>2026-03-29T13:44:34.999Z</time></trkpt><trkpt lat="43.4860822976986" lon="11.408273998808404"><ele>477.0</ele><time>2026-03-29T13:44:35.999Z</time></trkpt><trkpt lat="43.48609639272092" lon="11.408379032682777"><ele>477.5</ele><time>2026-03-29T13:44:36.999Z</time></trkpt><trkpt lat="43.48611628504224" lon="11.40849394320028"><ele>478.0</ele><time>2026-03-29T13:44:37.999Z</time></trkpt><trkpt lat="43.48612568873928" lon="11.40864336525873"><ele>478.49999999999994</ele><time>2026-03-29T13:44:38.999Z</time></trkpt><trkpt lat="43.486152641718725" lon="11.40876856351561"><ele>479.0</ele><time>2026-03-29T13:44:39.999Z</time></trkpt><trkpt lat="43.486204872313564" lon="11.408852402962287"><ele>479.0</ele><time>2026-03-29T13:44:40.999Z</time></trkpt><trkpt lat="43.48626116449957" lon="11.408902541886023"><ele>479.0</ele><time>2026-03-29T13:44:41.999Z</time></trkpt><trkpt lat="43.486351306050366" lon="11.408820611446181"><ele>479.0</ele><time>2026-03-29T13:44:43.999Z</time></trkpt><trkpt lat="43.48635950114545" lon="11.408695692754426"><ele>479.0</ele><time>2026-03-29T13:44:45.999Z</time></trkpt><trkpt lat="43.486337840228664" lon="11.408564446076241"><ele>479.0</ele><time>2026-03-29T13:44:46.999Z</time></trkpt><trkpt lat="43.48632164315759" lon="11.408399128332423"><ele>480.0</ele><time>2026-03-29T13:44:47.999Z</time></trkpt><trkpt lat="43.48632847048367" lon="11.40821263452492"><ele>481.0</ele><time>2026-03-29T13:44:48.999Z</time></trkpt><trkpt lat="43.48637378688083" lon="11.408025884267342"><ele>482.0</ele><time>2026-03-29T13:44:49.999Z</time></trkpt><trkpt lat="43.486423785248675" lon="11.407837944259258"><ele>483.0</ele><time>2026-03-29T13:44:50.999Z</time></trkpt><trkpt lat="43.48649539054626" lon="11.40766868537411"><ele>483.0</ele><time>2026-03-29T13:44:51.999Z</time></trkpt><trkpt lat="43.48656544148658" lon="11.40754255103518"><ele>482.99999999999994</ele><time>2026-03-29T13:44:52.999Z</time></trkpt><trkpt lat="43.48662234230775" lon="11.407410729944175"><ele>482.99999999999994</ele><time>2026-03-29T13:44:53.999Z</time></trkpt><trkpt lat="43.48669618650295" lon="11.407321235127451"><ele>483.0</ele><time>2026-03-29T13:44:54.999Z</time></trkpt><trkpt lat="43.48672766599986" lon="11.407205787585692"><ele>483.0</ele><time>2026-03-29T13:44:55.999Z</time></trkpt><trkpt lat="43.486706715311925" lon="11.407082450045639"><ele>483.0</ele><time>2026-03-29T13:44:56.999Z</time></trkpt><trkpt lat="43.48665203987353" lon="11.406969175494082"><ele>482.99999999999994</ele><time>2026-03-29T13:44:57.999Z</time></trkpt><trkpt lat="43.486573942301035" lon="11.406883162739813"><ele>482.99999999999994</ele><time>2026-03-29T13:44:58.999Z</time></trkpt><trkpt lat="43.48651933411446" lon="11.406766842471049"><ele>483.0</ele><time>2026-03-29T13:44:59.999Z</time></trkpt><trkpt lat="43.48647644381194" lon="11.406641793102922"><ele>483.0</ele><time>2026-03-29T13:45:00.999Z</time></trkpt><trkpt lat="43.48643667457178" lon="11.406487561684251"><ele>484.75</ele><time>2026-03-29T13:45:01.999Z</time></trkpt><trkpt lat="43.486413808986626" lon="11.406300333198672"><ele>486.5</ele><time>2026-03-29T13:45:02.999Z</time></trkpt><trkpt lat="43.48642171466599" lon="11.40609259598504"><ele>488.25</ele><time>2026-03-29T13:45:03.999Z</time></trkpt><trkpt lat="43.48640934529956" lon="11.405889152644699"><ele>490.0</ele><time>2026-03-29T13:45:04.999Z</time></trkpt><trkpt lat="43.486431176798575" lon="11.405683926137842"><ele>490.75</ele><time>2026-03-29T13:45:05.999Z</time></trkpt><trkpt lat="43.486454886375014" lon="11.405491488894457"><ele>491.5</ele><time>2026-03-29T13:45:06.999Z</time></trkpt><trkpt lat="43.486457706982314" lon="11.405300204565174"><ele>492.25</ele><time>2026-03-29T13:45:07.999Z</time></trkpt><trkpt lat="43.48645023263771" lon="11.405123193939504"><ele>493.0</ele><time>2026-03-29T13:45:08.999Z</time></trkpt><trkpt lat="43.48645756488502" lon="11.404960430676907"><ele>493.0</ele><time>2026-03-29T13:45:09.999Z</time></trkpt><trkpt lat="43.48648820689878" lon="11.404790887238995"><ele>493.0</ele><time>2026-03-29T13:45:10.999Z</time></trkpt><trkpt lat="43.48651680536427" lon="11.404628018638114"><ele>493.0</ele><time>2026-03-29T13:45:11.999Z</time></trkpt><trkpt lat="43.48655536840758" lon="11.40447323047594"><ele>493.0</ele><time>2026-03-29T13:45:12.999Z</time></trkpt><trkpt lat="43.486589185304254" lon="11.404305587283481"><ele>493.25</ele><time>2026-03-29T13:45:13.999Z</time></trkpt><trkpt lat="43.486643569098604" lon="11.40415579392381"><ele>493.5</ele><time>2026-03-29T13:45:14.999Z</time></trkpt><trkpt lat="43.48668044561873" lon="11.403986215421133"><ele>493.75</ele><time>2026-03-29T13:45:15.999Z</time></trkpt><trkpt lat="43.48672920715002" lon="11.403827871571965"><ele>494.0</ele><time>2026-03-29T13:45:16.999Z</time></trkpt><trkpt lat="43.4867598615265" lon="11.403677262242118"><ele>494.6</ele><time>2026-03-29T13:45:17.999Z</time></trkpt><trkpt lat="43.48675159120938" lon="11.403539438214171"><ele>495.2</ele><time>2026-03-29T13:45:18.999Z</time></trkpt><trkpt lat="43.48672008498167" lon="11.403410958877714"><ele>495.80000000000007</ele><time>2026-03-29T13:45:19.999Z</time></trkpt><trkpt lat="43.48667947520604" lon="11.403294408161536"><ele>496.40000000000003</ele><time>2026-03-29T13:45:20.999Z</time></trkpt><trkpt lat="43.48664178412865" lon="11.40317275392919"><ele>497.0</ele><time>2026-03-29T13:45:21.999Z</time></trkpt><trkpt lat="43.48662524327553" lon="11.403030301100353"><ele>498.0</ele><time>2026-03-29T13:45:22.999Z</time></trkpt><trkpt lat="43.486623645736415" lon="11.4028856553052"><ele>499.0</ele><time>2026-03-29T13:45:23.999Z</time></trkpt><trkpt lat="43.48662346385242" lon="11.402725877859556"><ele>500.0</ele><time>2026-03-29T13:45:24.999Z</time></trkpt><trkpt lat="43.486630256520414" lon="11.402562370235238"><ele>501.0</ele><time>2026-03-29T13:45:26Z</time></trkpt><trkpt lat="43.48664217294061" lon="11.402409772693876"><ele>501.0</ele><time>2026-03-29T13:45:27Z</time></trkpt><trkpt lat="43.486660008857825" lon="11.402269755728968"><ele>501.0</ele><time>2026-03-29T13:45:28Z</time></trkpt><trkpt lat="43.48668510624547" lon="11.402142643529407"><ele>501.0</ele><time>2026-03-29T13:45:29Z</time></trkpt><trkpt lat="43.48670265050486" lon="11.402042598213844"><ele>501.0</ele><time>2026-03-29T13:45:30Z</time></trkpt><trkpt lat="43.48673360018508" lon="11.401943985059093"><ele>501.0</ele><time>2026-03-29T13:45:31Z</time></trkpt><trkpt lat="43.48680692938264" lon="11.401868372052174"><ele>501.0</ele><time>2026-03-29T13:45:32Z</time></trkpt><trkpt lat="43.48688341891791" lon="11.401770629944538"><ele>500.4</ele><time>2026-03-29T13:45:33Z</time></trkpt><trkpt lat="43.48696597886743" lon="11.401675601082449"><ele>499.8</ele><time>2026-03-29T13:45:34Z</time></trkpt><trkpt lat="43.48703407047359" lon="11.401585090511501"><ele>499.19999999999993</ele><time>2026-03-29T13:45:35Z</time></trkpt><trkpt lat="43.48711150841749" lon="11.401516012752165"><ele>498.59999999999997</ele><time>2026-03-29T13:45:36Z</time></trkpt><trkpt lat="43.48718176336727" lon="11.401424750277302"><ele>498.0</ele><time>2026-03-29T13:45:37Z</time></trkpt><trkpt lat="43.48725036882632" lon="11.401294697420374"><ele>499.4</ele><time>2026-03-29T13:45:38Z</time></trkpt><trkpt lat="43.487299005623115" lon="11.401154897524403"><ele>500.79999999999995</ele><time>2026-03-29T13:45:39Z</time></trkpt><trkpt lat="43.48734008944925" lon="11.401024036913604"><ele>502.2</ele><time>2026-03-29T13:45:40Z</time></trkpt><trkpt lat="43.48738549600967" lon="11.400888218360038"><ele>503.6</ele><time>2026-03-29T13:45:41Z</time></trkpt><trkpt lat="43.48741302746978" lon="11.400728256346666"><ele>505.0</ele><time>2026-03-29T13:45:42Z</time></trkpt><trkpt lat="43.48740646163274" lon="11.400564806959098"><ele>504.33333333333337</ele><time>2026-03-29T13:45:43Z</time></trkpt><trkpt lat="43.48740103944004" lon="11.40042008769962"><ele>503.6666666666667</ele><time>2026-03-29T13:45:44Z</time></trkpt><trkpt lat="43.48739948027257" lon="11.40030118679528"><ele>503.0</ele><time>2026-03-29T13:45:44.999Z</time></trkpt><trkpt lat="43.48740246808711" lon="11.400187680971312"><ele>502.33333333333337</ele><time>2026-03-29T13:45:45.999Z</time></trkpt><trkpt lat="43.48740240612783" lon="11.400081712044553"><ele>501.6666666666667</ele><time>2026-03-29T13:45:46.999Z</time></trkpt><trkpt lat="43.48740999505711" lon="11.399983056899766"><ele>501.0</ele><time>2026-03-29T13:45:47.999Z</time></trkpt><trkpt lat="43.48743050980044" lon="11.399841955385599"><ele>501.0</ele><time>2026-03-29T13:45:49.999Z</time></trkpt><trkpt lat="43.48742295298338" lon="11.399744202650364"><ele>501.0</ele><time>2026-03-29T13:45:52.999Z</time></trkpt><trkpt lat="43.48739853431433" lon="11.39959520885197"><ele>501.0</ele><time>2026-03-29T13:46:12.999Z</time></trkpt><trkpt lat="43.48737386321191" lon="11.399502690886566"><ele>501.0</ele><time>2026-03-29T13:46:13.999Z</time></trkpt><trkpt lat="43.487307758528694" lon="11.39942219142219"><ele>501.0</ele><time>2026-03-29T13:46:14.999Z</time></trkpt><trkpt lat="43.487256895842734" lon="11.39933750821459"><ele>501.0</ele><time>2026-03-29T13:46:15.999Z</time></trkpt><trkpt lat="43.4872066176322" lon="11.399252156121587"><ele>501.0</ele><time>2026-03-29T13:46:16.999Z</time></trkpt><trkpt lat="43.48715036870283" lon="11.39919092531175"><ele>501.0</ele><time>2026-03-29T13:46:17.999Z</time></trkpt><trkpt lat="43.48709941902942" lon="11.399084814216447"><ele>501.0</ele><time>2026-03-29T13:46:18.999Z</time></trkpt><trkpt lat="43.4870482431658" lon="11.398970007146353"><ele>501.0</ele><time>2026-03-29T13:46:19.999Z</time></trkpt><trkpt lat="43.487006032752475" lon="11.398856212853275"><ele>501.0</ele><time>2026-03-29T13:46:20.999Z</time></trkpt><trkpt lat="43.48697413243186" lon="11.398769847278098"><ele>501.0</ele><time>2026-03-29T13:46:21.999Z</time></trkpt><trkpt lat="43.48698989467785" lon="11.398677508330353"><ele>502.0</ele><time>2026-03-29T13:46:22.999Z</time></trkpt><trkpt lat="43.486985158921954" lon="11.398586245718672"><ele>503.0</ele><time>2026-03-29T13:46:23.999Z</time></trkpt><trkpt lat="43.48696567371418" lon="11.398487385805007"><ele>504.0</ele><time>2026-03-29T13:46:24.999Z</time></trkpt><trkpt lat="43.48695170221528" lon="11.398348256401395"><ele>505.0</ele><time>2026-03-29T13:46:25.999Z</time></trkpt><trkpt lat="43.48693828615082" lon="11.398172466276684"><ele>506.0</ele><time>2026-03-29T13:46:26.999Z</time></trkpt><trkpt lat="43.48691868072238" lon="11.397986226103743"><ele>506.20000000000005</ele><time>2026-03-29T13:46:27.999Z</time></trkpt><trkpt lat="43.48690467885314" lon="11.39782838134027"><ele>506.40000000000003</ele><time>2026-03-29T13:46:28.999Z</time></trkpt><trkpt lat="43.48688917542354" lon="11.397682785746003"><ele>506.6</ele><time>2026-03-29T13:46:29.999Z</time></trkpt><trkpt lat="43.486869830345924" lon="11.39753557167939"><ele>506.8</ele><time>2026-03-29T13:46:30.999Z</time></trkpt><trkpt lat="43.486866927080214" lon="11.397398393678307"><ele>507.0</ele><time>2026-03-29T13:46:31.999Z</time></trkpt><trkpt lat="43.48686472087027" lon="11.397268659620398"><ele>507.5</ele><time>2026-03-29T13:46:32.999Z</time></trkpt><trkpt lat="43.486830368764515" lon="11.397131781461516"><ele>508.0</ele><time>2026-03-29T13:46:33.999Z</time></trkpt><trkpt lat="43.486768804746525" lon="11.396960879679838"><ele>508.5</ele><time>2026-03-29T13:46:34.999Z</time></trkpt><trkpt lat="43.486696063882356" lon="11.396777130129427"><ele>509.0</ele><time>2026-03-29T13:46:35.999Z</time></trkpt><trkpt lat="43.486626063375375" lon="11.396620027682674"><ele>509.0</ele><time>2026-03-29T13:46:36.999Z</time></trkpt><trkpt lat="43.486564663337155" lon="11.396474212463765"><ele>509.0</ele><time>2026-03-29T13:46:37.999Z</time></trkpt><trkpt lat="43.48650637273908" lon="11.396347652839628"><ele>509.0</ele><time>2026-03-29T13:46:38.999Z</time></trkpt><trkpt lat="43.486451949245854" lon="11.396234020140305"><ele>509.0</ele><time>2026-03-29T13:46:39.999Z</time></trkpt><trkpt lat="43.486401288793836" lon="11.396135471845326"><ele>509.0</ele><time>2026-03-29T13:46:40.999Z</time></trkpt><trkpt lat="43.48635062332338" lon="11.396043113457177"><ele>509.0</ele><time>2026-03-29T13:46:41.999Z</time></trkpt><trkpt lat="43.486291312866285" lon="11.39594854989134"><ele>509.0</ele><time>2026-03-29T13:46:42.999Z</time></trkpt><trkpt lat="43.48621968648179" lon="11.395852938518125"><ele>509.0</ele><time>2026-03-29T13:46:43.999Z</time></trkpt><trkpt lat="43.48612567428185" lon="11.395754710665715"><ele>509.0</ele><time>2026-03-29T13:46:44.999Z</time></trkpt><trkpt lat="43.48602615337725" lon="11.395648847012541"><ele>509.0</ele><time>2026-03-29T13:46:45.999Z</time></trkpt><trkpt lat="43.48592935914082" lon="11.395547792335341"><ele>508.5</ele><time>2026-03-29T13:46:46.999Z</time></trkpt><trkpt lat="43.48583028954178" lon="11.39543610605059"><ele>508.0</ele><time>2026-03-29T13:46:47.999Z</time></trkpt><trkpt lat="43.485762003595575" lon="11.395281916822231"><ele>507.5</ele><time>2026-03-29T13:46:48.999Z</time></trkpt><trkpt lat="43.48568208568678" lon="11.395127363670733"><ele>507.0</ele><time>2026-03-29T13:46:49.999Z</time></trkpt><trkpt lat="43.485601976484254" lon="11.394980868712908"><ele>507.0</ele><time>2026-03-29T13:46:50.999Z</time></trkpt><trkpt lat="43.485542589028455" lon="11.394833599505827"><ele>507.0</ele><time>2026-03-29T13:46:51.999Z</time></trkpt><trkpt lat="43.48548298288812" lon="11.394681459444577"><ele>507.0</ele><time>2026-03-29T13:46:52.999Z</time></trkpt><trkpt lat="43.485430996632566" lon="11.394529886832352"><ele>507.0</ele><time>2026-03-29T13:46:53.999Z</time></trkpt><trkpt lat="43.48540349180632" lon="11.394381419520652"><ele>508.25</ele><time>2026-03-29T13:46:54.999Z</time></trkpt><trkpt lat="43.48539420994052" lon="11.394221442931881"><ele>509.5</ele><time>2026-03-29T13:46:55.999Z</time></trkpt><trkpt lat="43.48539075411473" lon="11.394059220936441"><ele>510.75</ele><time>2026-03-29T13:46:56.999Z</time></trkpt><trkpt lat="43.48537993248674" lon="11.393893702385073"><ele>512.0</ele><time>2026-03-29T13:46:57.999Z</time></trkpt><trkpt lat="43.48535412889963" lon="11.393747116191204"><ele>512.4</ele><time>2026-03-29T13:46:58.999Z</time></trkpt><trkpt lat="43.485309759734356" lon="11.39361534658267"><ele>512.8000000000001</ele><time>2026-03-29T13:46:59.999Z</time></trkpt><trkpt lat="43.48525906374866" lon="11.39350988253201"><ele>513.2</ele><time>2026-03-29T13:47:00.999Z</time></trkpt><trkpt lat="43.485191781675745" lon="11.393408891598813"><ele>513.6</ele><time>2026-03-29T13:47:01.999Z</time></trkpt><trkpt lat="43.48511207147664" lon="11.39332275016627"><ele>514.0</ele><time>2026-03-29T13:47:02.999Z</time></trkpt><trkpt lat="43.48502968186257" lon="11.393279966791997"><ele>514.0</ele><time>2026-03-29T13:47:03.999Z</time></trkpt><trkpt lat="43.48493142331431" lon="11.393259732586502"><ele>514.0</ele><time>2026-03-29T13:47:04.999Z</time></trkpt><trkpt lat="43.48480849507603" lon="11.393249340174856"><ele>514.0</ele><time>2026-03-29T13:47:05.999Z</time></trkpt><trkpt lat="43.484679617933345" lon="11.393219055087838"><ele>514.0</ele><time>2026-03-29T13:47:06.999Z</time></trkpt><trkpt lat="43.484559102009555" lon="11.393173996585048"><ele>513.4</ele><time>2026-03-29T13:47:07.999Z</time></trkpt><trkpt lat="43.48445577595963" lon="11.393129910489359"><ele>512.8</ele><time>2026-03-29T13:47:08.999Z</time></trkpt><trkpt lat="43.48437999443447" lon="11.393077260555872"><ele>512.2</ele><time>2026-03-29T13:47:09.999Z</time></trkpt><trkpt lat="43.48432439495325" lon="11.393004813339282"><ele>511.6</ele><time>2026-03-29T13:47:10.999Z</time></trkpt><trkpt lat="43.48427184774453" lon="11.39291016232806"><ele>511.0</ele><time>2026-03-29T13:47:11.999Z</time></trkpt><trkpt lat="43.48421607621106" lon="11.392795059859509"><ele>510.8</ele><time>2026-03-29T13:47:12.999Z</time></trkpt><trkpt lat="43.48414544982807" lon="11.392681268632229"><ele>510.6</ele><time>2026-03-29T13:47:13.999Z</time></trkpt><trkpt lat="43.48406991660613" lon="11.392574247328977"><ele>510.4</ele><time>2026-03-29T13:47:14.999Z</time></trkpt><trkpt lat="43.48400816831119" lon="11.392462908882868"><ele>510.2</ele><time>2026-03-29T13:47:15.999Z</time></trkpt><trkpt lat="43.48396393112493" lon="11.392346713222652"><ele>510.0</ele><time>2026-03-29T13:47:16.999Z</time></trkpt><trkpt lat="43.483918811648635" lon="11.392215770216163"><ele>508.8</ele><time>2026-03-29T13:47:17.999Z</time></trkpt><trkpt lat="43.48388763211154" lon="11.392095467649257"><ele>507.6</ele><time>2026-03-29T13:47:18.999Z</time></trkpt><trkpt lat="43.483836434490414" lon="11.39200970658326"><ele>506.4</ele><time>2026-03-29T13:47:19.999Z</time></trkpt><trkpt lat="43.483783273405194" lon="11.391952418972604"><ele>505.2</ele><time>2026-03-29T13:47:20.999Z</time></trkpt><trkpt lat="43.48379238078145" lon="11.39178974357011"><ele>504.0</ele><time>2026-03-29T13:47:21.999Z</time></trkpt><trkpt lat="43.48369512586931" lon="11.391731965673431"><ele>504.0</ele><time>2026-03-29T13:47:22.999Z</time></trkpt><trkpt lat="43.48359194923889" lon="11.391648801990613"><ele>504.0</ele><time>2026-03-29T13:47:23.999Z</time></trkpt><trkpt lat="43.48349688190953" lon="11.391570493766507"><ele>504.0</ele><time>2026-03-29T13:47:24.999Z</time></trkpt><trkpt lat="43.48339311224505" lon="11.39151215085903"><ele>504.0</ele><time>2026-03-29T13:47:25.999Z</time></trkpt><trkpt lat="43.48329810420768" lon="11.39144514235084"><ele>504.0</ele><time>2026-03-29T13:47:26.999Z</time></trkpt><trkpt lat="43.48322901647772" lon="11.391353997023304"><ele>504.2</ele><time>2026-03-29T13:47:27.999Z</time></trkpt><trkpt lat="43.48314879719612" lon="11.39129442119785"><ele>504.4</ele><time>2026-03-29T13:47:28.999Z</time></trkpt><trkpt lat="43.48306072054885" lon="11.391242730398288"><ele>504.6</ele><time>2026-03-29T13:47:29.999Z</time></trkpt><trkpt lat="43.48297281699828" lon="11.391162121759468"><ele>504.8</ele><time>2026-03-29T13:47:30.999Z</time></trkpt><trkpt lat="43.482886414665664" lon="11.391076771874069"><ele>505.0</ele><time>2026-03-29T13:47:32Z</time></trkpt><trkpt lat="43.48278998853364" lon="11.390992905202603"><ele>505.0</ele><time>2026-03-29T13:47:33Z</time></trkpt><trkpt lat="43.48268713050575" lon="11.390911343704374"><ele>505.0</ele><time>2026-03-29T13:47:34Z</time></trkpt><trkpt lat="43.482594080789916" lon="11.39082148181207"><ele>505.0</ele><time>2026-03-29T13:47:35Z</time></trkpt><trkpt lat="43.48252022860054" lon="11.39073031499585"><ele>505.0</ele><time>2026-03-29T13:47:36Z</time></trkpt><trkpt lat="43.48246716041483" lon="11.390629370815356"><ele>505.0</ele><time>2026-03-29T13:47:37Z</time></trkpt><trkpt lat="43.48241492459901" lon="11.390507274155338"><ele>504.8</ele><time>2026-03-29T13:47:38Z</time></trkpt><trkpt lat="43.48235825828238" lon="11.39039910824554"><ele>504.6</ele><time>2026-03-29T13:47:39Z</time></trkpt><trkpt lat="43.48229575401401" lon="11.390285706312245"><ele>504.4</ele><time>2026-03-29T13:47:40Z</time></trkpt><trkpt lat="43.482249440852215" lon="11.390160628196519"><ele>504.2</ele><time>2026-03-29T13:47:41Z</time></trkpt><trkpt lat="43.482196243046786" lon="11.390046310133757"><ele>504.0</ele><time>2026-03-29T13:47:42Z</time></trkpt><trkpt lat="43.48212836359081" lon="11.389980199987916"><ele>503.6</ele><time>2026-03-29T13:47:43Z</time></trkpt><trkpt lat="43.482059001053386" lon="11.389914393616701"><ele>503.2</ele><time>2026-03-29T13:47:44Z</time></trkpt><trkpt lat="43.48198310651174" lon="11.389828774698874"><ele>502.80000000000007</ele><time>2026-03-29T13:47:45Z</time></trkpt><trkpt lat="43.48189479006462" lon="11.389726238347292"><ele>502.40000000000003</ele><time>2026-03-29T13:47:46Z</time></trkpt><trkpt lat="43.48180833277431" lon="11.38962240405348"><ele>502.0</ele><time>2026-03-29T13:47:47Z</time></trkpt><trkpt lat="43.481717694052186" lon="11.389519336215011"><ele>502.0</ele><time>2026-03-29T13:47:48Z</time></trkpt><trkpt lat="43.48163074531052" lon="11.38941797509224"><ele>502.00000000000006</ele><time>2026-03-29T13:47:49Z</time></trkpt><trkpt lat="43.4815479501948" lon="11.389325429577287"><ele>502.00000000000006</ele><time>2026-03-29T13:47:50Z</time></trkpt><trkpt lat="43.48146004689932" lon="11.38925191596042"><ele>502.0</ele><time>2026-03-29T13:47:51Z</time></trkpt><trkpt lat="43.48138692548104" lon="11.389172479002317"><ele>502.0</ele><time>2026-03-29T13:47:52Z</time></trkpt><trkpt lat="43.48133456032344" lon="11.389078636975574"><ele>502.00000000000006</ele><time>2026-03-29T13:47:53Z</time></trkpt><trkpt lat="43.48126785165381" lon="11.389001840276974"><ele>502.0</ele><time>2026-03-29T13:47:54Z</time></trkpt><trkpt lat="43.481185722240376" lon="11.388976148182238"><ele>502.0</ele><time>2026-03-29T13:47:55Z</time></trkpt><trkpt lat="43.481104768835664" lon="11.388982303196737"><ele>502.0</ele><time>2026-03-29T13:47:55.999Z</time></trkpt><trkpt lat="43.481029372649594" lon="11.388993322177924"><ele>502.00000000000006</ele><time>2026-03-29T13:47:56.999Z</time></trkpt><trkpt lat="43.48095065600777" lon="11.388969690993077"><ele>502.0</ele><time>2026-03-29T13:47:57.999Z</time></trkpt><trkpt lat="43.480894070950676" lon="11.388902747869741"><ele>502.33333333333337</ele><time>2026-03-29T13:47:58.999Z</time></trkpt><trkpt lat="43.48084748455661" lon="11.388837235641416"><ele>502.6666666666667</ele><time>2026-03-29T13:47:59.999Z</time></trkpt><trkpt lat="43.48078820358539" lon="11.388777134545727"><ele>503.0</ele><time>2026-03-29T13:48:00.999Z</time></trkpt><trkpt lat="43.48073396876028" lon="11.388677261550013"><ele>503.33333333333337</ele><time>2026-03-29T13:48:01.999Z</time></trkpt><trkpt lat="43.48068354262603" lon="11.388559634694891"><ele>503.6666666666667</ele><time>2026-03-29T13:48:02.999Z</time></trkpt><trkpt lat="43.48060809111591" lon="11.388446345697462"><ele>504.0</ele><time>2026-03-29T13:48:03.999Z</time></trkpt><trkpt lat="43.48053814887183" lon="11.388330478550206"><ele>504.0</ele><time>2026-03-29T13:48:04.999Z</time></trkpt><trkpt lat="43.48047142111976" lon="11.388211498890879"><ele>504.0</ele><time>2026-03-29T13:48:05.999Z</time></trkpt><trkpt lat="43.48040958713871" lon="11.38810775336729"><ele>504.0</ele><time>2026-03-29T13:48:06.999Z</time></trkpt><trkpt lat="43.48036096943827" lon="11.387990306269346"><ele>504.0</ele><time>2026-03-29T13:48:07.999Z</time></trkpt><trkpt lat="43.48034313077133" lon="11.387886308380804"><ele>504.0</ele><time>2026-03-29T13:48:08.999Z</time></trkpt><trkpt lat="43.48034332855501" lon="11.387763412139728"><ele>506.4</ele><time>2026-03-29T13:48:09.999Z</time></trkpt><trkpt lat="43.480371962756045" lon="11.387654129630876"><ele>508.79999999999995</ele><time>2026-03-29T13:48:10.999Z</time></trkpt><trkpt lat="43.4804155511247" lon="11.387490604585532"><ele>511.20000000000005</ele><time>2026-03-29T13:48:12.999Z</time></trkpt><trkpt lat="43.480419941044886" lon="11.387363766477586"><ele>513.6</ele><time>2026-03-29T13:48:13.999Z</time></trkpt><trkpt lat="43.48040524294208" lon="11.387220470833412"><ele>516.0</ele><time>2026-03-29T13:48:14.999Z</time></trkpt><trkpt lat="43.48037517897695" lon="11.387095824928736"><ele>516.0</ele><time>2026-03-29T13:48:15.999Z</time></trkpt><trkpt lat="43.480340408986976" lon="11.386989696880702"><ele>516.0</ele><time>2026-03-29T13:48:16.999Z</time></trkpt><trkpt lat="43.48030330565916" lon="11.38688951116502"><ele>516.0</ele><time>2026-03-29T13:48:17.999Z</time></trkpt><trkpt lat="43.480258954475076" lon="11.386822964919856"><ele>516.0</ele><time>2026-03-29T13:48:18.999Z</time></trkpt><trkpt lat="43.480188306533655" lon="11.38675965726425"><ele>516.0</ele><time>2026-03-29T13:48:19.999Z</time></trkpt><trkpt lat="43.480108038334606" lon="11.386688482579565"><ele>516.0</ele><time>2026-03-29T13:48:20.999Z</time></trkpt><trkpt lat="43.48005021409655" lon="11.386624826464793"><ele>516.0</ele><time>2026-03-29T13:48:21.999Z</time></trkpt><trkpt lat="43.479963303857275" lon="11.386576231692468"><ele>516.0</ele><time>2026-03-29T13:48:22.999Z</time></trkpt><trkpt lat="43.479875303010196" lon="11.386473220109483"><ele>516.0</ele><time>2026-03-29T13:48:23.999Z</time></trkpt><trkpt lat="43.47978077860759" lon="11.386353551700154"><ele>516.0</ele><time>2026-03-29T13:48:24.999Z</time></trkpt><trkpt lat="43.47968586959893" lon="11.38626347206416"><ele>515.6666666666666</ele><time>2026-03-29T13:48:25.999Z</time></trkpt><trkpt lat="43.47960520053061" lon="11.38619057553766"><ele>515.3333333333334</ele><time>2026-03-29T13:48:26.999Z</time></trkpt><trkpt lat="43.479538542867225" lon="11.386135693611577"><ele>515.0</ele><time>2026-03-29T13:48:27.999Z</time></trkpt><trkpt lat="43.479469118542525" lon="11.386069767530726"><ele>514.6666666666667</ele><time>2026-03-29T13:48:28.999Z</time></trkpt><trkpt lat="43.4794147345015" lon="11.385969406532007"><ele>514.3333333333334</ele><time>2026-03-29T13:48:29.999Z</time></trkpt><trkpt lat="43.4793791345723" lon="11.385848145649332"><ele>514.0</ele><time>2026-03-29T13:48:30.999Z</time></trkpt><trkpt lat="43.47933803100294" lon="11.385702174798991"><ele>514.0</ele><time>2026-03-29T13:48:31.999Z</time></trkpt><trkpt lat="43.47930786329463" lon="11.385568129990105"><ele>514.0</ele><time>2026-03-29T13:48:32.999Z</time></trkpt><trkpt lat="43.47927983375863" lon="11.385439227143147"><ele>514.0</ele><time>2026-03-29T13:48:33.999Z</time></trkpt><trkpt lat="43.4792490633434" lon="11.385316547954409"><ele>514.0</ele><time>2026-03-29T13:48:34.999Z</time></trkpt><trkpt lat="43.47919822551992" lon="11.385207216905414"><ele>514.0</ele><time>2026-03-29T13:48:35.999Z</time></trkpt><trkpt lat="43.479124115547535" lon="11.385148076588882"><ele>513.6666666666667</ele><time>2026-03-29T13:48:36.999Z</time></trkpt><trkpt lat="43.47904399999913" lon="11.385152704473006"><ele>513.3333333333334</ele><time>2026-03-29T13:48:37.999Z</time></trkpt><trkpt lat="43.478967670158475" lon="11.3851763073317"><ele>513.0</ele><time>2026-03-29T13:48:38.999Z</time></trkpt><trkpt lat="43.47888923931406" lon="11.385194752265202"><ele>512.6666666666666</ele><time>2026-03-29T13:48:39.999Z</time></trkpt><trkpt lat="43.478816047237125" lon="11.385183488559981"><ele>512.3333333333333</ele><time>2026-03-29T13:48:40.999Z</time></trkpt><trkpt lat="43.478747417768176" lon="11.38519703727796"><ele>512.0</ele><time>2026-03-29T13:48:41.999Z</time></trkpt><trkpt lat="43.47867393988542" lon="11.385234802704018"><ele>514.0</ele><time>2026-03-29T13:48:42.999Z</time></trkpt><trkpt lat="43.478585730147095" lon="11.38525867380445"><ele>516.0</ele><time>2026-03-29T13:48:43.999Z</time></trkpt><trkpt lat="43.47849002771718" lon="11.385271197740245"><ele>518.0</ele><time>2026-03-29T13:48:44.999Z</time></trkpt><trkpt lat="43.47837036679309" lon="11.385286664261354"><ele>520.0</ele><time>2026-03-29T13:48:45.999Z</time></trkpt><trkpt lat="43.47825258254812" lon="11.385281521578444"><ele>522.0</ele><time>2026-03-29T13:48:46.999Z</time></trkpt><trkpt lat="43.478126729367105" lon="11.385255915383755"><ele>522.0</ele><time>2026-03-29T13:48:47.999Z</time></trkpt><trkpt lat="43.47801697396887" lon="11.385213363221034"><ele>522.0</ele><time>2026-03-29T13:48:48.999Z</time></trkpt><trkpt lat="43.47791751076388" lon="11.385151156749947"><ele>522.0</ele><time>2026-03-29T13:48:49.999Z</time></trkpt><trkpt lat="43.477819729203894" lon="11.385083980985472"><ele>522.0</ele><time>2026-03-29T13:48:50.999Z</time></trkpt><trkpt lat="43.477715497136835" lon="11.38502227171669"><ele>522.0</ele><time>2026-03-29T13:48:51.999Z</time></trkpt><trkpt lat="43.47762154006906" lon="11.384972393819258"><ele>522.2</ele><time>2026-03-29T13:48:52.999Z</time></trkpt><trkpt lat="43.4775353825699" lon="11.384933113827435"><ele>522.4000000000001</ele><time>2026-03-29T13:48:53.999Z</time></trkpt><trkpt lat="43.47745183386422" lon="11.38490135782799"><ele>522.5999999999999</ele><time>2026-03-29T13:48:54.999Z</time></trkpt><trkpt lat="43.47736807633434" lon="11.384900586011186"><ele>522.8</ele><time>2026-03-29T13:48:55.999Z</time></trkpt><trkpt lat="43.477272822634646" lon="11.3849256317824"><ele>523.0</ele><time>2026-03-29T13:48:56.999Z</time></trkpt><trkpt lat="43.47717134255064" lon="11.384948371679686"><ele>522.0</ele><time>2026-03-29T13:48:57.999Z</time></trkpt><trkpt lat="43.47706480985614" lon="11.384956650950565"><ele>521.0</ele><time>2026-03-29T13:48:58.999Z</time></trkpt><trkpt lat="43.47695482350213" lon="11.384947884776054"><ele>520.0</ele><time>2026-03-29T13:48:59.999Z</time></trkpt><trkpt lat="43.47684209903513" lon="11.384943780361226"><ele>519.0</ele><time>2026-03-29T13:49:00.999Z</time></trkpt><trkpt lat="43.47670853383303" lon="11.384942044345804"><ele>519.0</ele><time>2026-03-29T13:49:01.999Z</time></trkpt><trkpt lat="43.47657179298879" lon="11.38493784712848"><ele>519.0</ele><time>2026-03-29T13:49:02.999Z</time></trkpt><trkpt lat="43.47645234857641" lon="11.384927811350947"><ele>519.0</ele><time>2026-03-29T13:49:03.999Z</time></trkpt><trkpt lat="43.476342736360756" lon="11.384920505203764"><ele>519.0</ele><time>2026-03-29T13:49:04.999Z</time></trkpt><trkpt lat="43.47623169658103" lon="11.384908435451736"><ele>518.4</ele><time>2026-03-29T13:49:05.999Z</time></trkpt><trkpt lat="43.476116486891726" lon="11.38489607244519"><ele>517.8</ele><time>2026-03-29T13:49:06.999Z</time></trkpt><trkpt lat="43.47600805652392" lon="11.384872145296505"><ele>517.2</ele><time>2026-03-29T13:49:07.999Z</time></trkpt><trkpt lat="43.47591230357525" lon="11.384811409729805"><ele>516.6</ele><time>2026-03-29T13:49:08.999Z</time></trkpt><trkpt lat="43.475810010424254" lon="11.384782307271703"><ele>516.0</ele><time>2026-03-29T13:49:09.999Z</time></trkpt><trkpt lat="43.47571087619088" lon="11.384713350347687"><ele>515.4</ele><time>2026-03-29T13:49:10.999Z</time></trkpt><trkpt lat="43.47562032272751" lon="11.384625557833772"><ele>514.8</ele><time>2026-03-29T13:49:11.999Z</time></trkpt><trkpt lat="43.475529887844786" lon="11.384552505916009"><ele>514.1999999999999</ele><time>2026-03-29T13:49:12.999Z</time></trkpt><trkpt lat="43.475428904556956" lon="11.384491877543415"><ele>513.6</ele><time>2026-03-29T13:49:13.999Z</time></trkpt><trkpt lat="43.47534164729516" lon="11.384409165275464"><ele>513.0</ele><time>2026-03-29T13:49:14.999Z</time></trkpt><trkpt lat="43.47525722883032" lon="11.384318771797172"><ele>513.0</ele><time>2026-03-29T13:49:15.999Z</time></trkpt><trkpt lat="43.47518112662021" lon="11.384215243941686"><ele>513.0</ele><time>2026-03-29T13:49:16.999Z</time></trkpt><trkpt lat="43.47511972617306" lon="11.384100989193232"><ele>513.0</ele><time>2026-03-29T13:49:17.999Z</time></trkpt><trkpt lat="43.47506690845616" lon="11.383976110663404"><ele>513.0</ele><time>2026-03-29T13:49:18.999Z</time></trkpt><trkpt lat="43.47499499844189" lon="11.383871882458047"><ele>513.0</ele><time>2026-03-29T13:49:19.999Z</time></trkpt><trkpt lat="43.47494318134798" lon="11.383761275012901"><ele>510.0</ele><time>2026-03-29T13:49:20.999Z</time></trkpt><trkpt lat="43.474888461326984" lon="11.383659535600607"><ele>506.99999999999994</ele><time>2026-03-29T13:49:21.999Z</time></trkpt><trkpt lat="43.47481767845036" lon="11.383569505419153"><ele>503.99999999999994</ele><time>2026-03-29T13:49:22.999Z</time></trkpt><trkpt lat="43.47473726120376" lon="11.383506601970792"><ele>501.0</ele><time>2026-03-29T13:49:23.999Z</time></trkpt><trkpt lat="43.47464045458816" lon="11.38344994808694"><ele>498.0</ele><time>2026-03-29T13:49:24.999Z</time></trkpt><trkpt lat="43.4745367528485" lon="11.383406684456904"><ele>498.0</ele><time>2026-03-29T13:49:25.999Z</time></trkpt><trkpt lat="43.47443766857658" lon="11.383349674184492"><ele>497.99999999999994</ele><time>2026-03-29T13:49:26.999Z</time></trkpt><trkpt lat="43.47433728055149" lon="11.383315079813292"><ele>497.99999999999994</ele><time>2026-03-29T13:49:27.999Z</time></trkpt><trkpt lat="43.474240012739465" lon="11.383292620060383"><ele>498.0</ele><time>2026-03-29T13:49:28.999Z</time></trkpt><trkpt lat="43.47413964467677" lon="11.383281003380782"><ele>498.0</ele><time>2026-03-29T13:49:29.999Z</time></trkpt><trkpt lat="43.47404179640236" lon="11.383314769306333"><ele>498.0</ele><time>2026-03-29T13:49:30.999Z</time></trkpt><trkpt lat="43.47394160995074" lon="11.383314854868361"><ele>497.99999999999994</ele><time>2026-03-29T13:49:31.999Z</time></trkpt><trkpt lat="43.47384176548708" lon="11.383356442012692"><ele>497.99999999999994</ele><time>2026-03-29T13:49:32.999Z</time></trkpt><trkpt lat="43.473748467151516" lon="11.383411317794128"><ele>498.0</ele><time>2026-03-29T13:49:33.999Z</time></trkpt><trkpt lat="43.4736589470978" lon="11.383459679130375"><ele>498.0</ele><time>2026-03-29T13:49:34.999Z</time></trkpt><trkpt lat="43.47357369158124" lon="11.383492411369788"><ele>497.3333333333333</ele><time>2026-03-29T13:49:35.999Z</time></trkpt><trkpt lat="43.47350354582653" lon="11.383451252948422"><ele>496.66666666666663</ele><time>2026-03-29T13:49:36.999Z</time></trkpt><trkpt lat="43.47343325016322" lon="11.383412131889287"><ele>496.0</ele><time>2026-03-29T13:49:38Z</time></trkpt><trkpt lat="43.4733567424394" lon="11.383361096755928"><ele>495.3333333333333</ele><time>2026-03-29T13:49:39Z</time></trkpt><trkpt lat="43.47328242513369" lon="11.383290265121227"><ele>494.66666666666663</ele><time>2026-03-29T13:49:40Z</time></trkpt><trkpt lat="43.47320652889856" lon="11.38319372040176"><ele>494.0</ele><time>2026-03-29T13:49:41Z</time></trkpt><trkpt lat="43.47312740455662" lon="11.38308897954044"><ele>492.0</ele><time>2026-03-29T13:49:42Z</time></trkpt><trkpt lat="43.47303453350755" lon="11.382962178559563"><ele>490.0</ele><time>2026-03-29T13:49:43Z</time></trkpt><trkpt lat="43.47291406033541" lon="11.38283194002007"><ele>488.0</ele><time>2026-03-29T13:49:44Z</time></trkpt><trkpt lat="43.47280272914694" lon="11.382676615878763"><ele>486.0</ele><time>2026-03-29T13:49:45Z</time></trkpt><trkpt lat="43.47272244763152" lon="11.382528878453556"><ele>486.0</ele><time>2026-03-29T13:49:46Z</time></trkpt><trkpt lat="43.47263788811035" lon="11.382404448193276"><ele>486.0</ele><time>2026-03-29T13:49:47Z</time></trkpt><trkpt lat="43.47255368086018" lon="11.38227146564779"><ele>486.0</ele><time>2026-03-29T13:49:48Z</time></trkpt><trkpt lat="43.4724649404923" lon="11.382143205714787"><ele>486.0</ele><time>2026-03-29T13:49:49Z</time></trkpt><trkpt lat="43.472393254554035" lon="11.381986538788686"><ele>484.25</ele><time>2026-03-29T13:49:50Z</time></trkpt><trkpt lat="43.47231069311517" lon="11.381832222684963"><ele>482.5</ele><time>2026-03-29T13:49:51Z</time></trkpt><trkpt lat="43.47223667727021" lon="11.381685675078206"><ele>480.75</ele><time>2026-03-29T13:49:52Z</time></trkpt><trkpt lat="43.47215301134392" lon="11.381558066261608"><ele>479.0</ele><time>2026-03-29T13:49:53Z</time></trkpt><trkpt lat="43.4721025760877" lon="11.381423786318239"><ele>478.8333333333333</ele><time>2026-03-29T13:49:54Z</time></trkpt><trkpt lat="43.47204631014106" lon="11.38135391009672"><ele>478.66666666666663</ele><time>2026-03-29T13:49:55Z</time></trkpt><trkpt lat="43.47202237470219" lon="11.381231767089858"><ele>478.5</ele><time>2026-03-29T13:49:57Z</time></trkpt><trkpt lat="43.47206326066481" lon="11.38108069113682"><ele>478.33333333333337</ele><time>2026-03-29T13:50:00Z</time></trkpt><trkpt lat="43.472060512808575" lon="11.38098376259422"><ele>478.1666666666667</ele><time>2026-03-29T13:50:01Z</time></trkpt><trkpt lat="43.47208338957126" lon="11.380878553009172"><ele>478.0</ele><time>2026-03-29T13:50:02Z</time></trkpt><trkpt lat="43.472084229396" lon="11.380772593851141"><ele>478.00000000000006</ele><time>2026-03-29T13:50:03Z</time></trkpt><trkpt lat="43.47207577512176" lon="11.380635114784427"><ele>478.0</ele><time>2026-03-29T13:50:04Z</time></trkpt><trkpt lat="43.47206137145591" lon="11.380491976575438"><ele>478.0</ele><time>2026-03-29T13:50:05Z</time></trkpt><trkpt lat="43.472028410103654" lon="11.380385152817993"><ele>478.0</ele><time>2026-03-29T13:50:06Z</time></trkpt><trkpt lat="43.472010798483915" lon="11.380283978287839"><ele>478.00000000000006</ele><time>2026-03-29T13:50:07Z</time></trkpt><trkpt lat="43.4719782051615" lon="11.380179923332758"><ele>478.0</ele><time>2026-03-29T13:50:08Z</time></trkpt><trkpt lat="43.47194693711736" lon="11.380080808274878"><ele>477.50000000000006</ele><time>2026-03-29T13:50:08.999Z</time></trkpt><trkpt lat="43.47192865679806" lon="11.37996931852488"><ele>477.0</ele><time>2026-03-29T13:50:09.999Z</time></trkpt><trkpt lat="43.47188277785423" lon="11.37987542443269"><ele>476.5</ele><time>2026-03-29T13:50:10.999Z</time></trkpt><trkpt lat="43.47184821543017" lon="11.379775347612346"><ele>476.0</ele><time>2026-03-29T13:50:11.999Z</time></trkpt><trkpt lat="43.47181550509251" lon="11.37966525532582"><ele>475.50000000000006</ele><time>2026-03-29T13:50:12.999Z</time></trkpt><trkpt lat="43.47178215523958" lon="11.379561351639783"><ele>475.0</ele><time>2026-03-29T13:50:13.999Z</time></trkpt><trkpt lat="43.471751553326094" lon="11.37945228750022"><ele>473.50000000000006</ele><time>2026-03-29T13:50:14.999Z</time></trkpt><trkpt lat="43.47172152060037" lon="11.379350663997071"><ele>472.0</ele><time>2026-03-29T13:50:15.999Z</time></trkpt><trkpt lat="43.47169352580024" lon="11.37924612112187"><ele>470.5</ele><time>2026-03-29T13:50:16.999Z</time></trkpt><trkpt lat="43.47168520118381" lon="11.379145966559022"><ele>469.0</ele><time>2026-03-29T13:50:17.999Z</time></trkpt><trkpt lat="43.47168363749632" lon="11.379032800306442"><ele>467.50000000000006</ele><time>2026-03-29T13:50:18.999Z</time></trkpt><trkpt lat="43.47167811016769" lon="11.378926279521437"><ele>466.0</ele><time>2026-03-29T13:50:19.999Z</time></trkpt><trkpt lat="43.47167970874871" lon="11.378799880902173"><ele>464.20000000000005</ele><time>2026-03-29T13:50:20.999Z</time></trkpt><trkpt lat="43.471721784019195" lon="11.378551362819486"><ele>462.40000000000003</ele><time>2026-03-29T13:50:22.999Z</time></trkpt><trkpt lat="43.47173235206957" lon="11.378441563474704"><ele>460.6</ele><time>2026-03-29T13:50:23.999Z</time></trkpt><trkpt lat="43.471724314000205" lon="11.37835099651683"><ele>458.8</ele><time>2026-03-29T13:50:24.999Z</time></trkpt><trkpt lat="43.47174898905163" lon="11.378214645433458"><ele>457.0</ele><time>2026-03-29T13:50:26.999Z</time></trkpt><trkpt lat="43.471714517864164" lon="11.378058727572004"><ele>455.1666666666667</ele><time>2026-03-29T13:50:28.999Z</time></trkpt><trkpt lat="43.471682995012046" lon="11.377975464533986"><ele>453.33333333333337</ele><time>2026-03-29T13:50:29.999Z</time></trkpt><trkpt lat="43.471628259754254" lon="11.377918440446887"><ele>451.5</ele><time>2026-03-29T13:50:30.999Z</time></trkpt><trkpt lat="43.47157617085081" lon="11.377844606386263"><ele>449.66666666666663</ele><time>2026-03-29T13:50:31.999Z</time></trkpt><trkpt lat="43.471504193701584" lon="11.377761294652675"><ele>447.8333333333333</ele><time>2026-03-29T13:50:32.999Z</time></trkpt><trkpt lat="43.47143840139527" lon="11.377688951458282"><ele>446.0</ele><time>2026-03-29T13:50:33.999Z</time></trkpt><trkpt lat="43.47137144285029" lon="11.377628391870042"><ele>446.0</ele><time>2026-03-29T13:50:34.999Z</time></trkpt><trkpt lat="43.47131961867829" lon="11.377575109510657"><ele>446.0</ele><time>2026-03-29T13:50:35.999Z</time></trkpt><trkpt lat="43.471260249707186" lon="11.377522961821022"><ele>446.0</ele><time>2026-03-29T13:50:36.999Z</time></trkpt><trkpt lat="43.471205112170146" lon="11.377457475264505"><ele>446.0</ele><time>2026-03-29T13:50:37.999Z</time></trkpt><trkpt lat="43.471130256224136" lon="11.377428810964837"><ele>446.0</ele><time>2026-03-29T13:50:38.999Z</time></trkpt><trkpt lat="43.471063152432066" lon="11.37739409653289"><ele>446.0</ele><time>2026-03-29T13:50:39.999Z</time></trkpt><trkpt lat="43.47099076558333" lon="11.377339367431457"><ele>446.0</ele><time>2026-03-29T13:50:40.999Z</time></trkpt><trkpt lat="43.47091680573426" lon="11.377299480723751"><ele>445.8333333333333</ele><time>2026-03-29T13:50:41.999Z</time></trkpt><trkpt lat="43.470847398557694" lon="11.377246822108868"><ele>445.66666666666663</ele><time>2026-03-29T13:50:42.999Z</time></trkpt><trkpt lat="43.4707821382994" lon="11.377197045482868"><ele>445.5</ele><time>2026-03-29T13:50:43.999Z</time></trkpt><trkpt lat="43.470701571921296" lon="11.37714058275246"><ele>445.33333333333337</ele><time>2026-03-29T13:50:44.999Z</time></trkpt><trkpt lat="43.470623767693816" lon="11.37709996328406"><ele>445.1666666666667</ele><time>2026-03-29T13:50:45.999Z</time></trkpt><trkpt lat="43.47053722592033" lon="11.377064712222277"><ele>445.0</ele><time>2026-03-29T13:50:46.999Z</time></trkpt><trkpt lat="43.47044749748004" lon="11.377046096937864"><ele>442.33333333333337</ele><time>2026-03-29T13:50:47.999Z</time></trkpt><trkpt lat="43.470364805792684" lon="11.377022611746424"><ele>439.6666666666667</ele><time>2026-03-29T13:50:48.999Z</time></trkpt><trkpt lat="43.47028773823856" lon="11.376992550434379"><ele>437.0</ele><time>2026-03-29T13:50:49.999Z</time></trkpt><trkpt lat="43.47020433093086" lon="11.376969451917654"><ele>434.33333333333337</ele><time>2026-03-29T13:50:50.999Z</time></trkpt><trkpt lat="43.470126176391354" lon="11.376943639413678"><ele>431.6666666666667</ele><time>2026-03-29T13:50:51.999Z</time></trkpt><trkpt lat="43.4700488310788" lon="11.376904013416654"><ele>429.0</ele><time>2026-03-29T13:50:52.999Z</time></trkpt><trkpt lat="43.46997378630774" lon="11.376865803890496"><ele>429.0</ele><time>2026-03-29T13:50:53.999Z</time></trkpt><trkpt lat="43.46990096305698" lon="11.376838976237082"><ele>429.0</ele><time>2026-03-29T13:50:54.999Z</time></trkpt><trkpt lat="43.469835547356766" lon="11.37679848960462"><ele>429.0</ele><time>2026-03-29T13:50:55.999Z</time></trkpt><trkpt lat="43.469774114448335" lon="11.3767621170999"><ele>429.0</ele><time>2026-03-29T13:50:56.999Z</time></trkpt><trkpt lat="43.469709456319876" lon="11.376714266970074"><ele>429.0</ele><time>2026-03-29T13:50:57.999Z</time></trkpt><trkpt lat="43.46963945029303" lon="11.376679593382548"><ele>429.0</ele><time>2026-03-29T13:50:58.999Z</time></trkpt><trkpt lat="43.46958598710613" lon="11.376630383112994"><ele>429.0</ele><time>2026-03-29T13:50:59.999Z</time></trkpt><trkpt lat="43.469503326683125" lon="11.376534247441942"><ele>427.6666666666667</ele><time>2026-03-29T13:51:14.999Z</time></trkpt><trkpt lat="43.46943698075364" lon="11.376479300934168"><ele>426.33333333333337</ele><time>2026-03-29T13:51:15.999Z</time></trkpt><trkpt lat="43.46936729479802" lon="11.37643722358249"><ele>425.0</ele><time>2026-03-29T13:51:16.999Z</time></trkpt><trkpt lat="43.46930996006121" lon="11.376372749224618"><ele>423.6666666666667</ele><time>2026-03-29T13:51:17.999Z</time></trkpt><trkpt lat="43.46922294086389" lon="11.376375417939652"><ele>422.33333333333337</ele><time>2026-03-29T13:51:18.999Z</time></trkpt><trkpt lat="43.469137882143386" lon="11.376388372500275"><ele>421.0</ele><time>2026-03-29T13:51:19.999Z</time></trkpt><trkpt lat="43.46905505193435" lon="11.376439888430244"><ele>421.0</ele><time>2026-03-29T13:51:20.999Z</time></trkpt><trkpt lat="43.468959819298625" lon="11.376517133421952"><ele>421.0</ele><time>2026-03-29T13:51:21.999Z</time></trkpt><trkpt lat="43.468864269903676" lon="11.376540790681126"><ele>421.0</ele><time>2026-03-29T13:51:22.999Z</time></trkpt><trkpt lat="43.46876778314731" lon="11.376537356339787"><ele>421.0</ele><time>2026-03-29T13:51:23.999Z</time></trkpt><trkpt lat="43.46867150049324" lon="11.376528097121792"><ele>421.0</ele><time>2026-03-29T13:51:24.999Z</time></trkpt><trkpt lat="43.468574857061896" lon="11.376514219733144"><ele>418.6</ele><time>2026-03-29T13:51:25.999Z</time></trkpt><trkpt lat="43.468477447508135" lon="11.376497245892358"><ele>416.20000000000005</ele><time>2026-03-29T13:51:26.999Z</time></trkpt><trkpt lat="43.468377794880034" lon="11.37649948973581"><ele>413.79999999999995</ele><time>2026-03-29T13:51:27.999Z</time></trkpt><trkpt lat="43.468282118813505" lon="11.376461653189384"><ele>411.4</ele><time>2026-03-29T13:51:28.999Z</time></trkpt><trkpt lat="43.46818502473543" lon="11.376420655242647"><ele>409.0</ele><time>2026-03-29T13:51:29.999Z</time></trkpt><trkpt lat="43.46810075075076" lon="11.376385120637686"><ele>408.83333333333337</ele><time>2026-03-29T13:51:30.999Z</time></trkpt><trkpt lat="43.46802995144671" lon="11.37633826075543"><ele>408.6666666666667</ele><time>2026-03-29T13:51:31.999Z</time></trkpt><trkpt lat="43.46799217081251" lon="11.3762559926053"><ele>408.5</ele><time>2026-03-29T13:51:32.999Z</time></trkpt><trkpt lat="43.46798504765128" lon="11.376164598439704"><ele>408.33333333333337</ele><time>2026-03-29T13:51:33.999Z</time></trkpt><trkpt lat="43.46805407735385" lon="11.376099261802441"><ele>408.1666666666667</ele><time>2026-03-29T13:51:34.999Z</time></trkpt><trkpt lat="43.46808657078981" lon="11.375973489238875"><ele>408.0</ele><time>2026-03-29T13:51:35.999Z</time></trkpt><trkpt lat="43.468134357447404" lon="11.375783408516021"><ele>408.0</ele><time>2026-03-29T13:51:36.999Z</time></trkpt><trkpt lat="43.46819566615282" lon="11.375604852386092"><ele>408.0</ele><time>2026-03-29T13:51:37.999Z</time></trkpt><trkpt lat="43.46822841601013" lon="11.37545983419416"><ele>408.0</ele><time>2026-03-29T13:51:38.999Z</time></trkpt><trkpt lat="43.468243436918996" lon="11.375347909019261"><ele>408.0</ele><time>2026-03-29T13:51:39.999Z</time></trkpt><trkpt lat="43.468222020660065" lon="11.375235704288965"><ele>408.0</ele><time>2026-03-29T13:51:40.999Z</time></trkpt><trkpt lat="43.468226226748726" lon="11.375139805078136"><ele>406.1666666666667</ele><time>2026-03-29T13:51:41.999Z</time></trkpt><trkpt lat="43.468270652631574" lon="11.375076284727854"><ele>404.33333333333337</ele><time>2026-03-29T13:51:42.999Z</time></trkpt><trkpt lat="43.468325147768425" lon="11.375019784808705"><ele>402.5</ele><time>2026-03-29T13:51:44Z</time></trkpt><trkpt lat="43.46840005918137" lon="11.374975146125797"><ele>400.6666666666667</ele><time>2026-03-29T13:51:45Z</time></trkpt><trkpt lat="43.468503522901955" lon="11.374938426425167"><ele>398.83333333333337</ele><time>2026-03-29T13:51:46Z</time></trkpt><trkpt lat="43.46860985779513" lon="11.374946148278275"><ele>397.0</ele><time>2026-03-29T13:51:47Z</time></trkpt><trkpt lat="43.468704983443246" lon="11.374948539926505"><ele>396.00000000000006</ele><time>2026-03-29T13:51:48Z</time></trkpt><trkpt lat="43.468802034074756" lon="11.374945384048392"><ele>395.0</ele><time>2026-03-29T13:51:49Z</time></trkpt><trkpt lat="43.4688948383277" lon="11.374985691572597"><ele>394.0</ele><time>2026-03-29T13:51:50Z</time></trkpt><trkpt lat="43.46898669604519" lon="11.375019457210012"><ele>393.0</ele><time>2026-03-29T13:51:51Z</time></trkpt><trkpt lat="43.4690652218696" lon="11.375035090556274"><ele>392.00000000000006</ele><time>2026-03-29T13:51:52Z</time></trkpt><trkpt lat="43.46914087734341" lon="11.375010995058426"><ele>391.0</ele><time>2026-03-29T13:51:53Z</time></trkpt><trkpt lat="43.469209963466085" lon="11.374956672979822"><ele>391.00000000000006</ele><time>2026-03-29T13:51:54Z</time></trkpt><trkpt lat="43.46925228980681" lon="11.374877559248986"><ele>391.0</ele><time>2026-03-29T13:51:55Z</time></trkpt><trkpt lat="43.46927899880671" lon="11.374770793137706"><ele>391.0</ele><time>2026-03-29T13:51:56Z</time></trkpt><trkpt lat="43.469281581956245" lon="11.374637320079769"><ele>391.0</ele><time>2026-03-29T13:51:58Z</time></trkpt><trkpt lat="43.46928738167551" lon="11.37453742522792"><ele>391.00000000000006</ele><time>2026-03-29T13:52:08Z</time></trkpt><trkpt lat="43.469318053798055" lon="11.374406584937244"><ele>391.0</ele><time>2026-03-29T13:52:10Z</time></trkpt><trkpt lat="43.46941635287427" lon="11.374357153376824"><ele>389.8</ele><time>2026-03-29T13:52:12Z</time></trkpt><trkpt lat="43.46950469604453" lon="11.37433355906375"><ele>388.6</ele><time>2026-03-29T13:52:14Z</time></trkpt><trkpt lat="43.46936449621581" lon="11.374227186474226"><ele>387.4</ele><time>2026-03-29T13:52:24.999Z</time></trkpt><trkpt lat="43.469277409973344" lon="11.374243823482521"><ele>386.2</ele><time>2026-03-29T13:52:26.999Z</time></trkpt><trkpt lat="43.46920986563458" lon="11.374234448100513"><ele>385.0</ele><time>2026-03-29T13:52:27.999Z</time></trkpt><trkpt lat="43.469126115636975" lon="11.374219425514957"><ele>385.0</ele><time>2026-03-29T13:52:28.999Z</time></trkpt><trkpt lat="43.46902984857446" lon="11.374186609263434"><ele>385.0</ele><time>2026-03-29T13:52:29.999Z</time></trkpt><trkpt lat="43.468930543656754" lon="11.374124698466373"><ele>385.0</ele><time>2026-03-29T13:52:30.999Z</time></trkpt><trkpt lat="43.468846717150306" lon="11.374031435119077"><ele>385.0</ele><time>2026-03-29T13:52:31.999Z</time></trkpt><trkpt lat="43.46877155502291" lon="11.37392257104577"><ele>385.0</ele><time>2026-03-29T13:52:32.999Z</time></trkpt><trkpt lat="43.468684574120985" lon="11.373793922137576"><ele>384.5</ele><time>2026-03-29T13:52:33.999Z</time></trkpt><trkpt lat="43.468594127024375" lon="11.373660441804219"><ele>384.0</ele><time>2026-03-29T13:52:34.999Z</time></trkpt><trkpt lat="43.46848854453798" lon="11.37353670262148"><ele>383.5</ele><time>2026-03-29T13:52:35.999Z</time></trkpt><trkpt lat="43.468381941810925" lon="11.373456925016393"><ele>383.0</ele><time>2026-03-29T13:52:36.999Z</time></trkpt><trkpt lat="43.46828405224804" lon="11.373405027166847"><ele>383.0</ele><time>2026-03-29T13:52:37.999Z</time></trkpt><trkpt lat="43.46819560996334" lon="11.37336850132119"><ele>383.0</ele><time>2026-03-29T13:52:38.999Z</time></trkpt><trkpt lat="43.46811590529729" lon="11.373331750595064"><ele>383.0</ele><time>2026-03-29T13:52:39.999Z</time></trkpt><trkpt lat="43.46803943623421" lon="11.373290754903902"><ele>383.0</ele><time>2026-03-29T13:52:40.999Z</time></trkpt><trkpt lat="43.467965817050704" lon="11.373249225149866"><ele>383.0</ele><time>2026-03-29T13:52:41.999Z</time></trkpt><trkpt lat="43.46790847867105" lon="11.373183766902216"><ele>383.0</ele><time>2026-03-29T13:52:42.999Z</time></trkpt><trkpt lat="43.46785479925496" lon="11.373132784547893"><ele>380.6666666666667</ele><time>2026-03-29T13:52:43.999Z</time></trkpt><trkpt lat="43.46788295449107" lon="11.372876931368717"><ele>378.3333333333333</ele><time>2026-03-29T13:52:44.999Z</time></trkpt><trkpt lat="43.467841964916154" lon="11.372676406593396"><ele>376.0</ele><time>2026-03-29T13:52:45.999Z</time></trkpt><trkpt lat="43.4677956811959" lon="11.372448505432589"><ele>376.0</ele><time>2026-03-29T13:52:46.999Z</time></trkpt><trkpt lat="43.46773061010677" lon="11.372256995869266"><ele>376.0</ele><time>2026-03-29T13:52:47.999Z</time></trkpt><trkpt lat="43.467658307421026" lon="11.372069254267537"><ele>376.0</ele><time>2026-03-29T13:52:48.999Z</time></trkpt><trkpt lat="43.46758832058031" lon="11.37190692491337"><ele>376.0</ele><time>2026-03-29T13:52:49.999Z</time></trkpt><trkpt lat="43.46751177845477" lon="11.371753174446972"><ele>376.0</ele><time>2026-03-29T13:52:50.999Z</time></trkpt><trkpt lat="43.467424737344984" lon="11.371634474576842"><ele>376.0</ele><time>2026-03-29T13:52:51.999Z</time></trkpt><trkpt lat="43.46731959463306" lon="11.371535835951379"><ele>376.0</ele><time>2026-03-29T13:52:52.999Z</time></trkpt><trkpt lat="43.46720242868612" lon="11.371445795510054"><ele>376.0</ele><time>2026-03-29T13:52:53.999Z</time></trkpt><trkpt lat="43.467079327358704" lon="11.371372153182863"><ele>376.75</ele><time>2026-03-29T13:52:54.999Z</time></trkpt><trkpt lat="43.46695918767387" lon="11.371299193907507"><ele>377.5</ele><time>2026-03-29T13:52:55.999Z</time></trkpt><trkpt lat="43.46683921693984" lon="11.371209623959016"><ele>378.25</ele><time>2026-03-29T13:52:56.999Z</time></trkpt><trkpt lat="43.46672685381925" lon="11.371093302568596"><ele>379.0</ele><time>2026-03-29T13:52:57.999Z</time></trkpt><trkpt lat="43.46662207758001" lon="11.370942175074426"><ele>379.0</ele><time>2026-03-29T13:52:58.999Z</time></trkpt><trkpt lat="43.46651160505645" lon="11.37076917525841"><ele>379.0</ele><time>2026-03-29T13:52:59.999Z</time></trkpt><trkpt lat="43.46639334527548" lon="11.37057705115539"><ele>379.0</ele><time>2026-03-29T13:53:00.999Z</time></trkpt><trkpt lat="43.46631221453756" lon="11.370389606764272"><ele>378.0</ele><time>2026-03-29T13:53:01.999Z</time></trkpt><trkpt lat="43.46621813687845" lon="11.370222347225479"><ele>377.0</ele><time>2026-03-29T13:53:02.999Z</time></trkpt><trkpt lat="43.46614467444777" lon="11.370052568558725"><ele>376.0</ele><time>2026-03-29T13:53:03.999Z</time></trkpt><trkpt lat="43.46607172195271" lon="11.36986304042217"><ele>375.3333333333333</ele><time>2026-03-29T13:53:04.999Z</time></trkpt><trkpt lat="43.46600600602459" lon="11.369656766418386"><ele>374.6666666666667</ele><time>2026-03-29T13:53:05.999Z</time></trkpt><trkpt lat="43.465950802475504" lon="11.369461008872497"><ele>374.0</ele><time>2026-03-29T13:53:06.999Z</time></trkpt><trkpt lat="43.465900602621254" lon="11.36928281175966"><ele>374.0</ele><time>2026-03-29T13:53:07.999Z</time></trkpt><trkpt lat="43.46586026775057" lon="11.369110433923362"><ele>374.0</ele><time>2026-03-29T13:53:08.999Z</time></trkpt><trkpt lat="43.46583119738996" lon="11.368941665153274"><ele>374.0</ele><time>2026-03-29T13:53:09.999Z</time></trkpt><trkpt lat="43.465800031510064" lon="11.368763823409095"><ele>374.0</ele><time>2026-03-29T13:53:10.999Z</time></trkpt><trkpt lat="43.46577015185586" lon="11.368573021448542"><ele>374.0</ele><time>2026-03-29T13:53:11.999Z</time></trkpt><trkpt lat="43.465760361874096" lon="11.368381804681494"><ele>374.0</ele><time>2026-03-29T13:53:12.999Z</time></trkpt><trkpt lat="43.465783103438376" lon="11.368169956294818"><ele>374.0</ele><time>2026-03-29T13:53:13.999Z</time></trkpt><trkpt lat="43.465831288697125" lon="11.367935747603807"><ele>373.0</ele><time>2026-03-29T13:53:14.999Z</time></trkpt><trkpt lat="43.46589645946422" lon="11.367654769914699"><ele>372.0</ele><time>2026-03-29T13:53:15.999Z</time></trkpt><trkpt lat="43.465953353042494" lon="11.367368554231447"><ele>371.0</ele><time>2026-03-29T13:53:16.999Z</time></trkpt><trkpt lat="43.46600608065851" lon="11.367091642995984"><ele>370.33333333333337</ele><time>2026-03-29T13:53:17.999Z</time></trkpt><trkpt lat="43.46606180744625" lon="11.366834849550695"><ele>369.6666666666667</ele><time>2026-03-29T13:53:18.999Z</time></trkpt><trkpt lat="43.46611928289287" lon="11.36659342730375"><ele>369.0</ele><time>2026-03-29T13:53:19.999Z</time></trkpt><trkpt lat="43.46617580469643" lon="11.366354535582579"><ele>368.6666666666667</ele><time>2026-03-29T13:53:20.999Z</time></trkpt><trkpt lat="43.46623231675109" lon="11.366097818921661"><ele>368.33333333333337</ele><time>2026-03-29T13:53:21.999Z</time></trkpt><trkpt lat="43.466287755358294" lon="11.365841113829156"><ele>368.0</ele><time>2026-03-29T13:53:22.999Z</time></trkpt><trkpt lat="43.46633948333332" lon="11.365603448036492"><ele>368.6666666666667</ele><time>2026-03-29T13:53:23.999Z</time></trkpt><trkpt lat="43.46639062618942" lon="11.365378513120017"><ele>369.3333333333333</ele><time>2026-03-29T13:53:24.999Z</time></trkpt><trkpt lat="43.46643923701017" lon="11.365148177017504"><ele>370.0</ele><time>2026-03-29T13:53:25.999Z</time></trkpt><trkpt lat="43.46648845180161" lon="11.364912601899889"><ele>369.66666666666663</ele><time>2026-03-29T13:53:26.999Z</time></trkpt><trkpt lat="43.466537476408284" lon="11.364684799933928"><ele>369.3333333333333</ele><time>2026-03-29T13:53:27.999Z</time></trkpt><trkpt lat="43.46657887578696" lon="11.364469829868886"><ele>369.0</ele><time>2026-03-29T13:53:28.999Z</time></trkpt><trkpt lat="43.46661828634711" lon="11.364264052147227"><ele>369.0</ele><time>2026-03-29T13:53:29.999Z</time></trkpt><trkpt lat="43.46666467657933" lon="11.36405984139621"><ele>369.0</ele><time>2026-03-29T13:53:30.999Z</time></trkpt><trkpt lat="43.4667134975217" lon="11.363855527550541"><ele>369.0</ele><time>2026-03-29T13:53:31.999Z</time></trkpt><trkpt lat="43.46676114540642" lon="11.363667560999923"><ele>369.0</ele><time>2026-03-29T13:53:32.999Z</time></trkpt><trkpt lat="43.46680615363273" lon="11.363479921698751"><ele>369.0</ele><time>2026-03-29T13:53:33.999Z</time></trkpt><trkpt lat="43.4668456632058" lon="11.363307270398503"><ele>369.0</ele><time>2026-03-29T13:53:34.999Z</time></trkpt><trkpt lat="43.46687665489768" lon="11.363162739094248"><ele>369.0</ele><time>2026-03-29T13:53:35.999Z</time></trkpt><trkpt lat="43.466881359138405" lon="11.363029660415728"><ele>369.0</ele><time>2026-03-29T13:53:36.999Z</time></trkpt><trkpt lat="43.46685083766033" lon="11.362919166876274"><ele>369.0</ele><time>2026-03-29T13:53:37.999Z</time></trkpt><trkpt lat="43.466797102347975" lon="11.362816377996129"><ele>369.0</ele><time>2026-03-29T13:53:38.999Z</time></trkpt><trkpt lat="43.466731189074736" lon="11.362707664374017"><ele>369.0</ele><time>2026-03-29T13:53:39.999Z</time></trkpt><trkpt lat="43.466644353860175" lon="11.362579493259862"><ele>369.0</ele><time>2026-03-29T13:53:40.999Z</time></trkpt><trkpt lat="43.46655043567651" lon="11.362429141079225"><ele>369.0</ele><time>2026-03-29T13:53:41.999Z</time></trkpt><trkpt lat="43.466458979309145" lon="11.362240713379347"><ele>369.0</ele><time>2026-03-29T13:53:42.999Z</time></trkpt><trkpt lat="43.46638490803621" lon="11.362048673326612"><ele>369.0</ele><time>2026-03-29T13:53:43.999Z</time></trkpt><trkpt lat="43.466332325336126" lon="11.36186029031023"><ele>369.25</ele><time>2026-03-29T13:53:44.999Z</time></trkpt><trkpt lat="43.46628394837479" lon="11.36165178314269"><ele>369.5</ele><time>2026-03-29T13:53:45.999Z</time></trkpt><trkpt lat="43.466236145715946" lon="11.361449047571412"><ele>369.75</ele><time>2026-03-29T13:53:46.999Z</time></trkpt><trkpt lat="43.466182365253935" lon="11.361281949552422"><ele>370.0</ele><time>2026-03-29T13:53:47.999Z</time></trkpt><trkpt lat="43.46611387708321" lon="11.361157297453644"><ele>370.0</ele><time>2026-03-29T13:53:48.999Z</time></trkpt><trkpt lat="43.46604213009448" lon="11.36103840096475"><ele>370.0</ele><time>2026-03-29T13:53:50Z</time></trkpt><trkpt lat="43.46591834073501" lon="11.360976043515675"><ele>370.0</ele><time>2026-03-29T13:53:51Z</time></trkpt><trkpt lat="43.465798461925765" lon="11.360880848399647"><ele>370.0</ele><time>2026-03-29T13:53:52Z</time></trkpt><trkpt lat="43.46569317797319" lon="11.360766578379671"><ele>370.0</ele><time>2026-03-29T13:53:53Z</time></trkpt><trkpt lat="43.46562665032189" lon="11.360610811663637"><ele>370.0</ele><time>2026-03-29T13:53:54Z</time></trkpt><trkpt lat="43.46555065369499" lon="11.36043649690901"><ele>370.0</ele><time>2026-03-29T13:53:55Z</time></trkpt><trkpt lat="43.465447942187076" lon="11.36026279695403"><ele>370.0</ele><time>2026-03-29T13:53:56Z</time></trkpt><trkpt lat="43.465348063641486" lon="11.360118234430292"><ele>368.75</ele><time>2026-03-29T13:53:57Z</time></trkpt><trkpt lat="43.46524351714888" lon="11.360001323453154"><ele>367.5</ele><time>2026-03-29T13:53:58Z</time></trkpt><trkpt lat="43.46515667025164" lon="11.359860317972503"><ele>366.25</ele><time>2026-03-29T13:53:59Z</time></trkpt><trkpt lat="43.465105986240445" lon="11.359666434894915"><ele>365.0</ele><time>2026-03-29T13:54:00Z</time></trkpt><trkpt lat="43.46503388185977" lon="11.359492634692504"><ele>365.0</ele><time>2026-03-29T13:54:01Z</time></trkpt><trkpt lat="43.46499507455984" lon="11.359308870470299"><ele>365.0</ele><time>2026-03-29T13:54:02Z</time></trkpt><trkpt lat="43.464966341691124" lon="11.359121511262286"><ele>365.0</ele><time>2026-03-29T13:54:03Z</time></trkpt><trkpt lat="43.46494163840148" lon="11.358924455903523"><ele>365.0</ele><time>2026-03-29T13:54:04Z</time></trkpt><trkpt lat="43.464911478103595" lon="11.358722938647512"><ele>366.0</ele><time>2026-03-29T13:54:05Z</time></trkpt><trkpt lat="43.464872091017845" lon="11.358527144687304"><ele>367.0</ele><time>2026-03-29T13:54:06Z</time></trkpt><trkpt lat="43.464827234523135" lon="11.35834384694242"><ele>368.0</ele><time>2026-03-29T13:54:07Z</time></trkpt><trkpt lat="43.46477601594851" lon="11.358175795908721"><ele>369.0</ele><time>2026-03-29T13:54:08Z</time></trkpt><trkpt lat="43.46471805250417" lon="11.35800770241516"><ele>367.75</ele><time>2026-03-29T13:54:09Z</time></trkpt><trkpt lat="43.46464658492814" lon="11.35784314044173"><ele>366.5</ele><time>2026-03-29T13:54:10Z</time></trkpt><trkpt lat="43.464561670055424" lon="11.357691845954783"><ele>365.25</ele><time>2026-03-29T13:54:11Z</time></trkpt><trkpt lat="43.46447462372994" lon="11.35753902054902"><ele>364.0</ele><time>2026-03-29T13:54:12Z</time></trkpt><trkpt lat="43.46435336828633" lon="11.35743312129691"><ele>364.0</ele><time>2026-03-29T13:54:12.999Z</time></trkpt><trkpt lat="43.46423633390348" lon="11.357330841886688"><ele>364.0</ele><time>2026-03-29T13:54:13.999Z</time></trkpt><trkpt lat="43.464121555726024" lon="11.357214578165387"><ele>364.0</ele><time>2026-03-29T13:54:14.999Z</time></trkpt><trkpt lat="43.46399011206647" lon="11.357128203429099"><ele>364.0</ele><time>2026-03-29T13:54:15.999Z</time></trkpt><trkpt lat="43.46385572797997" lon="11.357070830485327"><ele>365.0</ele><time>2026-03-29T13:54:16.999Z</time></trkpt><trkpt lat="43.463729979735646" lon="11.357037348630246"><ele>366.0</ele><time>2026-03-29T13:54:17.999Z</time></trkpt><trkpt lat="43.463590398818404" lon="11.357025233690816"><ele>367.0</ele><time>2026-03-29T13:54:18.999Z</time></trkpt><trkpt lat="43.46342264379187" lon="11.356985345437474"><ele>368.0</ele><time>2026-03-29T13:54:19.999Z</time></trkpt><trkpt lat="43.46327834729753" lon="11.356966767291947"><ele>368.0</ele><time>2026-03-29T13:54:20.999Z</time></trkpt><trkpt lat="43.46316356198384" lon="11.356977209600752"><ele>368.0</ele><time>2026-03-29T13:54:21.999Z</time></trkpt><trkpt lat="43.46305317657273" lon="11.356917722499439"><ele>368.0</ele><time>2026-03-29T13:54:22.999Z</time></trkpt><trkpt lat="43.462967745748486" lon="11.356832488006035"><ele>368.0</ele><time>2026-03-29T13:54:23.999Z</time></trkpt><trkpt lat="43.462858832105645" lon="11.356724811098672"><ele>366.6666666666667</ele><time>2026-03-29T13:54:24.999Z</time></trkpt><trkpt lat="43.462722832593556" lon="11.356579790542769"><ele>365.3333333333333</ele><time>2026-03-29T13:54:25.999Z</time></trkpt><trkpt lat="43.46254537918735" lon="11.356442262965349"><ele>364.0</ele><time>2026-03-29T13:54:26.999Z</time></trkpt><trkpt lat="43.46238176040441" lon="11.356285259578613"><ele>364.0</ele><time>2026-03-29T13:54:27.999Z</time></trkpt><trkpt lat="43.462220080124034" lon="11.356119458897586"><ele>364.0</ele><time>2026-03-29T13:54:28.999Z</time></trkpt><trkpt lat="43.462080304309005" lon="11.355987346110766"><ele>364.0</ele><time>2026-03-29T13:54:29.999Z</time></trkpt><trkpt lat="43.461929182711216" lon="11.355840036821716"><ele>361.3333333333333</ele><time>2026-03-29T13:54:30.999Z</time></trkpt><trkpt lat="43.461788316700826" lon="11.355709204570804"><ele>358.6666666666667</ele><time>2026-03-29T13:54:31.999Z</time></trkpt><trkpt lat="43.46164633049483" lon="11.355595753271787"><ele>356.0</ele><time>2026-03-29T13:54:32.999Z</time></trkpt><trkpt lat="43.46152027443269" lon="11.35551391177526"><ele>355.6</ele><time>2026-03-29T13:54:33.999Z</time></trkpt><trkpt lat="43.46140367652192" lon="11.355486018411959"><ele>355.20000000000005</ele><time>2026-03-29T13:54:34.999Z</time></trkpt><trkpt lat="43.46130399053425" lon="11.355476807656968"><ele>354.79999999999995</ele><time>2026-03-29T13:54:35.999Z</time></trkpt><trkpt lat="43.46119748231858" lon="11.35549521568987"><ele>354.4</ele><time>2026-03-29T13:54:36.999Z</time></trkpt><trkpt lat="43.461085483003146" lon="11.355544640216955"><ele>354.0</ele><time>2026-03-29T13:54:37.999Z</time></trkpt><trkpt lat="43.460937731994036" lon="11.355592401848657"><ele>354.0</ele><time>2026-03-29T13:54:38.999Z</time></trkpt><trkpt lat="43.460778427843685" lon="11.35561329221684"><ele>354.0</ele><time>2026-03-29T13:54:39.999Z</time></trkpt><trkpt lat="43.4606247747194" lon="11.35561134977711"><ele>354.0</ele><time>2026-03-29T13:54:40.999Z</time></trkpt><trkpt lat="43.46045866725107" lon="11.355572769357819"><ele>353.25</ele><time>2026-03-29T13:54:41.999Z</time></trkpt><trkpt lat="43.460310043267434" lon="11.355513473053662"><ele>352.5</ele><time>2026-03-29T13:54:42.999Z</time></trkpt><trkpt lat="43.460176849758554" lon="11.355482791048507"><ele>351.75</ele><time>2026-03-29T13:54:43.999Z</time></trkpt><trkpt lat="43.46003970184076" lon="11.355491511470257"><ele>351.0</ele><time>2026-03-29T13:54:44.999Z</time></trkpt><trkpt lat="43.45990597665534" lon="11.355540245173062"><ele>351.0</ele><time>2026-03-29T13:54:45.999Z</time></trkpt><trkpt lat="43.4597729632161" lon="11.355586652562108"><ele>351.0</ele><time>2026-03-29T13:54:46.999Z</time></trkpt><trkpt lat="43.45963445583942" lon="11.35560321318884"><ele>351.0</ele><time>2026-03-29T13:54:47.999Z</time></trkpt><trkpt lat="43.4594785443528" lon="11.355573519585977"><ele>351.0</ele><time>2026-03-29T13:54:48.999Z</time></trkpt><trkpt lat="43.459305035090274" lon="11.355525105034138"><ele>350.75</ele><time>2026-03-29T13:54:49.999Z</time></trkpt><trkpt lat="43.45914607536915" lon="11.355482111427662"><ele>350.5</ele><time>2026-03-29T13:54:50.999Z</time></trkpt><trkpt lat="43.459017416257595" lon="11.35542832485316"><ele>350.25</ele><time>2026-03-29T13:54:51.999Z</time></trkpt><trkpt lat="43.45888205302534" lon="11.35537341089466"><ele>350.0</ele><time>2026-03-29T13:54:52.999Z</time></trkpt><trkpt lat="43.45875444381956" lon="11.35530279224358"><ele>350.0</ele><time>2026-03-29T13:54:53.999Z</time></trkpt><trkpt lat="43.45862019701343" lon="11.355205132789964"><ele>350.0</ele><time>2026-03-29T13:54:54.999Z</time></trkpt><trkpt lat="43.458497255507886" lon="11.355099698168813"><ele>350.0</ele><time>2026-03-29T13:54:55.999Z</time></trkpt><trkpt lat="43.45837306511067" lon="11.354991299731978"><ele>350.0</ele><time>2026-03-29T13:54:56.999Z</time></trkpt><trkpt lat="43.458260835134475" lon="11.354879150254044"><ele>350.0</ele><time>2026-03-29T13:54:57.999Z</time></trkpt><trkpt lat="43.45815408408436" lon="11.35477712337764"><ele>350.0</ele><time>2026-03-29T13:54:58.999Z</time></trkpt><trkpt lat="43.4580404427864" lon="11.354711100461236"><ele>350.0</ele><time>2026-03-29T13:54:59.999Z</time></trkpt><trkpt lat="43.45790540486177" lon="11.354674797360437"><ele>350.0</ele><time>2026-03-29T13:55:00.999Z</time></trkpt><trkpt lat="43.45774989773193" lon="11.354634567592928"><ele>351.6666666666667</ele><time>2026-03-29T13:55:01.999Z</time></trkpt><trkpt lat="43.45758203915256" lon="11.354578099244105"><ele>353.3333333333333</ele><time>2026-03-29T13:55:02.999Z</time></trkpt><trkpt lat="43.45741908220372" lon="11.354502204914526"><ele>355.0</ele><time>2026-03-29T13:55:03.999Z</time></trkpt><trkpt lat="43.45727964898504" lon="11.35441883553858"><ele>355.0</ele><time>2026-03-29T13:55:04.999Z</time></trkpt><trkpt lat="43.45715039737859" lon="11.354337887156685"><ele>355.0</ele><time>2026-03-29T13:55:05.999Z</time></trkpt><trkpt lat="43.457013826613846" lon="11.354287024022318"><ele>355.0</ele><time>2026-03-29T13:55:06.999Z</time></trkpt><trkpt lat="43.45686818328258" lon="11.354259634222212"><ele>355.0</ele><time>2026-03-29T13:55:07.999Z</time></trkpt><trkpt lat="43.45671738633813" lon="11.354233477924383"><ele>352.0</ele><time>2026-03-29T13:55:08.999Z</time></trkpt><trkpt lat="43.456558441001995" lon="11.354199801953117"><ele>349.0</ele><time>2026-03-29T13:55:09.999Z</time></trkpt><trkpt lat="43.456396258487544" lon="11.354171226934538"><ele>346.0</ele><time>2026-03-29T13:55:10.999Z</time></trkpt><trkpt lat="43.456232643832976" lon="11.354147557726355"><ele>345.66666666666663</ele><time>2026-03-29T13:55:11.999Z</time></trkpt><trkpt lat="43.4560679361462" lon="11.35411326093061"><ele>345.3333333333333</ele><time>2026-03-29T13:55:12.999Z</time></trkpt><trkpt lat="43.45590101637453" lon="11.354065745015482"><ele>345.0</ele><time>2026-03-29T13:55:13.999Z</time></trkpt><trkpt lat="43.455736823463965" lon="11.353994771667168"><ele>345.0</ele><time>2026-03-29T13:55:14.999Z</time></trkpt><trkpt lat="43.45558456118756" lon="11.35392274147965"><ele>345.0</ele><time>2026-03-29T13:55:15.999Z</time></trkpt><trkpt lat="43.45545377118145" lon="11.353891006220483"><ele>345.0</ele><time>2026-03-29T13:55:16.999Z</time></trkpt><trkpt lat="43.455333049561915" lon="11.353890238341288"><ele>345.0</ele><time>2026-03-29T13:55:17.999Z</time></trkpt><trkpt lat="43.4552183189968" lon="11.35392598195354"><ele>344.5</ele><time>2026-03-29T13:55:18.999Z</time></trkpt><trkpt lat="43.4551072040809" lon="11.35397081430755"><ele>344.0</ele><time>2026-03-29T13:55:19.999Z</time></trkpt><trkpt lat="43.45499809911092" lon="11.35400511190714"><ele>343.5</ele><time>2026-03-29T13:55:20.999Z</time></trkpt><trkpt lat="43.4548837106033" lon="11.354040789427325"><ele>343.0</ele><time>2026-03-29T13:55:21.999Z</time></trkpt><trkpt lat="43.45477356451445" lon="11.354096079049134"><ele>343.0</ele><time>2026-03-29T13:55:22.999Z</time></trkpt><trkpt lat="43.45466943456111" lon="11.354170506534354"><ele>343.0</ele><time>2026-03-29T13:55:23.999Z</time></trkpt><trkpt lat="43.454563974373954" lon="11.354248606985665"><ele>343.0</ele><time>2026-03-29T13:55:24.999Z</time></trkpt><trkpt lat="43.4544536108328" lon="11.354319744313726"><ele>343.0</ele><time>2026-03-29T13:55:25.999Z</time></trkpt><trkpt lat="43.454355218801666" lon="11.354357171168397"><ele>341.8333333333333</ele><time>2026-03-29T13:55:26.999Z</time></trkpt><trkpt lat="43.45426137235027" lon="11.354363025306299"><ele>340.66666666666663</ele><time>2026-03-29T13:55:27.999Z</time></trkpt><trkpt lat="43.45417915903378" lon="11.35434406924443"><ele>339.5</ele><time>2026-03-29T13:55:28.999Z</time></trkpt><trkpt lat="43.45411082275772" lon="11.354298709506523"><ele>338.3333333333333</ele><time>2026-03-29T13:55:29.999Z</time></trkpt><trkpt lat="43.45401586346613" lon="11.35423302778428"><ele>337.1666666666667</ele><time>2026-03-29T13:55:31.999Z</time></trkpt><trkpt lat="43.45394708718347" lon="11.354238503071441"><ele>336.0</ele><time>2026-03-29T13:55:32.999Z</time></trkpt><trkpt lat="43.45386059674761" lon="11.35427642922082"><ele>338.0</ele><time>2026-03-29T13:55:33.999Z</time></trkpt><trkpt lat="43.45376049466532" lon="11.35433764358046"><ele>340.0</ele><time>2026-03-29T13:55:34.999Z</time></trkpt><trkpt lat="43.453636350396906" lon="11.354414441382595"><ele>342.0</ele><time>2026-03-29T13:55:35.999Z</time></trkpt><trkpt lat="43.45349991046945" lon="11.354482500917785"><ele>344.0</ele><time>2026-03-29T13:55:36.999Z</time></trkpt><trkpt lat="43.45335431440702" lon="11.354552021367953"><ele>344.0</ele><time>2026-03-29T13:55:37.999Z</time></trkpt><trkpt lat="43.45319155802799" lon="11.354633208046083"><ele>344.0</ele><time>2026-03-29T13:55:38.999Z</time></trkpt><trkpt lat="43.45303257524192" lon="11.35472486447772"><ele>344.0</ele><time>2026-03-29T13:55:39.999Z</time></trkpt><trkpt lat="43.4528629418498" lon="11.354831139625952"><ele>343.33333333333337</ele><time>2026-03-29T13:55:40.999Z</time></trkpt><trkpt lat="43.45269643809098" lon="11.354943820185225"><ele>342.6666666666667</ele><time>2026-03-29T13:55:41.999Z</time></trkpt><trkpt lat="43.45254766562479" lon="11.355036872825709"><ele>342.0</ele><time>2026-03-29T13:55:42.999Z</time></trkpt><trkpt lat="43.45241679308771" lon="11.355097474373823"><ele>342.0</ele><time>2026-03-29T13:55:43.999Z</time></trkpt><trkpt lat="43.45228869510122" lon="11.355148761731208"><ele>342.0</ele><time>2026-03-29T13:55:44.999Z</time></trkpt><trkpt lat="43.45216101344456" lon="11.35520056795299"><ele>342.0</ele><time>2026-03-29T13:55:45.999Z</time></trkpt><trkpt lat="43.4520264696712" lon="11.355249802950917"><ele>342.0</ele><time>2026-03-29T13:55:46.999Z</time></trkpt><trkpt lat="43.45188534217342" lon="11.355282255097524"><ele>343.75</ele><time>2026-03-29T13:55:47.999Z</time></trkpt><trkpt lat="43.45174245141072" lon="11.355298463235597"><ele>345.5</ele><time>2026-03-29T13:55:48.999Z</time></trkpt><trkpt lat="43.45160729402505" lon="11.35533642343696"><ele>347.25</ele><time>2026-03-29T13:55:49.999Z</time></trkpt><trkpt lat="43.45146913244389" lon="11.355415308697856"><ele>349.0</ele><time>2026-03-29T13:55:50.999Z</time></trkpt><trkpt lat="43.4513329118618" lon="11.355518096610373"><ele>348.5</ele><time>2026-03-29T13:55:51.999Z</time></trkpt><trkpt lat="43.451186428141156" lon="11.355631923586646"><ele>348.0</ele><time>2026-03-29T13:55:52.999Z</time></trkpt><trkpt lat="43.45106071831877" lon="11.355742093154062"><ele>347.5</ele><time>2026-03-29T13:55:53.999Z</time></trkpt><trkpt lat="43.450959276184044" lon="11.355854484383027"><ele>347.0</ele><time>2026-03-29T13:55:54.999Z</time></trkpt><trkpt lat="43.450868488087735" lon="11.355979446713716"><ele>347.0</ele><time>2026-03-29T13:55:56Z</time></trkpt><trkpt lat="43.45078668309729" lon="11.356089862159664"><ele>347.0</ele><time>2026-03-29T13:55:57Z</time></trkpt><trkpt lat="43.45070364674295" lon="11.356168032339461"><ele>347.0</ele><time>2026-03-29T13:55:58Z</time></trkpt><trkpt lat="43.45063040080261" lon="11.356252069894035"><ele>347.0</ele><time>2026-03-29T13:55:59Z</time></trkpt><trkpt lat="43.450543308643574" lon="11.356350131768343"><ele>347.0</ele><time>2026-03-29T13:56:00Z</time></trkpt><trkpt lat="43.45043160776865" lon="11.356464670835946"><ele>345.25</ele><time>2026-03-29T13:56:01Z</time></trkpt><trkpt lat="43.45030304551338" lon="11.35657807271431"><ele>343.5</ele><time>2026-03-29T13:56:02Z</time></trkpt><trkpt lat="43.45018780500921" lon="11.356670118443342"><ele>341.75</ele><time>2026-03-29T13:56:03Z</time></trkpt><trkpt lat="43.450080499608234" lon="11.356739025022177"><ele>340.0</ele><time>2026-03-29T13:56:04Z</time></trkpt><trkpt lat="43.449963335636326" lon="11.35677128444068"><ele>340.0</ele><time>2026-03-29T13:56:05Z</time></trkpt><trkpt lat="43.44982850291838" lon="11.356768988529362"><ele>340.0</ele><time>2026-03-29T13:56:06Z</time></trkpt><trkpt lat="43.449691358851" lon="11.356744797240022"><ele>340.0</ele><time>2026-03-29T13:56:07Z</time></trkpt><trkpt lat="43.449571224904645" lon="11.356716418240921"><ele>340.0</ele><time>2026-03-29T13:56:08Z</time></trkpt><trkpt lat="43.44945156584845" lon="11.356693295988876"><ele>338.0</ele><time>2026-03-29T13:56:09Z</time></trkpt><trkpt lat="43.44933529110457" lon="11.356657065306738"><ele>336.0</ele><time>2026-03-29T13:56:10Z</time></trkpt><trkpt lat="43.449214273772135" lon="11.356587158681602"><ele>334.0</ele><time>2026-03-29T13:56:11Z</time></trkpt><trkpt lat="43.449091035172664" lon="11.356476683992362"><ele>332.0</ele><time>2026-03-29T13:56:12Z</time></trkpt><trkpt lat="43.44895314556118" lon="11.356339854031376"><ele>333.33333333333337</ele><time>2026-03-29T13:56:13Z</time></trkpt><trkpt lat="43.44879702218709" lon="11.356221034287282"><ele>334.6666666666667</ele><time>2026-03-29T13:56:14Z</time></trkpt><trkpt lat="43.44862948944452" lon="11.356122844503092"><ele>336.0</ele><time>2026-03-29T13:56:15Z</time></trkpt><trkpt lat="43.44843609784462" lon="11.356024258466876"><ele>336.0</ele><time>2026-03-29T13:56:16Z</time></trkpt><trkpt lat="43.44824390227502" lon="11.355911969439799"><ele>336.0</ele><time>2026-03-29T13:56:17Z</time></trkpt><trkpt lat="43.4480800680185" lon="11.355818132559042"><ele>336.0</ele><time>2026-03-29T13:56:18Z</time></trkpt><trkpt lat="43.44793875971099" lon="11.355723737427423"><ele>334.75</ele><time>2026-03-29T13:56:19Z</time></trkpt><trkpt lat="43.44780696305408" lon="11.355633037169355"><ele>333.5</ele><time>2026-03-29T13:56:20Z</time></trkpt><trkpt lat="43.44767032212766" lon="11.355551195795728"><ele>332.25</ele><time>2026-03-29T13:56:21Z</time></trkpt><trkpt lat="43.44752582989764" lon="11.355484819205934"><ele>331.0</ele><time>2026-03-29T13:56:22Z</time></trkpt><trkpt lat="43.44736746264374" lon="11.355435230284478"><ele>333.0</ele><time>2026-03-29T13:56:23Z</time></trkpt><trkpt lat="43.44718682493871" lon="11.355397250740054"><ele>335.0</ele><time>2026-03-29T13:56:24Z</time></trkpt><trkpt lat="43.44699838340216" lon="11.355361000507973"><ele>337.0</ele><time>2026-03-29T13:56:25Z</time></trkpt><trkpt lat="43.44679679386816" lon="11.355327066890755"><ele>337.0</ele><time>2026-03-29T13:56:26Z</time></trkpt><trkpt lat="43.44660171691779" lon="11.355287253661713"><ele>337.0</ele><time>2026-03-29T13:56:27Z</time></trkpt><trkpt lat="43.44643021135162" lon="11.355256147186902"><ele>337.0</ele><time>2026-03-29T13:56:28Z</time></trkpt><trkpt lat="43.446259631500524" lon="11.355228334073347"><ele>335.3333333333333</ele><time>2026-03-29T13:56:29Z</time></trkpt><trkpt lat="43.446095745327675" lon="11.355207025184844"><ele>333.6666666666667</ele><time>2026-03-29T13:56:30Z</time></trkpt><trkpt lat="43.44594314921936" lon="11.355194188189682"><ele>332.0</ele><time>2026-03-29T13:56:31Z</time></trkpt><trkpt lat="43.44580148692467" lon="11.355189712821959"><ele>332.0</ele><time>2026-03-29T13:56:32Z</time></trkpt><trkpt lat="43.445670715010856" lon="11.355163774080694"><ele>332.0</ele><time>2026-03-29T13:56:33Z</time></trkpt><trkpt lat="43.44554326384306" lon="11.355108063258895"><ele>332.0</ele><time>2026-03-29T13:56:34Z</time></trkpt><trkpt lat="43.445430639928425" lon="11.355027104941268"><ele>332.0</ele><time>2026-03-29T13:56:35Z</time></trkpt><trkpt lat="43.44532288904496" lon="11.35493094492794"><ele>331.20000000000005</ele><time>2026-03-29T13:56:36Z</time></trkpt><trkpt lat="43.445220108703055" lon="11.354830057692183"><ele>330.4</ele><time>2026-03-29T13:56:37Z</time></trkpt><trkpt lat="43.44513765047277" lon="11.354719546114325"><ele>329.6</ele><time>2026-03-29T13:56:38Z</time></trkpt><trkpt lat="43.44507249791237" lon="11.354613044966861"><ele>328.79999999999995</ele><time>2026-03-29T13:56:39Z</time></trkpt><trkpt lat="43.44501555489798" lon="11.35449967286219"><ele>328.0</ele><time>2026-03-29T13:56:40Z</time></trkpt><trkpt lat="43.44497889964332" lon="11.354382618558159"><ele>328.0</ele><time>2026-03-29T13:56:40.999Z</time></trkpt><trkpt lat="43.44495477819196" lon="11.35423050156295"><ele>328.0</ele><time>2026-03-29T13:56:41.999Z</time></trkpt><trkpt lat="43.444943548370965" lon="11.354094523271815"><ele>328.0</ele><time>2026-03-29T13:56:42.999Z</time></trkpt><trkpt lat="43.44493699030707" lon="11.353974683545143"><ele>328.0</ele><time>2026-03-29T13:56:43.999Z</time></trkpt><trkpt lat="43.4449303344495" lon="11.353861548461465"><ele>328.0</ele><time>2026-03-29T13:56:44.999Z</time></trkpt><trkpt lat="43.444924279545134" lon="11.35375466396443"><ele>327.79999999999995</ele><time>2026-03-29T13:56:45.999Z</time></trkpt><trkpt lat="43.444940902703294" lon="11.353655822258442"><ele>327.6</ele><time>2026-03-29T13:56:46.999Z</time></trkpt><trkpt lat="43.44498419999218" lon="11.353550687420377"><ele>327.4</ele><time>2026-03-29T13:56:47.999Z</time></trkpt><trkpt lat="43.44505670393092" lon="11.3534377607624"><ele>327.20000000000005</ele><time>2026-03-29T13:56:48.999Z</time></trkpt><trkpt lat="43.44515479209706" lon="11.353321089778081"><ele>327.0</ele><time>2026-03-29T13:56:49.999Z</time></trkpt><trkpt lat="43.445277320078105" lon="11.353214658332105"><ele>327.0</ele><time>2026-03-29T13:56:50.999Z</time></trkpt><trkpt lat="43.44541718670892" lon="11.353115404598526"><ele>327.0</ele><time>2026-03-29T13:56:51.999Z</time></trkpt><trkpt lat="43.4455884858143" lon="11.353000813253159"><ele>327.0</ele><time>2026-03-29T13:56:52.999Z</time></trkpt><trkpt lat="43.445763634587934" lon="11.352885760778312"><ele>328.3333333333333</ele><time>2026-03-29T13:56:53.999Z</time></trkpt><trkpt lat="43.445952761094944" lon="11.35275851333318"><ele>329.66666666666663</ele><time>2026-03-29T13:56:54.999Z</time></trkpt><trkpt lat="43.44614000397896" lon="11.35262979744408"><ele>331.0</ele><time>2026-03-29T13:56:55.999Z</time></trkpt><trkpt lat="43.44633099639705" lon="11.352504663514113"><ele>332.0</ele><time>2026-03-29T13:56:56.999Z</time></trkpt><trkpt lat="43.446521033386006" lon="11.352372833820933"><ele>333.0</ele><time>2026-03-29T13:56:57.999Z</time></trkpt><trkpt lat="43.44669368080894" lon="11.352243795074292"><ele>334.0</ele><time>2026-03-29T13:56:58.999Z</time></trkpt><trkpt lat="43.446836066986315" lon="11.352117407840618"><ele>334.0</ele><time>2026-03-29T13:56:59.999Z</time></trkpt><trkpt lat="43.44698250781567" lon="11.35197179573815"><ele>334.0</ele><time>2026-03-29T13:57:00.999Z</time></trkpt><trkpt lat="43.44712530445537" lon="11.351822492448512"><ele>334.0</ele><time>2026-03-29T13:57:01.999Z</time></trkpt><trkpt lat="43.44726509733855" lon="11.35166940128751"><ele>335.0</ele><time>2026-03-29T13:57:02.999Z</time></trkpt><trkpt lat="43.44739722711476" lon="11.351536586936115"><ele>336.0</ele><time>2026-03-29T13:57:03.999Z</time></trkpt><trkpt lat="43.44753497263529" lon="11.351425667617976"><ele>337.0</ele><time>2026-03-29T13:57:04.999Z</time></trkpt><trkpt lat="43.44767749427585" lon="11.351337482283999"><ele>337.3333333333333</ele><time>2026-03-29T13:57:05.999Z</time></trkpt><trkpt lat="43.44782181428633" lon="11.351234800275906"><ele>337.6666666666667</ele><time>2026-03-29T13:57:06.999Z</time></trkpt><trkpt lat="43.44796631038348" lon="11.351116176005444"><ele>338.0</ele><time>2026-03-29T13:57:07.999Z</time></trkpt><trkpt lat="43.44810944979132" lon="11.351003001110666"><ele>338.0</ele><time>2026-03-29T13:57:08.999Z</time></trkpt><trkpt lat="43.44825106564159" lon="11.350900064604229"><ele>338.0</ele><time>2026-03-29T13:57:09.999Z</time></trkpt><trkpt lat="43.44838226437295" lon="11.350815637365216"><ele>338.0</ele><time>2026-03-29T13:57:10.999Z</time></trkpt><trkpt lat="43.44849606980606" lon="11.35072273567032"><ele>338.0</ele><time>2026-03-29T13:57:11.999Z</time></trkpt><trkpt lat="43.44858368945516" lon="11.350589019742767"><ele>339.0</ele><time>2026-03-29T13:57:12.999Z</time></trkpt><trkpt lat="43.44867246134614" lon="11.350414179116758"><ele>340.0</ele><time>2026-03-29T13:57:13.999Z</time></trkpt><trkpt lat="43.448792102212195" lon="11.350228551802683"><ele>341.0</ele><time>2026-03-29T13:57:14.999Z</time></trkpt><trkpt lat="43.448939368134624" lon="11.350075533083954"><ele>341.0</ele><time>2026-03-29T13:57:15.999Z</time></trkpt><trkpt lat="43.44910650136245" lon="11.349932694853152"><ele>341.0</ele><time>2026-03-29T13:57:16.999Z</time></trkpt><trkpt lat="43.44926880517192" lon="11.349786631061702"><ele>341.0</ele><time>2026-03-29T13:57:17.999Z</time></trkpt><trkpt lat="43.44941099250734" lon="11.349615621488946"><ele>340.33333333333337</ele><time>2026-03-29T13:57:18.999Z</time></trkpt><trkpt lat="43.44954888443897" lon="11.34943205374945"><ele>339.6666666666667</ele><time>2026-03-29T13:57:19.999Z</time></trkpt><trkpt lat="43.44968017568453" lon="11.34926074060139"><ele>339.0</ele><time>2026-03-29T13:57:20.999Z</time></trkpt><trkpt lat="43.449799629026295" lon="11.349097816037844"><ele>339.75</ele><time>2026-03-29T13:57:21.999Z</time></trkpt><trkpt lat="43.44990293200251" lon="11.348940760189809"><ele>340.5</ele><time>2026-03-29T13:57:22.999Z</time></trkpt><trkpt lat="43.44999014996258" lon="11.348795359963244"><ele>341.25</ele><time>2026-03-29T13:57:23.999Z</time></trkpt><trkpt lat="43.45005519704244" lon="11.348646108316409"><ele>342.0</ele><time>2026-03-29T13:57:24.999Z</time></trkpt><trkpt lat="43.45010951716935" lon="11.348475918845628"><ele>342.0</ele><time>2026-03-29T13:57:25.999Z</time></trkpt><trkpt lat="43.45017682969156" lon="11.348313850178927"><ele>342.0</ele><time>2026-03-29T13:57:26.999Z</time></trkpt><trkpt lat="43.45025923621632" lon="11.348158507844872"><ele>342.0</ele><time>2026-03-29T13:57:27.999Z</time></trkpt><trkpt lat="43.450358834861284" lon="11.348021060636361"><ele>342.0</ele><time>2026-03-29T13:57:28.999Z</time></trkpt><trkpt lat="43.450463557315835" lon="11.347884903977638"><ele>343.6666666666667</ele><time>2026-03-29T13:57:29.999Z</time></trkpt><trkpt lat="43.450583256793806" lon="11.34773679142113"><ele>345.33333333333337</ele><time>2026-03-29T13:57:30.999Z</time></trkpt><trkpt lat="43.45070391329714" lon="11.347612909879112"><ele>347.0</ele><time>2026-03-29T13:57:31.999Z</time></trkpt><trkpt lat="43.450824979325354" lon="11.347498464652606"><ele>347.0</ele><time>2026-03-29T13:57:32.999Z</time></trkpt><trkpt lat="43.450945596738364" lon="11.347386489245677"><ele>347.0</ele><time>2026-03-29T13:57:33.999Z</time></trkpt><trkpt lat="43.45105450225268" lon="11.347268039277889"><ele>347.0</ele><time>2026-03-29T13:57:34.999Z</time></trkpt><trkpt lat="43.451150368773035" lon="11.347126785425266"><ele>347.0</ele><time>2026-03-29T13:57:35.999Z</time></trkpt><trkpt lat="43.45122520766184" lon="11.346974108870079"><ele>346.20000000000005</ele><time>2026-03-29T13:57:36.999Z</time></trkpt><trkpt lat="43.45128579119059" lon="11.346830999666047"><ele>345.4</ele><time>2026-03-29T13:57:37.999Z</time></trkpt><trkpt lat="43.45133557871027" lon="11.346704224243853"><ele>344.6</ele><time>2026-03-29T13:57:38.999Z</time></trkpt><trkpt lat="43.45139720222552" lon="11.346587665629649"><ele>343.79999999999995</ele><time>2026-03-29T13:57:39.999Z</time></trkpt><trkpt lat="43.451467034425924" lon="11.346465967348713"><ele>343.0</ele><time>2026-03-29T13:57:40.999Z</time></trkpt><trkpt lat="43.45153929416331" lon="11.346331466523432"><ele>345.75</ele><time>2026-03-29T13:57:41.999Z</time></trkpt><trkpt lat="43.45160089674859" lon="11.34616905789258"><ele>348.5</ele><time>2026-03-29T13:57:42.999Z</time></trkpt><trkpt lat="43.45165896729202" lon="11.346003414107988"><ele>351.25</ele><time>2026-03-29T13:57:43.999Z</time></trkpt><trkpt lat="43.45171396042107" lon="11.345881199470847"><ele>354.0</ele><time>2026-03-29T13:57:44.999Z</time></trkpt><trkpt lat="43.451786267737816" lon="11.34579030675705"><ele>354.0</ele><time>2026-03-29T13:57:45.999Z</time></trkpt><trkpt lat="43.45187689477273" lon="11.345717661820064"><ele>354.0</ele><time>2026-03-29T13:57:46.999Z</time></trkpt><trkpt lat="43.451987196389034" lon="11.345642293706424"><ele>354.0</ele><time>2026-03-29T13:57:47.999Z</time></trkpt><trkpt lat="43.45209984407484" lon="11.34558354012544"><ele>354.0</ele><time>2026-03-29T13:57:48.999Z</time></trkpt><trkpt lat="43.452204448851475" lon="11.345522310381874"><ele>356.5</ele><time>2026-03-29T13:57:49.999Z</time></trkpt><trkpt lat="43.452302608035474" lon="11.345463202922414"><ele>359.0</ele><time>2026-03-29T13:57:50.999Z</time></trkpt><trkpt lat="43.45239088542941" lon="11.34541382767992"><ele>361.5</ele><time>2026-03-29T13:57:51.999Z</time></trkpt><trkpt lat="43.4524694047438" lon="11.345365581138559"><ele>364.0</ele><time>2026-03-29T13:57:52.999Z</time></trkpt><trkpt lat="43.45253912943722" lon="11.34533380345829"><ele>366.5</ele><time>2026-03-29T13:57:53.999Z</time></trkpt><trkpt lat="43.45260235894157" lon="11.345307683342705"><ele>369.0</ele><time>2026-03-29T13:57:54.999Z</time></trkpt><trkpt lat="43.452711705066875" lon="11.345286358952496"><ele>369.0</ele><time>2026-03-29T13:57:56.999Z</time></trkpt><trkpt lat="43.452778133713174" lon="11.345243973882479"><ele>369.0</ele><time>2026-03-29T13:57:58.999Z</time></trkpt><trkpt lat="43.45277922716247" lon="11.34513413362882"><ele>369.0</ele><time>2026-03-29T13:58:02Z</time></trkpt><trkpt lat="43.45271137084544" lon="11.345045553494897"><ele>369.0</ele><time>2026-03-29T13:58:04Z</time></trkpt><trkpt lat="43.45263915219715" lon="11.344989975178935"><ele>369.0</ele><time>2026-03-29T13:58:06Z</time></trkpt><trkpt lat="43.45255307570929" lon="11.344880998527943"><ele>369.0</ele><time>2026-03-29T13:58:08Z</time></trkpt><trkpt lat="43.45247819861258" lon="11.344797548734212"><ele>371.4</ele><time>2026-03-29T13:58:09Z</time></trkpt><trkpt lat="43.45239832492475" lon="11.344709674907367"><ele>373.79999999999995</ele><time>2026-03-29T13:58:10Z</time></trkpt><trkpt lat="43.452333946221565" lon="11.344612520208893"><ele>376.20000000000005</ele><time>2026-03-29T13:58:11Z</time></trkpt><trkpt lat="43.45226429322453" lon="11.344493051673627"><ele>378.6</ele><time>2026-03-29T13:58:12Z</time></trkpt><trkpt lat="43.45221432838603" lon="11.344370167287826"><ele>381.0</ele><time>2026-03-29T13:58:13Z</time></trkpt><trkpt lat="43.45219525677862" lon="11.344267083872131"><ele>381.0</ele><time>2026-03-29T13:58:14Z</time></trkpt><trkpt lat="43.452208483135564" lon="11.344170724666476"><ele>381.0</ele><time>2026-03-29T13:58:15Z</time></trkpt><trkpt lat="43.45223989834154" lon="11.344083094254453"><ele>381.0</ele><time>2026-03-29T13:58:16Z</time></trkpt><trkpt lat="43.45235078078064" lon="11.344023145121932"><ele>381.0</ele><time>2026-03-29T13:58:18Z</time></trkpt><trkpt lat="43.45243174219633" lon="11.344020434963168"><ele>381.0</ele><time>2026-03-29T13:58:19Z</time></trkpt><trkpt lat="43.45253937268371" lon="11.344003212123488"><ele>381.0</ele><time>2026-03-29T13:58:20Z</time></trkpt><trkpt lat="43.452636921376595" lon="11.343955122643397"><ele>381.0</ele><time>2026-03-29T13:58:21Z</time></trkpt><trkpt lat="43.452701972707025" lon="11.343877846975245"><ele>381.0</ele><time>2026-03-29T13:58:22Z</time></trkpt><trkpt lat="43.45273635630076" lon="11.343779886400553"><ele>381.0</ele><time>2026-03-29T13:58:23Z</time></trkpt><trkpt lat="43.45275850254677" lon="11.343680573918297"><ele>381.0</ele><time>2026-03-29T13:58:24Z</time></trkpt><trkpt lat="43.45277752296023" lon="11.343555214597519"><ele>381.0</ele><time>2026-03-29T13:58:25Z</time></trkpt><trkpt lat="43.45280113701813" lon="11.343413112866306"><ele>383.5</ele><time>2026-03-29T13:58:26Z</time></trkpt><trkpt lat="43.45284562968197" lon="11.343275637203533"><ele>386.0</ele><time>2026-03-29T13:58:27Z</time></trkpt><trkpt lat="43.45291378853172" lon="11.343145899537777"><ele>388.5</ele><time>2026-03-29T13:58:28Z</time></trkpt><trkpt lat="43.45298426958452" lon="11.343020292266818"><ele>391.0</ele><time>2026-03-29T13:58:29Z</time></trkpt><trkpt lat="43.453046068007296" lon="11.342888329088474"><ele>394.25</ele><time>2026-03-29T13:58:30Z</time></trkpt><trkpt lat="43.45310229468179" lon="11.342755403696907"><ele>397.5</ele><time>2026-03-29T13:58:31Z</time></trkpt><trkpt lat="43.45315641015418" lon="11.342615881168289"><ele>400.75</ele><time>2026-03-29T13:58:32Z</time></trkpt><trkpt lat="43.45321663644574" lon="11.342467347472368"><ele>404.0</ele><time>2026-03-29T13:58:33Z</time></trkpt><trkpt lat="43.453289770840726" lon="11.3422948515324"><ele>406.25</ele><time>2026-03-29T13:58:34Z</time></trkpt><trkpt lat="43.45336387718571" lon="11.342122277965037"><ele>408.5</ele><time>2026-03-29T13:58:35Z</time></trkpt><trkpt lat="43.45342867900353" lon="11.341997147973752"><ele>410.75</ele><time>2026-03-29T13:58:36Z</time></trkpt><trkpt lat="43.45350716093386" lon="11.341867916316184"><ele>413.0</ele><time>2026-03-29T13:58:37Z</time></trkpt><trkpt lat="43.45359895264345" lon="11.341700558897655"><ele>413.0</ele><time>2026-03-29T13:58:38Z</time></trkpt><trkpt lat="43.45367863143988" lon="11.34153758993715"><ele>413.0</ele><time>2026-03-29T13:58:39Z</time></trkpt><trkpt lat="43.45373385005012" lon="11.341393015798204"><ele>413.0</ele><time>2026-03-29T13:58:40Z</time></trkpt><trkpt lat="43.45379463647591" lon="11.34121063347384"><ele>413.0</ele><time>2026-03-29T13:58:41Z</time></trkpt><trkpt lat="43.45387846815646" lon="11.340986215382749"><ele>416.66666666666663</ele><time>2026-03-29T13:58:42Z</time></trkpt><trkpt lat="43.45396233537395" lon="11.340781503357723"><ele>420.33333333333337</ele><time>2026-03-29T13:58:43Z</time></trkpt><trkpt lat="43.45403778395536" lon="11.340600248629322"><ele>424.0</ele><time>2026-03-29T13:58:44Z</time></trkpt><trkpt lat="43.45412933917447" lon="11.34044611641805"><ele>424.6666666666667</ele><time>2026-03-29T13:58:45Z</time></trkpt><trkpt lat="43.45424977081912" lon="11.3402714500175"><ele>425.33333333333337</ele><time>2026-03-29T13:58:46Z</time></trkpt><trkpt lat="43.45435966198723" lon="11.340124930060396"><ele>426.0</ele><time>2026-03-29T13:58:47Z</time></trkpt><trkpt lat="43.45445360017374" lon="11.3399922140489"><ele>426.0</ele><time>2026-03-29T13:58:48Z</time></trkpt><trkpt lat="43.45456415897614" lon="11.339850641756017"><ele>426.0</ele><time>2026-03-29T13:58:49Z</time></trkpt><trkpt lat="43.454687865118146" lon="11.339697059814497"><ele>426.0</ele><time>2026-03-29T13:58:50Z</time></trkpt><trkpt lat="43.4547975944387" lon="11.339550126285049"><ele>429.5</ele><time>2026-03-29T13:58:51Z</time></trkpt><trkpt lat="43.45489967055538" lon="11.33940576657702"><ele>433.0</ele><time>2026-03-29T13:58:52Z</time></trkpt><trkpt lat="43.4549968055962" lon="11.339252959272923"><ele>436.5</ele><time>2026-03-29T13:58:53Z</time></trkpt><trkpt lat="43.45507684275442" lon="11.3391077028753"><ele>440.0</ele><time>2026-03-29T13:58:54Z</time></trkpt><trkpt lat="43.455163500577704" lon="11.338940574410648"><ele>440.5</ele><time>2026-03-29T13:58:55Z</time></trkpt><trkpt lat="43.455250967024" lon="11.338773538030255"><ele>441.0</ele><time>2026-03-29T13:58:56Z</time></trkpt><trkpt lat="43.455338134000556" lon="11.338614396046028"><ele>441.5</ele><time>2026-03-29T13:58:57Z</time></trkpt><trkpt lat="43.45542918093208" lon="11.338467059008194"><ele>442.0</ele><time>2026-03-29T13:58:58Z</time></trkpt><trkpt lat="43.45551587310164" lon="11.338319212830275"><ele>446.75</ele><time>2026-03-29T13:58:59Z</time></trkpt><trkpt lat="43.45560144979606" lon="11.338170056724408"><ele>451.5</ele><time>2026-03-29T13:59:00Z</time></trkpt><trkpt lat="43.45568106654454" lon="11.338045058078945"><ele>456.25</ele><time>2026-03-29T13:59:00.999Z</time></trkpt><trkpt lat="43.45578344584108" lon="11.337902689885736"><ele>461.0</ele><time>2026-03-29T13:59:01.999Z</time></trkpt><trkpt lat="43.45586006683167" lon="11.337745669896513"><ele>461.25</ele><time>2026-03-29T13:59:02.999Z</time></trkpt><trkpt lat="43.455912192965485" lon="11.337571176707888"><ele>461.5</ele><time>2026-03-29T13:59:03.999Z</time></trkpt><trkpt lat="43.45596829260374" lon="11.337390327575163"><ele>461.75</ele><time>2026-03-29T13:59:04.999Z</time></trkpt><trkpt lat="43.45603719880182" lon="11.337243617460459"><ele>462.0</ele><time>2026-03-29T13:59:05.999Z</time></trkpt><trkpt lat="43.45611039705086" lon="11.33712565941819"><ele>461.25</ele><time>2026-03-29T13:59:06.999Z</time></trkpt><trkpt lat="43.45617592077861" lon="11.337008981885331"><ele>460.5</ele><time>2026-03-29T13:59:07.999Z</time></trkpt><trkpt lat="43.45622218662698" lon="11.336838761204877"><ele>459.75</ele><time>2026-03-29T13:59:08.999Z</time></trkpt><trkpt lat="43.45624761691712" lon="11.336651042765475"><ele>459.0</ele><time>2026-03-29T13:59:09.999Z</time></trkpt><trkpt lat="43.45624520102542" lon="11.336456418997901"><ele>461.0</ele><time>2026-03-29T13:59:10.999Z</time></trkpt><trkpt lat="43.456235403506355" lon="11.336258883039891"><ele>463.0</ele><time>2026-03-29T13:59:11.999Z</time></trkpt><trkpt lat="43.45625236800126" lon="11.336061007436854"><ele>465.0</ele><time>2026-03-29T13:59:12.999Z</time></trkpt><trkpt lat="43.456251289279045" lon="11.335887778685475"><ele>467.0</ele><time>2026-03-29T13:59:13.999Z</time></trkpt><trkpt lat="43.45624420921627" lon="11.335732895143053"><ele>467.0</ele><time>2026-03-29T13:59:14.999Z</time></trkpt><trkpt lat="43.45622434549806" lon="11.335609602564123"><ele>467.00000000000006</ele><time>2026-03-29T13:59:15.999Z</time></trkpt><trkpt lat="43.4561844280311" lon="11.33551672758954"><ele>467.00000000000006</ele><time>2026-03-29T13:59:16.999Z</time></trkpt><trkpt lat="43.45611469147551" lon="11.335423420654006"><ele>467.0</ele><time>2026-03-29T13:59:17.999Z</time></trkpt><trkpt lat="43.45602200961976" lon="11.33528231076557"><ele>467.0</ele><time>2026-03-29T13:59:18.999Z</time></trkpt><trkpt lat="43.45593310900739" lon="11.33515140248152"><ele>470.0</ele><time>2026-03-29T13:59:19.999Z</time></trkpt><trkpt lat="43.45587006418824" lon="11.335033482183528"><ele>473.00000000000006</ele><time>2026-03-29T13:59:20.999Z</time></trkpt><trkpt lat="43.45585210214105" lon="11.334911986465636"><ele>476.00000000000006</ele><time>2026-03-29T13:59:21.999Z</time></trkpt><trkpt lat="43.4558394483369" lon="11.334812405335004"><ele>479.0</ele><time>2026-03-29T13:59:22.999Z</time></trkpt><trkpt lat="43.45586935222383" lon="11.334683595330022"><ele>482.0</ele><time>2026-03-29T13:59:23.999Z</time></trkpt><trkpt lat="43.45591295563522" lon="11.334538671827548"><ele>482.25</ele><time>2026-03-29T13:59:24.999Z</time></trkpt><trkpt lat="43.4559966988681" lon="11.334382944213237"><ele>482.5</ele><time>2026-03-29T13:59:25.999Z</time></trkpt><trkpt lat="43.45604463249889" lon="11.334205387533537"><ele>482.75</ele><time>2026-03-29T13:59:26.999Z</time></trkpt><trkpt lat="43.45606616851448" lon="11.333987832773657"><ele>483.0</ele><time>2026-03-29T13:59:27.999Z</time></trkpt><trkpt lat="43.45608443740925" lon="11.333805838650484"><ele>483.0</ele><time>2026-03-29T13:59:28.999Z</time></trkpt><trkpt lat="43.456094104683956" lon="11.333659383702663"><ele>482.99999999999994</ele><time>2026-03-29T13:59:29.999Z</time></trkpt><trkpt lat="43.456117638503564" lon="11.333541656736545"><ele>482.99999999999994</ele><time>2026-03-29T13:59:30.999Z</time></trkpt><trkpt lat="43.45620267166511" lon="11.333473021196124"><ele>483.0</ele><time>2026-03-29T13:59:31.999Z</time></trkpt><trkpt lat="43.45628231231387" lon="11.333369912069024"><ele>483.0</ele><time>2026-03-29T13:59:32.999Z</time></trkpt><trkpt lat="43.45635872561601" lon="11.333257509955056"><ele>483.1666666666667</ele><time>2026-03-29T13:59:33.999Z</time></trkpt><trkpt lat="43.45638851121939" lon="11.33317088441133"><ele>483.33333333333337</ele><time>2026-03-29T13:59:34.999Z</time></trkpt><trkpt lat="43.45636765763982" lon="11.333072973612538"><ele>483.5</ele><time>2026-03-29T13:59:35.999Z</time></trkpt><trkpt lat="43.45634279723386" lon="11.332982976198146"><ele>483.6666666666667</ele><time>2026-03-29T13:59:36.999Z</time></trkpt><trkpt lat="43.45627824770806" lon="11.332879399629503"><ele>483.83333333333337</ele><time>2026-03-29T13:59:37.999Z</time></trkpt><trkpt lat="43.4561906624617" lon="11.332744934943188"><ele>484.0</ele><time>2026-03-29T13:59:38.999Z</time></trkpt><trkpt lat="43.45610672854777" lon="11.332595512595221"><ele>484.75</ele><time>2026-03-29T13:59:39.999Z</time></trkpt><trkpt lat="43.45604186435823" lon="11.332443182653181"><ele>485.5</ele><time>2026-03-29T13:59:40.999Z</time></trkpt><trkpt lat="43.45599066868756" lon="11.3322909252818"><ele>486.25</ele><time>2026-03-29T13:59:41.999Z</time></trkpt><trkpt lat="43.45595976948145" lon="11.332122406726876"><ele>487.0</ele><time>2026-03-29T13:59:42.999Z</time></trkpt><trkpt lat="43.455942450182846" lon="11.331947328164567"><ele>487.75</ele><time>2026-03-29T13:59:43.999Z</time></trkpt><trkpt lat="43.45589954412532" lon="11.331775287750169"><ele>488.5</ele><time>2026-03-29T13:59:44.999Z</time></trkpt><trkpt lat="43.4558385903654" lon="11.331611427845921"><ele>489.25</ele><time>2026-03-29T13:59:45.999Z</time></trkpt><trkpt lat="43.45580753462434" lon="11.331413920355194"><ele>490.0</ele><time>2026-03-29T13:59:46.999Z</time></trkpt><trkpt lat="43.45577150171506" lon="11.331228006024743"><ele>490.0</ele><time>2026-03-29T13:59:47.999Z</time></trkpt><trkpt lat="43.455749810702116" lon="11.331038450817243"><ele>490.0</ele><time>2026-03-29T13:59:48.999Z</time></trkpt><trkpt lat="43.45573795321131" lon="11.330834520803382"><ele>490.0</ele><time>2026-03-29T13:59:49.999Z</time></trkpt><trkpt lat="43.455740988349646" lon="11.330617075348295"><ele>490.0</ele><time>2026-03-29T13:59:50.999Z</time></trkpt><trkpt lat="43.45575618662153" lon="11.330414070817923"><ele>490.25</ele><time>2026-03-29T13:59:51.999Z</time></trkpt><trkpt lat="43.45577710751731" lon="11.330228376834281"><ele>490.5</ele><time>2026-03-29T13:59:52.999Z</time></trkpt><trkpt lat="43.455798698787056" lon="11.330056153655168"><ele>490.75</ele><time>2026-03-29T13:59:53.999Z</time></trkpt><trkpt lat="43.455826196742514" lon="11.329905463558697"><ele>491.0</ele><time>2026-03-29T13:59:54.999Z</time></trkpt><trkpt lat="43.45584713777592" lon="11.329765393663783"><ele>490.0</ele><time>2026-03-29T13:59:55.999Z</time></trkpt><trkpt lat="43.4558370246406" lon="11.329621459323551"><ele>489.0</ele><time>2026-03-29T13:59:56.999Z</time></trkpt><trkpt lat="43.45579927443571" lon="11.329479515901147"><ele>488.0</ele><time>2026-03-29T13:59:57.999Z</time></trkpt><trkpt lat="43.455732508042615" lon="11.329356034950198"><ele>487.0</ele><time>2026-03-29T13:59:58.999Z</time></trkpt><trkpt lat="43.455662027593" lon="11.329249040962791"><ele>486.0</ele><time>2026-03-29T13:59:59.999Z</time></trkpt><trkpt lat="43.45558277398962" lon="11.329147586981849"><ele>486.0</ele><time>2026-03-29T14:00:00.999Z</time></trkpt><trkpt lat="43.45553346436306" lon="11.32901141426734"><ele>486.0</ele><time>2026-03-29T14:00:01.999Z</time></trkpt><trkpt lat="43.45549601182452" lon="11.328864035453396"><ele>486.0</ele><time>2026-03-29T14:00:02.999Z</time></trkpt><trkpt lat="43.45547099469454" lon="11.328704950224292"><ele>486.0</ele><time>2026-03-29T14:00:03.999Z</time></trkpt><trkpt lat="43.45545982142941" lon="11.328532062338589"><ele>484.20000000000005</ele><time>2026-03-29T14:00:04.999Z</time></trkpt><trkpt lat="43.45545825014997" lon="11.328370342234182"><ele>482.40000000000003</ele><time>2026-03-29T14:00:05.999Z</time></trkpt><trkpt lat="43.4554637029087" lon="11.32821969746332"><ele>480.6</ele><time>2026-03-29T14:00:06.999Z</time></trkpt><trkpt lat="43.45547734758114" lon="11.328076578385588"><ele>478.8</ele><time>2026-03-29T14:00:08Z</time></trkpt><trkpt lat="43.455517013633546" lon="11.327934911703744"><ele>477.0</ele><time>2026-03-29T14:00:09Z</time></trkpt><trkpt lat="43.455582628756886" lon="11.327794509511444"><ele>477.0</ele><time>2026-03-29T14:00:10Z</time></trkpt><trkpt lat="43.45565546339462" lon="11.327641129892573"><ele>477.0</ele><time>2026-03-29T14:00:11Z</time></trkpt><trkpt lat="43.45572710892088" lon="11.32748600984708"><ele>477.0</ele><time>2026-03-29T14:00:12Z</time></trkpt><trkpt lat="43.45579194758978" lon="11.327344808290908"><ele>477.0</ele><time>2026-03-29T14:00:13Z</time></trkpt><trkpt lat="43.455854312829516" lon="11.327208993178028"><ele>477.5</ele><time>2026-03-29T14:00:14Z</time></trkpt><trkpt lat="43.45591818304193" lon="11.327080734887709"><ele>478.0</ele><time>2026-03-29T14:00:15Z</time></trkpt><trkpt lat="43.45598608221324" lon="11.326950448800314"><ele>478.5</ele><time>2026-03-29T14:00:16Z</time></trkpt><trkpt lat="43.45605381666847" lon="11.326814861208183"><ele>479.0</ele><time>2026-03-29T14:00:17Z</time></trkpt><trkpt lat="43.45610539719292" lon="11.326658237971534"><ele>479.0</ele><time>2026-03-29T14:00:18Z</time></trkpt><trkpt lat="43.45616111135881" lon="11.326494815394087"><ele>479.0</ele><time>2026-03-29T14:00:19Z</time></trkpt><trkpt lat="43.456199947922165" lon="11.326323984142165"><ele>479.0</ele><time>2026-03-29T14:00:20Z</time></trkpt><trkpt lat="43.45622316902223" lon="11.32615195720317"><ele>479.0</ele><time>2026-03-29T14:00:21Z</time></trkpt><trkpt lat="43.45626009155117" lon="11.325991013856507"><ele>479.3333333333333</ele><time>2026-03-29T14:00:22Z</time></trkpt><trkpt lat="43.45628548084819" lon="11.325804116471392"><ele>479.66666666666663</ele><time>2026-03-29T14:00:23Z</time></trkpt><trkpt lat="43.456312508122814" lon="11.325587682252582"><ele>480.0</ele><time>2026-03-29T14:00:24Z</time></trkpt><trkpt lat="43.456339082673594" lon="11.325374873433177"><ele>487.66666666666663</ele><time>2026-03-29T14:00:25Z</time></trkpt><trkpt lat="43.45635384018119" lon="11.32516033332588"><ele>495.3333333333333</ele><time>2026-03-29T14:00:26Z</time></trkpt><trkpt lat="43.45638231866527" lon="11.324948538419388"><ele>503.0</ele><time>2026-03-29T14:00:27Z</time></trkpt><trkpt lat="43.45640608174706" lon="11.324718802064437"><ele>507.3333333333333</ele><time>2026-03-29T14:00:28Z</time></trkpt><trkpt lat="43.45643517218692" lon="11.324505981717904"><ele>511.66666666666663</ele><time>2026-03-29T14:00:29Z</time></trkpt><trkpt lat="43.456468845351374" lon="11.324285914332775"><ele>516.0</ele><time>2026-03-29T14:00:30Z</time></trkpt><trkpt lat="43.456494411075454" lon="11.324066094681712"><ele>519.6666666666666</ele><time>2026-03-29T14:00:31Z</time></trkpt><trkpt lat="43.45651914987286" lon="11.323853385121415"><ele>523.3333333333333</ele><time>2026-03-29T14:00:32Z</time></trkpt><trkpt lat="43.45654590753103" lon="11.323632755473112"><ele>527.0</ele><time>2026-03-29T14:00:33Z</time></trkpt><trkpt lat="43.456573349357704" lon="11.323408753530906"><ele>527.0</ele><time>2026-03-29T14:00:34Z</time></trkpt><trkpt lat="43.45660528408992" lon="11.323167223822926"><ele>527.0</ele><time>2026-03-29T14:00:35Z</time></trkpt><trkpt lat="43.4566222389151" lon="11.322932748090457"><ele>527.0</ele><time>2026-03-29T14:00:36Z</time></trkpt><trkpt lat="43.45665957676904" lon="11.32269814167772"><ele>528.6666666666666</ele><time>2026-03-29T14:00:37Z</time></trkpt><trkpt lat="43.456709711241565" lon="11.322479866549106"><ele>530.3333333333334</ele><time>2026-03-29T14:00:38Z</time></trkpt><trkpt lat="43.45675050283905" lon="11.322231694669377"><ele>532.0</ele><time>2026-03-29T14:00:39Z</time></trkpt><trkpt lat="43.456782377210466" lon="11.321973187406456"><ele>533.0</ele><time>2026-03-29T14:00:40Z</time></trkpt><trkpt lat="43.45686356644143" lon="11.321750864636385"><ele>534.0</ele><time>2026-03-29T14:00:41Z</time></trkpt><trkpt lat="43.4569330699016" lon="11.321535710954528"><ele>535.0</ele><time>2026-03-29T14:00:42Z</time></trkpt><trkpt lat="43.45698822159115" lon="11.321314478811384"><ele>537.0</ele><time>2026-03-29T14:00:43Z</time></trkpt><trkpt lat="43.457018412450466" lon="11.321078758897478"><ele>539.0</ele><time>2026-03-29T14:00:44Z</time></trkpt><trkpt lat="43.45704106924597" lon="11.320859672129927"><ele>541.0</ele><time>2026-03-29T14:00:45Z</time></trkpt><trkpt lat="43.457042032862596" lon="11.320640153023502"><ele>544.5</ele><time>2026-03-29T14:00:46Z</time></trkpt><trkpt lat="43.45703192731626" lon="11.320449748241446"><ele>548.0</ele><time>2026-03-29T14:00:47Z</time></trkpt><trkpt lat="43.45701410760022" lon="11.320270764065606"><ele>551.5</ele><time>2026-03-29T14:00:48Z</time></trkpt><trkpt lat="43.45700641572608" lon="11.32011807115408"><ele>555.0</ele><time>2026-03-29T14:00:49Z</time></trkpt><trkpt lat="43.45701714587531" lon="11.319991027424797"><ele>555.0</ele><time>2026-03-29T14:00:50Z</time></trkpt><trkpt lat="43.457062453905245" lon="11.319926354221526"><ele>555.0</ele><time>2026-03-29T14:00:51Z</time></trkpt><trkpt lat="43.457110283784964" lon="11.319819464376133"><ele>555.0</ele><time>2026-03-29T14:00:52Z</time></trkpt><trkpt lat="43.45716420443958" lon="11.31975392786662"><ele>555.0</ele><time>2026-03-29T14:00:53Z</time></trkpt><trkpt lat="43.45721551948966" lon="11.319681714129825"><ele>555.0</ele><time>2026-03-29T14:00:54Z</time></trkpt><trkpt lat="43.45728271564976" lon="11.31956988468953"><ele>555.0</ele><time>2026-03-29T14:00:55Z</time></trkpt><trkpt lat="43.457355864049084" lon="11.319445031959598"><ele>556.0</ele><time>2026-03-29T14:00:56Z</time></trkpt><trkpt lat="43.45739661752788" lon="11.319314001639153"><ele>557.0</ele><time>2026-03-29T14:00:57Z</time></trkpt><trkpt lat="43.457416810014244" lon="11.319177241425086"><ele>558.0</ele><time>2026-03-29T14:00:58Z</time></trkpt><trkpt lat="43.45741893229957" lon="11.31903071163618"><ele>559.0</ele><time>2026-03-29T14:00:59Z</time></trkpt><trkpt lat="43.457420109130396" lon="11.318871345687457"><ele>560.0</ele><time>2026-03-29T14:01:00Z</time></trkpt><trkpt lat="43.45742231254171" lon="11.318693948621918"><ele>561.0</ele><time>2026-03-29T14:01:01Z</time></trkpt><trkpt lat="43.45746062068282" lon="11.318510468601962"><ele>562.0</ele><time>2026-03-29T14:01:02Z</time></trkpt><trkpt lat="43.4574985056861" lon="11.31831910329642"><ele>563.0</ele><time>2026-03-29T14:01:03Z</time></trkpt><trkpt lat="43.457576827461345" lon="11.318155102199794"><ele>564.0</ele><time>2026-03-29T14:01:04Z</time></trkpt><trkpt lat="43.45764826957656" lon="11.317981217812136"><ele>565.0</ele><time>2026-03-29T14:01:05Z</time></trkpt><trkpt lat="43.457729773735416" lon="11.31779674597788"><ele>566.0</ele><time>2026-03-29T14:01:06Z</time></trkpt><trkpt lat="43.457809027907906" lon="11.317636173498405"><ele>567.0</ele><time>2026-03-29T14:01:07Z</time></trkpt><trkpt lat="43.45788465874952" lon="11.317496446398307"><ele>568.0</ele><time>2026-03-29T14:01:08Z</time></trkpt><trkpt lat="43.45795816419265" lon="11.31736298010021"><ele>566.0</ele><time>2026-03-29T14:01:09Z</time></trkpt><trkpt lat="43.45803782271969" lon="11.317212317203571"><ele>564.0</ele><time>2026-03-29T14:01:10Z</time></trkpt><trkpt lat="43.458103451910944" lon="11.317045158636828"><ele>562.0</ele><time>2026-03-29T14:01:11Z</time></trkpt><trkpt lat="43.45818106927749" lon="11.316892170633976"><ele>560.0</ele><time>2026-03-29T14:01:12Z</time></trkpt><trkpt lat="43.458254367575" lon="11.316744947791708"><ele>560.0</ele><time>2026-03-29T14:01:13Z</time></trkpt><trkpt lat="43.4583447610344" lon="11.31662581960485"><ele>560.0</ele><time>2026-03-29T14:01:14Z</time></trkpt><trkpt lat="43.45841059158617" lon="11.316499807380477"><ele>560.0</ele><time>2026-03-29T14:01:15Z</time></trkpt><trkpt lat="43.45848963734357" lon="11.316408334483079"><ele>560.0</ele><time>2026-03-29T14:01:15.999Z</time></trkpt><trkpt lat="43.45856365059816" lon="11.316306505783556"><ele>560.0</ele><time>2026-03-29T14:01:16.999Z</time></trkpt><trkpt lat="43.45861866407954" lon="11.316169194379544"><ele>560.25</ele><time>2026-03-29T14:01:17.999Z</time></trkpt><trkpt lat="43.45866169656395" lon="11.316005917392541"><ele>560.5</ele><time>2026-03-29T14:01:18.999Z</time></trkpt><trkpt lat="43.45869637206135" lon="11.315825802043427"><ele>560.75</ele><time>2026-03-29T14:01:19.999Z</time></trkpt><trkpt lat="43.45874127050814" lon="11.315635185094125"><ele>561.0</ele><time>2026-03-29T14:01:20.999Z</time></trkpt><trkpt lat="43.45883108004825" lon="11.315443708493609"><ele>560.25</ele><time>2026-03-29T14:01:21.999Z</time></trkpt><trkpt lat="43.45888134128227" lon="11.315240054507884"><ele>559.5</ele><time>2026-03-29T14:01:22.999Z</time></trkpt><trkpt lat="43.45894160660854" lon="11.315061217652582"><ele>558.75</ele><time>2026-03-29T14:01:23.999Z</time></trkpt><trkpt lat="43.458979836194565" lon="11.314893603446055"><ele>558.0</ele><time>2026-03-29T14:01:24.999Z</time></trkpt><trkpt lat="43.459014679350204" lon="11.314740836719105"><ele>557.0</ele><time>2026-03-29T14:01:25.999Z</time></trkpt><trkpt lat="43.45904643398239" lon="11.3146035280659"><ele>556.0</ele><time>2026-03-29T14:01:26.999Z</time></trkpt><trkpt lat="43.45909059961981" lon="11.31446900119707"><ele>555.0</ele><time>2026-03-29T14:01:27.999Z</time></trkpt><trkpt lat="43.459142581798666" lon="11.314326483637092"><ele>554.0</ele><time>2026-03-29T14:01:28.999Z</time></trkpt><trkpt lat="43.45920693047347" lon="11.314187858807276"><ele>553.0</ele><time>2026-03-29T14:01:29.999Z</time></trkpt><trkpt lat="43.45925299054445" lon="11.314042778182264"><ele>553.0</ele><time>2026-03-29T14:01:30.999Z</time></trkpt><trkpt lat="43.45930379771599" lon="11.313909969972782"><ele>553.0</ele><time>2026-03-29T14:01:31.999Z</time></trkpt><trkpt lat="43.45937078288409" lon="11.31380468938574"><ele>553.0</ele><time>2026-03-29T14:01:32.999Z</time></trkpt><trkpt lat="43.45945298954383" lon="11.313713467366417"><ele>553.0</ele><time>2026-03-29T14:01:33.999Z</time></trkpt><trkpt lat="43.459546459665404" lon="11.313632691651847"><ele>553.0</ele><time>2026-03-29T14:01:34.999Z</time></trkpt><trkpt lat="43.45964243292036" lon="11.313572603198963"><ele>551.6</ele><time>2026-03-29T14:01:35.999Z</time></trkpt><trkpt lat="43.45974237364322" lon="11.313511994156013"><ele>550.1999999999999</ele><time>2026-03-29T14:01:36.999Z</time></trkpt><trkpt lat="43.45984349420243" lon="11.313450833022697"><ele>548.8</ele><time>2026-03-29T14:01:37.999Z</time></trkpt><trkpt lat="43.459925152095515" lon="11.313377775648476"><ele>547.4</ele><time>2026-03-29T14:01:38.999Z</time></trkpt><trkpt lat="43.45999407912603" lon="11.313298338237663"><ele>546.0</ele><time>2026-03-29T14:01:39.999Z</time></trkpt><trkpt lat="43.460036651896125" lon="11.313170569532648"><ele>544.2</ele><time>2026-03-29T14:01:40.999Z</time></trkpt><trkpt lat="43.46005344297606" lon="11.313024349372833"><ele>542.4000000000001</ele><time>2026-03-29T14:01:41.999Z</time></trkpt><trkpt lat="43.46006872675227" lon="11.312891260643793"><ele>540.6</ele><time>2026-03-29T14:01:42.999Z</time></trkpt><trkpt lat="43.4600751990319" lon="11.312760206911724"><ele>538.8000000000001</ele><time>2026-03-29T14:01:43.999Z</time></trkpt><trkpt lat="43.46007805000138" lon="11.312630921956405"><ele>537.0</ele><time>2026-03-29T14:01:44.999Z</time></trkpt><trkpt lat="43.46007083959545" lon="11.31249733548807"><ele>537.0</ele><time>2026-03-29T14:01:45.999Z</time></trkpt><trkpt lat="43.46006197660474" lon="11.31237126485204"><ele>537.0</ele><time>2026-03-29T14:01:46.999Z</time></trkpt><trkpt lat="43.45998596253003" lon="11.312250184854836"><ele>537.0</ele><time>2026-03-29T14:01:47.999Z</time></trkpt><trkpt lat="43.459943502703794" lon="11.312126954733387"><ele>537.0</ele><time>2026-03-29T14:01:48.999Z</time></trkpt><trkpt lat="43.459901736365076" lon="11.312016802759194"><ele>537.0</ele><time>2026-03-29T14:01:49.999Z</time></trkpt><trkpt lat="43.4598524729245" lon="11.311901528092838"><ele>536.5</ele><time>2026-03-29T14:01:50.999Z</time></trkpt><trkpt lat="43.45978564554653" lon="11.31178871380726"><ele>536.0</ele><time>2026-03-29T14:01:51.999Z</time></trkpt><trkpt lat="43.45970333711608" lon="11.31167360507522"><ele>535.5</ele><time>2026-03-29T14:01:52.999Z</time></trkpt><trkpt lat="43.45962600544627" lon="11.311542243933564"><ele>535.0</ele><time>2026-03-29T14:01:53.999Z</time></trkpt><trkpt lat="43.45953216799496" lon="11.311437622966755"><ele>535.5</ele><time>2026-03-29T14:01:54.999Z</time></trkpt><trkpt lat="43.4594176065718" lon="11.311378904399266"><ele>536.0</ele><time>2026-03-29T14:01:55.999Z</time></trkpt><trkpt lat="43.459299523000745" lon="11.311325617026991"><ele>536.5</ele><time>2026-03-29T14:01:56.999Z</time></trkpt><trkpt lat="43.45917078626964" lon="11.31128075189185"><ele>537.0</ele><time>2026-03-29T14:01:57.999Z</time></trkpt><trkpt lat="43.4590416849054" lon="11.311220870338753"><ele>537.0</ele><time>2026-03-29T14:01:58.999Z</time></trkpt><trkpt lat="43.45892015600479" lon="11.311151756298818"><ele>537.0</ele><time>2026-03-29T14:01:59.999Z</time></trkpt><trkpt lat="43.458790300121976" lon="11.311062077579198"><ele>537.0</ele><time>2026-03-29T14:02:00.999Z</time></trkpt><trkpt lat="43.45866564759704" lon="11.310962341798643"><ele>537.0</ele><time>2026-03-29T14:02:01.999Z</time></trkpt><trkpt lat="43.45856697233144" lon="11.310868250770545"><ele>537.5</ele><time>2026-03-29T14:02:02.999Z</time></trkpt><trkpt lat="43.458466334541676" lon="11.31078473898062"><ele>538.0</ele><time>2026-03-29T14:02:03.999Z</time></trkpt><trkpt lat="43.45836472512994" lon="11.310697565773319"><ele>538.5</ele><time>2026-03-29T14:02:04.999Z</time></trkpt><trkpt lat="43.458304333211196" lon="11.310570771417742"><ele>539.0</ele><time>2026-03-29T14:02:05.999Z</time></trkpt><trkpt lat="43.458227056299116" lon="11.310462944947858"><ele>539.75</ele><time>2026-03-29T14:02:06.999Z</time></trkpt><trkpt lat="43.458166689345724" lon="11.310312518212289"><ele>540.5</ele><time>2026-03-29T14:02:07.999Z</time></trkpt><trkpt lat="43.45808663912063" lon="11.310168758888778"><ele>541.25</ele><time>2026-03-29T14:02:08.999Z</time></trkpt><trkpt lat="43.45799081269496" lon="11.310025520112886"><ele>542.0</ele><time>2026-03-29T14:02:09.999Z</time></trkpt><trkpt lat="43.457908360419275" lon="11.309864881044144"><ele>543.25</ele><time>2026-03-29T14:02:10.999Z</time></trkpt><trkpt lat="43.45782088250374" lon="11.30970397107282"><ele>544.5</ele><time>2026-03-29T14:02:11.999Z</time></trkpt><trkpt lat="43.457746065144086" lon="11.309565067911867"><ele>545.75</ele><time>2026-03-29T14:02:12.999Z</time></trkpt><trkpt lat="43.45772480784066" lon="11.309419423268459"><ele>547.0</ele><time>2026-03-29T14:02:14Z</time></trkpt><trkpt lat="43.45771145732121" lon="11.309287313268893"><ele>547.0</ele><time>2026-03-29T14:02:15Z</time></trkpt><trkpt lat="43.457705644539686" lon="11.309127645757437"><ele>547.0</ele><time>2026-03-29T14:02:16Z</time></trkpt><trkpt lat="43.457669259082536" lon="11.308952359978393"><ele>547.0</ele><time>2026-03-29T14:02:17Z</time></trkpt><trkpt lat="43.45762465943924" lon="11.308778553548722"><ele>547.0</ele><time>2026-03-29T14:02:18Z</time></trkpt><trkpt lat="43.457567332566406" lon="11.308610432143821"><ele>546.25</ele><time>2026-03-29T14:02:19Z</time></trkpt><trkpt lat="43.45751199396289" lon="11.30844725923117"><ele>545.5</ele><time>2026-03-29T14:02:20Z</time></trkpt><trkpt lat="43.457455975749355" lon="11.308281719152557"><ele>544.75</ele><time>2026-03-29T14:02:21Z</time></trkpt><trkpt lat="43.45742106211699" lon="11.308103981454195"><ele>544.0</ele><time>2026-03-29T14:02:22Z</time></trkpt><trkpt lat="43.45742316797374" lon="11.307912261433335"><ele>544.0</ele><time>2026-03-29T14:02:23Z</time></trkpt><trkpt lat="43.45739989184092" lon="11.307712554749967"><ele>544.0</ele><time>2026-03-29T14:02:24Z</time></trkpt><trkpt lat="43.4573906625612" lon="11.307524258704655"><ele>544.0</ele><time>2026-03-29T14:02:25Z</time></trkpt><trkpt lat="43.45736130380469" lon="11.307336141439588"><ele>544.0</ele><time>2026-03-29T14:02:26Z</time></trkpt><trkpt lat="43.457330398258115" lon="11.307157835952498"><ele>545.25</ele><time>2026-03-29T14:02:27Z</time></trkpt><trkpt lat="43.45734466734692" lon="11.306986914698985"><ele>546.5</ele><time>2026-03-29T14:02:28Z</time></trkpt><trkpt lat="43.45735556197249" lon="11.306834259604457"><ele>547.75</ele><time>2026-03-29T14:02:29Z</time></trkpt><trkpt lat="43.457371264502854" lon="11.306688752320081"><ele>549.0</ele><time>2026-03-29T14:02:30Z</time></trkpt><trkpt lat="43.45738926535465" lon="11.306537307862008"><ele>548.25</ele><time>2026-03-29T14:02:31Z</time></trkpt><trkpt lat="43.457383201464594" lon="11.306379745719363"><ele>547.5</ele><time>2026-03-29T14:02:32Z</time></trkpt><trkpt lat="43.45732837399431" lon="11.306224139727902"><ele>546.75</ele><time>2026-03-29T14:02:33Z</time></trkpt><trkpt lat="43.4572798263051" lon="11.3060627595528"><ele>546.0</ele><time>2026-03-29T14:02:34Z</time></trkpt><trkpt lat="43.45723922686047" lon="11.305896618431142"><ele>546.0</ele><time>2026-03-29T14:02:35Z</time></trkpt><trkpt lat="43.45724399519119" lon="11.305714692130543"><ele>546.0</ele><time>2026-03-29T14:02:36Z</time></trkpt><trkpt lat="43.45724040476748" lon="11.30553748859071"><ele>546.0</ele><time>2026-03-29T14:02:37Z</time></trkpt><trkpt lat="43.45721954123604" lon="11.305349700000113"><ele>546.0</ele><time>2026-03-29T14:02:38Z</time></trkpt><trkpt lat="43.45716659361438" lon="11.305175696624676"><ele>547.25</ele><time>2026-03-29T14:02:39Z</time></trkpt><trkpt lat="43.45711403137343" lon="11.305014284701539"><ele>548.5</ele><time>2026-03-29T14:02:40Z</time></trkpt><trkpt lat="43.45706932819782" lon="11.304851120929367"><ele>549.75</ele><time>2026-03-29T14:02:41Z</time></trkpt><trkpt lat="43.457019546812866" lon="11.30467657020193"><ele>551.0</ele><time>2026-03-29T14:02:42Z</time></trkpt><trkpt lat="43.45696283321904" lon="11.304500557328824"><ele>552.0</ele><time>2026-03-29T14:02:43Z</time></trkpt><trkpt lat="43.45694122096086" lon="11.304317158700261"><ele>553.0</ele><time>2026-03-29T14:02:44Z</time></trkpt><trkpt lat="43.45690786680189" lon="11.304172579485076"><ele>554.0</ele><time>2026-03-29T14:02:45Z</time></trkpt><trkpt lat="43.45686342757745" lon="11.304051883433878"><ele>555.0</ele><time>2026-03-29T14:02:46Z</time></trkpt><trkpt lat="43.4568036234562" lon="11.30394432138043"><ele>556.0</ele><time>2026-03-29T14:02:47Z</time></trkpt><trkpt lat="43.45672399871382" lon="11.303825859515749"><ele>556.2</ele><time>2026-03-29T14:02:48Z</time></trkpt><trkpt lat="43.456641825632445" lon="11.30371389701215"><ele>556.4000000000001</ele><time>2026-03-29T14:02:49Z</time></trkpt><trkpt lat="43.456570611294666" lon="11.303590836321677"><ele>556.6</ele><time>2026-03-29T14:02:50Z</time></trkpt><trkpt lat="43.456496458028525" lon="11.303478581565296"><ele>556.8000000000001</ele><time>2026-03-29T14:02:51Z</time></trkpt><trkpt lat="43.45643304335119" lon="11.303384482488374"><ele>557.0</ele><time>2026-03-29T14:02:52Z</time></trkpt><trkpt lat="43.45638240822972" lon="11.303306871769273"><ele>557.0</ele><time>2026-03-29T14:02:53Z</time></trkpt><trkpt lat="43.45633868676636" lon="11.30323663613877"><ele>557.0</ele><time>2026-03-29T14:02:54Z</time></trkpt><trkpt lat="43.45629705767389" lon="11.303169143053692"><ele>557.0</ele><time>2026-03-29T14:02:55Z</time></trkpt><trkpt lat="43.456305548147945" lon="11.303081800331261"><ele>557.0</ele><time>2026-03-29T14:02:56Z</time></trkpt><trkpt lat="43.45638936657088" lon="11.303002619823099"><ele>557.0</ele><time>2026-03-29T14:02:57Z</time></trkpt><trkpt lat="43.45640591912726" lon="11.302890754090244"><ele>557.0</ele><time>2026-03-29T14:02:58Z</time></trkpt><trkpt lat="43.45642492523452" lon="11.302775850558723"><ele>557.4</ele><time>2026-03-29T14:02:59Z</time></trkpt><trkpt lat="43.45641197814436" lon="11.302635766750786"><ele>557.8000000000001</ele><time>2026-03-29T14:03:00Z</time></trkpt><trkpt lat="43.45637359379537" lon="11.302496759049241"><ele>558.2</ele><time>2026-03-29T14:03:01Z</time></trkpt><trkpt lat="43.45632150031488" lon="11.302375135733147"><ele>558.6</ele><time>2026-03-29T14:03:02Z</time></trkpt><trkpt lat="43.45625292523255" lon="11.3022705258102"><ele>559.0</ele><time>2026-03-29T14:03:03Z</time></trkpt><trkpt lat="43.456181201024236" lon="11.30216923776652"><ele>560.2</ele><time>2026-03-29T14:03:04Z</time></trkpt><trkpt lat="43.45610952424795" lon="11.302064971967894"><ele>561.4</ele><time>2026-03-29T14:03:05Z</time></trkpt><trkpt lat="43.45606264913261" lon="11.30193147017691"><ele>562.6</ele><time>2026-03-29T14:03:06Z</time></trkpt><trkpt lat="43.45600767629671" lon="11.30180757710005"><ele>563.8</ele><time>2026-03-29T14:03:07Z</time></trkpt><trkpt lat="43.45595273506164" lon="11.30166974064976"><ele>565.0</ele><time>2026-03-29T14:03:08Z</time></trkpt><trkpt lat="43.45589856994666" lon="11.301534884462255"><ele>564.0</ele><time>2026-03-29T14:03:09Z</time></trkpt><trkpt lat="43.45584788248977" lon="11.301410753601475"><ele>563.0</ele><time>2026-03-29T14:03:10Z</time></trkpt><trkpt lat="43.455793201204735" lon="11.301295444503948"><ele>562.0</ele><time>2026-03-29T14:03:11Z</time></trkpt><trkpt lat="43.45572263255519" lon="11.301198964959017"><ele>561.0</ele><time>2026-03-29T14:03:12Z</time></trkpt><trkpt lat="43.45567401129523" lon="11.301076243492359"><ele>560.0</ele><time>2026-03-29T14:03:13Z</time></trkpt><trkpt lat="43.4556689514583" lon="11.300934629816746"><ele>560.0</ele><time>2026-03-29T14:03:14Z</time></trkpt><trkpt lat="43.45564068744171" lon="11.30076386734797"><ele>560.0</ele><time>2026-03-29T14:03:15Z</time></trkpt><trkpt lat="43.45563545709029" lon="11.300575536435046"><ele>560.0</ele><time>2026-03-29T14:03:16Z</time></trkpt><trkpt lat="43.455655478497604" lon="11.300401129312005"><ele>560.0</ele><time>2026-03-29T14:03:17Z</time></trkpt><trkpt lat="43.455671290827915" lon="11.300224284524552"><ele>561.0</ele><time>2026-03-29T14:03:18Z</time></trkpt><trkpt lat="43.45567908493622" lon="11.30006469097311"><ele>562.0</ele><time>2026-03-29T14:03:19Z</time></trkpt><trkpt lat="43.45570582056949" lon="11.299926529794789"><ele>563.0</ele><time>2026-03-29T14:03:20Z</time></trkpt><trkpt lat="43.45571741798665" lon="11.29981322995905"><ele>564.0</ele><time>2026-03-29T14:03:21Z</time></trkpt><trkpt lat="43.45577332841839" lon="11.299728020065574"><ele>565.0</ele><time>2026-03-29T14:03:22Z</time></trkpt><trkpt lat="43.45585161252586" lon="11.299677937095566"><ele>567.75</ele><time>2026-03-29T14:03:22.999Z</time></trkpt><trkpt lat="43.45597068994464" lon="11.299651036897348"><ele>570.5</ele><time>2026-03-29T14:03:23.999Z</time></trkpt><trkpt lat="43.45607517953596" lon="11.299534633673703"><ele>573.25</ele><time>2026-03-29T14:03:24.999Z</time></trkpt><trkpt lat="43.456178520168194" lon="11.29938189523846"><ele>576.0</ele><time>2026-03-29T14:03:25.999Z</time></trkpt><trkpt lat="43.45624650420702" lon="11.299225206776358"><ele>575.0</ele><time>2026-03-29T14:03:26.999Z</time></trkpt><trkpt lat="43.45629534759802" lon="11.29908446478162"><ele>574.0</ele><time>2026-03-29T14:03:27.999Z</time></trkpt><trkpt lat="43.45635793788412" lon="11.298940643578517"><ele>573.0</ele><time>2026-03-29T14:03:28.999Z</time></trkpt><trkpt lat="43.45642477722976" lon="11.298806410238775"><ele>572.0</ele><time>2026-03-29T14:03:29.999Z</time></trkpt><trkpt lat="43.45647491192863" lon="11.298642307451358"><ele>573.75</ele><time>2026-03-29T14:03:30.999Z</time></trkpt><trkpt lat="43.4564927959924" lon="11.29846553014735"><ele>575.5</ele><time>2026-03-29T14:03:31.999Z</time></trkpt><trkpt lat="43.45649532791578" lon="11.2982884595245"><ele>577.25</ele><time>2026-03-29T14:03:32.999Z</time></trkpt><trkpt lat="43.45651078026936" lon="11.29813156418543"><ele>579.0</ele><time>2026-03-29T14:03:33.999Z</time></trkpt><trkpt lat="43.456530387855004" lon="11.297988145905098"><ele>579.0</ele><time>2026-03-29T14:03:34.999Z</time></trkpt><trkpt lat="43.45653030473132" lon="11.297832817029526"><ele>579.0</ele><time>2026-03-29T14:03:35.999Z</time></trkpt><trkpt lat="43.456504623557606" lon="11.297662891635865"><ele>579.0</ele><time>2026-03-29T14:03:36.999Z</time></trkpt><trkpt lat="43.45646559190493" lon="11.297489052337992"><ele>579.0</ele><time>2026-03-29T14:03:37.999Z</time></trkpt><trkpt lat="43.45641206879918" lon="11.29730236715729"><ele>579.0</ele><time>2026-03-29T14:03:38.999Z</time></trkpt><trkpt lat="43.45639208592748" lon="11.297116752909746"><ele>579.0</ele><time>2026-03-29T14:03:39.999Z</time></trkpt><trkpt lat="43.456369512311625" lon="11.296957396129704"><ele>579.0</ele><time>2026-03-29T14:03:40.999Z</time></trkpt><trkpt lat="43.456359558618075" lon="11.296808769490637"><ele>579.0</ele><time>2026-03-29T14:03:41.999Z</time></trkpt><trkpt lat="43.45635694989522" lon="11.296660183572783"><ele>579.0</ele><time>2026-03-29T14:03:42.999Z</time></trkpt><trkpt lat="43.456354049324226" lon="11.296500365232177"><ele>579.0</ele><time>2026-03-29T14:03:43.999Z</time></trkpt><trkpt lat="43.456406113705434" lon="11.296376938641323"><ele>579.0</ele><time>2026-03-29T14:03:44.999Z</time></trkpt><trkpt lat="43.456455104806246" lon="11.296283204673328"><ele>579.0</ele><time>2026-03-29T14:03:45.999Z</time></trkpt><trkpt lat="43.45652566939257" lon="11.296204932225248"><ele>579.0</ele><time>2026-03-29T14:03:46.999Z</time></trkpt><trkpt lat="43.45658032841378" lon="11.296102771091853"><ele>579.5</ele><time>2026-03-29T14:03:47.999Z</time></trkpt><trkpt lat="43.456642966227655" lon="11.296014276881728"><ele>580.0</ele><time>2026-03-29T14:03:48.999Z</time></trkpt><trkpt lat="43.45671141411403" lon="11.295918812119139"><ele>580.5</ele><time>2026-03-29T14:03:49.999Z</time></trkpt><trkpt lat="43.45678109781077" lon="11.295816372500566"><ele>581.0</ele><time>2026-03-29T14:03:50.999Z</time></trkpt><trkpt lat="43.45684529513916" lon="11.295735903100237"><ele>581.5</ele><time>2026-03-29T14:03:51.999Z</time></trkpt><trkpt lat="43.456891880550124" lon="11.295667305710083"><ele>582.0</ele><time>2026-03-29T14:03:52.999Z</time></trkpt><trkpt lat="43.45695874594667" lon="11.29554610999932"><ele>582.0</ele><time>2026-03-29T14:03:54.999Z</time></trkpt><trkpt lat="43.4570065483013" lon="11.295467176610861"><ele>582.0</ele><time>2026-03-29T14:03:56.999Z</time></trkpt><trkpt lat="43.456949256392164" lon="11.29558359279719"><ele>582.0</ele><time>2026-03-29T14:04:02.999Z</time></trkpt><trkpt lat="43.45688887964652" lon="11.295636853944101"><ele>582.0</ele><time>2026-03-29T14:04:03.999Z</time></trkpt><trkpt lat="43.45681907284971" lon="11.295760670258945"><ele>582.0</ele><time>2026-03-29T14:04:05.999Z</time></trkpt><trkpt lat="43.45675557728901" lon="11.295839020222237"><ele>582.0</ele><time>2026-03-29T14:04:07.999Z</time></trkpt><trkpt lat="43.45671063356348" lon="11.295918238321113"><ele>582.0</ele><time>2026-03-29T14:04:10.999Z</time></trkpt><trkpt lat="43.4567407960567" lon="11.296039563950211"><ele>582.0</ele><time>2026-03-29T14:04:16.999Z</time></trkpt><trkpt lat="43.456836184621224" lon="11.296068224980509"><ele>582.0</ele><time>2026-03-29T14:04:19Z</time></trkpt><trkpt lat="43.45690386161114" lon="11.296088700821256"><ele>582.0</ele><time>2026-03-29T14:04:21Z</time></trkpt><trkpt lat="43.45699331793601" lon="11.296122494009373"><ele>582.0</ele><time>2026-03-29T14:04:24Z</time></trkpt><trkpt lat="43.457102121802116" lon="11.296078936141841"><ele>581.8333333333334</ele><time>2026-03-29T14:04:26Z</time></trkpt><trkpt lat="43.45719106636852" lon="11.29605336031285"><ele>581.6666666666666</ele><time>2026-03-29T14:04:28Z</time></trkpt><trkpt lat="43.457282036959576" lon="11.296084060641478"><ele>581.5</ele><time>2026-03-29T14:04:30Z</time></trkpt><trkpt lat="43.45737155137056" lon="11.296070715428323"><ele>581.3333333333333</ele><time>2026-03-29T14:04:32Z</time></trkpt><trkpt lat="43.45742909998622" lon="11.296032192654469"><ele>581.1666666666666</ele><time>2026-03-29T14:04:33Z</time></trkpt><trkpt lat="43.45748385272001" lon="11.295977208884075"><ele>581.0</ele><time>2026-03-29T14:04:34Z</time></trkpt><trkpt lat="43.457538107970265" lon="11.295930695400248"><ele>581.0</ele><time>2026-03-29T14:04:35Z</time></trkpt><trkpt lat="43.457593622956686" lon="11.295875830174515"><ele>581.0</ele><time>2026-03-29T14:04:36Z</time></trkpt><trkpt lat="43.457648826534246" lon="11.295758736259376"><ele>581.0</ele><time>2026-03-29T14:04:38Z</time></trkpt><trkpt lat="43.457722147583816" lon="11.29563342301278"><ele>581.0</ele><time>2026-03-29T14:04:40Z</time></trkpt><trkpt lat="43.45781955050182" lon="11.29555603506709"><ele>581.0</ele><time>2026-03-29T14:04:42Z</time></trkpt><trkpt lat="43.45789734414929" lon="11.295575839413566"><ele>581.2</ele><time>2026-03-29T14:04:44Z</time></trkpt><trkpt lat="43.4580128158026" lon="11.295670480213497"><ele>581.4000000000001</ele><time>2026-03-29T14:04:46Z</time></trkpt><trkpt lat="43.458093306010575" lon="11.29571440283293"><ele>581.6</ele><time>2026-03-29T14:04:47Z</time></trkpt><trkpt lat="43.45815295689456" lon="11.295750414948765"><ele>581.8000000000001</ele><time>2026-03-29T14:04:48Z</time></trkpt><trkpt lat="43.45823522723951" lon="11.295816498382418"><ele>582.0</ele><time>2026-03-29T14:04:50Z</time></trkpt><trkpt lat="43.458315114784114" lon="11.295906938897831"><ele>582.0</ele><time>2026-03-29T14:04:52Z</time></trkpt><trkpt lat="43.458409130722124" lon="11.295983855768563"><ele>582.0</ele><time>2026-03-29T14:04:54Z</time></trkpt><trkpt lat="43.45847412120366" lon="11.295953903338132"><ele>582.0</ele><time>2026-03-29T14:04:56Z</time></trkpt><trkpt lat="43.458550939178885" lon="11.295893954448871"><ele>582.0</ele><time>2026-03-29T14:04:58Z</time></trkpt><trkpt lat="43.458636579458016" lon="11.295862090045507"><ele>582.0</ele><time>2026-03-29T14:05:00Z</time></trkpt><trkpt lat="43.45873618041484" lon="11.295890005603765"><ele>581.6666666666666</ele><time>2026-03-29T14:05:02Z</time></trkpt><trkpt lat="43.458856781575555" lon="11.295978774398801"><ele>581.3333333333334</ele><time>2026-03-29T14:05:04Z</time></trkpt><trkpt lat="43.45893118975595" lon="11.296055181010555"><ele>581.0</ele><time>2026-03-29T14:05:05Z</time></trkpt><trkpt lat="43.458993170828066" lon="11.29611544622399"><ele>580.6666666666667</ele><time>2026-03-29T14:05:06Z</time></trkpt><trkpt lat="43.45905208851932" lon="11.296155472508689"><ele>580.3333333333334</ele><time>2026-03-29T14:05:07Z</time></trkpt><trkpt lat="43.45911668314259" lon="11.296178323610931"><ele>580.0</ele><time>2026-03-29T14:05:08Z</time></trkpt><trkpt lat="43.45918083373037" lon="11.296205010782975"><ele>580.0</ele><time>2026-03-29T14:05:09Z</time></trkpt><trkpt lat="43.459245261014615" lon="11.296219327241264"><ele>580.0</ele><time>2026-03-29T14:05:10Z</time></trkpt><trkpt lat="43.45934138977938" lon="11.296226708692087"><ele>580.0</ele><time>2026-03-29T14:05:11Z</time></trkpt><trkpt lat="43.45941762037305" lon="11.296245377805876"><ele>580.0</ele><time>2026-03-29T14:05:12Z</time></trkpt><trkpt lat="43.459531201998495" lon="11.296242249415819"><ele>580.0</ele><time>2026-03-29T14:05:14Z</time></trkpt><trkpt lat="43.45960262525155" lon="11.29618220423657"><ele>580.0</ele><time>2026-03-29T14:05:16Z</time></trkpt><trkpt lat="43.45971411184309" lon="11.296097917504673"><ele>579.5</ele><time>2026-03-29T14:05:18Z</time></trkpt><trkpt lat="43.45976404655062" lon="11.296027545380191"><ele>579.0</ele><time>2026-03-29T14:05:19Z</time></trkpt><trkpt lat="43.45980435814311" lon="11.295957400727518"><ele>578.5</ele><time>2026-03-29T14:05:20Z</time></trkpt><trkpt lat="43.459850130271484" lon="11.295889371224131"><ele>578.0</ele><time>2026-03-29T14:05:21Z</time></trkpt><trkpt lat="43.45992890796188" lon="11.29577468364013"><ele>577.5</ele><time>2026-03-29T14:05:23Z</time></trkpt><trkpt lat="43.459970699415564" lon="11.295686141394402"><ele>577.0</ele><time>2026-03-29T14:05:24Z</time></trkpt><trkpt lat="43.46002590330896" lon="11.29558811331773"><ele>575.8000000000001</ele><time>2026-03-29T14:05:25Z</time></trkpt><trkpt lat="43.46008039623171" lon="11.295502267552534"><ele>574.6</ele><time>2026-03-29T14:05:26Z</time></trkpt><trkpt lat="43.46014155849694" lon="11.295410042802814"><ele>573.4000000000001</ele><time>2026-03-29T14:05:27Z</time></trkpt><trkpt lat="43.46021773991798" lon="11.295305923071366"><ele>572.2</ele><time>2026-03-29T14:05:28Z</time></trkpt><trkpt lat="43.46029812510325" lon="11.295209419759491"><ele>571.0</ele><time>2026-03-29T14:05:29Z</time></trkpt><trkpt lat="43.460376529651995" lon="11.295138044953006"><ele>571.0</ele><time>2026-03-29T14:05:30Z</time></trkpt><trkpt lat="43.460452343308646" lon="11.295075923764308"><ele>571.0</ele><time>2026-03-29T14:05:31Z</time></trkpt><trkpt lat="43.46052241380346" lon="11.295008835962529"><ele>571.0</ele><time>2026-03-29T14:05:32Z</time></trkpt><trkpt lat="43.46057753859763" lon="11.294937653979094"><ele>571.0</ele><time>2026-03-29T14:05:32.999Z</time></trkpt><trkpt lat="43.46061433471257" lon="11.294854705333888"><ele>571.0</ele><time>2026-03-29T14:05:33.999Z</time></trkpt><trkpt lat="43.46062648192303" lon="11.294759005526469"><ele>571.0</ele><time>2026-03-29T14:05:34.999Z</time></trkpt><trkpt lat="43.46060550996063" lon="11.294655420318325"><ele>569.8</ele><time>2026-03-29T14:05:35.999Z</time></trkpt><trkpt lat="43.46056739579464" lon="11.29448875790234"><ele>568.6</ele><time>2026-03-29T14:05:36.999Z</time></trkpt><trkpt lat="43.46054786473621" lon="11.29434538184399"><ele>567.4</ele><time>2026-03-29T14:05:37.999Z</time></trkpt><trkpt lat="43.460550481062086" lon="11.294218708981445"><ele>566.2</ele><time>2026-03-29T14:05:38.999Z</time></trkpt><trkpt lat="43.46059902483901" lon="11.294114689843871"><ele>565.0</ele><time>2026-03-29T14:05:39.999Z</time></trkpt><trkpt lat="43.46064375946548" lon="11.294035155663114"><ele>565.0</ele><time>2026-03-29T14:05:40.999Z</time></trkpt><trkpt lat="43.46071311192383" lon="11.293934557824958"><ele>565.0</ele><time>2026-03-29T14:05:41.999Z</time></trkpt><trkpt lat="43.46077664936779" lon="11.293793229783278"><ele>565.0</ele><time>2026-03-29T14:05:42.999Z</time></trkpt><trkpt lat="43.460845184569195" lon="11.293641264744569"><ele>565.0</ele><time>2026-03-29T14:05:43.999Z</time></trkpt><trkpt lat="43.46091493824616" lon="11.293504229172505"><ele>566.75</ele><time>2026-03-29T14:05:44.999Z</time></trkpt><trkpt lat="43.460985425027474" lon="11.293391915984266"><ele>568.5</ele><time>2026-03-29T14:05:45.999Z</time></trkpt><trkpt lat="43.461045361577874" lon="11.293229844272426"><ele>570.25</ele><time>2026-03-29T14:05:46.999Z</time></trkpt><trkpt lat="43.46112563659612" lon="11.29306345533735"><ele>572.0</ele><time>2026-03-29T14:05:47.999Z</time></trkpt><trkpt lat="43.46119744441351" lon="11.292917307898371"><ele>570.25</ele><time>2026-03-29T14:05:48.999Z</time></trkpt><trkpt lat="43.46125816794433" lon="11.292755917937402"><ele>568.5</ele><time>2026-03-29T14:05:49.999Z</time></trkpt><trkpt lat="43.461298034230296" lon="11.292566361210689"><ele>566.75</ele><time>2026-03-29T14:05:50.999Z</time></trkpt><trkpt lat="43.46134560998992" lon="11.292384507523712"><ele>565.0</ele><time>2026-03-29T14:05:51.999Z</time></trkpt><trkpt lat="43.46138938601421" lon="11.292228403921165"><ele>565.0</ele><time>2026-03-29T14:05:52.999Z</time></trkpt><trkpt lat="43.4614229609456" lon="11.292099345599787"><ele>565.0</ele><time>2026-03-29T14:05:53.999Z</time></trkpt><trkpt lat="43.461465153639544" lon="11.29199206058337"><ele>565.0</ele><time>2026-03-29T14:05:54.999Z</time></trkpt><trkpt lat="43.46149539028112" lon="11.291890864558573"><ele>565.0</ele><time>2026-03-29T14:05:55.999Z</time></trkpt><trkpt lat="43.46150711517337" lon="11.291791854622762"><ele>565.0</ele><time>2026-03-29T14:05:56.999Z</time></trkpt><trkpt lat="43.461532647155416" lon="11.291706864447375"><ele>565.0</ele><time>2026-03-29T14:05:57.999Z</time></trkpt><trkpt lat="43.46155012595857" lon="11.291621601951963"><ele>565.0</ele><time>2026-03-29T14:05:58.999Z</time></trkpt><trkpt lat="43.46156276745838" lon="11.291526724803255"><ele>565.0</ele><time>2026-03-29T14:05:59.999Z</time></trkpt><trkpt lat="43.46157387938004" lon="11.291426104313809"><ele>565.0</ele><time>2026-03-29T14:06:00.999Z</time></trkpt><trkpt lat="43.461584280939995" lon="11.291327177086238"><ele>565.0</ele><time>2026-03-29T14:06:01.999Z</time></trkpt><trkpt lat="43.46159620552388" lon="11.29122364670844"><ele>565.0</ele><time>2026-03-29T14:06:02.999Z</time></trkpt><trkpt lat="43.46159227874258" lon="11.291112855070544"><ele>565.0</ele><time>2026-03-29T14:06:03.999Z</time></trkpt><trkpt lat="43.461586311807125" lon="11.29100032269554"><ele>564.6666666666667</ele><time>2026-03-29T14:06:04.999Z</time></trkpt><trkpt lat="43.461590555120765" lon="11.29085975897058"><ele>564.3333333333334</ele><time>2026-03-29T14:06:05.999Z</time></trkpt><trkpt lat="43.46161640459088" lon="11.29072561356119"><ele>564.0</ele><time>2026-03-29T14:06:06.999Z</time></trkpt><trkpt lat="43.46162135341615" lon="11.29059916718881"><ele>563.6666666666666</ele><time>2026-03-29T14:06:07.999Z</time></trkpt><trkpt lat="43.4616012123124" lon="11.290488262741855"><ele>563.3333333333333</ele><time>2026-03-29T14:06:08.999Z</time></trkpt><trkpt lat="43.461601311485175" lon="11.290400861163867"><ele>563.0</ele><time>2026-03-29T14:06:09.999Z</time></trkpt><trkpt lat="43.46173886935544" lon="11.290309658929536"><ele>562.8</ele><time>2026-03-29T14:06:12.999Z</time></trkpt><trkpt lat="43.46181430981626" lon="11.290279393546458"><ele>562.5999999999999</ele><time>2026-03-29T14:06:13.999Z</time></trkpt><trkpt lat="43.46190427677572" lon="11.290240814666728"><ele>562.4000000000001</ele><time>2026-03-29T14:06:14.999Z</time></trkpt><trkpt lat="43.46200269038766" lon="11.290212386316089"><ele>562.2</ele><time>2026-03-29T14:06:15.999Z</time></trkpt><trkpt lat="43.46209850032914" lon="11.290194352972899"><ele>562.0</ele><time>2026-03-29T14:06:16.999Z</time></trkpt><trkpt lat="43.46221696528049" lon="11.290173147942328"><ele>562.0</ele><time>2026-03-29T14:06:17.999Z</time></trkpt><trkpt lat="43.462353690229065" lon="11.290146648343038"><ele>562.0</ele><time>2026-03-29T14:06:18.999Z</time></trkpt><trkpt lat="43.46249717176148" lon="11.290114852773161"><ele>562.0</ele><time>2026-03-29T14:06:19.999Z</time></trkpt><trkpt lat="43.46263390384058" lon="11.290080342693239"><ele>562.0</ele><time>2026-03-29T14:06:20.999Z</time></trkpt><trkpt lat="43.46278926106377" lon="11.290037696537965"><ele>562.6666666666667</ele><time>2026-03-29T14:06:21.999Z</time></trkpt><trkpt lat="43.46296238656741" lon="11.289992653640704"><ele>563.3333333333334</ele><time>2026-03-29T14:06:22.999Z</time></trkpt><trkpt lat="43.463105833520636" lon="11.289948161352076"><ele>564.0</ele><time>2026-03-29T14:06:23.999Z</time></trkpt><trkpt lat="43.46324115916558" lon="11.289901367446415"><ele>564.0</ele><time>2026-03-29T14:06:25Z</time></trkpt><trkpt lat="43.46336928647502" lon="11.289862692131187"><ele>564.0</ele><time>2026-03-29T14:06:26Z</time></trkpt><trkpt lat="43.463486421889506" lon="11.28982904378745"><ele>564.0</ele><time>2026-03-29T14:06:27Z</time></trkpt><trkpt lat="43.463597485861264" lon="11.28980290939703"><ele>564.0</ele><time>2026-03-29T14:06:28Z</time></trkpt><trkpt lat="43.4636992654678" lon="11.289781077441237"><ele>563.5</ele><time>2026-03-29T14:06:29Z</time></trkpt><trkpt lat="43.46379814538001" lon="11.289751578363381"><ele>563.0</ele><time>2026-03-29T14:06:30Z</time></trkpt><trkpt lat="43.46389006038192" lon="11.28972421165685"><ele>562.5</ele><time>2026-03-29T14:06:31Z</time></trkpt><trkpt lat="43.46397671146009" lon="11.289698287436785"><ele>562.0</ele><time>2026-03-29T14:06:32Z</time></trkpt><trkpt lat="43.464061501277094" lon="11.289678918225666"><ele>561.5</ele><time>2026-03-29T14:06:33Z</time></trkpt><trkpt lat="43.46413926592058" lon="11.289665370761478"><ele>561.0</ele><time>2026-03-29T14:06:34Z</time></trkpt><trkpt lat="43.46423263834027" lon="11.289620175088123"><ele>561.0</ele><time>2026-03-29T14:06:36Z</time></trkpt><trkpt lat="43.46430231837743" lon="11.289600863676592"><ele>561.0</ele><time>2026-03-29T14:06:39Z</time></trkpt><trkpt lat="43.46437669447214" lon="11.289591210938362"><ele>561.0</ele><time>2026-03-29T14:06:42Z</time></trkpt><trkpt lat="43.464433529531576" lon="11.289551472053523"><ele>561.0</ele><time>2026-03-29T14:06:51Z</time></trkpt><trkpt lat="43.46437302696754" lon="11.289466927690562"><ele>561.0</ele><time>2026-03-29T14:06:52Z</time></trkpt></trkseg><trkseg><trkpt lat="43.46451777089699" lon="11.289422832751276"><ele>561.0</ele><time>2026-03-29T14:24:54.461Z</time></trkpt><trkpt lat="43.4644116761899" lon="11.28940378279255"><ele>561.0</ele><time>2026-03-29T14:28:26.999Z</time></trkpt><trkpt lat="43.46433862249936" lon="11.289414051467919"><ele>561.0</ele><time>2026-03-29T14:28:42.999Z</time></trkpt><trkpt lat="43.46431910181253" lon="11.289500590191754"><ele>561.0</ele><time>2026-03-29T14:28:44.999Z</time></trkpt><trkpt lat="43.469654281664184" lon="11.286071643459692"><ele>562.75</ele><time>2026-03-29T14:29:52Z</time></trkpt><trkpt lat="43.46977729744205" lon="11.28605086941755"><ele>564.5</ele><time>2026-03-29T14:29:53Z</time></trkpt><trkpt lat="43.469905252720515" lon="11.286017948917367"><ele>566.25</ele><time>2026-03-29T14:29:54Z</time></trkpt><trkpt lat="43.47003191745744" lon="11.285958174362287"><ele>568.0</ele><time>2026-03-29T14:29:55Z</time></trkpt><trkpt lat="43.47015781937774" lon="11.285886937884904"><ele>568.0</ele><time>2026-03-29T14:29:56Z</time></trkpt><trkpt lat="43.47028018516524" lon="11.28581563984072"><ele>568.0</ele><time>2026-03-29T14:29:57Z</time></trkpt><trkpt lat="43.47040790524462" lon="11.285739517434981"><ele>568.0</ele><time>2026-03-29T14:29:58Z</time></trkpt><trkpt lat="43.470535396312606" lon="11.285672902061329"><ele>568.0</ele><time>2026-03-29T14:29:59Z</time></trkpt><trkpt lat="43.47064624800873" lon="11.285609210526935"><ele>567.0</ele><time>2026-03-29T14:30:00Z</time></trkpt><trkpt lat="43.47074530307408" lon="11.285556986616141"><ele>566.0</ele><time>2026-03-29T14:30:01Z</time></trkpt><trkpt lat="43.47083443238639" lon="11.285508112784457"><ele>565.0</ele><time>2026-03-29T14:30:02Z</time></trkpt><trkpt lat="43.47091590116813" lon="11.285487375758994"><ele>564.0</ele><time>2026-03-29T14:30:03Z</time></trkpt><trkpt lat="43.47098706810287" lon="11.285439628723548"><ele>563.0</ele><time>2026-03-29T14:30:04Z</time></trkpt><trkpt lat="43.47105914851431" lon="11.285426200198575"><ele>562.0</ele><time>2026-03-29T14:30:05Z</time></trkpt><trkpt lat="43.47112477445699" lon="11.285429727463208"><ele>562.0</ele><time>2026-03-29T14:30:06Z</time></trkpt><trkpt lat="43.47126573893299" lon="11.28543241988121"><ele>562.0</ele><time>2026-03-29T14:30:08Z</time></trkpt><trkpt lat="43.4713568973829" lon="11.285459105000339"><ele>562.0</ele><time>2026-03-29T14:30:10Z</time></trkpt><trkpt lat="43.47137140055498" lon="11.285275557168033"><ele>562.0</ele><time>2026-03-29T14:30:11Z</time></trkpt><trkpt lat="43.471356501748225" lon="11.285179311358547"><ele>562.0</ele><time>2026-03-29T14:30:12Z</time></trkpt><trkpt lat="43.471342845845534" lon="11.285086818474166"><ele>564.3333333333334</ele><time>2026-03-29T14:30:12.999Z</time></trkpt><trkpt lat="43.471331383330956" lon="11.284992248040801"><ele>566.6666666666667</ele><time>2026-03-29T14:30:13.999Z</time></trkpt><trkpt lat="43.4713275396247" lon="11.284889644665665"><ele>569.0</ele><time>2026-03-29T14:30:14.999Z</time></trkpt><trkpt lat="43.47132647391781" lon="11.284786467419789"><ele>571.3333333333334</ele><time>2026-03-29T14:30:15.999Z</time></trkpt><trkpt lat="43.471330674934066" lon="11.284670784583929"><ele>573.6666666666666</ele><time>2026-03-29T14:30:16.999Z</time></trkpt><trkpt lat="43.47133309608839" lon="11.284549173988035"><ele>576.0</ele><time>2026-03-29T14:30:17.999Z</time></trkpt><trkpt lat="43.471341120112186" lon="11.284405847998896"><ele>576.75</ele><time>2026-03-29T14:30:18.999Z</time></trkpt><trkpt lat="43.47136345638928" lon="11.28426597232375"><ele>577.5</ele><time>2026-03-29T14:30:19.999Z</time></trkpt><trkpt lat="43.47138324893186" lon="11.284108222476279"><ele>578.25</ele><time>2026-03-29T14:30:20.999Z</time></trkpt><trkpt lat="43.47140767486893" lon="11.28392242479294"><ele>579.0</ele><time>2026-03-29T14:30:21.999Z</time></trkpt><trkpt lat="43.471432329805545" lon="11.283722078116245"><ele>579.25</ele><time>2026-03-29T14:30:22.999Z</time></trkpt><trkpt lat="43.47145797855004" lon="11.28353786315238"><ele>579.5</ele><time>2026-03-29T14:30:23.999Z</time></trkpt><trkpt lat="43.47148612205861" lon="11.283367524598969"><ele>579.75</ele><time>2026-03-29T14:30:24.999Z</time></trkpt><trkpt lat="43.47149710624663" lon="11.28321020088276"><ele>580.0</ele><time>2026-03-29T14:30:25.999Z</time></trkpt><trkpt lat="43.47146022429011" lon="11.28306025552464"><ele>581.0</ele><time>2026-03-29T14:30:26.999Z</time></trkpt><trkpt lat="43.471378728154484" lon="11.282917975972273"><ele>582.0</ele><time>2026-03-29T14:30:27.999Z</time></trkpt><trkpt lat="43.47126311371656" lon="11.28281091543051"><ele>583.0</ele><time>2026-03-29T14:30:28.999Z</time></trkpt><trkpt lat="43.47113185104027" lon="11.282740864023205"><ele>584.0</ele><time>2026-03-29T14:30:29.999Z</time></trkpt><trkpt lat="43.4710176088095" lon="11.282674216054076"><ele>581.2</ele><time>2026-03-29T14:30:30.999Z</time></trkpt><trkpt lat="43.47093171974619" lon="11.282591637638445"><ele>578.4</ele><time>2026-03-29T14:30:31.999Z</time></trkpt><trkpt lat="43.470871603035896" lon="11.282495214185577"><ele>575.6</ele><time>2026-03-29T14:30:32.999Z</time></trkpt><trkpt lat="43.470834729801545" lon="11.28238282618973"><ele>572.8</ele><time>2026-03-29T14:30:33.999Z</time></trkpt><trkpt lat="43.470826057998636" lon="11.282259295037969"><ele>570.0</ele><time>2026-03-29T14:30:34.999Z</time></trkpt><trkpt lat="43.470830371834964" lon="11.282115459223506"><ele>570.0</ele><time>2026-03-29T14:30:35.999Z</time></trkpt><trkpt lat="43.47084396567792" lon="11.28198530040019"><ele>570.0</ele><time>2026-03-29T14:30:36.999Z</time></trkpt><trkpt lat="43.47087759182474" lon="11.281888734858514"><ele>570.0</ele><time>2026-03-29T14:30:37.999Z</time></trkpt><trkpt lat="43.47091811265717" lon="11.28177596107004"><ele>570.0</ele><time>2026-03-29T14:30:38.999Z</time></trkpt><trkpt lat="43.47095285514449" lon="11.281643278623624"><ele>570.0</ele><time>2026-03-29T14:30:39.999Z</time></trkpt><trkpt lat="43.47097587503317" lon="11.281488924432372"><ele>569.25</ele><time>2026-03-29T14:30:40.999Z</time></trkpt><trkpt lat="43.470984909925676" lon="11.281300510267876"><ele>568.5</ele><time>2026-03-29T14:30:41.999Z</time></trkpt><trkpt lat="43.47096851604326" lon="11.281086855732793"><ele>567.75</ele><time>2026-03-29T14:30:42.999Z</time></trkpt><trkpt lat="43.47094341945465" lon="11.2809113108613"><ele>567.0</ele><time>2026-03-29T14:30:43.999Z</time></trkpt><trkpt lat="43.47093788137003" lon="11.280760225294353"><ele>567.0</ele><time>2026-03-29T14:30:44.999Z</time></trkpt><trkpt lat="43.470947093200856" lon="11.280622516731272"><ele>567.0</ele><time>2026-03-29T14:30:45.999Z</time></trkpt><trkpt lat="43.470962267044996" lon="11.28048869892321"><ele>567.0</ele><time>2026-03-29T14:30:46.999Z</time></trkpt><trkpt lat="43.471009869041346" lon="11.280364059379757"><ele>567.0</ele><time>2026-03-29T14:30:47.999Z</time></trkpt><trkpt lat="43.47108910447337" lon="11.280259951343405"><ele>567.0</ele><time>2026-03-29T14:30:48.999Z</time></trkpt><trkpt lat="43.47120241418049" lon="11.28020583297528"><ele>567.0</ele><time>2026-03-29T14:30:49.999Z</time></trkpt><trkpt lat="43.47133071282132" lon="11.280201774514316"><ele>567.0</ele><time>2026-03-29T14:30:50.999Z</time></trkpt><trkpt lat="43.471801104627865" lon="11.276006268210056"><ele>567.6666666666666</ele><time>2026-03-29T14:31:52Z</time></trkpt><trkpt lat="43.47168174634832" lon="11.27598421485984"><ele>568.3333333333334</ele><time>2026-03-29T14:32:15.999Z</time></trkpt><trkpt lat="43.47161868535139" lon="11.275979589144574"><ele>569.0</ele><time>2026-03-29T14:32:17.999Z</time></trkpt><trkpt lat="43.47155812642574" lon="11.2759547160007"><ele>569.6666666666667</ele><time>2026-03-29T14:32:19.999Z</time></trkpt><trkpt lat="43.47146620618054" lon="11.27591301650427"><ele>570.3333333333334</ele><time>2026-03-29T14:32:22.999Z</time></trkpt><trkpt lat="43.47137442868319" lon="11.275880962476634"><ele>571.0</ele><time>2026-03-29T14:32:24.999Z</time></trkpt><trkpt lat="43.471308819998654" lon="11.275852358040268"><ele>568.5</ele><time>2026-03-29T14:32:25.999Z</time></trkpt><trkpt lat="43.471239376708816" lon="11.275827394941157"><ele>566.0</ele><time>2026-03-29T14:32:26.999Z</time></trkpt><trkpt lat="43.471179675806454" lon="11.275775917853556"><ele>563.5</ele><time>2026-03-29T14:32:27.999Z</time></trkpt><trkpt lat="43.471117212316685" lon="11.275756429527613"><ele>561.0</ele><time>2026-03-29T14:32:28.999Z</time></trkpt><trkpt lat="43.4710594536204" lon="11.275706687074448"><ele>558.5</ele><time>2026-03-29T14:32:29.999Z</time></trkpt><trkpt lat="43.47101252047844" lon="11.275609483958483"><ele>556.0</ele><time>2026-03-29T14:32:30.999Z</time></trkpt><trkpt lat="43.47094761233848" lon="11.275500479173655"><ele>555.75</ele><time>2026-03-29T14:32:31.999Z</time></trkpt><trkpt lat="43.47088340455259" lon="11.275386841019607"><ele>555.5</ele><time>2026-03-29T14:32:32.999Z</time></trkpt><trkpt lat="43.47080842422495" lon="11.27528881419297"><ele>555.25</ele><time>2026-03-29T14:32:33.999Z</time></trkpt><trkpt lat="43.47069463356765" lon="11.275237495197462"><ele>555.0</ele><time>2026-03-29T14:32:34.999Z</time></trkpt><trkpt lat="43.47056296351246" lon="11.275199585085874"><ele>554.2</ele><time>2026-03-29T14:32:35.999Z</time></trkpt><trkpt lat="43.47043918404921" lon="11.27516062426858"><ele>553.4</ele><time>2026-03-29T14:32:36.999Z</time></trkpt><trkpt lat="43.47033554311804" lon="11.275130268151333"><ele>552.6</ele><time>2026-03-29T14:32:37.999Z</time></trkpt><trkpt lat="43.47023594079808" lon="11.27509178369305"><ele>551.8</ele><time>2026-03-29T14:32:38.999Z</time></trkpt><trkpt lat="43.4701555061416" lon="11.2750161494737"><ele>551.0</ele><time>2026-03-29T14:32:39.999Z</time></trkpt><trkpt lat="43.47008865893154" lon="11.274909064023264"><ele>551.0</ele><time>2026-03-29T14:32:40.999Z</time></trkpt><trkpt lat="43.470010126587624" lon="11.274804953123935"><ele>551.0</ele><time>2026-03-29T14:32:41.999Z</time></trkpt><trkpt lat="43.46991964680211" lon="11.274698997508327"><ele>551.0</ele><time>2026-03-29T14:32:42.999Z</time></trkpt><trkpt lat="43.46981524223369" lon="11.274601543623767"><ele>551.0</ele><time>2026-03-29T14:32:43.999Z</time></trkpt><trkpt lat="43.4696970807208" lon="11.274543592019144"><ele>546.75</ele><time>2026-03-29T14:32:44.999Z</time></trkpt><trkpt lat="43.469591199225476" lon="11.274453368509224"><ele>542.5</ele><time>2026-03-29T14:32:45.999Z</time></trkpt><trkpt lat="43.46947641191743" lon="11.274390137416194"><ele>538.25</ele><time>2026-03-29T14:32:46.999Z</time></trkpt><trkpt lat="43.469382127772164" lon="11.274313131009583"><ele>534.0</ele><time>2026-03-29T14:32:47.999Z</time></trkpt><trkpt lat="43.46930078582905" lon="11.27420051791742"><ele>534.0</ele><time>2026-03-29T14:32:48.999Z</time></trkpt><trkpt lat="43.46922091373528" lon="11.274056217253058"><ele>534.0</ele><time>2026-03-29T14:32:49.999Z</time></trkpt><trkpt lat="43.46914415074503" lon="11.273886043571716"><ele>534.0</ele><time>2026-03-29T14:32:50.999Z</time></trkpt><trkpt lat="43.462487483784145" lon="11.267140424317576"><ele>523.8333333333334</ele><time>2026-03-29T14:33:52Z</time></trkpt><trkpt lat="43.46248530202126" lon="11.266976495701673"><ele>513.6666666666666</ele><time>2026-03-29T14:33:54Z</time></trkpt><trkpt lat="43.46247894160076" lon="11.266889671373344"><ele>503.5</ele><time>2026-03-29T14:33:55Z</time></trkpt><trkpt lat="43.46248742754893" lon="11.26680276490885"><ele>493.3333333333333</ele><time>2026-03-29T14:33:56Z</time></trkpt><trkpt lat="43.4625005567886" lon="11.266640493477093"><ele>483.16666666666663</ele><time>2026-03-29T14:33:58Z</time></trkpt><trkpt lat="43.4625112943077" lon="11.266548749882865"><ele>473.0</ele><time>2026-03-29T14:33:59Z</time></trkpt><trkpt lat="43.46252042592405" lon="11.266448903805212"><ele>473.0</ele><time>2026-03-29T14:34:01Z</time></trkpt><trkpt lat="43.462501505008824" lon="11.266592127411108"><ele>472.99999999999994</ele><time>2026-03-29T14:34:26Z</time></trkpt><trkpt lat="43.462464518452464" lon="11.266722104878315"><ele>472.99999999999994</ele><time>2026-03-29T14:34:28Z</time></trkpt><trkpt lat="43.46245471392252" lon="11.266857962811223"><ele>473.0</ele><time>2026-03-29T14:34:30Z</time></trkpt><trkpt lat="43.4624401995927" lon="11.267003508820485"><ele>473.0</ele><time>2026-03-29T14:34:32Z</time></trkpt><trkpt lat="43.46237169306312" lon="11.267033051548538"><ele>473.0</ele><time>2026-03-29T14:34:34.999Z</time></trkpt><trkpt lat="43.46231403967496" lon="11.266968095157667"><ele>472.99999999999994</ele><time>2026-03-29T14:34:37.999Z</time></trkpt><trkpt lat="43.462215464776165" lon="11.266908127195844"><ele>472.99999999999994</ele><time>2026-03-29T14:34:48.999Z</time></trkpt><trkpt lat="43.46214890711881" lon="11.266863022001015"><ele>473.0</ele><time>2026-03-29T14:34:49.999Z</time></trkpt><trkpt lat="43.462066300051866" lon="11.266831992773298"><ele>473.0</ele><time>2026-03-29T14:34:50.999Z</time></trkpt><trkpt lat="43.46057231530816" lon="11.265381534638873"><ele>467.59999999999997</ele><time>2026-03-29T14:35:52Z</time></trkpt><trkpt lat="43.460468822454935" lon="11.265367580083261"><ele>462.19999999999993</ele><time>2026-03-29T14:36:44Z</time></trkpt><trkpt lat="43.46034476846368" lon="11.26535349993481"><ele>456.8</ele><time>2026-03-29T14:36:46Z</time></trkpt><trkpt lat="43.460267438179635" lon="11.265347297759526"><ele>451.4</ele><time>2026-03-29T14:36:46.999Z</time></trkpt><trkpt lat="43.46018745282642" lon="11.26534005034957"><ele>446.0</ele><time>2026-03-29T14:36:47.999Z</time></trkpt><trkpt lat="43.46011376174017" lon="11.265327596283553"><ele>444.5</ele><time>2026-03-29T14:36:48.999Z</time></trkpt><trkpt lat="43.46004142387663" lon="11.265315371116847"><ele>443.0</ele><time>2026-03-29T14:36:49.999Z</time></trkpt><trkpt lat="43.456727026773386" lon="11.261296148839373"><ele>432.4</ele><time>2026-03-29T14:37:52Z</time></trkpt><trkpt lat="43.456741550380606" lon="11.26120586891077"><ele>421.79999999999995</ele><time>2026-03-29T14:37:53Z</time></trkpt><trkpt lat="43.45671154028859" lon="11.261082876001613"><ele>411.2</ele><time>2026-03-29T14:37:55Z</time></trkpt><trkpt lat="43.45666365523881" lon="11.260957964457672"><ele>400.6</ele><time>2026-03-29T14:38:29Z</time></trkpt><trkpt lat="43.45661594628975" lon="11.260812546725647"><ele>390.0</ele><time>2026-03-29T14:38:31Z</time></trkpt><trkpt lat="43.456593920060875" lon="11.26069335318221"><ele>390.0</ele><time>2026-03-29T14:38:33Z</time></trkpt><trkpt lat="43.45657428335316" lon="11.26054945595966"><ele>390.0</ele><time>2026-03-29T14:38:35Z</time></trkpt><trkpt lat="43.456559880494055" lon="11.260445284941916"><ele>390.0</ele><time>2026-03-29T14:38:36Z</time></trkpt><trkpt lat="43.45654677680776" lon="11.260346243604411"><ele>390.0</ele><time>2026-03-29T14:38:37Z</time></trkpt><trkpt lat="43.45653421476643" lon="11.260240980562624"><ele>390.0</ele><time>2026-03-29T14:38:38Z</time></trkpt><trkpt lat="43.45652219423645" lon="11.26014025506782"><ele>390.0</ele><time>2026-03-29T14:38:39Z</time></trkpt><trkpt lat="43.45649473842322" lon="11.260050791675337"><ele>390.0</ele><time>2026-03-29T14:38:40Z</time></trkpt><trkpt lat="43.45648500842794" lon="11.259951072263831"><ele>390.0</ele><time>2026-03-29T14:38:41Z</time></trkpt><trkpt lat="43.45648156085188" lon="11.259854841479603"><ele>390.0</ele><time>2026-03-29T14:38:42Z</time></trkpt><trkpt lat="43.45647257648251" lon="11.259752074385359"><ele>390.0</ele><time>2026-03-29T14:38:43Z</time></trkpt><trkpt lat="43.45643887440585" lon="11.259628738029537"><ele>390.0</ele><time>2026-03-29T14:38:44Z</time></trkpt><trkpt lat="43.456414239468295" lon="11.25948910421716"><ele>390.0</ele><time>2026-03-29T14:38:45Z</time></trkpt><trkpt lat="43.456363971409814" lon="11.25935682554606"><ele>389.6</ele><time>2026-03-29T14:38:46Z</time></trkpt><trkpt lat="43.456310226191746" lon="11.259245374586559"><ele>389.2</ele><time>2026-03-29T14:38:47Z</time></trkpt><trkpt lat="43.45624663515398" lon="11.259139574446321"><ele>388.79999999999995</ele><time>2026-03-29T14:38:48Z</time></trkpt><trkpt lat="43.45618053582793" lon="11.259043143049936"><ele>388.4</ele><time>2026-03-29T14:38:49Z</time></trkpt><trkpt lat="43.45611538436694" lon="11.258961817287693"><ele>388.0</ele><time>2026-03-29T14:38:50Z</time></trkpt><trkpt lat="43.456054302901514" lon="11.258891474531472"><ele>358.0</ele><time>2026-03-29T14:38:51Z</time></trkpt><trkpt lat="43.451434763210415" lon="11.256089255538875"><ele>358.0</ele><time>2026-03-29T14:39:52Z</time></trkpt><trkpt lat="43.45138040054645" lon="11.25599057205204"><ele>358.0</ele><time>2026-03-29T14:39:53Z</time></trkpt><trkpt lat="43.451334987124675" lon="11.25589127261542"><ele>358.0</ele><time>2026-03-29T14:39:54Z</time></trkpt><trkpt lat="43.451290247825625" lon="11.255791622185193"><ele>358.0</ele><time>2026-03-29T14:39:55Z</time></trkpt><trkpt lat="43.45124038426508" lon="11.25568125303477"><ele>358.0</ele><time>2026-03-29T14:39:56Z</time></trkpt><trkpt lat="43.4511932960714" lon="11.255577027049567"><ele>358.0</ele><time>2026-03-29T14:39:57Z</time></trkpt><trkpt lat="43.45114550883683" lon="11.255471253793852"><ele>355.2</ele><time>2026-03-29T14:39:58Z</time></trkpt><trkpt lat="43.45109560302688" lon="11.255360791134786"><ele>352.4</ele><time>2026-03-29T14:39:59Z</time></trkpt><trkpt lat="43.451040529735806" lon="11.255238890814878"><ele>349.59999999999997</ele><time>2026-03-29T14:40:00Z</time></trkpt><trkpt lat="43.45098419520455" lon="11.255119243082698"><ele>346.79999999999995</ele><time>2026-03-29T14:40:01Z</time></trkpt><trkpt lat="43.45092530571837" lon="11.254996563699486"><ele>344.0</ele><time>2026-03-29T14:40:02Z</time></trkpt><trkpt lat="43.45086532884101" lon="11.254873600496953"><ele>342.4</ele><time>2026-03-29T14:40:03Z</time></trkpt><trkpt lat="43.45080703099868" lon="11.254753085394606"><ele>340.79999999999995</ele><time>2026-03-29T14:40:04Z</time></trkpt><trkpt lat="43.45074583833975" lon="11.254630699915063"><ele>339.20000000000005</ele><time>2026-03-29T14:40:05Z</time></trkpt><trkpt lat="43.45067734545438" lon="11.254517714686148"><ele>337.6</ele><time>2026-03-29T14:40:06Z</time></trkpt><trkpt lat="43.45059963405076" lon="11.254414574815407"><ele>336.0</ele><time>2026-03-29T14:40:07Z</time></trkpt><trkpt lat="43.45052762397767" lon="11.254314512905028"><ele>336.0</ele><time>2026-03-29T14:40:08Z</time></trkpt><trkpt lat="43.45046598117616" lon="11.25420516683613"><ele>336.0</ele><time>2026-03-29T14:40:09Z</time></trkpt><trkpt lat="43.45041495607549" lon="11.254086036390445"><ele>336.0</ele><time>2026-03-29T14:40:10Z</time></trkpt><trkpt lat="43.45036901690201" lon="11.253960721654217"><ele>336.0</ele><time>2026-03-29T14:40:11Z</time></trkpt><trkpt lat="43.45032393894789" lon="11.253821475240475"><ele>336.0</ele><time>2026-03-29T14:40:12Z</time></trkpt><trkpt lat="43.45028270268811" lon="11.253672455276675"><ele>333.0</ele><time>2026-03-29T14:40:13Z</time></trkpt><trkpt lat="43.450246321956925" lon="11.253511652507255"><ele>330.0</ele><time>2026-03-29T14:40:14Z</time></trkpt><trkpt lat="43.45020861481351" lon="11.253347206879576"><ele>327.0</ele><time>2026-03-29T14:40:15Z</time></trkpt><trkpt lat="43.45016263414711" lon="11.25315176653406"><ele>324.0</ele><time>2026-03-29T14:40:16Z</time></trkpt><trkpt lat="43.45011432220604" lon="11.252934936797015"><ele>322.6666666666667</ele><time>2026-03-29T14:40:17Z</time></trkpt><trkpt lat="43.45006710443442" lon="11.2527143091219"><ele>321.33333333333337</ele><time>2026-03-29T14:40:18Z</time></trkpt><trkpt lat="43.45002876059031" lon="11.252522434133374"><ele>320.0</ele><time>2026-03-29T14:40:19Z</time></trkpt><trkpt lat="43.449991384075105" lon="11.252324478202674"><ele>318.5</ele><time>2026-03-29T14:40:20Z</time></trkpt><trkpt lat="43.449958169459364" lon="11.252140537844186"><ele>317.0</ele><time>2026-03-29T14:40:21Z</time></trkpt><trkpt lat="43.44992828422829" lon="11.25196049296961"><ele>315.5</ele><time>2026-03-29T14:40:22Z</time></trkpt><trkpt lat="43.44990267953211" lon="11.25178740871949"><ele>314.0</ele><time>2026-03-29T14:40:23Z</time></trkpt><trkpt lat="43.449880080170544" lon="11.251629283653354"><ele>314.0</ele><time>2026-03-29T14:40:24Z</time></trkpt><trkpt lat="43.449855714469294" lon="11.251481646256746"><ele>314.0</ele><time>2026-03-29T14:40:25Z</time></trkpt><trkpt lat="43.449835376063334" lon="11.25136165844787"><ele>314.0</ele><time>2026-03-29T14:40:26Z</time></trkpt><trkpt lat="43.44979803511755" lon="11.251260577481515"><ele>314.0</ele><time>2026-03-29T14:40:27Z</time></trkpt><trkpt lat="43.449667172726464" lon="11.251184198798276"><ele>314.0</ele><time>2026-03-29T14:40:29Z</time></trkpt><trkpt lat="43.44958871046852" lon="11.25123828111624"><ele>313.2857142857143</ele><time>2026-03-29T14:40:30Z</time></trkpt><trkpt lat="43.44952708142062" lon="11.251215018972673"><ele>312.57142857142856</ele><time>2026-03-29T14:40:31Z</time></trkpt><trkpt lat="43.44945696750558" lon="11.251213000793834"><ele>311.8571428571429</ele><time>2026-03-29T14:40:32Z</time></trkpt><trkpt lat="43.44939247867902" lon="11.251211962090439"><ele>311.1428571428571</ele><time>2026-03-29T14:40:33Z</time></trkpt><trkpt lat="43.44932024303288" lon="11.251210798610774"><ele>310.42857142857144</ele><time>2026-03-29T14:40:34Z</time></trkpt><trkpt lat="43.44925064211973" lon="11.251209677567516"><ele>309.7142857142857</ele><time>2026-03-29T14:40:35Z</time></trkpt><trkpt lat="43.4491828699436" lon="11.251208585980406"><ele>309.0</ele><time>2026-03-29T14:40:36Z</time></trkpt><trkpt lat="43.449116888295926" lon="11.25120752323215"><ele>309.0</ele><time>2026-03-29T14:40:37Z</time></trkpt><trkpt lat="43.449045438945326" lon="11.251206372417256"><ele>309.0</ele><time>2026-03-29T14:40:38Z</time></trkpt><trkpt lat="43.44896952131846" lon="11.251205149632822"><ele>309.0</ele><time>2026-03-29T14:40:39Z</time></trkpt><trkpt lat="43.44888827458576" lon="11.251203167103942"><ele>309.0</ele><time>2026-03-29T14:40:40Z</time></trkpt><trkpt lat="43.448792274724205" lon="11.251198948942092"><ele>309.0</ele><time>2026-03-29T14:40:41Z</time></trkpt><trkpt lat="43.44869072063876" lon="11.251184944287136"><ele>309.0</ele><time>2026-03-29T14:40:42Z</time></trkpt><trkpt lat="43.44859855304259" lon="11.251154309339384"><ele>307.6666666666667</ele><time>2026-03-29T14:40:43Z</time></trkpt><trkpt lat="43.44851912336211" lon="11.251118804097231"><ele>306.3333333333333</ele><time>2026-03-29T14:40:44Z</time></trkpt><trkpt lat="43.44844199743372" lon="11.25107889060542"><ele>305.0</ele><time>2026-03-29T14:40:45Z</time></trkpt><trkpt lat="43.448373477128705" lon="11.251043246025255"><ele>303.66666666666663</ele><time>2026-03-29T14:40:46Z</time></trkpt><trkpt lat="43.448300738769106" lon="11.251022199748126"><ele>302.3333333333333</ele><time>2026-03-29T14:40:47Z</time></trkpt><trkpt lat="43.44818068242553" lon="11.251039679958296"><ele>301.0</ele><time>2026-03-29T14:40:49Z</time></trkpt><trkpt lat="43.448132819727725" lon="11.25111871961373"><ele>267.0</ele><time>2026-03-29T14:40:50Z</time></trkpt><trkpt lat="43.447200036463244" lon="11.257682465204088"><ele>265.8333333333333</ele><time>2026-03-29T14:41:52Z</time></trkpt><trkpt lat="43.44710736343163" lon="11.257653972507311"><ele>264.6666666666667</ele><time>2026-03-29T14:41:53Z</time></trkpt><trkpt lat="43.447025073854185" lon="11.257626248238015"><ele>263.5</ele><time>2026-03-29T14:41:54Z</time></trkpt><trkpt lat="43.44694998012969" lon="11.257591105810722"><ele>262.33333333333337</ele><time>2026-03-29T14:41:55Z</time></trkpt><trkpt lat="43.446889963510735" lon="11.257530138326851"><ele>261.1666666666667</ele><time>2026-03-29T14:41:56Z</time></trkpt><trkpt lat="43.446838954644214" lon="11.257432834969423"><ele>260.0</ele><time>2026-03-29T14:41:57Z</time></trkpt><trkpt lat="43.44679587818694" lon="11.257316271665541"><ele>259.8</ele><time>2026-03-29T14:41:58Z</time></trkpt><trkpt lat="43.446751589626004" lon="11.257204675827126"><ele>259.6</ele><time>2026-03-29T14:41:59Z</time></trkpt><trkpt lat="43.446749447852376" lon="11.257035578136104"><ele>259.4</ele><time>2026-03-29T14:42:00Z</time></trkpt><trkpt lat="43.446740846690886" lon="11.256877173920394"><ele>259.2</ele><time>2026-03-29T14:42:01Z</time></trkpt><trkpt lat="43.44673532243726" lon="11.25672940251403"><ele>259.0</ele><time>2026-03-29T14:42:02Z</time></trkpt><trkpt lat="43.44672893626547" lon="11.256586420189514"><ele>259.0</ele><time>2026-03-29T14:42:03Z</time></trkpt><trkpt lat="43.4467119359917" lon="11.256449982657946"><ele>259.0</ele><time>2026-03-29T14:42:04Z</time></trkpt><trkpt lat="43.44665878543748" lon="11.25631953002754"><ele>259.0</ele><time>2026-03-29T14:42:05Z</time></trkpt><trkpt lat="43.44658318535553" lon="11.256192644973376"><ele>259.0</ele><time>2026-03-29T14:42:06Z</time></trkpt><trkpt lat="43.44649792325019" lon="11.256049296824894"><ele>259.0</ele><time>2026-03-29T14:42:07Z</time></trkpt><trkpt lat="43.44640064644472" lon="11.255876400968722"><ele>259.0</ele><time>2026-03-29T14:42:08Z</time></trkpt><trkpt lat="43.446315375126545" lon="11.25572788154775"><ele>259.0</ele><time>2026-03-29T14:42:09Z</time></trkpt><trkpt lat="43.4462422863092" lon="11.255604971480222"><ele>259.0</ele><time>2026-03-29T14:42:10Z</time></trkpt><trkpt lat="43.44617147772543" lon="11.255514548009906"><ele>257.59999999999997</ele><time>2026-03-29T14:42:11Z</time></trkpt><trkpt lat="43.44612242588913" lon="11.255440398130263"><ele>256.2</ele><time>2026-03-29T14:42:12Z</time></trkpt><trkpt lat="43.446034070280916" lon="11.25540587896104"><ele>254.79999999999998</ele><time>2026-03-29T14:42:13Z</time></trkpt><trkpt lat="43.445929982849655" lon="11.255465588857026"><ele>253.39999999999998</ele><time>2026-03-29T14:42:14Z</time></trkpt><trkpt lat="43.44584345388586" lon="11.255526617513668"><ele>252.0</ele><time>2026-03-29T14:42:15Z</time></trkpt><trkpt lat="43.44572313452786" lon="11.25560249139388"><ele>252.75</ele><time>2026-03-29T14:42:16Z</time></trkpt><trkpt lat="43.44558828629333" lon="11.255696358837362"><ele>253.5</ele><time>2026-03-29T14:42:17Z</time></trkpt><trkpt lat="43.44547776949072" lon="11.255765139341612"><ele>254.25</ele><time>2026-03-29T14:42:18Z</time></trkpt><trkpt lat="43.44539106286353" lon="11.255818879751661"><ele>255.0</ele><time>2026-03-29T14:42:19Z</time></trkpt><trkpt lat="43.445315007364144" lon="11.255864067249547"><ele>257.0</ele><time>2026-03-29T14:42:20Z</time></trkpt><trkpt lat="43.44524386862865" lon="11.255878141224708"><ele>259.0</ele><time>2026-03-29T14:42:21Z</time></trkpt><trkpt lat="43.445189214753746" lon="11.255802899496972"><ele>261.0</ele><time>2026-03-29T14:42:22Z</time></trkpt><trkpt lat="43.44517413004839" lon="11.255649309622761"><ele>263.0</ele><time>2026-03-29T14:42:24Z</time></trkpt><trkpt lat="43.445156550889166" lon="11.255546650344357"><ele>265.0</ele><time>2026-03-29T14:42:25Z</time></trkpt><trkpt lat="43.44513643683219" lon="11.25538661374857"><ele>265.0</ele><time>2026-03-29T14:42:26Z</time></trkpt><trkpt lat="43.44511751060617" lon="11.255198045039705"><ele>265.0</ele><time>2026-03-29T14:42:27Z</time></trkpt><trkpt lat="43.44510041540776" lon="11.254991222318466"><ele>265.0</ele><time>2026-03-29T14:42:28Z</time></trkpt><trkpt lat="43.44508606388465" lon="11.25478453718039"><ele>265.0</ele><time>2026-03-29T14:42:29Z</time></trkpt><trkpt lat="43.44507752287451" lon="11.254572864834977"><ele>265.0</ele><time>2026-03-29T14:42:30Z</time></trkpt><trkpt lat="43.44507380359961" lon="11.254360412575096"><ele>265.0</ele><time>2026-03-29T14:42:31Z</time></trkpt><trkpt lat="43.44507355077744" lon="11.254162877243004"><ele>265.0</ele><time>2026-03-29T14:42:32Z</time></trkpt><trkpt lat="43.44507564922787" lon="11.253984207543045"><ele>265.0</ele><time>2026-03-29T14:42:33Z</time></trkpt><trkpt lat="43.44509449503098" lon="11.253815853143598"><ele>265.0</ele><time>2026-03-29T14:42:34Z</time></trkpt><trkpt lat="43.445157049790375" lon="11.253678817914338"><ele>265.0</ele><time>2026-03-29T14:42:35Z</time></trkpt><trkpt lat="43.44519679814397" lon="11.253541751807214"><ele>265.0</ele><time>2026-03-29T14:42:36Z</time></trkpt><trkpt lat="43.44521227594066" lon="11.253382567704858"><ele>265.0</ele><time>2026-03-29T14:42:37Z</time></trkpt><trkpt lat="43.44519508921544" lon="11.253209220215842"><ele>262.66666666666663</ele><time>2026-03-29T14:42:38Z</time></trkpt><trkpt lat="43.44513018902843" lon="11.253032729327911"><ele>260.3333333333333</ele><time>2026-03-29T14:42:39Z</time></trkpt><trkpt lat="43.445051524248164" lon="11.25284332862914"><ele>258.0</ele><time>2026-03-29T14:42:40Z</time></trkpt><trkpt lat="43.44498289095626" lon="11.252621940176043"><ele>258.0</ele><time>2026-03-29T14:42:41Z</time></trkpt><trkpt lat="43.4449259912153" lon="11.252375963939459"><ele>258.0</ele><time>2026-03-29T14:42:42Z</time></trkpt><trkpt lat="43.4448899989703" lon="11.252160892051846"><ele>258.0</ele><time>2026-03-29T14:42:43Z</time></trkpt><trkpt lat="43.4448590608571" lon="11.251968507833508"><ele>257.8</ele><time>2026-03-29T14:42:44Z</time></trkpt><trkpt lat="43.44482054201116" lon="11.251790572070911"><ele>257.6</ele><time>2026-03-29T14:42:45Z</time></trkpt><trkpt lat="43.44478520915355" lon="11.25165868942526"><ele>257.4</ele><time>2026-03-29T14:42:46Z</time></trkpt><trkpt lat="43.44474241220917" lon="11.251559188387025"><ele>257.2</ele><time>2026-03-29T14:42:47Z</time></trkpt><trkpt lat="43.44468799453892" lon="11.251494645167249"><ele>257.0</ele><time>2026-03-29T14:42:48Z</time></trkpt><trkpt lat="43.44459515917724" lon="11.251518844935932"><ele>261.0</ele><time>2026-03-29T14:42:49Z</time></trkpt><trkpt lat="43.44450364772711" lon="11.251526249272155"><ele>265.0</ele><time>2026-03-29T14:42:50Z</time></trkpt><trkpt lat="43.44442872430134" lon="11.251566632467837"><ele>269.0</ele><time>2026-03-29T14:42:51Z</time></trkpt><trkpt lat="43.4389174803831" lon="11.247953413398852"><ele>272.5</ele><time>2026-03-29T14:43:52Z</time></trkpt><trkpt lat="43.438850899495066" lon="11.247950177090416"><ele>276.0</ele><time>2026-03-29T14:43:53Z</time></trkpt><trkpt lat="43.43879011130481" lon="11.24802302327288"><ele>279.5</ele><time>2026-03-29T14:43:54Z</time></trkpt><trkpt lat="43.43875281686741" lon="11.248136415671128"><ele>283.0</ele><time>2026-03-29T14:43:55Z</time></trkpt><trkpt lat="43.43871265562395" lon="11.24825660720879"><ele>286.5</ele><time>2026-03-29T14:43:56Z</time></trkpt><trkpt lat="43.43865728296238" lon="11.248354265985462"><ele>290.0</ele><time>2026-03-29T14:43:57Z</time></trkpt><trkpt lat="43.43862250389867" lon="11.248433343725845"><ele>290.0</ele><time>2026-03-29T14:43:58Z</time></trkpt><trkpt lat="43.43858641351516" lon="11.24851289848566"><ele>290.0</ele><time>2026-03-29T14:44:00Z</time></trkpt><trkpt lat="43.43857567159363" lon="11.248404770005846"><ele>290.0</ele><time>2026-03-29T14:44:03Z</time></trkpt><trkpt lat="43.43857242484297" lon="11.24827943900176"><ele>290.0</ele><time>2026-03-29T14:44:04Z</time></trkpt><trkpt lat="43.43855380130769" lon="11.24811841767687"><ele>290.0</ele><time>2026-03-29T14:44:05Z</time></trkpt><trkpt lat="43.43854697203829" lon="11.24795849330601"><ele>290.0</ele><time>2026-03-29T14:44:06Z</time></trkpt><trkpt lat="43.4385381250278" lon="11.24777972444402"><ele>290.0</ele><time>2026-03-29T14:44:07Z</time></trkpt><trkpt lat="43.438518439298704" lon="11.247594117573977"><ele>290.0</ele><time>2026-03-29T14:44:08Z</time></trkpt><trkpt lat="43.43850802464708" lon="11.247411779131518"><ele>290.0</ele><time>2026-03-29T14:44:09Z</time></trkpt><trkpt lat="43.438502502588946" lon="11.247227053143945"><ele>290.5</ele><time>2026-03-29T14:44:10Z</time></trkpt><trkpt lat="43.43849688827384" lon="11.24705783984005"><ele>291.0</ele><time>2026-03-29T14:44:11Z</time></trkpt><trkpt lat="43.43849297251724" lon="11.246895968282654"><ele>291.5</ele><time>2026-03-29T14:44:12Z</time></trkpt><trkpt lat="43.43848414444805" lon="11.246738252173387"><ele>292.0</ele><time>2026-03-29T14:44:13Z</time></trkpt><trkpt lat="43.43847385575827" lon="11.246603855452172"><ele>292.0</ele><time>2026-03-29T14:44:14Z</time></trkpt><trkpt lat="43.43844888679425" lon="11.24648609215883"><ele>292.0</ele><time>2026-03-29T14:44:15Z</time></trkpt><trkpt lat="43.43839770286566" lon="11.246361042999256"><ele>292.0</ele><time>2026-03-29T14:44:16Z</time></trkpt><trkpt lat="43.43832655134916" lon="11.246227802268777"><ele>292.0</ele><time>2026-03-29T14:44:17Z</time></trkpt><trkpt lat="43.43822762620705" lon="11.246085937523839"><ele>291.5</ele><time>2026-03-29T14:44:18Z</time></trkpt><trkpt lat="43.438128408752284" lon="11.245932671018751"><ele>291.0</ele><time>2026-03-29T14:44:19Z</time></trkpt><trkpt lat="43.43803312948583" lon="11.245782531969153"><ele>290.5</ele><time>2026-03-29T14:44:20Z</time></trkpt><trkpt lat="43.437942823715254" lon="11.24564282473895"><ele>290.0</ele><time>2026-03-29T14:44:21Z</time></trkpt><trkpt lat="43.43785763023593" lon="11.245507511455932"><ele>290.0</ele><time>2026-03-29T14:44:22Z</time></trkpt><trkpt lat="43.43777583975325" lon="11.245372253031327"><ele>290.0</ele><time>2026-03-29T14:44:23Z</time></trkpt><trkpt lat="43.43769266053362" lon="11.24524236680663"><ele>290.0</ele><time>2026-03-29T14:44:24Z</time></trkpt><trkpt lat="43.43761469519026" lon="11.245088560780616"><ele>290.0</ele><time>2026-03-29T14:44:25Z</time></trkpt><trkpt lat="43.43752098113795" lon="11.244947499037547"><ele>290.0</ele><time>2026-03-29T14:44:26Z</time></trkpt><trkpt lat="43.43743359177394" lon="11.24481702552476"><ele>290.0</ele><time>2026-03-29T14:44:27Z</time></trkpt><trkpt lat="43.43733952897326" lon="11.244702332676004"><ele>290.0</ele><time>2026-03-29T14:44:28Z</time></trkpt><trkpt lat="43.43725060053884" lon="11.2445656747832"><ele>290.0</ele><time>2026-03-29T14:44:29Z</time></trkpt><trkpt lat="43.43716405351582" lon="11.24443353297942"><ele>288.75</ele><time>2026-03-29T14:44:30Z</time></trkpt><trkpt lat="43.43708750767132" lon="11.244280833785366"><ele>287.5</ele><time>2026-03-29T14:44:31Z</time></trkpt><trkpt lat="43.43698482539887" lon="11.244150270827827"><ele>286.25</ele><time>2026-03-29T14:44:32Z</time></trkpt><trkpt lat="43.43689688378698" lon="11.244010228973664"><ele>285.0</ele><time>2026-03-29T14:44:33Z</time></trkpt><trkpt lat="43.43681302360533" lon="11.243872738364729"><ele>284.75</ele><time>2026-03-29T14:44:34Z</time></trkpt><trkpt lat="43.43672579457167" lon="11.243739749174829"><ele>284.5</ele><time>2026-03-29T14:44:35Z</time></trkpt><trkpt lat="43.43663717914489" lon="11.24361698093896"><ele>284.25</ele><time>2026-03-29T14:44:36Z</time></trkpt><trkpt lat="43.4365425780581" lon="11.243481560124424"><ele>284.0</ele><time>2026-03-29T14:44:37Z</time></trkpt><trkpt lat="43.43645104249538" lon="11.243333991565184"><ele>284.0</ele><time>2026-03-29T14:44:38Z</time></trkpt><trkpt lat="43.43636533402219" lon="11.243182308004473"><ele>284.0</ele><time>2026-03-29T14:44:39Z</time></trkpt><trkpt lat="43.43626443183354" lon="11.243027375736"><ele>284.0</ele><time>2026-03-29T14:44:40Z</time></trkpt><trkpt lat="43.43616266256184" lon="11.24286948310536"><ele>284.0</ele><time>2026-03-29T14:44:41Z</time></trkpt><trkpt lat="43.43607515027181" lon="11.24269433115826"><ele>285.33333333333337</ele><time>2026-03-29T14:44:42Z</time></trkpt><trkpt lat="43.435971900844415" lon="11.242532339335607"><ele>286.6666666666667</ele><time>2026-03-29T14:44:43Z</time></trkpt><trkpt lat="43.43586602902474" lon="11.242367381781275"><ele>288.0</ele><time>2026-03-29T14:44:44Z</time></trkpt><trkpt lat="43.43577152118653" lon="11.242218465815853"><ele>288.75</ele><time>2026-03-29T14:44:45Z</time></trkpt><trkpt lat="43.43567557731537" lon="11.242065051839797"><ele>289.5</ele><time>2026-03-29T14:44:46Z</time></trkpt><trkpt lat="43.435593970504065" lon="11.241928325427633"><ele>290.25</ele><time>2026-03-29T14:44:47Z</time></trkpt><trkpt lat="43.435510889674475" lon="11.241817876735311"><ele>291.0</ele><time>2026-03-29T14:44:48Z</time></trkpt><trkpt lat="43.435462585750344" lon="11.241708220048535"><ele>291.0</ele><time>2026-03-29T14:44:49Z</time></trkpt><trkpt lat="43.435434452687886" lon="11.241604176832933"><ele>291.0</ele><time>2026-03-29T14:44:50Z</time></trkpt><trkpt lat="43.43543478012977" lon="11.241485856387806"><ele>291.0</ele><time>2026-03-29T14:44:51Z</time></trkpt><trkpt lat="43.44062552071765" lon="11.232986450014115"><ele>286.25</ele><time>2026-03-29T14:45:51.999Z</time></trkpt><trkpt lat="43.44073007181911" lon="11.232846110359286"><ele>281.5</ele><time>2026-03-29T14:45:52.999Z</time></trkpt><trkpt lat="43.44084622790304" lon="11.232732702055518"><ele>276.75</ele><time>2026-03-29T14:45:53.999Z</time></trkpt><trkpt lat="43.44095574817541" lon="11.232618154828595"><ele>272.0</ele><time>2026-03-29T14:45:54.999Z</time></trkpt><trkpt lat="43.44105717906135" lon="11.232512350238355"><ele>272.0</ele><time>2026-03-29T14:45:56Z</time></trkpt><trkpt lat="43.44115624054395" lon="11.232411062294116"><ele>272.0</ele><time>2026-03-29T14:45:57Z</time></trkpt><trkpt lat="43.44126825015382" lon="11.232297677296895"><ele>272.0</ele><time>2026-03-29T14:45:58Z</time></trkpt><trkpt lat="43.441374175472916" lon="11.232190395650095"><ele>272.0</ele><time>2026-03-29T14:45:59Z</time></trkpt><trkpt lat="43.4414677010606" lon="11.232093225456701"><ele>272.4</ele><time>2026-03-29T14:46:00Z</time></trkpt><trkpt lat="43.44153848408524" lon="11.232020286033569"><ele>272.79999999999995</ele><time>2026-03-29T14:46:01Z</time></trkpt><trkpt lat="43.4416073614388" lon="11.231972327931249"><ele>273.2</ele><time>2026-03-29T14:46:02Z</time></trkpt><trkpt lat="43.441691376103456" lon="11.231944302836292"><ele>273.59999999999997</ele><time>2026-03-29T14:46:03Z</time></trkpt><trkpt lat="43.441788791268706" lon="11.231905071595667"><ele>274.0</ele><time>2026-03-29T14:46:04Z</time></trkpt><trkpt lat="43.44188076220367" lon="11.231866536620942"><ele>274.0</ele><time>2026-03-29T14:46:05Z</time></trkpt><trkpt lat="43.44196443380156" lon="11.231843531443252"><ele>274.0</ele><time>2026-03-29T14:46:06Z</time></trkpt><trkpt lat="43.44204887382617" lon="11.231833664586752"><ele>274.0</ele><time>2026-03-29T14:46:07Z</time></trkpt><trkpt lat="43.44212307223329" lon="11.231813118463185"><ele>274.0</ele><time>2026-03-29T14:46:08Z</time></trkpt><trkpt lat="43.44219062425356" lon="11.231779201385132"><ele>274.0</ele><time>2026-03-29T14:46:09Z</time></trkpt><trkpt lat="43.44225089463399" lon="11.231738000826814"><ele>274.0</ele><time>2026-03-29T14:46:10Z</time></trkpt><trkpt lat="43.442303735932434" lon="11.23166026104151"><ele>272.0</ele><time>2026-03-29T14:46:11Z</time></trkpt><trkpt lat="43.442345094230646" lon="11.231553393583926"><ele>270.0</ele><time>2026-03-29T14:46:12Z</time></trkpt><trkpt lat="43.44235731316439" lon="11.231430417989595"><ele>268.0</ele><time>2026-03-29T14:46:13Z</time></trkpt><trkpt lat="43.442365002914464" lon="11.231288350781057"><ele>266.0</ele><time>2026-03-29T14:46:14Z</time></trkpt><trkpt lat="43.442391693633205" lon="11.231152310728815"><ele>264.0</ele><time>2026-03-29T14:46:15Z</time></trkpt><trkpt lat="43.44238004997446" lon="11.231008232666806"><ele>262.0</ele><time>2026-03-29T14:46:16Z</time></trkpt><trkpt lat="43.442376109335626" lon="11.23085830792978"><ele>260.0</ele><time>2026-03-29T14:46:17Z</time></trkpt><trkpt lat="43.44237599922611" lon="11.2307102585532"><ele>258.0</ele><time>2026-03-29T14:46:18Z</time></trkpt><trkpt lat="43.44238654974115" lon="11.230554691081517"><ele>256.0</ele><time>2026-03-29T14:46:19Z</time></trkpt><trkpt lat="43.44239197607272" lon="11.23039057595824"><ele>254.0</ele><time>2026-03-29T14:46:20Z</time></trkpt><trkpt lat="43.44239164167679" lon="11.23022164518982"><ele>250.33333333333334</ele><time>2026-03-29T14:46:21Z</time></trkpt><trkpt lat="43.442399782861905" lon="11.230027515610695"><ele>246.66666666666669</ele><time>2026-03-29T14:46:22Z</time></trkpt><trkpt lat="43.4424096174435" lon="11.229803027116553"><ele>243.0</ele><time>2026-03-29T14:46:23Z</time></trkpt><trkpt lat="43.44241225391943" lon="11.22956009038301"><ele>240.33333333333331</ele><time>2026-03-29T14:46:24Z</time></trkpt><trkpt lat="43.44241581241717" lon="11.229348749734784"><ele>237.66666666666666</ele><time>2026-03-29T14:46:25Z</time></trkpt><trkpt lat="43.44241742932592" lon="11.229127877530706"><ele>235.0</ele><time>2026-03-29T14:46:26Z</time></trkpt><trkpt lat="43.442426908299296" lon="11.228916687019245"><ele>234.25</ele><time>2026-03-29T14:46:27Z</time></trkpt><trkpt lat="43.44242898727243" lon="11.228717233399848"><ele>233.5</ele><time>2026-03-29T14:46:28Z</time></trkpt><trkpt lat="43.4424370668911" lon="11.228510721821765"><ele>232.75</ele><time>2026-03-29T14:46:29Z</time></trkpt><trkpt lat="43.44243683955654" lon="11.22830432851802"><ele>232.0</ele><time>2026-03-29T14:46:30Z</time></trkpt><trkpt lat="43.442442198619105" lon="11.228095494267519"><ele>231.33333333333331</ele><time>2026-03-29T14:46:31Z</time></trkpt><trkpt lat="43.44244939866978" lon="11.227886645879568"><ele>230.66666666666669</ele><time>2026-03-29T14:46:32Z</time></trkpt><trkpt lat="43.4424569759094" lon="11.227673460569955"><ele>230.0</ele><time>2026-03-29T14:46:33Z</time></trkpt><trkpt lat="43.44248887861603" lon="11.227463045951854"><ele>229.66666666666669</ele><time>2026-03-29T14:46:34Z</time></trkpt><trkpt lat="43.44252072335915" lon="11.227243892994462"><ele>229.33333333333331</ele><time>2026-03-29T14:46:35Z</time></trkpt><trkpt lat="43.442560528878445" lon="11.227023277479942"><ele>229.0</ele><time>2026-03-29T14:46:36Z</time></trkpt><trkpt lat="43.44259432195756" lon="11.226807118621965"><ele>229.0</ele><time>2026-03-29T14:46:37Z</time></trkpt><trkpt lat="43.442644101423205" lon="11.22657967062436"><ele>229.0</ele><time>2026-03-29T14:46:38Z</time></trkpt><trkpt lat="43.442687668183844" lon="11.22635591366147"><ele>229.0</ele><time>2026-03-29T14:46:39Z</time></trkpt><trkpt lat="43.442730487836016" lon="11.22613057272718"><ele>229.0</ele><time>2026-03-29T14:46:40Z</time></trkpt><trkpt lat="43.442772884042846" lon="11.225921841119263"><ele>229.0</ele><time>2026-03-29T14:46:41Z</time></trkpt><trkpt lat="43.442817754215646" lon="11.225762166314484"><ele>229.0</ele><time>2026-03-29T14:46:42Z</time></trkpt><trkpt lat="43.44286427361443" lon="11.225610695829543"><ele>229.0</ele><time>2026-03-29T14:46:43Z</time></trkpt><trkpt lat="43.44289857422036" lon="11.225456612676386"><ele>228.75</ele><time>2026-03-29T14:46:44Z</time></trkpt><trkpt lat="43.44292059279102" lon="11.225279641036602"><ele>228.5</ele><time>2026-03-29T14:46:45Z</time></trkpt><trkpt lat="43.442954166372104" lon="11.225102177100672"><ele>228.25</ele><time>2026-03-29T14:46:46Z</time></trkpt><trkpt lat="43.44297570148981" lon="11.224943698178151"><ele>228.0</ele><time>2026-03-29T14:46:47Z</time></trkpt><trkpt lat="43.44301252679087" lon="11.224810409073434"><ele>228.5</ele><time>2026-03-29T14:46:48Z</time></trkpt><trkpt lat="43.44305696332147" lon="11.224675408054043"><ele>229.0</ele><time>2026-03-29T14:46:49Z</time></trkpt><trkpt lat="43.4430843955782" lon="11.22451501517203"><ele>229.5</ele><time>2026-03-29T14:46:50Z</time></trkpt><trkpt lat="43.44310876421067" lon="11.224336069605853"><ele>230.0</ele><time>2026-03-29T14:46:51Z</time></trkpt><trkpt lat="43.44436034242058" lon="11.212899305734398"><ele>228.75</ele><time>2026-03-29T14:47:51.999Z</time></trkpt><trkpt lat="43.44434551550435" lon="11.212757881213129"><ele>227.5</ele><time>2026-03-29T14:47:52.999Z</time></trkpt><trkpt lat="43.44432274250533" lon="11.212600871123136"><ele>226.25</ele><time>2026-03-29T14:47:53.999Z</time></trkpt><trkpt lat="43.444305120464115" lon="11.212435972236568"><ele>225.0</ele><time>2026-03-29T14:47:54.999Z</time></trkpt><trkpt lat="43.44430077911449" lon="11.21227178857673"><ele>223.25</ele><time>2026-03-29T14:47:55.999Z</time></trkpt><trkpt lat="43.44429927921931" lon="11.21210698979766"><ele>221.5</ele><time>2026-03-29T14:47:56.999Z</time></trkpt><trkpt lat="43.444335170364575" lon="11.211951588051388"><ele>219.75</ele><time>2026-03-29T14:47:57.999Z</time></trkpt><trkpt lat="43.44437580694702" lon="11.21179347915336"><ele>218.0</ele><time>2026-03-29T14:47:58.999Z</time></trkpt><trkpt lat="43.44442395963421" lon="11.211612696013999"><ele>217.75</ele><time>2026-03-29T14:47:59.999Z</time></trkpt><trkpt lat="43.44449110075559" lon="11.211443564387798"><ele>217.5</ele><time>2026-03-29T14:48:00.999Z</time></trkpt><trkpt lat="43.444546619072206" lon="11.211284904934152"><ele>217.25</ele><time>2026-03-29T14:48:02Z</time></trkpt><trkpt lat="43.44459234002589" lon="11.21112940904027"><ele>217.0</ele><time>2026-03-29T14:48:03Z</time></trkpt><trkpt lat="43.4446355135246" lon="11.210939319939778"><ele>216.66666666666666</ele><time>2026-03-29T14:48:04Z</time></trkpt><trkpt lat="43.44467998980122" lon="11.21071813258122"><ele>216.33333333333331</ele><time>2026-03-29T14:48:05Z</time></trkpt><trkpt lat="43.444732136393114" lon="11.210492561015682"><ele>216.0</ele><time>2026-03-29T14:48:06Z</time></trkpt><trkpt lat="43.44478306031572" lon="11.210267734129918"><ele>217.0</ele><time>2026-03-29T14:48:07Z</time></trkpt><trkpt lat="43.44483597077844" lon="11.21003760071836"><ele>218.0</ele><time>2026-03-29T14:48:08Z</time></trkpt><trkpt lat="43.44489154173893" lon="11.209799425039654"><ele>219.0</ele><time>2026-03-29T14:48:09Z</time></trkpt><trkpt lat="43.44495136993766" lon="11.209549846341737"><ele>220.33333333333331</ele><time>2026-03-29T14:48:10Z</time></trkpt><trkpt lat="43.44500267809331" lon="11.209311528533243"><ele>221.66666666666666</ele><time>2026-03-29T14:48:11Z</time></trkpt><trkpt lat="43.445045012345574" lon="11.209108864554015"><ele>223.0</ele><time>2026-03-29T14:48:12Z</time></trkpt><trkpt lat="43.44508290905147" lon="11.208908470109396"><ele>223.5</ele><time>2026-03-29T14:48:13Z</time></trkpt><trkpt lat="43.44512259389331" lon="11.208702491847626"><ele>224.0</ele><time>2026-03-29T14:48:14Z</time></trkpt><trkpt lat="43.445159880720446" lon="11.208522396059164"><ele>224.5</ele><time>2026-03-29T14:48:15Z</time></trkpt><trkpt lat="43.44518632404908" lon="11.208374112893896"><ele>225.0</ele><time>2026-03-29T14:48:16Z</time></trkpt><trkpt lat="43.44520482990549" lon="11.208229261798499"><ele>225.75</ele><time>2026-03-29T14:48:17Z</time></trkpt><trkpt lat="43.44523714338802" lon="11.208073808608695"><ele>226.5</ele><time>2026-03-29T14:48:18Z</time></trkpt><trkpt lat="43.44523499190358" lon="11.207907478951121"><ele>227.25</ele><time>2026-03-29T14:48:19Z</time></trkpt><trkpt lat="43.44525565083133" lon="11.207744212100618"><ele>228.0</ele><time>2026-03-29T14:48:20Z</time></trkpt><trkpt lat="43.44524695928463" lon="11.207581795476194"><ele>228.0</ele><time>2026-03-29T14:48:21Z</time></trkpt><trkpt lat="43.44521390178509" lon="11.20741891981608"><ele>228.0</ele><time>2026-03-29T14:48:22Z</time></trkpt><trkpt lat="43.44515442662622" lon="11.207241029342889"><ele>228.0</ele><time>2026-03-29T14:48:23Z</time></trkpt><trkpt lat="43.44508700408103" lon="11.207057163274115"><ele>228.0</ele><time>2026-03-29T14:48:24Z</time></trkpt><trkpt lat="43.44501297780802" lon="11.206874041457077"><ele>228.25</ele><time>2026-03-29T14:48:25Z</time></trkpt><trkpt lat="43.44493030411746" lon="11.206717866180211"><ele>228.5</ele><time>2026-03-29T14:48:26Z</time></trkpt><trkpt lat="43.44488078811218" lon="11.206552727632696"><ele>228.75</ele><time>2026-03-29T14:48:27Z</time></trkpt><trkpt lat="43.44481911984092" lon="11.206392421078222"><ele>229.0</ele><time>2026-03-29T14:48:28Z</time></trkpt><trkpt lat="43.44476311341137" lon="11.206222093353647"><ele>228.25</ele><time>2026-03-29T14:48:29Z</time></trkpt><trkpt lat="43.44471949201439" lon="11.206059323497927"><ele>227.5</ele><time>2026-03-29T14:48:30Z</time></trkpt><trkpt lat="43.44468700583017" lon="11.205902554112521"><ele>226.75</ele><time>2026-03-29T14:48:31Z</time></trkpt><trkpt lat="43.44465861143191" lon="11.205718007683936"><ele>226.0</ele><time>2026-03-29T14:48:32Z</time></trkpt><trkpt lat="43.444665298473005" lon="11.205484846716024"><ele>225.0</ele><time>2026-03-29T14:48:33Z</time></trkpt><trkpt lat="43.44468558625631" lon="11.205233262474552"><ele>224.0</ele><time>2026-03-29T14:48:34Z</time></trkpt><trkpt lat="43.44470762512124" lon="11.20500937182173"><ele>223.0</ele><time>2026-03-29T14:48:35Z</time></trkpt><trkpt lat="43.44472304584917" lon="11.204807797280145"><ele>222.75</ele><time>2026-03-29T14:48:36Z</time></trkpt><trkpt lat="43.44474213310635" lon="11.204628158466857"><ele>222.5</ele><time>2026-03-29T14:48:37Z</time></trkpt><trkpt lat="43.44475722809665" lon="11.204453896791453"><ele>222.25</ele><time>2026-03-29T14:48:38Z</time></trkpt><trkpt lat="43.444752853595816" lon="11.204284794421659"><ele>222.0</ele><time>2026-03-29T14:48:39Z</time></trkpt><trkpt lat="43.44472345068898" lon="11.204099301426552"><ele>222.66666666666669</ele><time>2026-03-29T14:48:40Z</time></trkpt><trkpt lat="43.44467825341845" lon="11.203877500677997"><ele>223.33333333333334</ele><time>2026-03-29T14:48:41Z</time></trkpt><trkpt lat="43.444621802057995" lon="11.20366927945584"><ele>224.0</ele><time>2026-03-29T14:48:42Z</time></trkpt><trkpt lat="43.44457912463482" lon="11.203490117707535"><ele>224.0</ele><time>2026-03-29T14:48:43Z</time></trkpt><trkpt lat="43.44454130936038" lon="11.203340960895675"><ele>223.99999999999997</ele><time>2026-03-29T14:48:44Z</time></trkpt><trkpt lat="43.44452508937353" lon="11.203199722748145"><ele>223.99999999999997</ele><time>2026-03-29T14:48:45Z</time></trkpt><trkpt lat="43.44452118857223" lon="11.203052703632384"><ele>224.0</ele><time>2026-03-29T14:48:46Z</time></trkpt><trkpt lat="43.44455325419013" lon="11.202913594329269"><ele>224.0</ele><time>2026-03-29T14:48:47Z</time></trkpt><trkpt lat="43.44460352587925" lon="11.20278080528222"><ele>224.25</ele><time>2026-03-29T14:48:48Z</time></trkpt><trkpt lat="43.444664817543256" lon="11.202645419572727"><ele>224.5</ele><time>2026-03-29T14:48:49Z</time></trkpt><trkpt lat="43.4447397575912" lon="11.20250591979783"><ele>224.75</ele><time>2026-03-29T14:48:50Z</time></trkpt><trkpt lat="43.44479393713572" lon="11.20234749399128"><ele>225.0</ele><time>2026-03-29T14:48:51Z</time></trkpt><trkpt lat="43.444876999398275" lon="11.19240796103992"><ele>214.75</ele><time>2026-03-29T14:49:52Z</time></trkpt><trkpt lat="43.44490361200198" lon="11.192233469733702"><ele>204.5</ele><time>2026-03-29T14:49:53Z</time></trkpt><trkpt lat="43.44492547498986" lon="11.19204398094713"><ele>194.25</ele><time>2026-03-29T14:49:54Z</time></trkpt><trkpt lat="43.4449511422869" lon="11.191857329623312"><ele>184.0</ele><time>2026-03-29T14:49:55Z</time></trkpt><trkpt lat="43.44497989318273" lon="11.191662384499487"><ele>184.0</ele><time>2026-03-29T14:49:56Z</time></trkpt><trkpt lat="43.445010814624595" lon="11.191463392597614"><ele>184.0</ele><time>2026-03-29T14:49:57Z</time></trkpt><trkpt lat="43.44504420803258" lon="11.191255913451002"><ele>184.0</ele><time>2026-03-29T14:49:58Z</time></trkpt><trkpt lat="43.44506551309565" lon="11.191035878676825"><ele>184.0</ele><time>2026-03-29T14:49:58.999Z</time></trkpt><trkpt lat="43.4451080106477" lon="11.190805725290296"><ele>184.0</ele><time>2026-03-29T14:49:59.999Z</time></trkpt><trkpt lat="43.44515413554116" lon="11.190563148562777"><ele>184.0</ele><time>2026-03-29T14:50:00.999Z</time></trkpt><trkpt lat="43.445200389355826" lon="11.19034130083494"><ele>182.33333333333334</ele><time>2026-03-29T14:50:01.999Z</time></trkpt><trkpt lat="43.445269846695936" lon="11.190124363057997"><ele>180.66666666666666</ele><time>2026-03-29T14:50:02.999Z</time></trkpt><trkpt lat="43.44532398844705" lon="11.189916306823926"><ele>179.0</ele><time>2026-03-29T14:50:03.999Z</time></trkpt><trkpt lat="43.44537748073422" lon="11.189725708275159"><ele>177.5</ele><time>2026-03-29T14:50:04.999Z</time></trkpt><trkpt lat="43.44542892106077" lon="11.189545895642507"><ele>176.0</ele><time>2026-03-29T14:50:05.999Z</time></trkpt><trkpt lat="43.4454706321022" lon="11.189384044656043"><ele>174.5</ele><time>2026-03-29T14:50:06.999Z</time></trkpt><trkpt lat="43.44550431323349" lon="11.189225491302627"><ele>173.0</ele><time>2026-03-29T14:50:08Z</time></trkpt><trkpt lat="43.44553141595727" lon="11.189053423677965"><ele>171.75</ele><time>2026-03-29T14:50:09Z</time></trkpt><trkpt lat="43.44555426532004" lon="11.188884203758992"><ele>170.5</ele><time>2026-03-29T14:50:10Z</time></trkpt><trkpt lat="43.445578498714035" lon="11.188691187193395"><ele>169.25</ele><time>2026-03-29T14:50:11Z</time></trkpt><trkpt lat="43.44560808835835" lon="11.18848355439753"><ele>168.0</ele><time>2026-03-29T14:50:12Z</time></trkpt><trkpt lat="43.44563228808556" lon="11.188285843921562"><ele>166.66666666666666</ele><time>2026-03-29T14:50:13Z</time></trkpt><trkpt lat="43.445677339811844" lon="11.188078194532821"><ele>165.33333333333331</ele><time>2026-03-29T14:50:14Z</time></trkpt><trkpt lat="43.445697384509984" lon="11.187868682382588"><ele>164.0</ele><time>2026-03-29T14:50:15Z</time></trkpt><trkpt lat="43.4456962744033" lon="11.187651152145536"><ele>164.0</ele><time>2026-03-29T14:50:16Z</time></trkpt><trkpt lat="43.44568168048546" lon="11.187447271629805"><ele>164.0</ele><time>2026-03-29T14:50:17Z</time></trkpt><trkpt lat="43.44570909240107" lon="11.187246475538014"><ele>164.0</ele><time>2026-03-29T14:50:18Z</time></trkpt><trkpt lat="43.44573025836008" lon="11.187042424596665"><ele>164.0</ele><time>2026-03-29T14:50:19Z</time></trkpt><trkpt lat="43.44575534324731" lon="11.186836019353978"><ele>163.5</ele><time>2026-03-29T14:50:20Z</time></trkpt><trkpt lat="43.44577119163632" lon="11.186631529797726"><ele>163.0</ele><time>2026-03-29T14:50:21Z</time></trkpt><trkpt lat="43.44579420131698" lon="11.18644531388485"><ele>162.5</ele><time>2026-03-29T14:50:22Z</time></trkpt><trkpt lat="43.44582449227397" lon="11.18626253003138"><ele>162.0</ele><time>2026-03-29T14:50:23Z</time></trkpt><trkpt lat="43.445845998536925" lon="11.186077472477956"><ele>160.25</ele><time>2026-03-29T14:50:24Z</time></trkpt><trkpt lat="43.44586695172635" lon="11.185897174157663"><ele>158.5</ele><time>2026-03-29T14:50:25Z</time></trkpt><trkpt lat="43.44588873721407" lon="11.185709713943472"><ele>156.75</ele><time>2026-03-29T14:50:26Z</time></trkpt><trkpt lat="43.44591398472169" lon="11.18551304899573"><ele>155.0</ele><time>2026-03-29T14:50:27Z</time></trkpt><trkpt lat="43.44593943733646" lon="11.185318405139848"><ele>152.75</ele><time>2026-03-29T14:50:28Z</time></trkpt><trkpt lat="43.44596521376431" lon="11.185126831337056"><ele>150.5</ele><time>2026-03-29T14:50:29Z</time></trkpt><trkpt lat="43.445992920748466" lon="11.184930458016092"><ele>148.25</ele><time>2026-03-29T14:50:30Z</time></trkpt><trkpt lat="43.446020251072476" lon="11.184737124159678"><ele>146.0</ele><time>2026-03-29T14:50:31Z</time></trkpt><trkpt lat="43.44604775144275" lon="11.184542587362305"><ele>144.0</ele><time>2026-03-29T14:50:32Z</time></trkpt><trkpt lat="43.446075301004264" lon="11.18434770246851"><ele>142.0</ele><time>2026-03-29T14:50:33Z</time></trkpt><trkpt lat="43.44610137823902" lon="11.184163232819161"><ele>140.0</ele><time>2026-03-29T14:50:34Z</time></trkpt><trkpt lat="43.44612670718461" lon="11.183985126536799"><ele>138.0</ele><time>2026-03-29T14:50:35Z</time></trkpt><trkpt lat="43.446150868572346" lon="11.18381744461738"><ele>136.75</ele><time>2026-03-29T14:50:36Z</time></trkpt><trkpt lat="43.44616323465172" lon="11.183649657010541"><ele>135.5</ele><time>2026-03-29T14:50:37Z</time></trkpt><trkpt lat="43.44620151680196" lon="11.183496201049074"><ele>134.25</ele><time>2026-03-29T14:50:38Z</time></trkpt><trkpt lat="43.44622905619314" lon="11.183347936162214"><ele>133.0</ele><time>2026-03-29T14:50:39Z</time></trkpt><trkpt lat="43.44625946352995" lon="11.183198043773459"><ele>132.75</ele><time>2026-03-29T14:50:40Z</time></trkpt><trkpt lat="43.44629417129474" lon="11.183038844519391"><ele>132.5</ele><time>2026-03-29T14:50:41Z</time></trkpt><trkpt lat="43.44633043271423" lon="11.182882796657891"><ele>132.25</ele><time>2026-03-29T14:50:42Z</time></trkpt><trkpt lat="43.44636800629884" lon="11.182727290853194"><ele>132.0</ele><time>2026-03-29T14:50:43Z</time></trkpt><trkpt lat="43.44640228020029" lon="11.182590194599461"><ele>132.5</ele><time>2026-03-29T14:50:44Z</time></trkpt><trkpt lat="43.44643886945164" lon="11.18245860010167"><ele>133.0</ele><time>2026-03-29T14:50:45Z</time></trkpt><trkpt lat="43.446484444938456" lon="11.18232834642166"><ele>133.5</ele><time>2026-03-29T14:50:46Z</time></trkpt><trkpt lat="43.44659481633631" lon="11.182214836546493"><ele>134.0</ele><time>2026-03-29T14:50:47Z</time></trkpt><trkpt lat="43.446724533439166" lon="11.182077400294464"><ele>132.0</ele><time>2026-03-29T14:50:48Z</time></trkpt><trkpt lat="43.44685772758862" lon="11.181914444418489"><ele>130.0</ele><time>2026-03-29T14:50:49Z</time></trkpt><trkpt lat="43.44700509915397" lon="11.181763739655317"><ele>128.0</ele><time>2026-03-29T14:50:50Z</time></trkpt><trkpt lat="43.44714405618231" lon="11.181609705211748"><ele>126.0</ele><time>2026-03-29T14:50:51Z</time></trkpt><trkpt lat="43.45095173365849" lon="11.178588683687256"><ele>126.0</ele><time>2026-03-29T14:51:53Z</time></trkpt><trkpt lat="43.45102047476078" lon="11.178529424953876"><ele>126.0</ele><time>2026-03-29T14:59:05Z</time></trkpt><trkpt lat="43.45106717862306" lon="11.1784675886749"><ele>126.0</ele><time>2026-03-29T14:59:06Z</time></trkpt><trkpt lat="43.45112667815486" lon="11.178395027666681"><ele>126.0</ele><time>2026-03-29T14:59:07Z</time></trkpt><trkpt lat="43.45119991661218" lon="11.178331962172125"><ele>126.0</ele><time>2026-03-29T14:59:08Z</time></trkpt><trkpt lat="43.45128325774262" lon="11.178273120999101"><ele>126.0</ele><time>2026-03-29T14:59:09Z</time></trkpt><trkpt lat="43.45137139754415" lon="11.178215844555769"><ele>126.19999999999999</ele><time>2026-03-29T14:59:10Z</time></trkpt><trkpt lat="43.451465032002304" lon="11.17817117082273"><ele>126.39999999999999</ele><time>2026-03-29T14:59:11Z</time></trkpt><trkpt lat="43.45156714670478" lon="11.178148473829584"><ele>126.6</ele><time>2026-03-29T14:59:12Z</time></trkpt><trkpt lat="43.45167336859596" lon="11.178162673938102"><ele>126.8</ele><time>2026-03-29T14:59:13Z</time></trkpt><trkpt lat="43.45178451010569" lon="11.178201968438021"><ele>127.0</ele><time>2026-03-29T14:59:14Z</time></trkpt><trkpt lat="43.451897621933256" lon="11.178286858502315"><ele>127.0</ele><time>2026-03-29T14:59:15Z</time></trkpt><trkpt lat="43.45199698189052" lon="11.178396763349804"><ele>127.0</ele><time>2026-03-29T14:59:16Z</time></trkpt><trkpt lat="43.45209225998453" lon="11.178515922946618"><ele>127.0</ele><time>2026-03-29T14:59:17Z</time></trkpt><trkpt lat="43.45218691258385" lon="11.178624820702995"><ele>127.0</ele><time>2026-03-29T14:59:18Z</time></trkpt><trkpt lat="43.45229150473542" lon="11.17868702968453"><ele>127.0</ele><time>2026-03-29T14:59:19Z</time></trkpt><trkpt lat="43.45239866740228" lon="11.178726665923177"><ele>127.0</ele><time>2026-03-29T14:59:20Z</time></trkpt><trkpt lat="43.45252838599143" lon="11.178691691413054"><ele>127.0</ele><time>2026-03-29T14:59:21Z</time></trkpt><trkpt lat="43.452638020388164" lon="11.178572721351594"><ele>127.0</ele><time>2026-03-29T14:59:22Z</time></trkpt><trkpt lat="43.45275740562995" lon="11.1784583218513"><ele>127.0</ele><time>2026-03-29T14:59:23Z</time></trkpt><trkpt lat="43.45285745614026" lon="11.178308620337416"><ele>127.0</ele><time>2026-03-29T14:59:24Z</time></trkpt><trkpt lat="43.45296218630034" lon="11.178186475855615"><ele>127.0</ele><time>2026-03-29T14:59:25Z</time></trkpt><trkpt lat="43.45308155578632" lon="11.178080916518793"><ele>127.0</ele><time>2026-03-29T14:59:26Z</time></trkpt><trkpt lat="43.45317788141542" lon="11.17794870283875"><ele>128.25</ele><time>2026-03-29T14:59:27Z</time></trkpt><trkpt lat="43.45328154991413" lon="11.177828430381577"><ele>129.5</ele><time>2026-03-29T14:59:28Z</time></trkpt><trkpt lat="43.45338065298774" lon="11.17771994207372"><ele>130.75</ele><time>2026-03-29T14:59:29Z</time></trkpt><trkpt lat="43.45347458485807" lon="11.1776239987331"><ele>132.0</ele><time>2026-03-29T14:59:30Z</time></trkpt><trkpt lat="43.45358335698126" lon="11.177545496341786"><ele>132.0</ele><time>2026-03-29T14:59:31Z</time></trkpt><trkpt lat="43.453698571394504" lon="11.177445574523704"><ele>132.0</ele><time>2026-03-29T14:59:32Z</time></trkpt><trkpt lat="43.45381779110619" lon="11.177346845852032"><ele>132.0</ele><time>2026-03-29T14:59:33Z</time></trkpt><trkpt lat="43.45392258090164" lon="11.17726293417084"><ele>132.0</ele><time>2026-03-29T14:59:34Z</time></trkpt><trkpt lat="43.45402619851562" lon="11.1771869548712"><ele>133.79999999999998</ele><time>2026-03-29T14:59:35Z</time></trkpt><trkpt lat="43.454132920551054" lon="11.177121467556962"><ele>135.6</ele><time>2026-03-29T14:59:36Z</time></trkpt><trkpt lat="43.45423552014854" lon="11.177044459029931"><ele>137.39999999999998</ele><time>2026-03-29T14:59:37Z</time></trkpt><trkpt lat="43.45434162261075" lon="11.176997132488205"><ele>139.2</ele><time>2026-03-29T14:59:38Z</time></trkpt><trkpt lat="43.45442973028332" lon="11.176951606243955"><ele>141.0</ele><time>2026-03-29T14:59:39Z</time></trkpt><trkpt lat="43.45451320471613" lon="11.176928416668707"><ele>141.0</ele><time>2026-03-29T14:59:40Z</time></trkpt><trkpt lat="43.45458616845093" lon="11.176880719644398"><ele>141.0</ele><time>2026-03-29T14:59:41Z</time></trkpt><trkpt lat="43.4546560627365" lon="11.176806718922494"><ele>141.0</ele><time>2026-03-29T14:59:42Z</time></trkpt><trkpt lat="43.45471149108594" lon="11.17675593175991"><ele>141.0</ele><time>2026-03-29T14:59:43Z</time></trkpt><trkpt lat="43.454764171255974" lon="11.176677398920878"><ele>141.0</ele><time>2026-03-29T14:59:45Z</time></trkpt><trkpt lat="43.45476106145843" lon="11.176515629571309"><ele>141.0</ele><time>2026-03-29T14:59:47Z</time></trkpt><trkpt lat="43.45475636678064" lon="11.17641372579114"><ele>140.0</ele><time>2026-03-29T14:59:48Z</time></trkpt><trkpt lat="43.45474862432306" lon="11.176240771384073"><ele>140.0</ele><time>2026-03-29T14:59:50Z</time></trkpt><trkpt lat="43.45474421065153" lon="11.176142177224186"><ele>140.0</ele><time>2026-03-29T14:59:51Z</time></trkpt></trkseg></trk></gpx>